GFSWCAN_prec_precacc_015.txt.gz
Total_Precipitation_Accumulation
0.01 0.03 0.04 0.04 0.04 0.03 0.03 0.02 0.02 0.02 0.01 0.01 0.01 0.01 0.02 0.06 0.11 0.17 0.27 0.36 0.42 0.13 0.02 0.00 0.00 0.00 0.00 0.00 0.00 0.01 0.05 0.10 0.15 0.14 0.16 0.06 0.02 0.00 0.00 0.00 0.00 0.00 0.00 0.00 0.00 0.00 0.00 0.00 0.00 0.00 0.00 0.00 0.00 0.01
0.02 0.03 0.03 0.03 0.04 0.03 0.03 0.02 0.02 0.02 0.01 0.01 0.01 0.01 0.01 0.01 0.08 0.19 0.23 0.25 0.24 0.13 0.01 0.00 0.00 0.00 0.00 0.00 0.01 0.01 0.05 0.11 0.19 0.16 0.12 0.06 0.02 0.00 0.00 0.00 0.00 0.00 0.00 0.00 0.00 0.00 0.00 0.00 0.00 0.00 0.00 0.00 0.00 0.00
0.02 0.02 0.02 0.03 0.03 0.03 0.02 0.02 0.01 0.01 0.01 0.01 0.01 0.00 0.00 0.00 0.03 0.11 0.16 0.19 0.20 0.12 0.02 0.00 0.00 0.00 0.00 0.00 0.00 0.01 0.03 0.13 0.19 0.19 0.29 0.09 0.02 0.02 0.00 0.00 0.00 0.00 0.00 0.00 0.00 0.00 0.00 0.00 0.00 0.00 0.00 0.00 0.00 0.01
0.02 0.02 0.02 0.02 0.02 0.02 0.02 0.02 0.02 0.03 0.02 0.01 0.01 0.00 0.00 0.00 0.02 0.03 0.05 0.08 0.12 0.09 0.01 0.00 0.00 0.00 0.00 0.00 0.00 0.00 0.03 0.12 0.18 0.31 0.22 0.13 0.03 0.01 0.00 0.00 0.00 0.00 0.00 0.00 0.00 0.00 0.00 0.00 0.00 0.00 0.00 0.00 0.00 0.00
0.02 0.02 0.02 0.02 0.02 0.01 0.02 0.02 0.02 0.02 0.01 0.01 0.01 0.00 0.01 0.01 0.01 0.01 0.01 0.05 0.08 0.10 0.05 0.02 0.00 0.00 0.00 0.00 0.00 0.01 0.06 0.16 0.25 0.32 0.23 0.05 0.02 0.01 0.00 0.00 0.00 0.00 0.00 0.00 0.00 0.00 0.00 0.00 0.00 0.00 0.00 0.00 0.00 0.00
0.02 0.02 0.02 0.01 0.01 0.01 0.01 0.02 0.01 0.01 0.01 0.00 0.01 0.01 0.01 0.01 0.02 0.04 0.16 0.32 0.22 0.18 0.11 0.04 0.01 0.00 0.00 0.00 0.00 0.05 0.12 0.21 0.34 0.29 0.16 0.08 0.02 0.01 0.02 0.00 0.00 0.00 0.00 0.00 0.00 0.00 0.00 0.00 0.00 0.00 0.00 0.00 0.00 0.00
0.01 0.02 0.01 0.01 0.01 0.01 0.01 0.02 0.01 0.01 0.00 0.00 0.00 0.01 0.01 0.01 0.04 0.07 0.21 0.37 0.23 0.21 0.18 0.03 0.00 0.00 0.00 0.00 0.00 0.03 0.08 0.18 0.25 0.29 0.23 0.08 0.08 0.17 0.07 0.00 0.00 0.00 0.00 0.00 0.00 0.00 0.00 0.00 0.00 0.00 0.00 0.00 0.00 0.00
0.01 0.01 0.01 0.02 0.02 0.01 0.01 0.01 0.01 0.00 0.00 0.00 0.01 0.00 0.00 0.03 0.02 0.04 0.03 0.07 0.19 0.26 0.11 0.03 0.00 0.00 0.00 0.01 0.01 0.01 0.05 0.09 0.17 0.21 0.19 0.16 0.07 0.06 0.03 0.00 0.00 0.00 0.00 0.00 0.00 0.00 0.00 0.00 0.00 0.00 0.00 0.00 0.00 0.00
0.01 0.01 0.01 0.02 0.01 0.01 0.00 0.01 0.01 0.00 0.00 0.00 0.00 0.01 0.06 0.04 0.03 0.07 0.12 0.19 0.22 0.27 0.07 0.01 0.00 0.00 0.00 0.02 0.00 0.02 0.09 0.15 0.14 0.10 0.07 0.06 0.05 0.02 0.00 0.00 0.00 0.00 0.00 0.00 0.00 0.00 0.00 0.00 0.00 0.00 0.00 0.00 0.00 0.00
0.01 0.01 0.01 0.01 0.01 0.01 0.01 0.01 0.00 0.00 0.00 0.00 0.01 0.03 0.09 0.02 0.04 0.40 0.54 0.59 0.46 0.26 0.10 0.01 0.00 0.00 0.00 0.00 0.01 0.01 0.01 0.11 0.06 0.03 0.02 0.02 0.00 0.00 0.00 0.00 0.00 0.00 0.00 0.00 0.00 0.00 0.00 0.00 0.00 0.00 0.00 0.00 0.00 0.00
0.01 0.01 0.01 0.01 0.01 0.01 0.01 0.00 0.00 0.01 0.00 0.00 0.02 0.05 0.04 0.04 0.55 0.98 1.02 0.69 0.33 0.14 0.03 0.00 0.00 0.00 0.00 0.00 0.00 0.00 0.01 0.00 0.00 0.00 0.00 0.00 0.00 0.00 0.00 0.00 0.00 0.00 0.00 0.00 0.00 0.00 0.00 0.00 0.00 0.00 0.00 0.00 0.00 0.00
0.01 0.01 0.01 0.01 0.01 0.01 0.00 0.00 0.01 0.01 0.02 0.03 0.05 0.06 0.11 0.39 0.94 0.79 0.81 0.44 0.09 0.01 0.01 0.00 0.00 0.00 0.00 0.00 0.00 0.00 0.00 0.00 0.00 0.00 0.00 0.00 0.00 0.00 0.00 0.00 0.00 0.00 0.00 0.00 0.00 0.00 0.00 0.00 0.00 0.00 0.00 0.00 0.00 0.00
0.01 0.00 0.00 0.01 0.01 0.00 0.00 0.00 0.00 0.01 0.02 0.01 0.03 0.15 0.28 0.54 0.66 0.46 0.38 0.18 0.02 0.00 0.00 0.00 0.00 0.00 0.00 0.00 0.00 0.00 0.00 0.00 0.00 0.00 0.00 0.00 0.00 0.00 0.00 0.00 0.00 0.00 0.00 0.00 0.00 0.00 0.00 0.00 0.00 0.00 0.00 0.00 0.00 0.00
0.01 0.00 0.00 0.01 0.01 0.00 0.00 0.00 0.00 0.01 0.02 0.01 0.07 0.15 0.25 0.31 0.32 0.24 0.13 0.10 0.02 0.01 0.01 0.01 0.01 0.00 0.00 0.00 0.00 0.00 0.00 0.00 0.00 0.00 0.00 0.00 0.00 0.00 0.00 0.00 0.00 0.00 0.00 0.00 0.00 0.00 0.00 0.00 0.00 0.00 0.00 0.00 0.00 0.00
0.01 0.00 0.00 0.00 0.00 0.00 0.00 0.00 0.00 0.01 0.01 0.02 0.09 0.13 0.15 0.22 0.09 0.04 0.03 0.05 0.01 0.01 0.02 0.00 0.00 0.00 0.00 0.00 0.00 0.00 0.00 0.00 0.00 0.00 0.00 0.00 0.00 0.00 0.00 0.00 0.00 0.00 0.00 0.00 0.00 0.00 0.00 0.00 0.00 0.00 0.00 0.00 0.00 0.00
0.01 0.00 0.00 0.00 0.00 0.00 0.00 0.00 0.00 0.01 0.01 0.02 0.07 0.14 0.10 0.06 0.04 0.01 0.01 0.01 0.01 0.01 0.01 0.01 0.02 0.01 0.00 0.00 0.00 0.00 0.00 0.00 0.00 0.00 0.00 0.00 0.00 0.00 0.00 0.00 0.00 0.00 0.00 0.00 0.00 0.00 0.00 0.00 0.00 0.00 0.00 0.00 0.00 0.00
0.02 0.00 0.00 0.00 0.00 0.00 0.00 0.00 0.00 0.01 0.01 0.02 0.02 0.08 0.09 0.05 0.06 0.04 0.02 0.00 0.01 0.03 0.06 0.10 0.06 0.02 0.00 0.00 0.00 0.00 0.00 0.00 0.00 0.00 0.00 0.00 0.00 0.00 0.00 0.00 0.00 0.00 0.00 0.00 0.00 0.00 0.00 0.00 0.00 0.00 0.00 0.00 0.00 0.00
0.01 0.00 0.00 0.00 0.00 0.00 0.00 0.00 0.00 0.00 0.01 0.01 0.00 0.01 0.01 0.03 0.03 0.04 0.03 0.02 0.01 0.07 0.16 0.26 0.15 0.06 0.01 0.00 0.00 0.00 0.00 0.00 0.00 0.00 0.00 0.00 0.00 0.00 0.00 0.00 0.00 0.00 0.00 0.00 0.00 0.00 0.00 0.00 0.00 0.00 0.00 0.00 0.00 0.00
0.01 0.01 0.00 0.00 0.00 0.00 0.00 0.00 0.00 0.00 0.00 0.00 0.00 0.00 0.00 0.00 0.03 0.04 0.03 0.03 0.05 0.11 0.17 0.22 0.17 0.05 0.00 0.00 0.00 0.00 0.00 0.00 0.00 0.00 0.00 0.00 0.00 0.00 0.00 0.00 0.00 0.00 0.00 0.00 0.00 0.00 0.00 0.00 0.00 0.00 0.00 0.00 0.00 0.00
0.03 0.04 0.01 0.00 0.00 0.00 0.00 0.00 0.00 0.00 0.00 0.00 0.00 0.00 0.00 0.00 0.00 0.03 0.06 0.04 0.06 0.25 0.31 0.17 0.06 0.03 0.03 0.03 0.03 0.01 0.00 0.00 0.00 0.00 0.00 0.00 0.00 0.00 0.00 0.00 0.00 0.00 0.00 0.00 0.00 0.00 0.00 0.00 0.00 0.00 0.00 0.00 0.00 0.00
0.06 0.03 0.00 0.00 0.00 0.00 0.00 0.00 0.00 0.00 0.00 0.00 0.00 0.00 0.00 0.00 0.00 0.01 0.07 0.14 0.20 0.31 0.27 0.13 0.05 0.03 0.04 0.06 0.05 0.03 0.00 0.00 0.00 0.00 0.00 0.00 0.00 0.00 0.00 0.00 0.00 0.00 0.00 0.00 0.00 0.00 0.00 0.00 0.00 0.00 0.00 0.00 0.00 0.00
0.04 0.01 0.00 0.00 0.00 0.00 0.00 0.00 0.00 0.00 0.00 0.00 0.00 0.00 0.00 0.00 0.00 0.03 0.06 0.18 0.28 0.16 0.12 0.12 0.13 0.11 0.08 0.07 0.07 0.07 0.05 0.02 0.00 0.00 0.00 0.00 0.00 0.00 0.00 0.00 0.00 0.00 0.00 0.00 0.00 0.00 0.00 0.00 0.00 0.00 0.00 0.00 0.00 0.00
0.01 0.00 0.00 0.00 0.00 0.00 0.00 0.00 0.00 0.00 0.00 0.00 0.00 0.00 0.00 0.00 0.01 0.02 0.08 0.11 0.12 0.10 0.08 0.08 0.12 0.16 0.17 0.14 0.14 0.12 0.11 0.08 0.04 0.02 0.01 0.00 0.00 0.00 0.00 0.00 0.00 0.00 0.00 0.00 0.00 0.00 0.00 0.00 0.00 0.00 0.00 0.00 0.00 0.00
0.00 0.00 0.00 0.00 0.00 0.00 0.00 0.00 0.00 0.00 0.00 0.00 0.00 0.00 0.00 0.00 0.01 0.04 0.06 0.04 0.03 0.04 0.08 0.12 0.11 0.10 0.10 0.12 0.14 0.18 0.21 0.18 0.13 0.09 0.07 0.05 0.03 0.02 0.01 0.00 0.00 0.00 0.00 0.00 0.00 0.00 0.00 0.00 0.00 0.00 0.00 0.00 0.00 0.00
0.01 0.00 0.00 0.00 0.00 0.00 0.00 0.00 0.00 0.00 0.00 0.00 0.00 0.00 0.00 0.01 0.02 0.02 0.02 0.00 0.01 0.03 0.06 0.09 0.11 0.12 0.11 0.10 0.10 0.10 0.12 0.19 0.21 0.19 0.18 0.15 0.11 0.11 0.09 0.06 0.03 0.00 0.00 0.00 0.00 0.00 0.00 0.00 0.00 0.00 0.00 0.00 0.00 0.00
0.01 0.00 0.00 0.00 0.00 0.00 0.00 0.00 0.00 0.00 0.00 0.00 0.00 0.00 0.00 0.02 0.02 0.01 0.00 0.00 0.01 0.03 0.05 0.07 0.07 0.08 0.07 0.08 0.10 0.12 0.13 0.15 0.16 0.18 0.22 0.25 0.20 0.17 0.15 0.14 0.10 0.05 0.01 0.00 0.00 0.00 0.00 0.00 0.00 0.00 0.00 0.00 0.00 0.00
0.00 0.00 0.00 0.00 0.00 0.00 0.00 0.00 0.00 0.00 0.00 0.00 0.00 0.00 0.01 0.02 0.01 0.01 0.01 0.00 0.01 0.02 0.04 0.08 0.12 0.11 0.08 0.10 0.11 0.12 0.15 0.17 0.18 0.16 0.22 0.33 0.34 0.26 0.18 0.15 0.13 0.10 0.07 0.03 0.02 0.02 0.01 0.01 0.01 0.01 0.00 0.01 0.01 0.01
0.00 0.00 0.00 0.00 0.00 0.00 0.00 0.00 0.00 0.00 0.00 0.00 0.00 0.00 0.01 0.02 0.01 0.00 0.00 0.00 0.01 0.02 0.04 0.08 0.12 0.15 0.14 0.12 0.14 0.16 0.18 0.21 0.25 0.26 0.30 0.36 0.40 0.40 0.34 0.30 0.29 0.28 0.23 0.13 0.06 0.04 0.05 0.05 0.04 0.04 0.02 0.02 0.01 0.01
0.00 0.00 0.00 0.00 0.00 0.00 0.00 0.00 0.00 0.00 0.00 0.00 0.00 0.00 0.00 0.00 0.00 0.00 0.00 0.01 0.02 0.04 0.06 0.09 0.12 0.14 0.17 0.18 0.19 0.22 0.24 0.23 0.20 0.18 0.15 0.20 0.28 0.41 0.45 0.41 0.42 0.40 0.32 0.26 0.19 0.10 0.08 0.09 0.09 0.07 0.05 0.03 0.02 0.02
0.00 0.00 0.00 0.00 0.00 0.00 0.00 0.00 0.00 0.00 0.00 0.00 0.00 0.00 0.00 0.00 0.00 0.00 0.00 0.01 0.04 0.07 0.11 0.14 0.16 0.19 0.21 0.22 0.23 0.23 0.25 0.28 0.26 0.16 0.12 0.14 0.19 0.31 0.40 0.40 0.41 0.42 0.38 0.29 0.31 0.31 0.23 0.18 0.15 0.09 0.05 0.04 0.04 0.04
0.00 0.00 0.00 0.00 0.00 0.00 0.00 0.00 0.00 0.00 0.00 0.00 0.00 0.00 0.00 0.00 0.00 0.01 0.01 0.03 0.07 0.11 0.16 0.19 0.22 0.27 0.27 0.29 0.29 0.26 0.26 0.32 0.37 0.36 0.28 0.28 0.29 0.31 0.37 0.40 0.38 0.37 0.35 0.30 0.22 0.15 0.13 0.11 0.09 0.07 0.07 0.07 0.06 0.05
0.01 0.00 0.00 0.00 0.00 0.01 0.01 0.01 0.00 0.00 0.00 0.00 0.00 0.00 0.00 0.00 0.01 0.01 0.02 0.05 0.10 0.13 0.17 0.21 0.21 0.26 0.31 0.31 0.33 0.34 0.28 0.28 0.35 0.38 0.33 0.27 0.27 0.27 0.29 0.33 0.33 0.31 0.30 0.28 0.24 0.20 0.14 0.10 0.09 0.07 0.07 0.05 0.03 0.02
0.01 0.01 0.00 0.00 0.00 0.00 0.01 0.00 0.00 0.00 0.00 0.00 0.00 0.00 0.01 0.01 0.01 0.02 0.03 0.07 0.11 0.14 0.16 0.21 0.26 0.27 0.27 0.27 0.30 0.34 0.36 0.37 0.38 0.40 0.39 0.31 0.26 0.26 0.27 0.28 0.29 0.28 0.25 0.23 0.21 0.18 0.16 0.11 0.08 0.06 0.03 0.01 0.01 0.00

GFSWCAN_prec_precacc_018.txt.gz
Total_Precipitation_Accumulation
0.02 0.03 0.04 0.04 0.04 0.04 0.04 0.03 0.02 0.03 0.01 0.01 0.01 0.01 0.02 0.06 0.11 0.17 0.27 0.37 0.42 0.13 0.02 0.00 0.00 0.01 0.00 0.00 0.01 0.01 0.06 0.10 0.15 0.16 0.17 0.07 0.02 0.01 0.00 0.00 0.00 0.00 0.00 0.00 0.01 0.01 0.00 0.00 0.00 0.00 0.00 0.00 0.00 0.01
0.02 0.03 0.03 0.03 0.04 0.04 0.04 0.02 0.02 0.03 0.01 0.01 0.01 0.01 0.01 0.02 0.08 0.19 0.23 0.26 0.24 0.14 0.01 0.00 0.00 0.00 0.00 0.00 0.02 0.01 0.06 0.11 0.19 0.16 0.13 0.07 0.03 0.00 0.00 0.00 0.00 0.00 0.00 0.00 0.00 0.00 0.00 0.00 0.00 0.00 0.00 0.00 0.00 0.00
0.02 0.03 0.02 0.03 0.04 0.04 0.03 0.02 0.02 0.02 0.02 0.02 0.01 0.01 0.00 0.01 0.03 0.11 0.17 0.19 0.21 0.14 0.03 0.01 0.00 0.00 0.00 0.00 0.00 0.01 0.04 0.13 0.19 0.19 0.30 0.11 0.03 0.02 0.01 0.00 0.00 0.00 0.00 0.00 0.00 0.00 0.00 0.00 0.00 0.00 0.00 0.00 0.00 0.01
0.03 0.03 0.03 0.03 0.03 0.03 0.03 0.02 0.02 0.03 0.03 0.01 0.01 0.01 0.01 0.01 0.02 0.03 0.06 0.08 0.13 0.14 0.07 0.02 0.00 0.00 0.00 0.00 0.00 0.00 0.03 0.12 0.18 0.31 0.23 0.14 0.03 0.02 0.01 0.01 0.00 0.00 0.00 0.00 0.00 0.00 0.00 0.00 0.00 0.00 0.00 0.00 0.00 0.00
0.03 0.03 0.03 0.02 0.02 0.02 0.03 0.03 0.03 0.02 0.02 0.01 0.01 0.01 0.01 0.02 0.02 0.01 0.01 0.05 0.09 0.15 0.14 0.05 0.01 0.00 0.00 0.00 0.00 0.01 0.06 0.16 0.25 0.33 0.24 0.06 0.03 0.01 0.01 0.00 0.00 0.00 0.00 0.00 0.00 0.00 0.00 0.00 0.00 0.00 0.00 0.00 0.00 0.00
0.03 0.02 0.02 0.01 0.01 0.02 0.02 0.03 0.02 0.02 0.01 0.01 0.02 0.02 0.02 0.02 0.03 0.05 0.17 0.34 0.26 0.25 0.26 0.11 0.04 0.00 0.00 0.00 0.00 0.05 0.12 0.21 0.34 0.29 0.17 0.09 0.02 0.04 0.04 0.01 0.00 0.00 0.00 0.00 0.00 0.00 0.00 0.00 0.00 0.00 0.00 0.00 0.00 0.00
0.02 0.02 0.02 0.01 0.01 0.02 0.03 0.03 0.01 0.01 0.01 0.01 0.01 0.02 0.02 0.02 0.05 0.08 0.23 0.54 0.40 0.37 0.31 0.10 0.05 0.01 0.00 0.00 0.00 0.03 0.08 0.18 0.26 0.30 0.24 0.08 0.08 0.21 0.10 0.00 0.00 0.00 0.00 0.00 0.00 0.00 0.00 0.00 0.00 0.00 0.00 0.00 0.00 0.00
0.01 0.01 0.02 0.02 0.02 0.02 0.02 0.02 0.01 0.01 0.01 0.01 0.01 0.00 0.00 0.04 0.04 0.05 0.04 0.14 0.31 0.39 0.21 0.08 0.01 0.01 0.00 0.02 0.01 0.01 0.05 0.09 0.17 0.22 0.19 0.16 0.08 0.07 0.04 0.00 0.00 0.00 0.00 0.00 0.00 0.00 0.00 0.00 0.00 0.00 0.00 0.00 0.00 0.00
0.01 0.01 0.01 0.02 0.02 0.02 0.02 0.01 0.01 0.01 0.00 0.00 0.00 0.01 0.07 0.05 0.03 0.08 0.14 0.28 0.37 0.48 0.15 0.03 0.00 0.01 0.00 0.03 0.01 0.03 0.10 0.16 0.15 0.11 0.08 0.06 0.05 0.02 0.00 0.00 0.00 0.00 0.00 0.00 0.00 0.00 0.00 0.00 0.00 0.00 0.00 0.00 0.00 0.00
0.01 0.01 0.01 0.02 0.01 0.02 0.02 0.01 0.00 0.00 0.00 0.00 0.01 0.04 0.10 0.02 0.04 0.41 0.61 0.74 0.61 0.37 0.11 0.01 0.00 0.01 0.00 0.01 0.01 0.03 0.02 0.12 0.07 0.04 0.02 0.02 0.00 0.00 0.00 0.00 0.00 0.00 0.00 0.00 0.00 0.00 0.00 0.00 0.00 0.00 0.00 0.00 0.00 0.00
0.01 0.01 0.01 0.02 0.01 0.02 0.02 0.01 0.00 0.01 0.00 0.00 0.02 0.05 0.04 0.05 0.60 1.06 1.13 0.82 0.43 0.16 0.04 0.01 0.00 0.00 0.00 0.00 0.01 0.00 0.02 0.00 0.00 0.00 0.00 0.00 0.00 0.00 0.00 0.00 0.00 0.00 0.00 0.00 0.00 0.00 0.00 0.00 0.00 0.00 0.00 0.00 0.00 0.00
0.02 0.02 0.03 0.03 0.01 0.01 0.01 0.00 0.01 0.01 0.02 0.04 0.05 0.06 0.11 0.42 0.97 0.83 0.85 0.49 0.10 0.01 0.01 0.01 0.00 0.00 0.00 0.00 0.00 0.00 0.00 0.00 0.00 0.00 0.00 0.00 0.00 0.00 0.00 0.00 0.00 0.00 0.00 0.00 0.00 0.00 0.00 0.00 0.00 0.00 0.00 0.00 0.00 0.00
0.01 0.01 0.03 0.03 0.01 0.01 0.00 0.00 0.00 0.01 0.02 0.01 0.03 0.15 0.28 0.54 0.67 0.47 0.38 0.18 0.02 0.00 0.01 0.00 0.00 0.00 0.00 0.00 0.00 0.00 0.00 0.00 0.00 0.00 0.00 0.00 0.00 0.00 0.00 0.00 0.00 0.00 0.00 0.00 0.00 0.00 0.00 0.00 0.00 0.00 0.00 0.00 0.00 0.00
0.02 0.02 0.03 0.03 0.01 0.01 0.00 0.00 0.00 0.02 0.02 0.01 0.07 0.15 0.25 0.31 0.32 0.24 0.13 0.10 0.03 0.02 0.02 0.01 0.01 0.00 0.00 0.00 0.00 0.00 0.00 0.00 0.00 0.00 0.00 0.00 0.00 0.00 0.00 0.00 0.00 0.00 0.00 0.00 0.00 0.00 0.00 0.01 0.02 0.01 0.01 0.01 0.00 0.00
0.03 0.04 0.03 0.02 0.01 0.00 0.00 0.00 0.00 0.01 0.01 0.02 0.09 0.13 0.15 0.22 0.09 0.05 0.03 0.05 0.01 0.02 0.02 0.00 0.00 0.00 0.00 0.00 0.00 0.00 0.00 0.00 0.00 0.00 0.00 0.00 0.00 0.00 0.00 0.00 0.00 0.00 0.00 0.00 0.00 0.00 0.00 0.00 0.00 0.01 0.00 0.00 0.00 0.00
0.05 0.04 0.01 0.00 0.00 0.00 0.00 0.00 0.00 0.01 0.01 0.02 0.07 0.14 0.10 0.07 0.04 0.01 0.01 0.02 0.01 0.02 0.02 0.01 0.03 0.01 0.01 0.00 0.00 0.00 0.00 0.00 0.00 0.00 0.00 0.00 0.00 0.00 0.00 0.00 0.00 0.00 0.00 0.00 0.00 0.00 0.00 0.00 0.00 0.00 0.00 0.00 0.00 0.00
0.07 0.02 0.00 0.00 0.00 0.00 0.00 0.00 0.00 0.01 0.01 0.02 0.02 0.08 0.09 0.05 0.06 0.04 0.02 0.00 0.01 0.04 0.07 0.11 0.07 0.04 0.01 0.00 0.00 0.00 0.00 0.00 0.00 0.00 0.00 0.00 0.00 0.00 0.00 0.00 0.00 0.00 0.00 0.00 0.00 0.00 0.00 0.00 0.00 0.00 0.00 0.00 0.00 0.00
0.03 0.00 0.00 0.00 0.00 0.00 0.00 0.00 0.00 0.00 0.01 0.01 0.00 0.01 0.01 0.03 0.03 0.04 0.03 0.02 0.01 0.07 0.17 0.29 0.16 0.07 0.01 0.00 0.00 0.00 0.00 0.00 0.00 0.00 0.00 0.00 0.00 0.00 0.00 0.00 0.00 0.00 0.00 0.00 0.00 0.00 0.00 0.00 0.00 0.00 0.00 0.00 0.00 0.00
0.02 0.01 0.01 0.01 0.00 0.00 0.00 0.00 0.00 0.00 0.00 0.00 0.00 0.00 0.00 0.00 0.03 0.04 0.03 0.03 0.05 0.11 0.17 0.23 0.19 0.06 0.00 0.00 0.00 0.00 0.00 0.00 0.00 0.00 0.00 0.00 0.00 0.00 0.00 0.00 0.00 0.00 0.00 0.00 0.00 0.00 0.00 0.00 0.00 0.00 0.00 0.00 0.00 0.00
0.05 0.09 0.07 0.03 0.00 0.00 0.00 0.00 0.00 0.00 0.00 0.00 0.00 0.00 0.00 0.00 0.00 0.03 0.06 0.04 0.06 0.25 0.31 0.17 0.06 0.03 0.03 0.03 0.03 0.01 0.00 0.00 0.00 0.00 0.00 0.00 0.00 0.00 0.00 0.00 0.00 0.00 0.00 0.00 0.00 0.00 0.00 0.00 0.00 0.00 0.00 0.00 0.00 0.00
0.12 0.12 0.09 0.03 0.00 0.00 0.00 0.00 0.00 0.00 0.00 0.00 0.00 0.00 0.00 0.00 0.00 0.01 0.07 0.14 0.20 0.31 0.27 0.13 0.05 0.03 0.04 0.06 0.05 0.03 0.00 0.00 0.00 0.00 0.00 0.00 0.00 0.00 0.00 0.00 0.00 0.00 0.00 0.00 0.00 0.00 0.00 0.00 0.00 0.00 0.00 0.00 0.00 0.00
0.09 0.09 0.07 0.02 0.00 0.00 0.00 0.00 0.00 0.00 0.00 0.00 0.00 0.01 0.00 0.00 0.00 0.03 0.06 0.18 0.28 0.16 0.12 0.12 0.13 0.11 0.08 0.07 0.07 0.07 0.05 0.02 0.00 0.00 0.00 0.00 0.00 0.00 0.00 0.00 0.00 0.00 0.00 0.00 0.00 0.00 0.00 0.00 0.00 0.00 0.00 0.00 0.00 0.00
0.08 0.05 0.02 0.00 0.00 0.00 0.00 0.00 0.00 0.00 0.00 0.00 0.00 0.00 0.00 0.01 0.01 0.02 0.09 0.11 0.12 0.10 0.08 0.08 0.12 0.16 0.17 0.14 0.14 0.12 0.11 0.08 0.04 0.02 0.01 0.00 0.00 0.00 0.00 0.00 0.00 0.00 0.00 0.00 0.00 0.00 0.00 0.00 0.00 0.00 0.00 0.00 0.00 0.00
0.03 0.02 0.01 0.01 0.00 0.00 0.00 0.00 0.00 0.00 0.00 0.00 0.00 0.00 0.00 0.00 0.01 0.04 0.06 0.04 0.03 0.04 0.08 0.12 0.11 0.10 0.10 0.12 0.14 0.18 0.21 0.18 0.13 0.09 0.07 0.05 0.03 0.02 0.01 0.01 0.00 0.00 0.00 0.00 0.00 0.00 0.00 0.00 0.00 0.00 0.00 0.00 0.00 0.00
0.06 0.04 0.02 0.01 0.00 0.00 0.00 0.00 0.00 0.00 0.00 0.00 0.00 0.00 0.00 0.01 0.02 0.02 0.02 0.00 0.01 0.03 0.06 0.09 0.11 0.12 0.11 0.10 0.10 0.10 0.12 0.19 0.21 0.19 0.18 0.15 0.11 0.11 0.09 0.06 0.03 0.01 0.01 0.01 0.01 0.00 0.00 0.00 0.00 0.00 0.00 0.00 0.00 0.01
0.04 0.02 0.01 0.00 0.00 0.00 0.00 0.00 0.00 0.00 0.00 0.00 0.00 0.00 0.00 0.02 0.02 0.01 0.00 0.00 0.01 0.03 0.05 0.07 0.07 0.08 0.07 0.08 0.10 0.12 0.13 0.15 0.16 0.18 0.22 0.25 0.20 0.17 0.16 0.14 0.10 0.06 0.04 0.05 0.05 0.03 0.01 0.00 0.00 0.00 0.00 0.01 0.01 0.01
0.02 0.01 0.00 0.00 0.00 0.00 0.00 0.00 0.00 0.00 0.00 0.00 0.00 0.00 0.01 0.02 0.01 0.01 0.01 0.00 0.01 0.02 0.04 0.08 0.12 0.11 0.08 0.10 0.11 0.12 0.15 0.17 0.18 0.16 0.22 0.33 0.34 0.26 0.18 0.15 0.14 0.11 0.11 0.12 0.09 0.06 0.04 0.02 0.01 0.01 0.01 0.01 0.01 0.02
0.00 0.00 0.00 0.00 0.00 0.00 0.00 0.00 0.00 0.00 0.00 0.00 0.00 0.00 0.01 0.02 0.01 0.00 0.00 0.00 0.01 0.02 0.04 0.08 0.12 0.15 0.14 0.12 0.14 0.16 0.18 0.21 0.25 0.26 0.30 0.36 0.40 0.40 0.34 0.30 0.30 0.30 0.27 0.20 0.15 0.12 0.10 0.08 0.05 0.05 0.06 0.04 0.02 0.01
0.00 0.00 0.00 0.00 0.00 0.00 0.00 0.00 0.00 0.00 0.00 0.00 0.00 0.00 0.00 0.00 0.00 0.00 0.00 0.01 0.02 0.04 0.06 0.09 0.12 0.14 0.17 0.18 0.19 0.22 0.24 0.24 0.20 0.19 0.15 0.20 0.29 0.41 0.45 0.42 0.44 0.43 0.37 0.33 0.30 0.20 0.17 0.16 0.16 0.15 0.13 0.11 0.08 0.04
0.00 0.00 0.00 0.00 0.00 0.00 0.00 0.00 0.00 0.00 0.00 0.00 0.00 0.00 0.00 0.00 0.00 0.00 0.00 0.01 0.04 0.07 0.11 0.14 0.16 0.19 0.21 0.22 0.23 0.23 0.25 0.28 0.26 0.16 0.13 0.14 0.20 0.31 0.40 0.40 0.42 0.45 0.44 0.38 0.44 0.49 0.44 0.37 0.33 0.26 0.19 0.14 0.09 0.05
0.00 0.00 0.00 0.00 0.00 0.00 0.00 0.00 0.00 0.00 0.00 0.00 0.00 0.00 0.00 0.00 0.00 0.01 0.01 0.03 0.07 0.11 0.16 0.19 0.22 0.27 0.28 0.30 0.29 0.26 0.26 0.32 0.37 0.36 0.29 0.29 0.29 0.31 0.37 0.41 0.41 0.42 0.43 0.39 0.33 0.30 0.26 0.21 0.18 0.15 0.14 0.11 0.08 0.07
0.01 0.00 0.00 0.00 0.00 0.01 0.01 0.01 0.00 0.00 0.00 0.00 0.00 0.00 0.00 0.00 0.01 0.01 0.02 0.05 0.10 0.13 0.17 0.21 0.21 0.26 0.31 0.31 0.33 0.34 0.28 0.29 0.35 0.38 0.33 0.28 0.27 0.27 0.30 0.34 0.38 0.39 0.39 0.36 0.31 0.30 0.28 0.26 0.23 0.16 0.13 0.11 0.09 0.08
0.01 0.01 0.00 0.00 0.00 0.00 0.01 0.00 0.00 0.00 0.00 0.00 0.00 0.00 0.01 0.01 0.01 0.02 0.03 0.07 0.11 0.14 0.16 0.21 0.26 0.28 0.27 0.28 0.31 0.34 0.37 0.37 0.39 0.40 0.40 0.32 0.27 0.27 0.29 0.31 0.33 0.34 0.32 0.32 0.34 0.33 0.32 0.26 0.21 0.17 0.12 0.09 0.06 0.03

GFSWCAN_prec_precacc_021.txt.gz
Total_Precipitation_Accumulation
0.02 0.03 0.04 0.04 0.04 0.04 0.05 0.04 0.03 0.03 0.01 0.01 0.01 0.01 0.02 0.06 0.11 0.17 0.27 0.37 0.42 0.13 0.02 0.00 0.00 0.01 0.00 0.00 0.01 0.01 0.06 0.10 0.15 0.16 0.17 0.07 0.02 0.01 0.00 0.00 0.00 0.00 0.00 0.01 0.02 0.02 0.00 0.00 0.00 0.00 0.00 0.00 0.00 0.01
0.02 0.03 0.03 0.03 0.05 0.04 0.04 0.04 0.02 0.03 0.01 0.01 0.01 0.01 0.01 0.02 0.09 0.19 0.23 0.26 0.25 0.14 0.01 0.00 0.00 0.00 0.00 0.00 0.02 0.01 0.06 0.11 0.19 0.16 0.13 0.07 0.03 0.00 0.00 0.00 0.00 0.00 0.00 0.00 0.00 0.00 0.00 0.00 0.00 0.00 0.00 0.00 0.00 0.00
0.03 0.03 0.03 0.03 0.04 0.04 0.03 0.03 0.02 0.02 0.02 0.02 0.02 0.01 0.01 0.01 0.04 0.11 0.17 0.19 0.21 0.14 0.03 0.01 0.01 0.00 0.00 0.00 0.00 0.02 0.04 0.13 0.19 0.19 0.30 0.11 0.03 0.03 0.01 0.00 0.00 0.00 0.00 0.00 0.00 0.00 0.00 0.00 0.00 0.00 0.00 0.00 0.00 0.01
0.05 0.05 0.04 0.04 0.03 0.03 0.03 0.03 0.03 0.04 0.03 0.02 0.01 0.01 0.01 0.02 0.03 0.05 0.06 0.08 0.14 0.15 0.09 0.04 0.00 0.00 0.00 0.00 0.00 0.00 0.03 0.12 0.18 0.31 0.23 0.14 0.04 0.02 0.01 0.01 0.00 0.01 0.00 0.00 0.00 0.00 0.00 0.00 0.00 0.00 0.00 0.00 0.00 0.00
0.06 0.05 0.04 0.05 0.04 0.02 0.03 0.03 0.04 0.04 0.02 0.02 0.02 0.02 0.03 0.03 0.04 0.03 0.01 0.05 0.09 0.17 0.21 0.15 0.08 0.00 0.00 0.00 0.00 0.01 0.06 0.17 0.25 0.33 0.24 0.06 0.03 0.01 0.01 0.00 0.00 0.00 0.00 0.00 0.00 0.00 0.00 0.00 0.00 0.00 0.00 0.00 0.00 0.00
0.05 0.04 0.04 0.04 0.04 0.02 0.03 0.04 0.03 0.03 0.02 0.02 0.02 0.03 0.03 0.05 0.08 0.09 0.17 0.35 0.27 0.27 0.38 0.32 0.16 0.00 0.00 0.00 0.00 0.05 0.12 0.21 0.34 0.29 0.17 0.09 0.03 0.04 0.04 0.01 0.00 0.00 0.00 0.00 0.00 0.00 0.00 0.00 0.00 0.00 0.00 0.00 0.00 0.00
0.05 0.04 0.04 0.04 0.04 0.02 0.03 0.04 0.02 0.02 0.01 0.02 0.02 0.02 0.03 0.03 0.08 0.10 0.23 0.60 0.50 0.52 0.50 0.40 0.16 0.02 0.00 0.00 0.00 0.03 0.08 0.18 0.26 0.30 0.24 0.08 0.08 0.22 0.11 0.01 0.00 0.00 0.00 0.00 0.00 0.00 0.00 0.00 0.00 0.00 0.00 0.00 0.00 0.00
0.05 0.03 0.03 0.04 0.04 0.03 0.03 0.02 0.02 0.01 0.01 0.01 0.01 0.00 0.00 0.07 0.05 0.06 0.04 0.17 0.44 0.62 0.45 0.41 0.15 0.05 0.03 0.03 0.01 0.01 0.05 0.09 0.18 0.22 0.19 0.16 0.08 0.08 0.05 0.00 0.00 0.00 0.00 0.00 0.00 0.00 0.00 0.00 0.00 0.00 0.00 0.00 0.00 0.00
0.03 0.02 0.02 0.03 0.03 0.03 0.02 0.02 0.02 0.01 0.00 0.00 0.00 0.01 0.07 0.06 0.04 0.10 0.16 0.32 0.51 0.73 0.39 0.12 0.02 0.03 0.02 0.04 0.01 0.03 0.10 0.17 0.15 0.11 0.08 0.07 0.06 0.02 0.00 0.00 0.00 0.00 0.00 0.00 0.00 0.00 0.00 0.00 0.00 0.00 0.00 0.00 0.00 0.00
0.03 0.02 0.02 0.02 0.03 0.03 0.02 0.02 0.01 0.00 0.00 0.00 0.01 0.04 0.10 0.02 0.04 0.44 0.69 0.87 0.76 0.50 0.17 0.06 0.01 0.01 0.01 0.01 0.02 0.03 0.02 0.12 0.07 0.04 0.02 0.02 0.00 0.00 0.00 0.00 0.00 0.00 0.00 0.00 0.00 0.00 0.00 0.00 0.00 0.00 0.00 0.00 0.00 0.00
0.03 0.02 0.02 0.03 0.03 0.02 0.02 0.02 0.00 0.01 0.00 0.00 0.02 0.05 0.04 0.05 0.61 1.09 1.21 0.92 0.49 0.19 0.05 0.01 0.00 0.00 0.00 0.01 0.02 0.01 0.02 0.00 0.00 0.00 0.00 0.00 0.00 0.00 0.00 0.00 0.00 0.00 0.00 0.00 0.00 0.00 0.00 0.00 0.00 0.00 0.00 0.00 0.00 0.00
0.03 0.02 0.03 0.05 0.03 0.02 0.01 0.01 0.01 0.01 0.02 0.04 0.05 0.06 0.11 0.42 0.98 0.85 0.87 0.50 0.11 0.03 0.01 0.01 0.00 0.00 0.00 0.00 0.00 0.00 0.00 0.00 0.00 0.00 0.00 0.00 0.00 0.00 0.00 0.00 0.00 0.00 0.00 0.00 0.00 0.00 0.00 0.00 0.00 0.00 0.00 0.00 0.00 0.00
0.02 0.02 0.03 0.05 0.03 0.02 0.01 0.00 0.00 0.01 0.02 0.02 0.04 0.15 0.29 0.55 0.68 0.47 0.39 0.18 0.02 0.01 0.01 0.00 0.00 0.00 0.00 0.00 0.00 0.00 0.00 0.00 0.00 0.00 0.00 0.00 0.00 0.00 0.00 0.00 0.00 0.00 0.00 0.00 0.00 0.00 0.00 0.00 0.00 0.00 0.00 0.00 0.00 0.01
0.03 0.03 0.04 0.05 0.03 0.01 0.00 0.00 0.00 0.02 0.03 0.01 0.07 0.15 0.25 0.31 0.32 0.24 0.13 0.10 0.03 0.02 0.02 0.01 0.01 0.00 0.00 0.00 0.00 0.00 0.00 0.00 0.00 0.00 0.00 0.00 0.00 0.00 0.00 0.00 0.00 0.00 0.00 0.00 0.00 0.00 0.00 0.01 0.05 0.02 0.01 0.03 0.05 0.07
0.06 0.05 0.05 0.04 0.02 0.01 0.00 0.00 0.00 0.01 0.01 0.02 0.10 0.13 0.15 0.22 0.09 0.05 0.03 0.05 0.01 0.02 0.02 0.00 0.00 0.00 0.00 0.00 0.00 0.00 0.00 0.00 0.00 0.00 0.00 0.00 0.00 0.00 0.00 0.00 0.00 0.00 0.00 0.00 0.00 0.00 0.00 0.00 0.01 0.06 0.04 0.01 0.01 0.00
0.10 0.06 0.03 0.02 0.01 0.01 0.00 0.00 0.00 0.01 0.01 0.02 0.07 0.15 0.11 0.07 0.04 0.01 0.01 0.02 0.01 0.02 0.02 0.01 0.03 0.01 0.01 0.00 0.00 0.00 0.00 0.00 0.00 0.00 0.00 0.00 0.00 0.00 0.00 0.00 0.00 0.00 0.00 0.00 0.00 0.00 0.00 0.00 0.00 0.00 0.00 0.00 0.00 0.00
0.16 0.03 0.01 0.01 0.00 0.00 0.00 0.00 0.00 0.01 0.01 0.02 0.02 0.08 0.10 0.05 0.06 0.04 0.02 0.00 0.01 0.04 0.08 0.12 0.09 0.04 0.01 0.00 0.00 0.00 0.00 0.00 0.00 0.00 0.00 0.00 0.00 0.00 0.00 0.00 0.00 0.00 0.00 0.00 0.00 0.00 0.00 0.00 0.00 0.00 0.00 0.00 0.00 0.00
0.09 0.01 0.01 0.00 0.00 0.00 0.00 0.00 0.00 0.00 0.01 0.01 0.00 0.01 0.01 0.03 0.03 0.04 0.03 0.02 0.01 0.07 0.17 0.31 0.17 0.08 0.02 0.00 0.00 0.00 0.00 0.00 0.00 0.00 0.00 0.00 0.00 0.00 0.00 0.00 0.00 0.00 0.00 0.00 0.00 0.00 0.00 0.00 0.00 0.00 0.00 0.00 0.00 0.00
0.05 0.02 0.02 0.02 0.01 0.00 0.00 0.00 0.00 0.00 0.00 0.00 0.00 0.00 0.00 0.00 0.03 0.04 0.03 0.03 0.05 0.11 0.17 0.23 0.19 0.06 0.00 0.00 0.00 0.00 0.00 0.00 0.00 0.00 0.00 0.00 0.00 0.00 0.00 0.00 0.00 0.00 0.00 0.00 0.00 0.00 0.00 0.00 0.00 0.00 0.00 0.00 0.00 0.00
0.11 0.12 0.11 0.07 0.01 0.00 0.00 0.00 0.00 0.00 0.00 0.00 0.00 0.00 0.00 0.00 0.00 0.03 0.06 0.04 0.06 0.25 0.31 0.17 0.06 0.03 0.03 0.03 0.03 0.01 0.00 0.00 0.00 0.00 0.00 0.00 0.00 0.00 0.00 0.00 0.00 0.00 0.00 0.00 0.00 0.00 0.00 0.00 0.00 0.00 0.00 0.00 0.00 0.00
0.23 0.18 0.16 0.07 0.01 0.00 0.00 0.00 0.00 0.00 0.00 0.00 0.00 0.00 0.00 0.00 0.00 0.01 0.07 0.14 0.20 0.31 0.27 0.13 0.05 0.03 0.04 0.06 0.05 0.03 0.00 0.00 0.00 0.00 0.00 0.00 0.00 0.00 0.00 0.00 0.00 0.00 0.00 0.00 0.00 0.00 0.00 0.00 0.00 0.00 0.00 0.00 0.00 0.00
0.12 0.13 0.14 0.10 0.01 0.00 0.00 0.00 0.00 0.00 0.00 0.00 0.00 0.01 0.00 0.00 0.00 0.03 0.06 0.18 0.28 0.16 0.12 0.12 0.13 0.11 0.08 0.07 0.07 0.07 0.05 0.02 0.00 0.00 0.00 0.00 0.00 0.00 0.00 0.00 0.00 0.00 0.00 0.00 0.00 0.00 0.00 0.00 0.00 0.00 0.00 0.00 0.00 0.00
0.14 0.12 0.08 0.02 0.02 0.01 0.00 0.00 0.00 0.00 0.00 0.00 0.00 0.00 0.00 0.01 0.01 0.02 0.09 0.11 0.12 0.10 0.08 0.08 0.12 0.16 0.17 0.14 0.14 0.12 0.11 0.08 0.04 0.02 0.01 0.00 0.00 0.00 0.00 0.00 0.00 0.00 0.00 0.00 0.00 0.00 0.00 0.00 0.00 0.00 0.00 0.00 0.00 0.00
0.08 0.07 0.05 0.04 0.03 0.01 0.00 0.00 0.00 0.00 0.00 0.00 0.00 0.00 0.00 0.00 0.01 0.04 0.06 0.04 0.03 0.04 0.08 0.12 0.11 0.10 0.10 0.12 0.14 0.18 0.21 0.18 0.13 0.09 0.07 0.05 0.03 0.02 0.01 0.01 0.00 0.00 0.00 0.00 0.00 0.00 0.00 0.00 0.00 0.00 0.00 0.00 0.00 0.00
0.14 0.10 0.05 0.04 0.00 0.00 0.00 0.00 0.00 0.00 0.00 0.00 0.00 0.00 0.00 0.01 0.02 0.02 0.02 0.00 0.01 0.03 0.06 0.09 0.11 0.12 0.11 0.10 0.10 0.10 0.12 0.19 0.21 0.19 0.18 0.15 0.11 0.11 0.09 0.06 0.03 0.01 0.01 0.01 0.01 0.00 0.00 0.00 0.00 0.00 0.00 0.00 0.00 0.01
0.09 0.03 0.01 0.00 0.00 0.00 0.00 0.00 0.00 0.00 0.00 0.00 0.00 0.00 0.00 0.02 0.02 0.01 0.00 0.00 0.01 0.03 0.05 0.07 0.07 0.08 0.07 0.08 0.10 0.12 0.13 0.15 0.16 0.18 0.22 0.25 0.20 0.17 0.16 0.15 0.10 0.06 0.04 0.05 0.05 0.04 0.03 0.01 0.00 0.00 0.00 0.01 0.01 0.01
0.02 0.02 0.01 0.00 0.00 0.00 0.00 0.00 0.00 0.00 0.00 0.00 0.00 0.00 0.01 0.02 0.01 0.01 0.01 0.00 0.01 0.02 0.04 0.08 0.12 0.11 0.08 0.10 0.11 0.12 0.15 0.17 0.18 0.16 0.22 0.33 0.34 0.26 0.18 0.15 0.14 0.11 0.11 0.12 0.09 0.08 0.05 0.05 0.04 0.03 0.03 0.03 0.02 0.02
0.00 0.00 0.00 0.00 0.00 0.00 0.00 0.00 0.00 0.00 0.00 0.00 0.00 0.00 0.01 0.02 0.01 0.00 0.00 0.00 0.01 0.02 0.04 0.08 0.12 0.15 0.14 0.12 0.14 0.16 0.18 0.21 0.25 0.26 0.30 0.36 0.40 0.40 0.34 0.30 0.30 0.30 0.27 0.21 0.16 0.14 0.12 0.10 0.09 0.11 0.12 0.09 0.05 0.04
0.00 0.00 0.00 0.00 0.00 0.00 0.00 0.00 0.00 0.00 0.00 0.00 0.00 0.00 0.00 0.00 0.00 0.00 0.00 0.01 0.02 0.04 0.06 0.09 0.12 0.14 0.17 0.18 0.19 0.22 0.24 0.24 0.20 0.19 0.15 0.20 0.29 0.41 0.45 0.42 0.44 0.44 0.38 0.34 0.31 0.22 0.19 0.19 0.19 0.20 0.22 0.21 0.19 0.15
0.00 0.00 0.00 0.00 0.00 0.00 0.00 0.00 0.00 0.00 0.00 0.00 0.00 0.00 0.00 0.00 0.00 0.00 0.00 0.01 0.04 0.07 0.11 0.14 0.16 0.19 0.21 0.22 0.23 0.23 0.25 0.28 0.26 0.16 0.13 0.14 0.20 0.31 0.40 0.40 0.43 0.46 0.44 0.40 0.46 0.52 0.49 0.45 0.44 0.39 0.31 0.29 0.26 0.20
0.00 0.00 0.00 0.00 0.00 0.00 0.00 0.00 0.00 0.00 0.00 0.00 0.00 0.00 0.00 0.00 0.00 0.01 0.01 0.03 0.07 0.11 0.16 0.19 0.22 0.27 0.28 0.30 0.29 0.27 0.26 0.32 0.37 0.36 0.29 0.29 0.30 0.31 0.37 0.41 0.41 0.42 0.44 0.41 0.36 0.34 0.32 0.26 0.23 0.22 0.23 0.22 0.19 0.15
0.01 0.00 0.00 0.00 0.00 0.01 0.01 0.01 0.00 0.00 0.00 0.00 0.00 0.00 0.00 0.00 0.01 0.01 0.02 0.05 0.10 0.13 0.17 0.21 0.21 0.26 0.31 0.31 0.33 0.34 0.29 0.29 0.35 0.38 0.34 0.28 0.27 0.27 0.30 0.34 0.39 0.40 0.41 0.40 0.35 0.33 0.31 0.32 0.34 0.30 0.28 0.26 0.20 0.16
0.01 0.01 0.00 0.00 0.00 0.00 0.01 0.00 0.00 0.00 0.00 0.00 0.00 0.00 0.01 0.01 0.01 0.02 0.03 0.07 0.11 0.14 0.16 0.21 0.26 0.28 0.27 0.28 0.31 0.35 0.37 0.38 0.39 0.41 0.41 0.34 0.29 0.28 0.30 0.31 0.35 0.36 0.35 0.36 0.39 0.39 0.40 0.36 0.33 0.32 0.27 0.23 0.18 0.15

GFSWCAN_prec_precacc_024.txt.gz
Total_Precipitation_Accumulation
0.02 0.03 0.04 0.04 0.05 0.05 0.05 0.04 0.03 0.03 0.02 0.01 0.01 0.01 0.02 0.06 0.12 0.17 0.27 0.37 0.42 0.13 0.02 0.00 0.00 0.01 0.00 0.00 0.01 0.01 0.06 0.10 0.15 0.16 0.17 0.07 0.02 0.01 0.00 0.00 0.00 0.00 0.01 0.02 0.03 0.03 0.00 0.00 0.00 0.00 0.00 0.00 0.00 0.01
0.03 0.04 0.05 0.04 0.05 0.05 0.05 0.04 0.03 0.03 0.02 0.01 0.01 0.02 0.01 0.02 0.09 0.19 0.23 0.26 0.25 0.14 0.01 0.00 0.00 0.00 0.00 0.00 0.02 0.01 0.06 0.11 0.19 0.16 0.13 0.07 0.03 0.00 0.00 0.00 0.00 0.00 0.00 0.00 0.00 0.00 0.00 0.00 0.00 0.00 0.00 0.00 0.00 0.00
0.04 0.04 0.04 0.05 0.05 0.06 0.05 0.04 0.03 0.03 0.03 0.02 0.02 0.01 0.01 0.01 0.04 0.12 0.17 0.19 0.21 0.14 0.03 0.01 0.01 0.00 0.00 0.00 0.00 0.03 0.04 0.13 0.19 0.19 0.30 0.11 0.03 0.03 0.01 0.00 0.00 0.00 0.00 0.00 0.00 0.00 0.00 0.00 0.00 0.00 0.00 0.00 0.00 0.01
0.08 0.08 0.07 0.06 0.07 0.08 0.06 0.04 0.03 0.05 0.05 0.03 0.02 0.01 0.02 0.02 0.05 0.07 0.06 0.08 0.14 0.16 0.10 0.04 0.01 0.02 0.01 0.00 0.01 0.01 0.04 0.12 0.18 0.31 0.23 0.14 0.04 0.02 0.01 0.01 0.00 0.01 0.00 0.00 0.00 0.00 0.00 0.00 0.00 0.00 0.00 0.00 0.00 0.00
0.12 0.10 0.08 0.09 0.10 0.09 0.08 0.05 0.04 0.04 0.04 0.02 0.02 0.02 0.04 0.05 0.06 0.05 0.01 0.05 0.10 0.17 0.22 0.16 0.16 0.01 0.01 0.00 0.01 0.02 0.06 0.17 0.25 0.33 0.24 0.06 0.03 0.01 0.01 0.00 0.00 0.00 0.00 0.00 0.00 0.00 0.00 0.00 0.00 0.00 0.00 0.00 0.00 0.00
0.10 0.08 0.08 0.09 0.09 0.08 0.06 0.05 0.03 0.03 0.04 0.02 0.03 0.04 0.04 0.06 0.11 0.13 0.19 0.35 0.27 0.28 0.39 0.37 0.34 0.16 0.04 0.01 0.01 0.06 0.12 0.21 0.34 0.30 0.18 0.09 0.03 0.04 0.05 0.01 0.00 0.00 0.00 0.00 0.00 0.00 0.00 0.00 0.00 0.00 0.00 0.00 0.00 0.00
0.09 0.08 0.08 0.09 0.09 0.07 0.05 0.04 0.03 0.02 0.02 0.02 0.02 0.03 0.03 0.04 0.09 0.12 0.24 0.61 0.56 0.55 0.58 0.68 0.55 0.36 0.08 0.01 0.01 0.04 0.09 0.19 0.26 0.31 0.24 0.08 0.08 0.22 0.12 0.01 0.00 0.00 0.00 0.00 0.00 0.00 0.00 0.00 0.00 0.00 0.00 0.00 0.00 0.00
0.11 0.08 0.09 0.10 0.08 0.05 0.04 0.03 0.02 0.02 0.02 0.01 0.01 0.00 0.00 0.07 0.05 0.06 0.04 0.18 0.47 0.76 0.68 0.78 0.58 0.27 0.09 0.04 0.03 0.02 0.06 0.10 0.18 0.23 0.20 0.16 0.08 0.08 0.05 0.00 0.00 0.02 0.01 0.00 0.00 0.00 0.00 0.00 0.00 0.00 0.00 0.00 0.00 0.00
0.07 0.06 0.06 0.06 0.04 0.04 0.04 0.02 0.02 0.02 0.00 0.00 0.00 0.01 0.08 0.06 0.04 0.11 0.19 0.33 0.55 0.86 0.61 0.40 0.31 0.19 0.06 0.06 0.03 0.04 0.12 0.19 0.15 0.11 0.08 0.07 0.07 0.03 0.00 0.00 0.00 0.00 0.00 0.00 0.00 0.00 0.00 0.00 0.00 0.00 0.00 0.00 0.00 0.00
0.06 0.05 0.05 0.06 0.04 0.04 0.03 0.02 0.02 0.01 0.00 0.00 0.01 0.04 0.10 0.02 0.05 0.45 0.75 0.94 0.85 0.61 0.34 0.26 0.10 0.04 0.05 0.03 0.03 0.06 0.03 0.15 0.08 0.05 0.03 0.03 0.01 0.00 0.00 0.00 0.00 0.00 0.00 0.00 0.00 0.00 0.00 0.00 0.00 0.00 0.00 0.00 0.00 0.00
0.06 0.03 0.02 0.04 0.04 0.04 0.03 0.02 0.01 0.01 0.00 0.00 0.02 0.05 0.04 0.05 0.61 1.11 1.24 0.94 0.52 0.27 0.19 0.14 0.01 0.01 0.02 0.01 0.04 0.05 0.04 0.02 0.00 0.00 0.01 0.00 0.00 0.00 0.00 0.00 0.00 0.00 0.00 0.00 0.00 0.00 0.00 0.00 0.00 0.00 0.00 0.00 0.00 0.00
0.08 0.03 0.03 0.05 0.04 0.04 0.02 0.01 0.01 0.01 0.02 0.04 0.06 0.06 0.12 0.43 1.00 0.87 0.88 0.51 0.12 0.04 0.02 0.01 0.00 0.00 0.00 0.00 0.00 0.00 0.00 0.00 0.00 0.00 0.00 0.00 0.00 0.00 0.00 0.00 0.00 0.00 0.00 0.00 0.00 0.00 0.00 0.00 0.00 0.00 0.00 0.00 0.00 0.00
0.08 0.03 0.03 0.05 0.04 0.03 0.01 0.00 0.01 0.01 0.02 0.02 0.04 0.15 0.29 0.55 0.69 0.48 0.39 0.19 0.03 0.02 0.01 0.00 0.00 0.00 0.00 0.00 0.00 0.00 0.00 0.00 0.00 0.00 0.00 0.00 0.00 0.00 0.00 0.00 0.00 0.00 0.00 0.01 0.00 0.00 0.00 0.00 0.00 0.00 0.00 0.00 0.00 0.01
0.09 0.05 0.04 0.06 0.04 0.01 0.00 0.00 0.00 0.02 0.03 0.01 0.07 0.15 0.25 0.31 0.32 0.24 0.13 0.11 0.03 0.03 0.02 0.01 0.01 0.00 0.00 0.00 0.00 0.00 0.00 0.00 0.00 0.00 0.00 0.00 0.00 0.00 0.00 0.00 0.00 0.00 0.01 0.06 0.08 0.02 0.00 0.02 0.05 0.05 0.03 0.03 0.05 0.07
0.10 0.08 0.06 0.06 0.03 0.01 0.01 0.00 0.00 0.01 0.01 0.02 0.10 0.13 0.15 0.22 0.09 0.05 0.03 0.05 0.02 0.02 0.02 0.00 0.01 0.00 0.00 0.00 0.00 0.00 0.00 0.00 0.00 0.00 0.00 0.00 0.00 0.00 0.00 0.00 0.00 0.00 0.00 0.00 0.07 0.02 0.00 0.01 0.01 0.14 0.17 0.10 0.04 0.04
0.16 0.12 0.04 0.02 0.01 0.01 0.00 0.00 0.00 0.01 0.01 0.02 0.07 0.15 0.11 0.07 0.04 0.01 0.01 0.02 0.02 0.02 0.02 0.01 0.04 0.01 0.01 0.00 0.00 0.00 0.00 0.00 0.00 0.00 0.00 0.00 0.00 0.00 0.00 0.00 0.00 0.00 0.00 0.00 0.01 0.01 0.00 0.00 0.00 0.01 0.04 0.10 0.07 0.04
0.28 0.07 0.01 0.01 0.00 0.00 0.00 0.00 0.00 0.01 0.01 0.03 0.03 0.09 0.10 0.06 0.06 0.04 0.02 0.00 0.01 0.05 0.11 0.14 0.11 0.05 0.01 0.01 0.00 0.00 0.00 0.00 0.00 0.00 0.00 0.00 0.00 0.00 0.00 0.00 0.00 0.00 0.00 0.00 0.00 0.00 0.00 0.00 0.00 0.00 0.00 0.00 0.01 0.02
0.15 0.02 0.01 0.00 0.00 0.00 0.00 0.00 0.00 0.00 0.01 0.01 0.00 0.01 0.01 0.03 0.03 0.04 0.03 0.02 0.01 0.08 0.21 0.35 0.18 0.09 0.02 0.00 0.00 0.00 0.00 0.00 0.00 0.00 0.00 0.00 0.00 0.00 0.00 0.00 0.00 0.00 0.00 0.00 0.00 0.00 0.00 0.00 0.00 0.00 0.00 0.00 0.00 0.00
0.06 0.06 0.07 0.03 0.01 0.00 0.00 0.00 0.00 0.00 0.00 0.00 0.00 0.00 0.00 0.00 0.03 0.04 0.03 0.03 0.05 0.11 0.18 0.25 0.20 0.06 0.00 0.00 0.00 0.00 0.00 0.00 0.00 0.00 0.00 0.00 0.00 0.00 0.00 0.00 0.00 0.00 0.00 0.00 0.00 0.00 0.00 0.00 0.00 0.00 0.00 0.00 0.00 0.00
0.17 0.22 0.19 0.10 0.02 0.00 0.00 0.00 0.00 0.00 0.00 0.00 0.00 0.00 0.00 0.00 0.00 0.03 0.06 0.04 0.06 0.25 0.31 0.17 0.06 0.03 0.03 0.03 0.03 0.01 0.00 0.00 0.00 0.00 0.00 0.00 0.00 0.00 0.00 0.00 0.00 0.00 0.00 0.00 0.00 0.00 0.00 0.00 0.00 0.00 0.00 0.00 0.00 0.00
0.40 0.31 0.26 0.11 0.04 0.00 0.00 0.00 0.00 0.00 0.00 0.00 0.00 0.00 0.00 0.00 0.00 0.01 0.07 0.14 0.20 0.31 0.27 0.13 0.05 0.03 0.04 0.06 0.05 0.03 0.00 0.00 0.00 0.00 0.00 0.00 0.00 0.00 0.00 0.00 0.00 0.00 0.00 0.00 0.00 0.00 0.00 0.00 0.00 0.00 0.00 0.00 0.00 0.00
0.19 0.19 0.20 0.19 0.04 0.00 0.00 0.00 0.00 0.00 0.00 0.00 0.00 0.01 0.00 0.00 0.01 0.03 0.06 0.18 0.28 0.16 0.12 0.12 0.13 0.11 0.08 0.07 0.07 0.07 0.05 0.02 0.00 0.00 0.00 0.00 0.00 0.00 0.00 0.00 0.00 0.00 0.00 0.00 0.00 0.00 0.00 0.00 0.00 0.00 0.00 0.00 0.00 0.00
0.24 0.24 0.19 0.10 0.04 0.02 0.01 0.00 0.00 0.00 0.00 0.00 0.00 0.00 0.00 0.01 0.01 0.02 0.09 0.11 0.12 0.10 0.08 0.08 0.12 0.16 0.17 0.14 0.14 0.12 0.11 0.08 0.04 0.02 0.01 0.00 0.00 0.00 0.00 0.00 0.00 0.00 0.00 0.00 0.00 0.00 0.00 0.00 0.00 0.00 0.00 0.00 0.00 0.00
0.19 0.22 0.16 0.10 0.06 0.02 0.00 0.00 0.00 0.00 0.00 0.00 0.00 0.00 0.00 0.00 0.02 0.05 0.06 0.04 0.03 0.04 0.08 0.12 0.11 0.10 0.10 0.12 0.14 0.18 0.21 0.18 0.13 0.09 0.07 0.05 0.03 0.02 0.01 0.01 0.00 0.00 0.00 0.00 0.00 0.00 0.00 0.00 0.00 0.00 0.00 0.00 0.00 0.00
0.33 0.27 0.14 0.09 0.02 0.00 0.00 0.00 0.00 0.00 0.00 0.00 0.01 0.00 0.00 0.01 0.02 0.02 0.02 0.00 0.01 0.03 0.06 0.09 0.11 0.12 0.11 0.10 0.10 0.10 0.12 0.19 0.21 0.19 0.18 0.15 0.11 0.11 0.09 0.06 0.03 0.01 0.01 0.02 0.01 0.00 0.00 0.00 0.00 0.00 0.00 0.00 0.00 0.01
0.28 0.10 0.03 0.00 0.00 0.00 0.00 0.00 0.00 0.00 0.00 0.01 0.01 0.00 0.00 0.02 0.02 0.01 0.00 0.00 0.01 0.03 0.05 0.07 0.07 0.08 0.07 0.08 0.10 0.12 0.13 0.15 0.16 0.18 0.22 0.25 0.20 0.17 0.16 0.15 0.10 0.06 0.04 0.05 0.05 0.04 0.03 0.01 0.01 0.00 0.00 0.01 0.02 0.02
0.14 0.07 0.02 0.00 0.00 0.00 0.00 0.00 0.00 0.00 0.01 0.02 0.00 0.00 0.01 0.02 0.01 0.01 0.01 0.00 0.01 0.02 0.04 0.08 0.12 0.11 0.08 0.10 0.11 0.12 0.15 0.17 0.18 0.16 0.22 0.33 0.34 0.26 0.18 0.15 0.14 0.11 0.11 0.12 0.09 0.08 0.06 0.05 0.04 0.04 0.04 0.05 0.05 0.04
0.03 0.00 0.00 0.00 0.00 0.00 0.00 0.00 0.00 0.00 0.00 0.00 0.00 0.00 0.01 0.02 0.01 0.00 0.00 0.00 0.01 0.02 0.04 0.08 0.12 0.15 0.14 0.12 0.14 0.16 0.18 0.21 0.25 0.26 0.30 0.36 0.40 0.40 0.34 0.30 0.30 0.30 0.27 0.21 0.16 0.14 0.13 0.11 0.09 0.11 0.13 0.11 0.09 0.07
0.00 0.00 0.00 0.00 0.00 0.00 0.00 0.00 0.00 0.00 0.00 0.00 0.00 0.00 0.00 0.00 0.00 0.00 0.00 0.01 0.02 0.04 0.06 0.09 0.12 0.14 0.17 0.18 0.19 0.22 0.24 0.24 0.20 0.19 0.15 0.20 0.29 0.41 0.45 0.42 0.44 0.44 0.38 0.34 0.31 0.23 0.20 0.20 0.20 0.21 0.23 0.24 0.22 0.21
0.00 0.00 0.00 0.00 0.00 0.00 0.00 0.00 0.00 0.00 0.00 0.00 0.00 0.00 0.00 0.00 0.00 0.00 0.00 0.01 0.04 0.07 0.11 0.14 0.16 0.19 0.21 0.22 0.23 0.23 0.25 0.28 0.26 0.16 0.13 0.14 0.20 0.31 0.40 0.40 0.43 0.46 0.44 0.40 0.46 0.52 0.49 0.48 0.48 0.44 0.36 0.32 0.30 0.27
0.00 0.00 0.00 0.00 0.00 0.00 0.00 0.00 0.00 0.00 0.00 0.00 0.00 0.00 0.00 0.00 0.00 0.01 0.01 0.03 0.07 0.11 0.16 0.19 0.22 0.27 0.28 0.30 0.29 0.27 0.26 0.32 0.37 0.36 0.29 0.30 0.30 0.31 0.37 0.41 0.41 0.42 0.44 0.41 0.36 0.34 0.34 0.29 0.25 0.24 0.25 0.24 0.23 0.21
0.01 0.00 0.00 0.00 0.00 0.01 0.01 0.01 0.00 0.00 0.00 0.00 0.00 0.00 0.00 0.00 0.01 0.01 0.02 0.05 0.10 0.13 0.17 0.21 0.21 0.26 0.31 0.31 0.33 0.34 0.29 0.29 0.35 0.38 0.34 0.29 0.28 0.27 0.30 0.34 0.39 0.40 0.41 0.40 0.36 0.35 0.34 0.33 0.35 0.32 0.31 0.30 0.26 0.24
0.01 0.01 0.00 0.00 0.00 0.00 0.01 0.00 0.00 0.00 0.00 0.00 0.00 0.00 0.01 0.01 0.01 0.02 0.03 0.07 0.11 0.14 0.16 0.21 0.26 0.28 0.27 0.28 0.31 0.35 0.37 0.38 0.39 0.41 0.41 0.35 0.30 0.30 0.31 0.32 0.35 0.37 0.36 0.37 0.40 0.41 0.43 0.39 0.36 0.35 0.31 0.28 0.26 0.24

GFSWCAN_prec_precacc_027.txt.gz
Total_Precipitation_Accumulation
0.02 0.03 0.04 0.05 0.05 0.06 0.06 0.05 0.04 0.04 0.03 0.02 0.02 0.02 0.03 0.07 0.12 0.17 0.27 0.37 0.42 0.13 0.02 0.00 0.00 0.01 0.00 0.00 0.01 0.01 0.06 0.10 0.15 0.16 0.17 0.07 0.02 0.01 0.00 0.00 0.00 0.01 0.02 0.02 0.04 0.05 0.00 0.00 0.00 0.00 0.00 0.00 0.00 0.01
0.05 0.05 0.05 0.05 0.05 0.05 0.06 0.07 0.05 0.04 0.03 0.02 0.01 0.02 0.01 0.02 0.09 0.19 0.23 0.26 0.25 0.15 0.01 0.00 0.00 0.00 0.00 0.00 0.02 0.01 0.06 0.11 0.19 0.16 0.13 0.07 0.03 0.00 0.00 0.00 0.00 0.00 0.00 0.00 0.00 0.00 0.00 0.00 0.00 0.00 0.00 0.00 0.00 0.00
0.06 0.06 0.07 0.07 0.06 0.07 0.08 0.08 0.06 0.04 0.03 0.04 0.04 0.02 0.01 0.01 0.05 0.13 0.17 0.19 0.21 0.15 0.03 0.01 0.01 0.00 0.00 0.00 0.00 0.04 0.06 0.13 0.19 0.19 0.30 0.11 0.03 0.03 0.01 0.00 0.00 0.00 0.00 0.00 0.00 0.00 0.00 0.00 0.00 0.00 0.00 0.00 0.00 0.01
0.09 0.11 0.09 0.09 0.09 0.11 0.10 0.09 0.07 0.05 0.05 0.04 0.03 0.02 0.02 0.03 0.05 0.09 0.06 0.09 0.15 0.17 0.11 0.04 0.01 0.02 0.01 0.01 0.02 0.02 0.07 0.14 0.18 0.31 0.23 0.14 0.04 0.02 0.01 0.01 0.00 0.01 0.00 0.00 0.00 0.00 0.00 0.00 0.00 0.00 0.00 0.00 0.00 0.00
0.13 0.12 0.11 0.12 0.14 0.12 0.12 0.11 0.08 0.06 0.05 0.03 0.03 0.02 0.04 0.06 0.08 0.06 0.01 0.05 0.10 0.20 0.24 0.16 0.16 0.01 0.01 0.05 0.04 0.05 0.09 0.22 0.25 0.33 0.24 0.06 0.03 0.01 0.01 0.00 0.00 0.00 0.00 0.00 0.00 0.00 0.00 0.00 0.00 0.00 0.00 0.00 0.00 0.00
0.14 0.11 0.10 0.11 0.12 0.12 0.12 0.11 0.08 0.06 0.04 0.03 0.05 0.05 0.05 0.07 0.13 0.14 0.19 0.35 0.27 0.29 0.43 0.38 0.34 0.16 0.06 0.09 0.09 0.12 0.17 0.26 0.35 0.30 0.18 0.09 0.03 0.04 0.05 0.01 0.00 0.00 0.00 0.00 0.00 0.00 0.00 0.00 0.00 0.00 0.00 0.00 0.00 0.00
0.14 0.10 0.10 0.12 0.13 0.12 0.11 0.08 0.05 0.03 0.03 0.04 0.03 0.03 0.03 0.04 0.10 0.12 0.24 0.61 0.57 0.56 0.61 0.74 0.61 0.42 0.13 0.21 0.20 0.20 0.12 0.21 0.27 0.31 0.25 0.08 0.08 0.23 0.13 0.01 0.00 0.01 0.01 0.01 0.00 0.00 0.00 0.00 0.00 0.00 0.00 0.00 0.00 0.00
0.14 0.12 0.12 0.14 0.13 0.10 0.08 0.06 0.04 0.02 0.02 0.02 0.01 0.00 0.00 0.07 0.05 0.06 0.05 0.18 0.48 0.83 0.79 0.96 0.92 0.80 0.26 0.30 0.13 0.09 0.07 0.12 0.23 0.24 0.20 0.16 0.09 0.09 0.06 0.00 0.00 0.02 0.01 0.00 0.00 0.00 0.00 0.00 0.00 0.00 0.00 0.00 0.00 0.00
0.08 0.07 0.09 0.11 0.09 0.07 0.05 0.04 0.04 0.02 0.01 0.00 0.00 0.01 0.08 0.06 0.04 0.12 0.20 0.34 0.56 0.89 0.70 0.61 0.76 0.61 0.22 0.13 0.06 0.05 0.15 0.27 0.21 0.14 0.08 0.07 0.07 0.04 0.00 0.00 0.00 0.00 0.00 0.00 0.00 0.00 0.00 0.00 0.00 0.00 0.00 0.00 0.00 0.00
0.07 0.06 0.07 0.09 0.08 0.06 0.04 0.04 0.03 0.01 0.00 0.00 0.01 0.04 0.10 0.02 0.05 0.46 0.77 0.96 0.88 0.65 0.41 0.40 0.28 0.17 0.17 0.06 0.08 0.07 0.07 0.21 0.18 0.07 0.03 0.03 0.01 0.00 0.00 0.00 0.00 0.00 0.00 0.00 0.00 0.00 0.00 0.00 0.00 0.00 0.00 0.00 0.00 0.00
0.08 0.04 0.04 0.06 0.05 0.05 0.04 0.03 0.01 0.01 0.00 0.00 0.02 0.05 0.04 0.05 0.61 1.12 1.25 0.96 0.54 0.30 0.29 0.22 0.08 0.03 0.07 0.02 0.06 0.09 0.08 0.09 0.04 0.04 0.03 0.01 0.00 0.00 0.00 0.00 0.00 0.00 0.00 0.00 0.00 0.00 0.00 0.00 0.00 0.00 0.00 0.00 0.00 0.00
0.15 0.06 0.05 0.07 0.05 0.05 0.03 0.01 0.02 0.01 0.02 0.04 0.06 0.06 0.12 0.43 1.01 0.89 0.89 0.51 0.13 0.05 0.06 0.08 0.09 0.03 0.10 0.03 0.10 0.11 0.03 0.05 0.02 0.00 0.00 0.00 0.00 0.00 0.00 0.00 0.00 0.00 0.00 0.00 0.00 0.00 0.00 0.00 0.00 0.00 0.00 0.00 0.00 0.00
0.14 0.05 0.05 0.07 0.05 0.04 0.02 0.00 0.01 0.01 0.02 0.02 0.04 0.16 0.29 0.55 0.69 0.49 0.40 0.19 0.05 0.02 0.01 0.02 0.07 0.04 0.05 0.01 0.01 0.01 0.00 0.00 0.00 0.00 0.00 0.00 0.00 0.00 0.00 0.00 0.00 0.00 0.00 0.02 0.03 0.01 0.00 0.00 0.00 0.00 0.00 0.00 0.00 0.01
0.11 0.07 0.06 0.08 0.05 0.02 0.00 0.00 0.00 0.02 0.03 0.01 0.07 0.15 0.25 0.31 0.32 0.24 0.13 0.11 0.03 0.04 0.03 0.01 0.01 0.01 0.00 0.00 0.00 0.00 0.00 0.00 0.00 0.00 0.00 0.00 0.00 0.00 0.00 0.00 0.00 0.00 0.01 0.07 0.16 0.11 0.07 0.05 0.06 0.05 0.03 0.03 0.05 0.07
0.11 0.10 0.08 0.07 0.05 0.01 0.01 0.00 0.00 0.01 0.01 0.02 0.10 0.13 0.15 0.22 0.09 0.05 0.03 0.05 0.02 0.02 0.03 0.00 0.01 0.00 0.00 0.00 0.00 0.00 0.00 0.00 0.00 0.00 0.00 0.00 0.00 0.00 0.00 0.00 0.00 0.00 0.00 0.00 0.08 0.05 0.01 0.01 0.02 0.16 0.24 0.19 0.12 0.09
0.18 0.16 0.07 0.02 0.02 0.01 0.00 0.00 0.00 0.01 0.01 0.02 0.07 0.15 0.11 0.07 0.04 0.01 0.01 0.02 0.02 0.02 0.04 0.03 0.06 0.01 0.01 0.00 0.00 0.00 0.00 0.00 0.00 0.00 0.00 0.00 0.00 0.00 0.00 0.00 0.00 0.00 0.00 0.00 0.01 0.01 0.00 0.00 0.00 0.02 0.08 0.19 0.18 0.15
0.35 0.09 0.02 0.01 0.01 0.00 0.00 0.00 0.00 0.01 0.01 0.03 0.03 0.09 0.10 0.06 0.06 0.04 0.02 0.00 0.01 0.06 0.13 0.17 0.15 0.05 0.01 0.02 0.00 0.00 0.00 0.00 0.00 0.00 0.00 0.00 0.00 0.00 0.00 0.00 0.00 0.00 0.00 0.00 0.00 0.00 0.00 0.00 0.00 0.00 0.00 0.01 0.05 0.11
0.15 0.02 0.03 0.02 0.00 0.00 0.00 0.00 0.00 0.00 0.01 0.01 0.00 0.01 0.01 0.03 0.03 0.04 0.03 0.02 0.02 0.09 0.23 0.39 0.20 0.11 0.02 0.01 0.00 0.00 0.00 0.00 0.00 0.00 0.00 0.00 0.00 0.00 0.00 0.00 0.00 0.00 0.00 0.00 0.00 0.00 0.00 0.00 0.00 0.00 0.00 0.00 0.00 0.00
0.06 0.07 0.12 0.06 0.03 0.00 0.00 0.00 0.00 0.00 0.00 0.00 0.00 0.00 0.00 0.00 0.03 0.04 0.03 0.03 0.05 0.11 0.20 0.27 0.21 0.06 0.00 0.00 0.00 0.00 0.00 0.00 0.00 0.00 0.00 0.00 0.00 0.00 0.00 0.00 0.00 0.00 0.00 0.00 0.00 0.00 0.00 0.00 0.00 0.00 0.00 0.00 0.00 0.00
0.18 0.24 0.25 0.16 0.04 0.00 0.00 0.00 0.00 0.00 0.00 0.00 0.00 0.00 0.00 0.00 0.00 0.03 0.06 0.04 0.06 0.25 0.31 0.18 0.06 0.03 0.03 0.03 0.03 0.01 0.00 0.00 0.00 0.00 0.00 0.00 0.00 0.00 0.00 0.00 0.00 0.00 0.00 0.00 0.00 0.00 0.00 0.00 0.00 0.00 0.00 0.00 0.00 0.00
0.44 0.37 0.40 0.17 0.08 0.01 0.00 0.00 0.00 0.00 0.00 0.00 0.00 0.00 0.00 0.00 0.00 0.01 0.07 0.14 0.20 0.31 0.27 0.13 0.05 0.03 0.04 0.06 0.05 0.03 0.00 0.00 0.00 0.00 0.00 0.00 0.00 0.00 0.00 0.00 0.00 0.00 0.00 0.00 0.00 0.00 0.00 0.00 0.00 0.00 0.00 0.00 0.00 0.00
0.20 0.24 0.25 0.27 0.11 0.03 0.01 0.00 0.00 0.00 0.00 0.00 0.00 0.01 0.00 0.00 0.01 0.03 0.06 0.18 0.28 0.16 0.12 0.12 0.13 0.11 0.08 0.07 0.07 0.07 0.05 0.02 0.00 0.00 0.00 0.00 0.00 0.00 0.00 0.00 0.00 0.00 0.00 0.00 0.00 0.00 0.00 0.00 0.00 0.00 0.00 0.00 0.00 0.00
0.27 0.31 0.29 0.20 0.10 0.06 0.02 0.00 0.00 0.00 0.00 0.00 0.00 0.00 0.00 0.01 0.01 0.02 0.09 0.11 0.12 0.10 0.08 0.08 0.12 0.16 0.17 0.14 0.14 0.12 0.11 0.08 0.04 0.02 0.01 0.00 0.00 0.00 0.00 0.00 0.00 0.00 0.00 0.00 0.00 0.00 0.00 0.00 0.00 0.00 0.00 0.00 0.00 0.00
0.21 0.28 0.26 0.19 0.11 0.04 0.01 0.00 0.00 0.00 0.00 0.00 0.00 0.00 0.00 0.00 0.02 0.05 0.06 0.04 0.03 0.04 0.08 0.12 0.11 0.10 0.10 0.12 0.14 0.18 0.21 0.18 0.13 0.09 0.07 0.05 0.03 0.02 0.01 0.01 0.00 0.00 0.00 0.00 0.00 0.00 0.00 0.00 0.00 0.00 0.00 0.00 0.00 0.00
0.41 0.35 0.22 0.15 0.04 0.00 0.00 0.00 0.00 0.00 0.00 0.00 0.02 0.00 0.00 0.01 0.02 0.02 0.02 0.00 0.01 0.03 0.06 0.09 0.11 0.12 0.11 0.10 0.10 0.10 0.12 0.19 0.21 0.19 0.18 0.15 0.11 0.11 0.09 0.06 0.03 0.01 0.01 0.02 0.01 0.00 0.00 0.00 0.00 0.00 0.00 0.00 0.00 0.01
0.37 0.15 0.05 0.00 0.00 0.00 0.00 0.00 0.00 0.00 0.00 0.01 0.02 0.00 0.00 0.02 0.02 0.01 0.00 0.00 0.01 0.03 0.05 0.07 0.07 0.08 0.07 0.08 0.10 0.12 0.13 0.15 0.16 0.18 0.22 0.25 0.20 0.17 0.16 0.15 0.10 0.06 0.04 0.05 0.05 0.04 0.03 0.01 0.01 0.01 0.01 0.01 0.02 0.03
0.17 0.12 0.05 0.00 0.00 0.00 0.00 0.00 0.00 0.00 0.01 0.02 0.01 0.00 0.01 0.02 0.01 0.01 0.01 0.00 0.01 0.02 0.04 0.08 0.12 0.11 0.08 0.10 0.11 0.12 0.15 0.17 0.18 0.16 0.22 0.33 0.34 0.26 0.18 0.15 0.14 0.11 0.11 0.12 0.09 0.08 0.06 0.05 0.04 0.04 0.05 0.05 0.05 0.05
0.05 0.00 0.00 0.00 0.00 0.00 0.00 0.00 0.00 0.00 0.00 0.01 0.00 0.00 0.01 0.02 0.01 0.00 0.00 0.00 0.01 0.02 0.04 0.08 0.12 0.15 0.14 0.12 0.14 0.16 0.18 0.21 0.25 0.26 0.30 0.36 0.40 0.40 0.34 0.30 0.30 0.30 0.27 0.21 0.16 0.14 0.13 0.11 0.10 0.12 0.14 0.11 0.09 0.08
0.01 0.00 0.00 0.00 0.00 0.00 0.00 0.00 0.00 0.00 0.00 0.00 0.00 0.00 0.00 0.00 0.00 0.00 0.00 0.01 0.02 0.04 0.06 0.09 0.12 0.14 0.17 0.18 0.19 0.22 0.24 0.24 0.20 0.19 0.15 0.20 0.29 0.41 0.45 0.42 0.44 0.44 0.38 0.34 0.31 0.23 0.21 0.20 0.21 0.22 0.24 0.24 0.23 0.21
0.00 0.00 0.00 0.00 0.00 0.00 0.00 0.00 0.00 0.00 0.00 0.00 0.00 0.00 0.00 0.00 0.00 0.00 0.00 0.01 0.04 0.07 0.11 0.14 0.16 0.19 0.21 0.22 0.23 0.23 0.25 0.28 0.26 0.16 0.13 0.14 0.20 0.31 0.40 0.40 0.43 0.46 0.44 0.40 0.46 0.52 0.49 0.48 0.49 0.46 0.39 0.34 0.31 0.29
0.00 0.00 0.00 0.00 0.00 0.00 0.00 0.00 0.00 0.00 0.00 0.00 0.00 0.00 0.00 0.00 0.00 0.01 0.01 0.03 0.07 0.11 0.16 0.19 0.22 0.27 0.28 0.30 0.29 0.27 0.26 0.32 0.37 0.36 0.29 0.30 0.30 0.31 0.37 0.41 0.41 0.42 0.44 0.41 0.36 0.34 0.34 0.30 0.26 0.25 0.26 0.25 0.24 0.22
0.01 0.00 0.00 0.00 0.00 0.01 0.01 0.01 0.00 0.00 0.00 0.00 0.00 0.00 0.00 0.00 0.01 0.01 0.02 0.05 0.10 0.13 0.17 0.21 0.21 0.26 0.31 0.31 0.33 0.34 0.29 0.29 0.35 0.38 0.34 0.29 0.28 0.27 0.30 0.34 0.39 0.41 0.42 0.40 0.36 0.35 0.34 0.34 0.36 0.33 0.32 0.32 0.28 0.25
0.02 0.01 0.00 0.00 0.00 0.00 0.01 0.01 0.01 0.01 0.00 0.00 0.00 0.00 0.01 0.01 0.01 0.02 0.03 0.07 0.11 0.14 0.16 0.21 0.26 0.28 0.27 0.28 0.31 0.35 0.37 0.38 0.39 0.41 0.42 0.35 0.31 0.31 0.33 0.34 0.36 0.38 0.37 0.38 0.41 0.42 0.43 0.40 0.38 0.37 0.33 0.30 0.28 0.26

GFSWCAN_prec_precacc_030.txt.gz
Total_Precipitation_Accumulation
0.02 0.04 0.06 0.05 0.05 0.06 0.06 0.06 0.05 0.04 0.03 0.04 0.04 0.03 0.03 0.07 0.12 0.17 0.27 0.37 0.42 0.13 0.02 0.00 0.00 0.01 0.00 0.00 0.01 0.01 0.06 0.10 0.15 0.16 0.17 0.07 0.02 0.01 0.00 0.00 0.00 0.01 0.02 0.03 0.04 0.06 0.00 0.00 0.00 0.00 0.00 0.00 0.00 0.01
0.08 0.09 0.10 0.08 0.06 0.05 0.06 0.07 0.06 0.06 0.04 0.03 0.03 0.04 0.03 0.02 0.09 0.20 0.23 0.26 0.25 0.15 0.01 0.00 0.00 0.00 0.00 0.00 0.02 0.01 0.06 0.11 0.19 0.16 0.13 0.07 0.03 0.00 0.00 0.00 0.00 0.00 0.00 0.00 0.00 0.00 0.00 0.00 0.00 0.00 0.00 0.00 0.00 0.00
0.09 0.10 0.12 0.10 0.07 0.07 0.08 0.08 0.08 0.09 0.05 0.04 0.05 0.05 0.04 0.02 0.05 0.13 0.17 0.19 0.21 0.16 0.03 0.01 0.01 0.00 0.00 0.00 0.00 0.04 0.07 0.13 0.19 0.19 0.30 0.11 0.03 0.03 0.01 0.00 0.00 0.00 0.00 0.00 0.00 0.00 0.00 0.00 0.00 0.00 0.00 0.00 0.00 0.01
0.11 0.13 0.11 0.09 0.10 0.11 0.10 0.12 0.14 0.13 0.08 0.06 0.04 0.05 0.05 0.03 0.06 0.10 0.07 0.09 0.16 0.20 0.14 0.04 0.01 0.02 0.01 0.01 0.02 0.02 0.08 0.16 0.20 0.31 0.23 0.14 0.04 0.02 0.01 0.01 0.00 0.01 0.00 0.00 0.00 0.00 0.00 0.00 0.00 0.00 0.00 0.00 0.00 0.00
0.13 0.13 0.11 0.13 0.16 0.14 0.16 0.16 0.13 0.11 0.10 0.07 0.04 0.04 0.07 0.07 0.08 0.06 0.01 0.05 0.10 0.23 0.28 0.17 0.16 0.01 0.01 0.05 0.04 0.06 0.11 0.28 0.29 0.34 0.24 0.06 0.03 0.01 0.01 0.00 0.00 0.00 0.00 0.00 0.00 0.00 0.00 0.00 0.00 0.00 0.00 0.00 0.00 0.00
0.16 0.14 0.14 0.14 0.15 0.16 0.16 0.17 0.14 0.12 0.12 0.06 0.05 0.07 0.06 0.07 0.14 0.14 0.20 0.35 0.27 0.30 0.53 0.41 0.34 0.16 0.06 0.09 0.09 0.15 0.22 0.42 0.52 0.34 0.18 0.09 0.03 0.04 0.05 0.01 0.00 0.00 0.00 0.00 0.00 0.00 0.00 0.00 0.00 0.00 0.00 0.00 0.00 0.00
0.16 0.15 0.15 0.15 0.16 0.16 0.16 0.14 0.11 0.11 0.07 0.04 0.05 0.04 0.03 0.04 0.10 0.12 0.24 0.61 0.57 0.57 0.64 0.76 0.66 0.48 0.13 0.22 0.27 0.30 0.31 0.42 0.58 0.38 0.25 0.08 0.08 0.23 0.13 0.01 0.00 0.01 0.01 0.01 0.00 0.00 0.00 0.00 0.00 0.00 0.00 0.00 0.00 0.00
0.16 0.14 0.15 0.18 0.16 0.14 0.12 0.11 0.09 0.08 0.03 0.03 0.02 0.00 0.00 0.07 0.05 0.06 0.05 0.18 0.48 0.85 0.85 1.00 0.97 0.93 0.31 0.51 0.45 0.39 0.37 0.31 0.42 0.27 0.20 0.16 0.09 0.09 0.06 0.00 0.00 0.02 0.01 0.00 0.00 0.00 0.00 0.00 0.00 0.00 0.00 0.00 0.00 0.00
0.11 0.08 0.10 0.12 0.11 0.10 0.08 0.07 0.10 0.08 0.02 0.00 0.00 0.01 0.08 0.06 0.04 0.12 0.20 0.35 0.56 0.91 0.76 0.71 0.85 0.72 0.45 0.53 0.37 0.34 0.30 0.35 0.28 0.17 0.09 0.07 0.07 0.04 0.00 0.00 0.00 0.00 0.00 0.00 0.00 0.00 0.00 0.00 0.00 0.00 0.00 0.00 0.00 0.00
0.10 0.06 0.07 0.09 0.09 0.07 0.05 0.06 0.06 0.03 0.01 0.00 0.01 0.04 0.10 0.02 0.05 0.47 0.78 0.98 0.91 0.69 0.47 0.49 0.38 0.29 0.37 0.18 0.20 0.13 0.08 0.21 0.20 0.09 0.04 0.03 0.01 0.00 0.00 0.00 0.00 0.00 0.00 0.00 0.00 0.00 0.00 0.00 0.00 0.00 0.00 0.00 0.00 0.00
0.11 0.05 0.04 0.07 0.07 0.06 0.05 0.04 0.03 0.01 0.00 0.00 0.02 0.05 0.04 0.05 0.61 1.13 1.26 0.98 0.55 0.32 0.32 0.29 0.17 0.14 0.12 0.03 0.07 0.10 0.08 0.12 0.07 0.13 0.07 0.02 0.00 0.00 0.00 0.00 0.00 0.00 0.00 0.00 0.00 0.00 0.00 0.00 0.00 0.00 0.00 0.00 0.00 0.00
0.16 0.08 0.07 0.10 0.07 0.06 0.04 0.03 0.02 0.01 0.02 0.04 0.06 0.06 0.12 0.43 1.01 0.89 0.89 0.52 0.14 0.07 0.10 0.15 0.15 0.13 0.20 0.04 0.15 0.16 0.06 0.08 0.05 0.01 0.04 0.01 0.00 0.00 0.00 0.00 0.00 0.00 0.00 0.00 0.00 0.00 0.00 0.00 0.00 0.00 0.00 0.00 0.00 0.00
0.16 0.08 0.06 0.08 0.07 0.05 0.03 0.01 0.01 0.01 0.02 0.02 0.05 0.16 0.29 0.56 0.70 0.49 0.40 0.19 0.05 0.04 0.05 0.08 0.20 0.13 0.17 0.05 0.11 0.12 0.01 0.01 0.01 0.02 0.01 0.00 0.00 0.00 0.00 0.00 0.00 0.00 0.00 0.02 0.03 0.02 0.01 0.00 0.00 0.00 0.00 0.00 0.00 0.01
0.12 0.08 0.06 0.08 0.06 0.02 0.01 0.00 0.00 0.02 0.03 0.01 0.07 0.15 0.25 0.31 0.33 0.24 0.13 0.11 0.03 0.04 0.03 0.02 0.08 0.09 0.08 0.04 0.01 0.01 0.00 0.00 0.00 0.00 0.00 0.00 0.00 0.00 0.00 0.00 0.00 0.00 0.01 0.07 0.17 0.19 0.17 0.19 0.19 0.12 0.05 0.03 0.05 0.07
0.12 0.10 0.09 0.07 0.05 0.02 0.01 0.01 0.00 0.01 0.01 0.02 0.10 0.13 0.15 0.22 0.09 0.05 0.03 0.05 0.02 0.02 0.03 0.01 0.02 0.02 0.02 0.00 0.00 0.00 0.00 0.00 0.00 0.00 0.00 0.00 0.00 0.00 0.00 0.00 0.00 0.00 0.00 0.00 0.08 0.06 0.03 0.06 0.06 0.16 0.24 0.20 0.13 0.10
0.19 0.18 0.10 0.03 0.02 0.01 0.00 0.00 0.00 0.01 0.01 0.02 0.07 0.15 0.11 0.07 0.04 0.01 0.01 0.02 0.02 0.02 0.05 0.04 0.06 0.02 0.02 0.00 0.00 0.00 0.00 0.00 0.00 0.00 0.00 0.00 0.00 0.00 0.00 0.00 0.00 0.00 0.00 0.00 0.01 0.01 0.00 0.00 0.00 0.02 0.08 0.21 0.20 0.17
0.36 0.10 0.03 0.02 0.01 0.00 0.00 0.00 0.00 0.01 0.01 0.03 0.03 0.09 0.10 0.06 0.06 0.04 0.02 0.00 0.01 0.07 0.16 0.21 0.16 0.06 0.02 0.02 0.00 0.00 0.00 0.00 0.00 0.00 0.00 0.00 0.00 0.00 0.00 0.00 0.00 0.00 0.00 0.00 0.00 0.00 0.00 0.00 0.00 0.00 0.00 0.01 0.06 0.14
0.15 0.02 0.03 0.03 0.02 0.00 0.00 0.00 0.00 0.00 0.01 0.01 0.00 0.01 0.01 0.03 0.04 0.05 0.03 0.02 0.02 0.11 0.26 0.45 0.23 0.12 0.02 0.01 0.00 0.00 0.00 0.00 0.00 0.00 0.00 0.00 0.00 0.00 0.00 0.00 0.00 0.00 0.00 0.00 0.00 0.00 0.00 0.00 0.00 0.00 0.00 0.00 0.00 0.00
0.06 0.07 0.13 0.08 0.05 0.01 0.00 0.00 0.00 0.00 0.00 0.00 0.00 0.00 0.00 0.00 0.03 0.04 0.03 0.03 0.05 0.12 0.21 0.30 0.23 0.07 0.00 0.00 0.00 0.00 0.00 0.00 0.00 0.00 0.00 0.00 0.00 0.00 0.00 0.00 0.00 0.00 0.00 0.00 0.00 0.00 0.00 0.00 0.00 0.00 0.00 0.00 0.00 0.00
0.18 0.25 0.26 0.17 0.05 0.00 0.00 0.00 0.00 0.00 0.00 0.00 0.00 0.00 0.00 0.00 0.00 0.03 0.06 0.04 0.06 0.26 0.32 0.19 0.06 0.03 0.03 0.03 0.03 0.01 0.00 0.00 0.00 0.00 0.00 0.00 0.00 0.00 0.00 0.00 0.00 0.00 0.00 0.00 0.00 0.00 0.00 0.00 0.00 0.00 0.00 0.00 0.00 0.00
0.44 0.44 0.46 0.19 0.10 0.01 0.00 0.00 0.00 0.00 0.00 0.00 0.00 0.00 0.00 0.00 0.00 0.01 0.07 0.14 0.21 0.32 0.27 0.13 0.05 0.03 0.04 0.06 0.05 0.03 0.00 0.00 0.00 0.00 0.00 0.00 0.00 0.00 0.00 0.00 0.00 0.00 0.00 0.00 0.00 0.00 0.00 0.00 0.00 0.00 0.00 0.00 0.00 0.00
0.20 0.26 0.26 0.29 0.14 0.05 0.02 0.00 0.00 0.00 0.00 0.00 0.00 0.01 0.00 0.00 0.01 0.03 0.06 0.18 0.28 0.16 0.12 0.12 0.13 0.11 0.08 0.07 0.07 0.07 0.05 0.02 0.00 0.00 0.00 0.00 0.00 0.00 0.00 0.00 0.00 0.00 0.00 0.00 0.00 0.00 0.00 0.00 0.00 0.00 0.00 0.00 0.00 0.00
0.27 0.31 0.31 0.23 0.14 0.08 0.03 0.00 0.00 0.00 0.00 0.00 0.00 0.00 0.00 0.01 0.01 0.02 0.09 0.11 0.12 0.10 0.08 0.08 0.12 0.16 0.17 0.14 0.14 0.12 0.11 0.08 0.04 0.02 0.01 0.00 0.00 0.00 0.00 0.00 0.00 0.00 0.00 0.00 0.00 0.00 0.00 0.00 0.00 0.00 0.00 0.00 0.00 0.00
0.21 0.29 0.28 0.21 0.13 0.05 0.01 0.00 0.00 0.00 0.00 0.00 0.00 0.00 0.00 0.00 0.02 0.05 0.06 0.04 0.03 0.04 0.08 0.12 0.11 0.10 0.10 0.12 0.14 0.18 0.21 0.18 0.13 0.09 0.07 0.05 0.03 0.02 0.01 0.01 0.00 0.00 0.00 0.00 0.00 0.00 0.00 0.00 0.00 0.00 0.00 0.00 0.00 0.00
0.42 0.36 0.22 0.16 0.05 0.01 0.00 0.00 0.00 0.00 0.00 0.00 0.02 0.00 0.00 0.01 0.02 0.02 0.02 0.00 0.01 0.03 0.06 0.09 0.11 0.12 0.11 0.10 0.10 0.10 0.12 0.19 0.21 0.19 0.18 0.15 0.11 0.11 0.09 0.06 0.03 0.01 0.01 0.02 0.01 0.00 0.00 0.00 0.00 0.00 0.00 0.00 0.00 0.01
0.38 0.16 0.05 0.00 0.00 0.00 0.00 0.00 0.00 0.00 0.00 0.01 0.02 0.00 0.00 0.02 0.02 0.01 0.00 0.00 0.01 0.03 0.05 0.07 0.07 0.08 0.07 0.08 0.10 0.12 0.13 0.15 0.16 0.18 0.22 0.25 0.20 0.17 0.16 0.15 0.10 0.06 0.04 0.05 0.05 0.04 0.03 0.01 0.01 0.01 0.01 0.01 0.02 0.03
0.17 0.12 0.05 0.00 0.00 0.00 0.00 0.00 0.00 0.00 0.01 0.02 0.01 0.00 0.01 0.02 0.01 0.01 0.01 0.00 0.01 0.02 0.04 0.08 0.12 0.11 0.08 0.10 0.11 0.12 0.15 0.17 0.18 0.16 0.22 0.33 0.34 0.26 0.18 0.15 0.14 0.11 0.11 0.12 0.09 0.08 0.06 0.05 0.04 0.04 0.05 0.05 0.05 0.05
0.05 0.00 0.00 0.00 0.00 0.00 0.00 0.00 0.00 0.00 0.00 0.01 0.00 0.00 0.01 0.02 0.01 0.00 0.00 0.00 0.01 0.02 0.04 0.08 0.12 0.15 0.14 0.12 0.14 0.16 0.18 0.21 0.25 0.26 0.30 0.36 0.40 0.40 0.34 0.30 0.30 0.30 0.27 0.21 0.16 0.14 0.13 0.11 0.10 0.12 0.14 0.11 0.09 0.08
0.01 0.00 0.00 0.00 0.00 0.00 0.00 0.00 0.00 0.00 0.00 0.00 0.00 0.00 0.00 0.00 0.00 0.00 0.00 0.01 0.02 0.04 0.06 0.09 0.12 0.14 0.17 0.18 0.19 0.22 0.24 0.24 0.20 0.19 0.15 0.20 0.29 0.41 0.45 0.42 0.44 0.44 0.38 0.34 0.31 0.24 0.21 0.21 0.22 0.23 0.24 0.24 0.23 0.22
0.00 0.00 0.00 0.00 0.00 0.00 0.00 0.00 0.00 0.00 0.00 0.00 0.00 0.00 0.00 0.00 0.00 0.00 0.00 0.01 0.04 0.07 0.11 0.14 0.16 0.19 0.21 0.22 0.23 0.23 0.25 0.28 0.26 0.16 0.13 0.14 0.20 0.31 0.40 0.40 0.43 0.46 0.44 0.40 0.47 0.52 0.49 0.48 0.49 0.46 0.40 0.36 0.32 0.30
0.00 0.00 0.00 0.00 0.00 0.00 0.00 0.00 0.00 0.00 0.00 0.00 0.00 0.00 0.00 0.00 0.00 0.01 0.01 0.03 0.07 0.11 0.16 0.19 0.22 0.27 0.28 0.30 0.29 0.27 0.26 0.32 0.37 0.36 0.29 0.30 0.30 0.31 0.37 0.41 0.41 0.42 0.45 0.42 0.37 0.35 0.34 0.30 0.27 0.25 0.26 0.26 0.25 0.23
0.01 0.00 0.00 0.00 0.00 0.01 0.01 0.01 0.00 0.00 0.00 0.00 0.00 0.00 0.00 0.00 0.01 0.01 0.02 0.05 0.10 0.13 0.17 0.21 0.21 0.26 0.31 0.31 0.33 0.34 0.29 0.29 0.35 0.38 0.34 0.29 0.28 0.27 0.30 0.34 0.39 0.41 0.42 0.41 0.36 0.36 0.35 0.34 0.36 0.33 0.33 0.32 0.30 0.26
0.05 0.04 0.02 0.01 0.01 0.01 0.01 0.01 0.02 0.01 0.01 0.00 0.00 0.00 0.01 0.01 0.01 0.02 0.03 0.07 0.11 0.14 0.16 0.21 0.26 0.28 0.27 0.28 0.31 0.35 0.37 0.38 0.39 0.42 0.42 0.36 0.31 0.31 0.34 0.35 0.37 0.39 0.38 0.38 0.41 0.42 0.44 0.41 0.38 0.37 0.34 0.31 0.29 0.28

GFSWCAN_prec_precacc_033.txt.gz
Total_Precipitation_Accumulation
0.02 0.04 0.06 0.09 0.09 0.08 0.07 0.06 0.05 0.05 0.05 0.05 0.05 0.06 0.09 0.11 0.12 0.17 0.27 0.37 0.42 0.13 0.02 0.00 0.00 0.01 0.00 0.00 0.01 0.01 0.06 0.10 0.15 0.16 0.17 0.07 0.02 0.01 0.00 0.00 0.00 0.01 0.02 0.03 0.04 0.06 0.00 0.00 0.00 0.00 0.00 0.00 0.00 0.01
0.08 0.10 0.13 0.12 0.10 0.08 0.07 0.08 0.07 0.07 0.08 0.07 0.03 0.06 0.11 0.10 0.11 0.20 0.24 0.26 0.25 0.15 0.01 0.00 0.00 0.00 0.00 0.00 0.02 0.01 0.06 0.11 0.19 0.16 0.13 0.07 0.03 0.00 0.00 0.00 0.00 0.00 0.00 0.00 0.00 0.00 0.00 0.00 0.00 0.00 0.00 0.00 0.00 0.00
0.09 0.12 0.14 0.11 0.08 0.08 0.09 0.09 0.10 0.13 0.14 0.06 0.05 0.05 0.10 0.12 0.09 0.14 0.17 0.19 0.22 0.19 0.04 0.01 0.01 0.00 0.00 0.00 0.00 0.04 0.07 0.14 0.20 0.19 0.30 0.11 0.03 0.03 0.01 0.00 0.00 0.00 0.00 0.00 0.00 0.00 0.00 0.00 0.00 0.00 0.00 0.00 0.00 0.01
0.11 0.13 0.12 0.09 0.10 0.11 0.11 0.13 0.16 0.18 0.13 0.11 0.08 0.06 0.06 0.06 0.09 0.11 0.08 0.09 0.17 0.22 0.16 0.04 0.01 0.02 0.01 0.01 0.02 0.02 0.08 0.17 0.22 0.33 0.23 0.14 0.04 0.02 0.01 0.01 0.00 0.01 0.00 0.00 0.00 0.00 0.00 0.00 0.00 0.00 0.00 0.00 0.00 0.00
0.14 0.13 0.12 0.15 0.18 0.17 0.18 0.19 0.15 0.14 0.14 0.14 0.10 0.05 0.09 0.11 0.09 0.07 0.01 0.05 0.11 0.25 0.30 0.17 0.16 0.01 0.01 0.05 0.04 0.06 0.11 0.30 0.33 0.46 0.28 0.06 0.03 0.01 0.01 0.00 0.00 0.00 0.00 0.00 0.00 0.00 0.00 0.00 0.00 0.00 0.00 0.00 0.00 0.00
0.16 0.15 0.16 0.17 0.21 0.20 0.19 0.19 0.17 0.15 0.18 0.15 0.06 0.09 0.08 0.07 0.14 0.14 0.20 0.35 0.27 0.31 0.55 0.42 0.34 0.16 0.06 0.09 0.09 0.15 0.22 0.43 0.65 0.43 0.30 0.11 0.03 0.04 0.05 0.01 0.00 0.00 0.00 0.00 0.00 0.00 0.00 0.00 0.00 0.00 0.00 0.00 0.00 0.00
0.17 0.16 0.17 0.20 0.22 0.19 0.19 0.16 0.14 0.16 0.16 0.07 0.07 0.05 0.03 0.04 0.10 0.12 0.24 0.61 0.57 0.57 0.64 0.77 0.66 0.48 0.14 0.22 0.27 0.30 0.31 0.52 0.84 0.56 0.32 0.11 0.08 0.23 0.13 0.01 0.00 0.01 0.01 0.01 0.00 0.00 0.00 0.00 0.00 0.00 0.00 0.00 0.00 0.00
0.16 0.14 0.16 0.20 0.21 0.18 0.14 0.13 0.12 0.12 0.08 0.04 0.03 0.00 0.01 0.07 0.05 0.06 0.05 0.18 0.49 0.86 0.88 1.02 0.98 0.96 0.32 0.52 0.46 0.40 0.38 0.46 0.89 0.59 0.29 0.17 0.09 0.09 0.06 0.00 0.00 0.02 0.01 0.00 0.00 0.00 0.00 0.00 0.00 0.00 0.00 0.00 0.00 0.00
0.15 0.11 0.11 0.14 0.14 0.12 0.10 0.08 0.11 0.12 0.04 0.01 0.00 0.01 0.08 0.06 0.04 0.12 0.21 0.37 0.58 0.93 0.78 0.73 0.86 0.75 0.57 0.59 0.42 0.52 0.47 0.55 0.62 0.38 0.14 0.08 0.07 0.04 0.00 0.00 0.00 0.00 0.00 0.00 0.00 0.00 0.00 0.00 0.00 0.00 0.00 0.00 0.00 0.00
0.17 0.10 0.08 0.10 0.10 0.08 0.06 0.07 0.08 0.04 0.01 0.00 0.01 0.04 0.10 0.02 0.05 0.47 0.80 1.00 0.94 0.72 0.51 0.55 0.44 0.34 0.62 0.50 0.48 0.46 0.24 0.35 0.34 0.13 0.05 0.04 0.01 0.00 0.00 0.00 0.00 0.00 0.00 0.00 0.00 0.00 0.00 0.00 0.00 0.00 0.00 0.00 0.00 0.00
0.13 0.07 0.05 0.08 0.09 0.09 0.06 0.05 0.03 0.01 0.00 0.00 0.02 0.05 0.04 0.05 0.61 1.14 1.28 0.99 0.56 0.33 0.35 0.34 0.30 0.22 0.22 0.11 0.14 0.14 0.10 0.13 0.08 0.14 0.08 0.02 0.00 0.00 0.00 0.00 0.00 0.00 0.00 0.00 0.00 0.00 0.00 0.00 0.00 0.00 0.00 0.00 0.00 0.00
0.17 0.10 0.09 0.13 0.13 0.09 0.04 0.03 0.02 0.01 0.02 0.04 0.06 0.06 0.12 0.44 1.02 0.91 0.90 0.52 0.15 0.08 0.12 0.20 0.23 0.24 0.26 0.05 0.15 0.16 0.06 0.09 0.06 0.01 0.04 0.01 0.00 0.00 0.00 0.00 0.00 0.00 0.00 0.00 0.00 0.00 0.00 0.00 0.00 0.00 0.00 0.00 0.00 0.00
0.16 0.10 0.11 0.12 0.08 0.06 0.03 0.01 0.01 0.01 0.02 0.02 0.05 0.16 0.30 0.56 0.70 0.50 0.40 0.20 0.06 0.05 0.06 0.11 0.25 0.19 0.28 0.07 0.13 0.15 0.01 0.01 0.01 0.02 0.02 0.00 0.00 0.00 0.00 0.00 0.00 0.00 0.00 0.02 0.03 0.03 0.02 0.02 0.02 0.02 0.01 0.01 0.00 0.01
0.12 0.09 0.08 0.09 0.06 0.02 0.01 0.00 0.00 0.02 0.03 0.01 0.07 0.15 0.25 0.32 0.34 0.26 0.15 0.12 0.04 0.04 0.03 0.04 0.11 0.16 0.18 0.08 0.03 0.05 0.02 0.00 0.00 0.00 0.00 0.00 0.00 0.00 0.00 0.00 0.00 0.00 0.01 0.07 0.17 0.20 0.21 0.29 0.32 0.24 0.15 0.08 0.06 0.08
0.12 0.11 0.10 0.08 0.06 0.02 0.02 0.01 0.00 0.01 0.01 0.02 0.10 0.13 0.15 0.22 0.09 0.05 0.03 0.05 0.02 0.02 0.03 0.02 0.07 0.06 0.08 0.08 0.01 0.00 0.00 0.00 0.00 0.00 0.00 0.00 0.00 0.00 0.00 0.00 0.00 0.00 0.00 0.00 0.08 0.06 0.03 0.07 0.07 0.17 0.25 0.20 0.13 0.10
0.20 0.19 0.10 0.03 0.02 0.01 0.00 0.00 0.00 0.01 0.01 0.02 0.07 0.15 0.11 0.07 0.04 0.01 0.01 0.02 0.02 0.02 0.05 0.05 0.08 0.07 0.05 0.02 0.01 0.00 0.00 0.00 0.00 0.00 0.00 0.00 0.00 0.00 0.00 0.00 0.00 0.00 0.00 0.00 0.01 0.01 0.00 0.00 0.00 0.02 0.08 0.21 0.20 0.17
0.37 0.11 0.03 0.03 0.02 0.00 0.00 0.00 0.00 0.01 0.01 0.03 0.03 0.09 0.10 0.06 0.06 0.04 0.02 0.00 0.01 0.07 0.16 0.24 0.20 0.07 0.04 0.04 0.00 0.00 0.00 0.00 0.00 0.00 0.00 0.00 0.00 0.00 0.00 0.00 0.00 0.00 0.00 0.00 0.00 0.00 0.00 0.00 0.00 0.00 0.00 0.01 0.06 0.14
0.15 0.02 0.04 0.04 0.03 0.02 0.00 0.00 0.00 0.00 0.01 0.01 0.00 0.01 0.01 0.03 0.04 0.05 0.03 0.02 0.02 0.11 0.27 0.48 0.27 0.14 0.03 0.01 0.00 0.00 0.00 0.00 0.00 0.00 0.00 0.00 0.00 0.00 0.00 0.00 0.00 0.00 0.00 0.00 0.00 0.00 0.00 0.00 0.00 0.00 0.00 0.00 0.00 0.00
0.06 0.07 0.14 0.09 0.06 0.02 0.01 0.00 0.00 0.00 0.00 0.00 0.00 0.00 0.00 0.00 0.03 0.04 0.03 0.03 0.05 0.12 0.22 0.31 0.24 0.08 0.00 0.00 0.00 0.00 0.00 0.00 0.00 0.00 0.00 0.00 0.00 0.00 0.00 0.00 0.00 0.00 0.00 0.00 0.00 0.00 0.00 0.00 0.00 0.00 0.00 0.00 0.00 0.00
0.18 0.26 0.27 0.17 0.06 0.00 0.00 0.00 0.00 0.00 0.00 0.00 0.00 0.00 0.00 0.00 0.00 0.03 0.06 0.04 0.07 0.27 0.32 0.19 0.06 0.03 0.03 0.03 0.03 0.01 0.00 0.00 0.00 0.00 0.00 0.00 0.00 0.00 0.00 0.00 0.00 0.00 0.00 0.00 0.00 0.00 0.00 0.00 0.00 0.00 0.00 0.00 0.00 0.00
0.45 0.49 0.48 0.20 0.11 0.02 0.00 0.00 0.00 0.00 0.00 0.00 0.00 0.00 0.00 0.00 0.00 0.01 0.07 0.15 0.23 0.33 0.27 0.13 0.05 0.03 0.04 0.06 0.05 0.03 0.00 0.00 0.00 0.00 0.00 0.00 0.00 0.00 0.00 0.00 0.00 0.00 0.00 0.00 0.00 0.00 0.00 0.00 0.00 0.00 0.00 0.00 0.00 0.00
0.20 0.27 0.26 0.30 0.16 0.06 0.02 0.00 0.00 0.00 0.00 0.00 0.00 0.01 0.00 0.00 0.01 0.03 0.06 0.18 0.29 0.16 0.12 0.12 0.13 0.11 0.08 0.07 0.07 0.07 0.05 0.02 0.00 0.00 0.00 0.00 0.00 0.00 0.00 0.00 0.00 0.00 0.00 0.00 0.00 0.00 0.00 0.00 0.00 0.00 0.00 0.00 0.00 0.00
0.27 0.32 0.32 0.25 0.15 0.09 0.03 0.01 0.00 0.00 0.00 0.00 0.00 0.00 0.00 0.01 0.01 0.02 0.09 0.11 0.12 0.10 0.08 0.08 0.12 0.16 0.17 0.14 0.14 0.12 0.11 0.08 0.04 0.02 0.01 0.00 0.00 0.00 0.00 0.00 0.00 0.00 0.00 0.00 0.00 0.00 0.00 0.00 0.00 0.00 0.00 0.00 0.00 0.00
0.22 0.29 0.28 0.21 0.14 0.05 0.02 0.01 0.01 0.00 0.00 0.00 0.00 0.00 0.00 0.00 0.02 0.05 0.06 0.04 0.03 0.04 0.08 0.12 0.11 0.10 0.10 0.12 0.14 0.18 0.21 0.18 0.13 0.09 0.07 0.05 0.03 0.02 0.01 0.01 0.00 0.00 0.00 0.00 0.00 0.00 0.00 0.00 0.00 0.00 0.00 0.00 0.00 0.00
0.43 0.36 0.22 0.16 0.06 0.02 0.01 0.00 0.00 0.00 0.00 0.00 0.02 0.00 0.00 0.01 0.02 0.02 0.02 0.00 0.01 0.03 0.06 0.09 0.11 0.12 0.11 0.10 0.10 0.10 0.12 0.19 0.21 0.19 0.18 0.15 0.11 0.11 0.09 0.06 0.03 0.01 0.01 0.02 0.01 0.00 0.00 0.00 0.00 0.00 0.00 0.00 0.00 0.01
0.38 0.16 0.05 0.00 0.00 0.00 0.00 0.00 0.00 0.00 0.00 0.01 0.02 0.00 0.00 0.02 0.02 0.01 0.00 0.00 0.01 0.03 0.05 0.07 0.07 0.08 0.07 0.08 0.10 0.12 0.13 0.15 0.16 0.18 0.22 0.25 0.20 0.17 0.16 0.15 0.10 0.06 0.04 0.05 0.05 0.04 0.03 0.01 0.01 0.01 0.01 0.01 0.02 0.03
0.18 0.12 0.05 0.00 0.00 0.00 0.00 0.00 0.00 0.00 0.01 0.02 0.01 0.00 0.01 0.02 0.01 0.01 0.01 0.00 0.01 0.02 0.04 0.08 0.12 0.11 0.08 0.10 0.11 0.12 0.15 0.17 0.18 0.16 0.22 0.33 0.34 0.26 0.18 0.15 0.14 0.11 0.11 0.12 0.09 0.08 0.06 0.05 0.04 0.04 0.05 0.05 0.05 0.05
0.05 0.00 0.00 0.00 0.00 0.00 0.00 0.00 0.00 0.00 0.00 0.01 0.00 0.00 0.01 0.02 0.01 0.00 0.00 0.00 0.01 0.02 0.04 0.08 0.12 0.15 0.14 0.12 0.14 0.16 0.18 0.21 0.25 0.26 0.30 0.36 0.40 0.40 0.34 0.30 0.30 0.30 0.27 0.21 0.16 0.14 0.13 0.11 0.10 0.12 0.14 0.11 0.09 0.08
0.01 0.00 0.00 0.00 0.00 0.00 0.00 0.00 0.00 0.00 0.00 0.00 0.00 0.00 0.00 0.00 0.00 0.00 0.00 0.01 0.02 0.04 0.06 0.09 0.12 0.14 0.17 0.18 0.19 0.22 0.24 0.24 0.20 0.19 0.15 0.20 0.29 0.41 0.45 0.42 0.44 0.44 0.38 0.34 0.31 0.24 0.21 0.21 0.22 0.23 0.25 0.25 0.23 0.22
0.00 0.00 0.00 0.00 0.00 0.00 0.00 0.00 0.00 0.00 0.00 0.00 0.00 0.00 0.00 0.00 0.00 0.00 0.00 0.01 0.04 0.07 0.11 0.14 0.16 0.19 0.21 0.22 0.23 0.23 0.25 0.28 0.26 0.16 0.13 0.14 0.20 0.31 0.40 0.40 0.43 0.46 0.44 0.40 0.47 0.52 0.49 0.48 0.49 0.47 0.41 0.36 0.33 0.30
0.00 0.00 0.00 0.00 0.00 0.00 0.00 0.00 0.00 0.00 0.00 0.00 0.00 0.00 0.00 0.00 0.00 0.01 0.01 0.03 0.07 0.11 0.16 0.19 0.22 0.27 0.28 0.30 0.29 0.27 0.26 0.32 0.37 0.36 0.29 0.30 0.30 0.31 0.37 0.41 0.41 0.42 0.45 0.42 0.37 0.35 0.34 0.30 0.27 0.26 0.26 0.26 0.25 0.23
0.01 0.00 0.00 0.00 0.00 0.01 0.01 0.01 0.00 0.00 0.00 0.00 0.00 0.00 0.00 0.00 0.01 0.01 0.02 0.05 0.10 0.13 0.17 0.21 0.21 0.26 0.31 0.31 0.33 0.34 0.29 0.29 0.35 0.38 0.34 0.29 0.28 0.27 0.30 0.34 0.39 0.41 0.43 0.41 0.37 0.36 0.35 0.35 0.36 0.34 0.33 0.32 0.30 0.27
0.06 0.04 0.02 0.02 0.02 0.01 0.01 0.01 0.02 0.01 0.01 0.00 0.00 0.00 0.01 0.01 0.01 0.02 0.03 0.07 0.11 0.14 0.16 0.21 0.26 0.28 0.27 0.28 0.31 0.35 0.37 0.38 0.39 0.42 0.42 0.36 0.32 0.31 0.34 0.36 0.38 0.39 0.39 0.39 0.42 0.43 0.45 0.41 0.39 0.38 0.34 0.31 0.30 0.28

GFSWCAN_prec_precacc_036.txt.gz
Total_Precipitation_Accumulation
0.03 0.04 0.06 0.09 0.10 0.10 0.09 0.06 0.05 0.05 0.06 0.08 0.07 0.07 0.10 0.17 0.14 0.18 0.27 0.37 0.42 0.13 0.02 0.00 0.00 0.01 0.00 0.00 0.02 0.01 0.06 0.11 0.15 0.16 0.17 0.07 0.02 0.01 0.00 0.00 0.00 0.01 0.03 0.05 0.05 0.07 0.00 0.00 0.00 0.00 0.00 0.00 0.00 0.01
0.09 0.11 0.13 0.13 0.11 0.09 0.07 0.08 0.07 0.08 0.10 0.11 0.05 0.06 0.11 0.15 0.17 0.21 0.24 0.26 0.25 0.15 0.01 0.00 0.00 0.00 0.00 0.00 0.02 0.01 0.06 0.11 0.19 0.16 0.13 0.07 0.03 0.00 0.00 0.00 0.00 0.00 0.00 0.00 0.00 0.00 0.00 0.00 0.00 0.00 0.00 0.00 0.00 0.00
0.09 0.12 0.14 0.11 0.08 0.08 0.09 0.09 0.10 0.14 0.16 0.08 0.08 0.07 0.10 0.13 0.13 0.21 0.19 0.19 0.23 0.21 0.05 0.03 0.02 0.00 0.00 0.00 0.00 0.04 0.07 0.14 0.21 0.19 0.30 0.11 0.03 0.03 0.01 0.00 0.00 0.00 0.00 0.00 0.00 0.00 0.00 0.00 0.00 0.00 0.00 0.00 0.00 0.01
0.11 0.13 0.12 0.09 0.10 0.12 0.11 0.14 0.18 0.19 0.14 0.13 0.11 0.06 0.07 0.07 0.11 0.14 0.08 0.09 0.17 0.23 0.17 0.05 0.01 0.02 0.01 0.01 0.02 0.02 0.08 0.17 0.26 0.41 0.24 0.14 0.04 0.02 0.01 0.01 0.00 0.01 0.00 0.00 0.00 0.00 0.00 0.00 0.00 0.00 0.00 0.00 0.00 0.00
0.14 0.13 0.12 0.15 0.19 0.19 0.22 0.22 0.16 0.14 0.14 0.16 0.13 0.05 0.10 0.14 0.12 0.08 0.01 0.05 0.11 0.27 0.31 0.17 0.16 0.01 0.01 0.05 0.04 0.06 0.11 0.30 0.34 0.59 0.46 0.09 0.03 0.01 0.01 0.00 0.00 0.00 0.00 0.00 0.00 0.00 0.00 0.00 0.00 0.00 0.00 0.00 0.00 0.00
0.16 0.15 0.16 0.18 0.23 0.27 0.22 0.21 0.17 0.15 0.20 0.20 0.09 0.11 0.12 0.08 0.14 0.14 0.20 0.35 0.27 0.31 0.56 0.42 0.34 0.16 0.06 0.09 0.09 0.15 0.22 0.43 0.67 0.49 0.52 0.26 0.03 0.04 0.05 0.01 0.00 0.00 0.00 0.00 0.00 0.00 0.00 0.00 0.00 0.00 0.00 0.00 0.00 0.00
0.18 0.16 0.17 0.20 0.24 0.20 0.20 0.17 0.14 0.17 0.17 0.09 0.10 0.09 0.04 0.04 0.10 0.12 0.24 0.61 0.57 0.57 0.66 0.77 0.66 0.48 0.14 0.23 0.27 0.30 0.31 0.54 0.87 0.63 0.41 0.30 0.14 0.23 0.13 0.01 0.00 0.01 0.01 0.01 0.00 0.00 0.00 0.00 0.00 0.00 0.00 0.00 0.00 0.00
0.16 0.15 0.16 0.20 0.21 0.18 0.15 0.13 0.12 0.12 0.10 0.05 0.05 0.01 0.01 0.08 0.05 0.06 0.05 0.18 0.49 0.87 0.89 1.03 0.98 0.96 0.32 0.53 0.46 0.40 0.38 0.46 0.98 0.71 0.33 0.23 0.25 0.11 0.06 0.00 0.00 0.02 0.01 0.00 0.00 0.00 0.00 0.00 0.00 0.00 0.00 0.00 0.00 0.00
0.15 0.13 0.12 0.14 0.14 0.12 0.10 0.08 0.11 0.13 0.04 0.01 0.00 0.01 0.08 0.06 0.04 0.12 0.21 0.38 0.61 0.95 0.78 0.74 0.87 0.77 0.62 0.61 0.44 0.54 0.47 0.56 0.71 0.50 0.20 0.18 0.13 0.05 0.00 0.00 0.00 0.00 0.00 0.00 0.00 0.00 0.00 0.00 0.00 0.00 0.00 0.00 0.00 0.00
0.19 0.12 0.08 0.10 0.10 0.09 0.06 0.07 0.08 0.04 0.01 0.00 0.01 0.04 0.10 0.02 0.05 0.47 0.81 1.02 0.99 0.76 0.53 0.58 0.49 0.40 0.80 0.59 0.50 0.56 0.30 0.47 0.54 0.29 0.18 0.15 0.05 0.00 0.00 0.00 0.00 0.00 0.00 0.00 0.00 0.00 0.00 0.00 0.00 0.00 0.00 0.00 0.00 0.00
0.14 0.08 0.05 0.08 0.09 0.09 0.06 0.05 0.03 0.01 0.00 0.00 0.02 0.05 0.04 0.05 0.61 1.14 1.29 1.00 0.58 0.36 0.37 0.36 0.35 0.31 0.39 0.41 0.27 0.31 0.30 0.24 0.20 0.25 0.13 0.03 0.01 0.00 0.00 0.00 0.00 0.00 0.00 0.00 0.00 0.00 0.00 0.00 0.00 0.00 0.00 0.00 0.00 0.00
0.17 0.10 0.10 0.13 0.13 0.10 0.05 0.03 0.02 0.01 0.02 0.04 0.06 0.06 0.12 0.44 1.03 0.92 0.90 0.53 0.17 0.12 0.18 0.24 0.26 0.31 0.36 0.10 0.18 0.18 0.08 0.09 0.06 0.01 0.05 0.01 0.00 0.00 0.00 0.00 0.00 0.00 0.00 0.00 0.00 0.00 0.00 0.00 0.00 0.00 0.00 0.00 0.00 0.00
0.16 0.10 0.11 0.12 0.08 0.06 0.03 0.01 0.01 0.01 0.02 0.02 0.05 0.16 0.30 0.56 0.72 0.53 0.42 0.22 0.08 0.07 0.08 0.11 0.26 0.21 0.33 0.13 0.16 0.16 0.02 0.01 0.01 0.03 0.02 0.00 0.00 0.00 0.00 0.00 0.00 0.00 0.00 0.02 0.03 0.03 0.02 0.03 0.05 0.07 0.06 0.03 0.01 0.02
0.13 0.10 0.09 0.10 0.06 0.02 0.01 0.00 0.00 0.02 0.03 0.01 0.07 0.15 0.25 0.32 0.37 0.27 0.17 0.14 0.04 0.04 0.03 0.04 0.11 0.19 0.22 0.14 0.04 0.06 0.04 0.01 0.01 0.01 0.00 0.00 0.00 0.00 0.00 0.00 0.00 0.00 0.01 0.07 0.17 0.20 0.21 0.32 0.34 0.27 0.19 0.12 0.10 0.09
0.12 0.12 0.11 0.08 0.06 0.02 0.02 0.01 0.00 0.01 0.01 0.02 0.10 0.13 0.15 0.22 0.09 0.05 0.04 0.05 0.02 0.02 0.03 0.02 0.07 0.10 0.13 0.13 0.04 0.01 0.01 0.01 0.00 0.00 0.00 0.00 0.00 0.00 0.00 0.00 0.00 0.00 0.00 0.00 0.08 0.06 0.03 0.07 0.07 0.17 0.25 0.21 0.13 0.10
0.20 0.20 0.10 0.03 0.02 0.02 0.00 0.00 0.00 0.01 0.01 0.02 0.07 0.15 0.11 0.07 0.04 0.01 0.01 0.02 0.02 0.02 0.05 0.05 0.09 0.10 0.10 0.08 0.04 0.01 0.00 0.00 0.00 0.00 0.00 0.00 0.00 0.00 0.00 0.00 0.00 0.00 0.00 0.00 0.01 0.01 0.00 0.00 0.00 0.02 0.08 0.21 0.20 0.17
0.38 0.11 0.03 0.03 0.03 0.00 0.00 0.00 0.00 0.01 0.01 0.03 0.03 0.09 0.10 0.06 0.06 0.04 0.02 0.00 0.01 0.07 0.17 0.25 0.24 0.10 0.07 0.06 0.00 0.00 0.00 0.00 0.00 0.00 0.00 0.00 0.00 0.00 0.00 0.00 0.00 0.00 0.00 0.00 0.00 0.00 0.00 0.00 0.00 0.00 0.00 0.01 0.06 0.14
0.15 0.02 0.04 0.04 0.03 0.02 0.01 0.00 0.00 0.00 0.01 0.01 0.00 0.01 0.01 0.03 0.04 0.05 0.03 0.02 0.02 0.11 0.27 0.50 0.29 0.15 0.04 0.01 0.00 0.00 0.01 0.00 0.00 0.00 0.00 0.00 0.00 0.00 0.00 0.00 0.00 0.00 0.00 0.00 0.00 0.00 0.00 0.00 0.00 0.00 0.00 0.00 0.00 0.00
0.06 0.07 0.14 0.09 0.06 0.02 0.01 0.00 0.00 0.00 0.00 0.00 0.00 0.00 0.00 0.00 0.03 0.04 0.03 0.03 0.05 0.12 0.22 0.32 0.24 0.08 0.00 0.00 0.00 0.00 0.00 0.00 0.00 0.00 0.00 0.00 0.00 0.00 0.00 0.00 0.00 0.00 0.00 0.00 0.00 0.00 0.00 0.00 0.00 0.00 0.00 0.00 0.00 0.00
0.18 0.26 0.27 0.18 0.07 0.01 0.00 0.00 0.00 0.00 0.00 0.00 0.00 0.00 0.00 0.00 0.00 0.03 0.06 0.04 0.07 0.27 0.33 0.20 0.06 0.03 0.03 0.03 0.03 0.01 0.00 0.00 0.00 0.00 0.00 0.00 0.00 0.00 0.00 0.00 0.00 0.00 0.00 0.00 0.00 0.00 0.00 0.00 0.00 0.00 0.00 0.00 0.00 0.00
0.45 0.50 0.49 0.20 0.11 0.02 0.00 0.00 0.00 0.00 0.00 0.00 0.00 0.00 0.00 0.00 0.00 0.01 0.07 0.15 0.23 0.33 0.27 0.13 0.05 0.03 0.04 0.06 0.05 0.03 0.00 0.00 0.00 0.00 0.00 0.00 0.00 0.00 0.00 0.00 0.00 0.00 0.00 0.00 0.00 0.00 0.00 0.00 0.00 0.00 0.00 0.00 0.00 0.00
0.21 0.27 0.26 0.30 0.17 0.07 0.03 0.00 0.00 0.01 0.01 0.00 0.00 0.01 0.00 0.00 0.01 0.03 0.07 0.18 0.29 0.16 0.12 0.12 0.13 0.11 0.08 0.07 0.07 0.07 0.05 0.02 0.00 0.00 0.00 0.00 0.00 0.00 0.00 0.00 0.00 0.00 0.00 0.00 0.00 0.00 0.00 0.00 0.00 0.00 0.00 0.00 0.00 0.00
0.27 0.32 0.32 0.25 0.15 0.09 0.03 0.01 0.01 0.01 0.00 0.00 0.00 0.00 0.00 0.01 0.01 0.03 0.09 0.11 0.12 0.10 0.08 0.08 0.12 0.16 0.17 0.14 0.14 0.12 0.11 0.08 0.04 0.02 0.01 0.00 0.00 0.00 0.00 0.00 0.00 0.00 0.00 0.00 0.00 0.00 0.00 0.00 0.00 0.00 0.00 0.00 0.00 0.00
0.22 0.29 0.28 0.21 0.14 0.06 0.03 0.01 0.01 0.01 0.01 0.00 0.00 0.00 0.00 0.00 0.02 0.05 0.06 0.04 0.03 0.04 0.08 0.12 0.11 0.10 0.10 0.12 0.14 0.18 0.21 0.18 0.13 0.09 0.07 0.05 0.03 0.02 0.01 0.01 0.00 0.00 0.00 0.00 0.00 0.00 0.00 0.00 0.00 0.00 0.00 0.00 0.00 0.00
0.43 0.36 0.23 0.17 0.07 0.04 0.02 0.01 0.01 0.01 0.00 0.00 0.02 0.00 0.00 0.02 0.02 0.02 0.02 0.00 0.01 0.03 0.06 0.09 0.11 0.12 0.11 0.10 0.10 0.10 0.12 0.19 0.21 0.19 0.18 0.15 0.11 0.11 0.09 0.06 0.03 0.01 0.01 0.02 0.01 0.00 0.00 0.00 0.00 0.00 0.00 0.00 0.00 0.01
0.40 0.16 0.06 0.01 0.01 0.01 0.00 0.00 0.00 0.00 0.00 0.01 0.02 0.00 0.00 0.02 0.02 0.01 0.00 0.00 0.01 0.03 0.05 0.07 0.07 0.08 0.07 0.08 0.10 0.12 0.13 0.15 0.16 0.18 0.22 0.25 0.20 0.17 0.16 0.15 0.10 0.06 0.04 0.05 0.05 0.04 0.03 0.01 0.01 0.01 0.01 0.01 0.02 0.03
0.19 0.12 0.05 0.01 0.00 0.00 0.00 0.00 0.00 0.00 0.01 0.02 0.01 0.00 0.01 0.02 0.01 0.01 0.01 0.00 0.01 0.02 0.04 0.08 0.12 0.11 0.08 0.10 0.11 0.12 0.15 0.17 0.18 0.16 0.22 0.33 0.34 0.26 0.18 0.15 0.14 0.11 0.11 0.12 0.09 0.08 0.06 0.05 0.04 0.04 0.05 0.05 0.05 0.05
0.05 0.00 0.01 0.01 0.00 0.00 0.00 0.00 0.00 0.00 0.00 0.01 0.00 0.00 0.01 0.02 0.01 0.00 0.00 0.00 0.01 0.02 0.04 0.08 0.12 0.15 0.14 0.12 0.14 0.16 0.18 0.21 0.25 0.26 0.30 0.36 0.40 0.40 0.34 0.30 0.30 0.30 0.27 0.21 0.16 0.14 0.13 0.11 0.10 0.12 0.14 0.11 0.09 0.08
0.02 0.00 0.00 0.00 0.00 0.00 0.00 0.00 0.00 0.00 0.00 0.00 0.00 0.00 0.00 0.00 0.00 0.00 0.00 0.01 0.02 0.04 0.06 0.09 0.12 0.14 0.17 0.18 0.19 0.22 0.24 0.24 0.20 0.19 0.15 0.20 0.29 0.41 0.45 0.42 0.44 0.44 0.38 0.34 0.31 0.24 0.21 0.22 0.22 0.24 0.26 0.25 0.23 0.22
0.01 0.00 0.00 0.00 0.00 0.00 0.00 0.00 0.00 0.00 0.00 0.00 0.00 0.00 0.00 0.00 0.00 0.00 0.00 0.01 0.04 0.07 0.11 0.14 0.16 0.19 0.21 0.22 0.23 0.23 0.25 0.28 0.26 0.16 0.13 0.14 0.20 0.31 0.40 0.40 0.43 0.46 0.44 0.40 0.47 0.52 0.49 0.48 0.49 0.47 0.41 0.37 0.33 0.30
0.00 0.00 0.00 0.00 0.00 0.00 0.00 0.00 0.00 0.00 0.00 0.00 0.00 0.00 0.00 0.00 0.00 0.01 0.01 0.03 0.07 0.11 0.16 0.19 0.22 0.27 0.28 0.30 0.29 0.27 0.26 0.32 0.37 0.36 0.29 0.30 0.30 0.31 0.37 0.41 0.41 0.42 0.45 0.42 0.37 0.35 0.34 0.30 0.27 0.26 0.27 0.26 0.25 0.23
0.01 0.00 0.00 0.00 0.00 0.01 0.01 0.01 0.00 0.00 0.00 0.00 0.00 0.00 0.00 0.00 0.01 0.01 0.02 0.05 0.10 0.13 0.17 0.21 0.21 0.26 0.31 0.31 0.33 0.34 0.29 0.29 0.35 0.38 0.34 0.29 0.28 0.27 0.30 0.34 0.39 0.41 0.43 0.42 0.37 0.37 0.36 0.35 0.37 0.34 0.33 0.32 0.30 0.27
0.06 0.04 0.02 0.02 0.02 0.01 0.01 0.01 0.02 0.02 0.01 0.00 0.00 0.00 0.01 0.01 0.01 0.02 0.03 0.07 0.11 0.14 0.16 0.21 0.26 0.28 0.27 0.28 0.31 0.35 0.37 0.38 0.39 0.42 0.42 0.36 0.32 0.32 0.35 0.36 0.38 0.40 0.39 0.39 0.42 0.43 0.45 0.42 0.39 0.38 0.34 0.32 0.30 0.28

GFSWCAN_prec_precacc_039.txt.gz
Total_Precipitation_Accumulation
0.03 0.05 0.07 0.09 0.10 0.10 0.09 0.07 0.06 0.05 0.07 0.08 0.07 0.07 0.10 0.18 0.15 0.18 0.27 0.37 0.42 0.13 0.02 0.00 0.00 0.01 0.00 0.00 0.02 0.01 0.07 0.11 0.16 0.18 0.18 0.07 0.02 0.01 0.00 0.00 0.00 0.01 0.03 0.05 0.05 0.07 0.00 0.00 0.00 0.00 0.00 0.00 0.00 0.01
0.09 0.11 0.14 0.13 0.11 0.09 0.07 0.08 0.07 0.08 0.11 0.11 0.06 0.08 0.12 0.16 0.18 0.23 0.25 0.26 0.25 0.15 0.01 0.00 0.00 0.00 0.00 0.00 0.02 0.01 0.07 0.11 0.20 0.18 0.15 0.07 0.03 0.00 0.00 0.00 0.00 0.00 0.00 0.00 0.00 0.00 0.00 0.00 0.00 0.00 0.00 0.00 0.00 0.00
0.09 0.12 0.14 0.11 0.08 0.08 0.09 0.09 0.10 0.15 0.16 0.09 0.10 0.08 0.10 0.13 0.14 0.25 0.26 0.21 0.23 0.22 0.05 0.03 0.02 0.00 0.00 0.00 0.00 0.04 0.07 0.15 0.23 0.19 0.30 0.11 0.04 0.03 0.01 0.00 0.00 0.00 0.00 0.00 0.00 0.00 0.00 0.00 0.00 0.00 0.00 0.00 0.00 0.01
0.11 0.13 0.12 0.09 0.10 0.12 0.11 0.15 0.20 0.20 0.14 0.13 0.12 0.06 0.07 0.07 0.13 0.18 0.10 0.10 0.19 0.25 0.18 0.05 0.01 0.02 0.01 0.01 0.02 0.02 0.08 0.17 0.28 0.48 0.30 0.15 0.05 0.02 0.01 0.01 0.00 0.01 0.00 0.00 0.00 0.00 0.00 0.00 0.00 0.00 0.00 0.00 0.00 0.00
0.14 0.13 0.12 0.15 0.19 0.19 0.24 0.24 0.17 0.14 0.14 0.17 0.14 0.05 0.10 0.16 0.14 0.08 0.02 0.06 0.13 0.28 0.31 0.18 0.16 0.01 0.01 0.05 0.04 0.06 0.11 0.30 0.34 0.59 0.56 0.19 0.06 0.02 0.01 0.00 0.00 0.00 0.00 0.00 0.00 0.00 0.00 0.00 0.00 0.00 0.00 0.00 0.00 0.00
0.17 0.15 0.16 0.18 0.23 0.28 0.24 0.21 0.17 0.15 0.20 0.20 0.09 0.12 0.13 0.10 0.14 0.14 0.20 0.35 0.27 0.31 0.59 0.42 0.34 0.16 0.06 0.09 0.09 0.15 0.22 0.43 0.67 0.50 0.53 0.33 0.12 0.08 0.07 0.02 0.00 0.00 0.00 0.00 0.00 0.00 0.00 0.00 0.00 0.00 0.00 0.00 0.00 0.00
0.18 0.16 0.17 0.20 0.24 0.20 0.20 0.17 0.14 0.17 0.17 0.10 0.11 0.10 0.05 0.04 0.10 0.12 0.24 0.61 0.57 0.57 0.68 0.78 0.66 0.48 0.14 0.23 0.27 0.30 0.31 0.55 0.88 0.64 0.41 0.33 0.28 0.41 0.18 0.02 0.00 0.01 0.01 0.01 0.00 0.00 0.00 0.00 0.00 0.00 0.00 0.00 0.00 0.00
0.17 0.15 0.16 0.20 0.21 0.18 0.15 0.13 0.12 0.12 0.10 0.06 0.06 0.01 0.01 0.08 0.06 0.07 0.05 0.18 0.49 0.88 0.90 1.04 0.98 0.96 0.32 0.53 0.46 0.40 0.38 0.47 1.01 0.73 0.33 0.24 0.35 0.32 0.13 0.00 0.00 0.02 0.01 0.00 0.00 0.00 0.00 0.00 0.00 0.00 0.00 0.00 0.00 0.00
0.16 0.14 0.12 0.14 0.14 0.12 0.10 0.08 0.11 0.13 0.05 0.01 0.00 0.01 0.08 0.06 0.04 0.12 0.21 0.39 0.62 0.99 0.80 0.76 0.89 0.78 0.64 0.63 0.45 0.55 0.47 0.57 0.72 0.52 0.23 0.22 0.24 0.26 0.03 0.00 0.00 0.00 0.00 0.00 0.00 0.00 0.00 0.00 0.00 0.00 0.00 0.00 0.00 0.00
0.19 0.12 0.09 0.10 0.10 0.09 0.06 0.07 0.08 0.04 0.01 0.00 0.01 0.04 0.11 0.02 0.05 0.47 0.82 1.04 1.03 0.80 0.56 0.60 0.51 0.43 0.86 0.63 0.53 0.60 0.32 0.51 0.62 0.31 0.21 0.21 0.13 0.01 0.01 0.00 0.00 0.00 0.00 0.00 0.00 0.00 0.00 0.00 0.00 0.00 0.00 0.00 0.00 0.00
0.14 0.08 0.05 0.08 0.09 0.09 0.07 0.05 0.03 0.01 0.00 0.00 0.02 0.05 0.04 0.05 0.61 1.15 1.30 1.02 0.60 0.39 0.40 0.38 0.38 0.35 0.47 0.49 0.31 0.37 0.41 0.36 0.55 0.35 0.21 0.09 0.04 0.01 0.00 0.00 0.00 0.00 0.00 0.00 0.00 0.00 0.00 0.00 0.00 0.00 0.00 0.00 0.00 0.00
0.18 0.10 0.10 0.13 0.13 0.10 0.05 0.03 0.02 0.01 0.02 0.04 0.06 0.06 0.12 0.44 1.03 0.95 0.93 0.55 0.21 0.16 0.20 0.25 0.27 0.33 0.42 0.21 0.32 0.27 0.19 0.15 0.14 0.08 0.15 0.06 0.00 0.00 0.00 0.00 0.00 0.00 0.00 0.00 0.00 0.00 0.00 0.00 0.00 0.00 0.00 0.00 0.00 0.00
0.17 0.11 0.12 0.12 0.09 0.07 0.03 0.01 0.01 0.01 0.02 0.02 0.05 0.16 0.30 0.56 0.73 0.55 0.44 0.24 0.09 0.08 0.08 0.11 0.26 0.22 0.37 0.25 0.27 0.23 0.05 0.03 0.02 0.04 0.02 0.00 0.00 0.00 0.00 0.00 0.00 0.00 0.00 0.02 0.03 0.03 0.02 0.03 0.05 0.08 0.08 0.06 0.05 0.04
0.13 0.10 0.10 0.10 0.07 0.02 0.01 0.00 0.00 0.02 0.03 0.01 0.07 0.15 0.25 0.32 0.37 0.27 0.17 0.14 0.05 0.04 0.03 0.04 0.12 0.19 0.26 0.19 0.11 0.10 0.05 0.04 0.05 0.03 0.00 0.00 0.00 0.00 0.00 0.00 0.00 0.00 0.01 0.07 0.17 0.20 0.21 0.32 0.34 0.27 0.19 0.15 0.12 0.10
0.13 0.12 0.11 0.09 0.06 0.02 0.02 0.01 0.00 0.01 0.01 0.02 0.10 0.13 0.15 0.22 0.09 0.05 0.04 0.05 0.02 0.02 0.03 0.02 0.07 0.11 0.16 0.18 0.08 0.03 0.02 0.02 0.01 0.02 0.00 0.00 0.00 0.00 0.00 0.00 0.00 0.00 0.00 0.00 0.08 0.06 0.03 0.07 0.07 0.17 0.25 0.21 0.13 0.10
0.21 0.20 0.10 0.03 0.02 0.02 0.00 0.00 0.00 0.01 0.01 0.02 0.07 0.15 0.11 0.07 0.04 0.01 0.01 0.02 0.02 0.02 0.05 0.06 0.10 0.11 0.13 0.15 0.08 0.03 0.01 0.00 0.00 0.00 0.00 0.00 0.00 0.00 0.00 0.00 0.00 0.00 0.00 0.00 0.01 0.01 0.00 0.00 0.00 0.02 0.08 0.21 0.20 0.17
0.38 0.11 0.04 0.03 0.03 0.00 0.00 0.00 0.00 0.01 0.01 0.03 0.03 0.09 0.10 0.06 0.06 0.04 0.02 0.00 0.01 0.07 0.17 0.25 0.25 0.11 0.09 0.10 0.02 0.00 0.01 0.00 0.00 0.00 0.00 0.00 0.00 0.00 0.00 0.00 0.00 0.00 0.00 0.00 0.00 0.00 0.00 0.00 0.00 0.00 0.00 0.01 0.06 0.14
0.15 0.02 0.05 0.04 0.03 0.02 0.01 0.00 0.00 0.00 0.01 0.01 0.00 0.01 0.01 0.03 0.04 0.05 0.03 0.02 0.02 0.11 0.27 0.50 0.30 0.15 0.05 0.02 0.01 0.02 0.06 0.05 0.02 0.00 0.00 0.00 0.00 0.00 0.00 0.00 0.00 0.00 0.00 0.00 0.00 0.00 0.00 0.00 0.00 0.00 0.00 0.00 0.00 0.00
0.06 0.07 0.14 0.09 0.06 0.02 0.01 0.00 0.00 0.00 0.00 0.00 0.00 0.00 0.00 0.00 0.03 0.04 0.03 0.03 0.05 0.12 0.22 0.32 0.25 0.08 0.00 0.00 0.00 0.00 0.00 0.01 0.01 0.00 0.00 0.00 0.00 0.00 0.00 0.00 0.00 0.00 0.00 0.00 0.00 0.00 0.00 0.00 0.00 0.00 0.00 0.00 0.00 0.00
0.19 0.26 0.27 0.18 0.07 0.01 0.00 0.00 0.00 0.00 0.00 0.00 0.00 0.00 0.00 0.00 0.00 0.03 0.06 0.04 0.07 0.27 0.33 0.20 0.06 0.03 0.03 0.03 0.03 0.02 0.00 0.00 0.00 0.00 0.00 0.00 0.00 0.00 0.00 0.00 0.00 0.00 0.00 0.00 0.00 0.00 0.00 0.00 0.00 0.00 0.00 0.00 0.00 0.00
0.46 0.51 0.49 0.21 0.11 0.02 0.00 0.00 0.00 0.00 0.00 0.00 0.00 0.00 0.00 0.00 0.00 0.01 0.07 0.15 0.23 0.33 0.27 0.13 0.05 0.03 0.04 0.06 0.05 0.03 0.00 0.00 0.00 0.00 0.00 0.00 0.00 0.00 0.00 0.00 0.00 0.00 0.00 0.00 0.00 0.00 0.00 0.00 0.00 0.00 0.00 0.00 0.00 0.00
0.21 0.27 0.26 0.30 0.17 0.07 0.03 0.01 0.00 0.01 0.01 0.00 0.00 0.01 0.00 0.00 0.01 0.03 0.07 0.19 0.29 0.16 0.12 0.12 0.13 0.11 0.08 0.07 0.07 0.07 0.05 0.02 0.00 0.00 0.00 0.00 0.00 0.00 0.00 0.00 0.00 0.00 0.00 0.00 0.00 0.00 0.00 0.00 0.00 0.00 0.00 0.00 0.00 0.00
0.27 0.32 0.32 0.25 0.15 0.09 0.04 0.01 0.01 0.01 0.00 0.00 0.00 0.00 0.00 0.01 0.01 0.03 0.09 0.11 0.12 0.10 0.08 0.08 0.12 0.16 0.17 0.14 0.14 0.12 0.11 0.08 0.04 0.02 0.01 0.00 0.00 0.00 0.00 0.00 0.00 0.00 0.00 0.00 0.00 0.00 0.00 0.00 0.00 0.00 0.00 0.00 0.00 0.00
0.22 0.29 0.28 0.21 0.14 0.06 0.03 0.01 0.02 0.01 0.01 0.00 0.00 0.00 0.00 0.00 0.02 0.05 0.06 0.04 0.03 0.04 0.08 0.12 0.11 0.10 0.10 0.12 0.14 0.18 0.21 0.18 0.13 0.09 0.07 0.05 0.03 0.02 0.01 0.01 0.00 0.00 0.00 0.00 0.00 0.00 0.00 0.00 0.00 0.00 0.00 0.00 0.00 0.00
0.44 0.36 0.23 0.17 0.07 0.04 0.02 0.01 0.01 0.01 0.00 0.00 0.02 0.00 0.00 0.02 0.02 0.02 0.02 0.00 0.01 0.03 0.06 0.09 0.11 0.12 0.11 0.10 0.10 0.10 0.12 0.19 0.21 0.19 0.18 0.15 0.11 0.11 0.09 0.06 0.03 0.01 0.01 0.02 0.01 0.00 0.00 0.00 0.00 0.00 0.00 0.00 0.00 0.01
0.41 0.16 0.06 0.01 0.01 0.01 0.00 0.00 0.00 0.00 0.00 0.01 0.02 0.00 0.00 0.02 0.02 0.01 0.00 0.00 0.01 0.03 0.05 0.07 0.07 0.08 0.07 0.08 0.10 0.12 0.13 0.15 0.16 0.18 0.22 0.25 0.20 0.17 0.16 0.15 0.10 0.06 0.04 0.05 0.05 0.04 0.03 0.01 0.01 0.01 0.01 0.01 0.02 0.03
0.20 0.13 0.05 0.01 0.00 0.01 0.00 0.00 0.00 0.00 0.01 0.02 0.01 0.00 0.01 0.02 0.01 0.01 0.01 0.00 0.01 0.02 0.04 0.08 0.12 0.11 0.08 0.10 0.11 0.12 0.15 0.17 0.18 0.16 0.22 0.33 0.34 0.26 0.18 0.15 0.14 0.11 0.11 0.12 0.09 0.08 0.06 0.05 0.04 0.04 0.05 0.05 0.05 0.05
0.06 0.00 0.01 0.01 0.00 0.00 0.00 0.01 0.01 0.01 0.01 0.01 0.00 0.00 0.01 0.02 0.01 0.00 0.00 0.00 0.01 0.02 0.04 0.08 0.12 0.15 0.14 0.12 0.14 0.16 0.18 0.21 0.25 0.26 0.30 0.36 0.40 0.40 0.34 0.30 0.30 0.30 0.27 0.21 0.16 0.14 0.13 0.11 0.10 0.12 0.14 0.11 0.09 0.08
0.02 0.00 0.00 0.00 0.00 0.00 0.00 0.00 0.00 0.00 0.00 0.00 0.00 0.00 0.00 0.00 0.00 0.00 0.00 0.01 0.02 0.04 0.06 0.09 0.12 0.14 0.17 0.18 0.19 0.22 0.24 0.24 0.20 0.19 0.15 0.20 0.29 0.41 0.45 0.42 0.44 0.44 0.38 0.34 0.31 0.24 0.21 0.22 0.22 0.24 0.26 0.25 0.23 0.22
0.01 0.00 0.00 0.00 0.00 0.00 0.00 0.00 0.00 0.00 0.00 0.00 0.00 0.00 0.00 0.00 0.00 0.00 0.00 0.01 0.04 0.07 0.11 0.14 0.16 0.19 0.21 0.22 0.23 0.23 0.25 0.28 0.26 0.16 0.13 0.14 0.20 0.31 0.40 0.40 0.43 0.46 0.44 0.40 0.47 0.52 0.49 0.48 0.49 0.47 0.42 0.37 0.33 0.30
0.00 0.00 0.00 0.00 0.00 0.00 0.00 0.00 0.00 0.00 0.00 0.00 0.00 0.00 0.00 0.00 0.00 0.01 0.01 0.03 0.07 0.11 0.16 0.19 0.22 0.27 0.28 0.30 0.29 0.27 0.26 0.32 0.37 0.36 0.29 0.30 0.30 0.31 0.37 0.41 0.41 0.42 0.45 0.42 0.37 0.35 0.34 0.30 0.27 0.26 0.27 0.26 0.25 0.23
0.01 0.00 0.00 0.00 0.00 0.01 0.01 0.01 0.00 0.00 0.00 0.00 0.00 0.00 0.00 0.00 0.01 0.01 0.02 0.05 0.10 0.13 0.17 0.21 0.21 0.26 0.31 0.31 0.33 0.34 0.29 0.29 0.35 0.38 0.34 0.29 0.28 0.27 0.30 0.34 0.39 0.41 0.43 0.42 0.38 0.37 0.36 0.36 0.37 0.34 0.33 0.32 0.30 0.27
0.06 0.04 0.03 0.02 0.02 0.01 0.01 0.01 0.02 0.02 0.01 0.00 0.00 0.00 0.01 0.01 0.01 0.02 0.03 0.07 0.11 0.14 0.16 0.21 0.26 0.28 0.27 0.28 0.31 0.35 0.37 0.38 0.39 0.42 0.42 0.36 0.32 0.32 0.35 0.36 0.38 0.40 0.39 0.40 0.43 0.44 0.45 0.42 0.39 0.38 0.34 0.32 0.30 0.28

GFSWCAN_prec_precacc_042.txt.gz
Total_Precipitation_Accumulation
0.03 0.05 0.07 0.09 0.10 0.10 0.09 0.07 0.06 0.05 0.07 0.08 0.07 0.08 0.11 0.18 0.16 0.18 0.28 0.37 0.42 0.13 0.02 0.00 0.00 0.01 0.00 0.00 0.02 0.02 0.07 0.12 0.17 0.21 0.20 0.07 0.02 0.01 0.00 0.00 0.00 0.01 0.03 0.05 0.05 0.07 0.00 0.00 0.00 0.00 0.00 0.00 0.00 0.01
0.09 0.11 0.14 0.13 0.11 0.09 0.07 0.08 0.07 0.08 0.11 0.11 0.06 0.09 0.13 0.16 0.18 0.24 0.25 0.27 0.25 0.15 0.01 0.00 0.00 0.00 0.00 0.00 0.02 0.01 0.07 0.11 0.20 0.19 0.16 0.09 0.03 0.00 0.00 0.00 0.00 0.00 0.00 0.00 0.00 0.00 0.00 0.00 0.00 0.00 0.00 0.00 0.00 0.00
0.09 0.12 0.14 0.11 0.08 0.08 0.09 0.09 0.11 0.16 0.16 0.09 0.10 0.08 0.11 0.13 0.14 0.28 0.29 0.22 0.24 0.24 0.05 0.03 0.02 0.00 0.00 0.00 0.00 0.04 0.07 0.15 0.23 0.20 0.31 0.13 0.05 0.03 0.02 0.00 0.00 0.00 0.00 0.00 0.00 0.00 0.00 0.00 0.00 0.00 0.00 0.00 0.00 0.01
0.11 0.13 0.12 0.09 0.10 0.12 0.12 0.15 0.22 0.22 0.14 0.14 0.13 0.07 0.08 0.08 0.15 0.21 0.11 0.10 0.20 0.26 0.19 0.05 0.01 0.02 0.01 0.02 0.02 0.02 0.09 0.17 0.29 0.48 0.33 0.18 0.07 0.03 0.02 0.01 0.00 0.01 0.00 0.00 0.00 0.00 0.00 0.00 0.00 0.00 0.00 0.00 0.00 0.00
0.14 0.13 0.12 0.15 0.19 0.20 0.24 0.25 0.18 0.14 0.15 0.17 0.14 0.06 0.11 0.17 0.16 0.08 0.02 0.07 0.15 0.31 0.32 0.18 0.16 0.01 0.01 0.05 0.04 0.06 0.11 0.30 0.34 0.59 0.57 0.22 0.09 0.06 0.02 0.01 0.00 0.00 0.00 0.00 0.00 0.00 0.00 0.00 0.00 0.00 0.00 0.00 0.00 0.00
0.17 0.15 0.16 0.18 0.23 0.28 0.24 0.21 0.17 0.15 0.20 0.20 0.10 0.13 0.15 0.10 0.14 0.15 0.20 0.36 0.28 0.32 0.60 0.43 0.34 0.16 0.06 0.09 0.09 0.15 0.22 0.43 0.67 0.50 0.53 0.33 0.13 0.20 0.16 0.03 0.00 0.00 0.00 0.00 0.00 0.00 0.00 0.00 0.00 0.00 0.00 0.00 0.00 0.00
0.18 0.16 0.17 0.20 0.24 0.21 0.20 0.17 0.14 0.17 0.17 0.10 0.12 0.11 0.05 0.04 0.11 0.12 0.25 0.62 0.58 0.57 0.68 0.78 0.66 0.48 0.14 0.23 0.27 0.30 0.31 0.55 0.89 0.66 0.41 0.33 0.29 0.52 0.33 0.04 0.00 0.01 0.01 0.01 0.00 0.00 0.00 0.00 0.00 0.00 0.00 0.00 0.00 0.00
0.17 0.15 0.16 0.20 0.22 0.18 0.15 0.13 0.12 0.12 0.10 0.06 0.06 0.01 0.01 0.08 0.06 0.07 0.05 0.18 0.49 0.88 0.91 1.04 0.98 0.96 0.32 0.53 0.46 0.40 0.39 0.48 1.02 0.74 0.34 0.24 0.35 0.35 0.20 0.02 0.04 0.02 0.01 0.00 0.00 0.00 0.00 0.00 0.00 0.00 0.00 0.00 0.00 0.00
0.16 0.14 0.12 0.14 0.14 0.12 0.10 0.08 0.11 0.13 0.05 0.01 0.00 0.01 0.08 0.06 0.04 0.12 0.21 0.40 0.63 1.02 0.82 0.77 0.90 0.80 0.64 0.64 0.45 0.55 0.47 0.57 0.72 0.53 0.23 0.25 0.26 0.28 0.05 0.06 0.08 0.03 0.00 0.00 0.00 0.00 0.00 0.00 0.00 0.00 0.00 0.00 0.00 0.00
0.19 0.12 0.09 0.10 0.10 0.09 0.06 0.07 0.08 0.05 0.01 0.00 0.01 0.04 0.11 0.02 0.05 0.48 0.83 1.06 1.07 0.83 0.57 0.62 0.53 0.45 0.89 0.66 0.56 0.61 0.33 0.55 0.64 0.31 0.23 0.27 0.16 0.02 0.03 0.05 0.04 0.00 0.00 0.00 0.00 0.00 0.00 0.00 0.00 0.00 0.00 0.00 0.00 0.00
0.14 0.08 0.05 0.08 0.09 0.09 0.07 0.05 0.03 0.01 0.00 0.00 0.02 0.05 0.04 0.05 0.62 1.16 1.33 1.06 0.64 0.43 0.42 0.39 0.39 0.36 0.48 0.53 0.34 0.39 0.44 0.41 0.68 0.42 0.25 0.14 0.04 0.01 0.00 0.01 0.00 0.00 0.00 0.00 0.00 0.00 0.00 0.00 0.00 0.00 0.00 0.00 0.00 0.00
0.18 0.10 0.10 0.13 0.13 0.10 0.05 0.03 0.02 0.01 0.02 0.04 0.06 0.06 0.12 0.44 1.03 0.96 0.96 0.59 0.24 0.21 0.21 0.26 0.27 0.33 0.43 0.27 0.41 0.33 0.26 0.22 0.24 0.15 0.23 0.16 0.05 0.02 0.00 0.00 0.01 0.00 0.00 0.00 0.00 0.00 0.00 0.00 0.00 0.00 0.00 0.00 0.00 0.00
0.17 0.11 0.12 0.13 0.09 0.07 0.03 0.01 0.01 0.01 0.02 0.02 0.05 0.16 0.30 0.56 0.73 0.55 0.45 0.25 0.10 0.09 0.08 0.11 0.26 0.22 0.39 0.33 0.34 0.33 0.13 0.06 0.04 0.06 0.03 0.00 0.00 0.00 0.00 0.00 0.00 0.00 0.00 0.02 0.03 0.03 0.02 0.03 0.05 0.08 0.08 0.06 0.06 0.06
0.13 0.11 0.10 0.11 0.07 0.02 0.01 0.00 0.00 0.02 0.03 0.01 0.07 0.15 0.25 0.32 0.37 0.27 0.17 0.14 0.05 0.04 0.03 0.05 0.12 0.20 0.27 0.22 0.17 0.16 0.08 0.05 0.06 0.05 0.03 0.00 0.00 0.00 0.00 0.00 0.00 0.00 0.01 0.07 0.17 0.20 0.21 0.32 0.34 0.27 0.19 0.15 0.12 0.11
0.13 0.12 0.12 0.09 0.07 0.02 0.02 0.01 0.00 0.01 0.01 0.02 0.10 0.13 0.15 0.22 0.09 0.05 0.04 0.05 0.02 0.02 0.03 0.02 0.08 0.12 0.17 0.20 0.14 0.08 0.04 0.03 0.03 0.06 0.02 0.00 0.00 0.00 0.00 0.00 0.00 0.00 0.00 0.00 0.08 0.06 0.03 0.07 0.07 0.17 0.25 0.21 0.13 0.10
0.21 0.21 0.11 0.04 0.02 0.02 0.00 0.00 0.00 0.01 0.01 0.02 0.07 0.15 0.11 0.07 0.04 0.01 0.01 0.02 0.02 0.02 0.05 0.06 0.11 0.13 0.14 0.19 0.14 0.08 0.07 0.06 0.05 0.02 0.00 0.02 0.02 0.00 0.00 0.00 0.00 0.00 0.00 0.00 0.01 0.01 0.00 0.00 0.00 0.02 0.08 0.21 0.20 0.17
0.38 0.11 0.04 0.03 0.03 0.01 0.00 0.00 0.00 0.01 0.01 0.03 0.03 0.09 0.10 0.06 0.06 0.04 0.02 0.00 0.01 0.07 0.17 0.25 0.26 0.13 0.11 0.13 0.07 0.05 0.15 0.13 0.07 0.05 0.01 0.00 0.00 0.00 0.00 0.00 0.00 0.00 0.00 0.00 0.00 0.00 0.01 0.00 0.00 0.00 0.00 0.01 0.06 0.14
0.15 0.02 0.05 0.04 0.03 0.02 0.01 0.00 0.00 0.00 0.01 0.01 0.00 0.01 0.01 0.03 0.04 0.05 0.03 0.02 0.02 0.11 0.27 0.50 0.30 0.15 0.05 0.03 0.03 0.06 0.10 0.06 0.06 0.03 0.02 0.00 0.00 0.00 0.00 0.00 0.00 0.00 0.01 0.01 0.00 0.00 0.00 0.00 0.00 0.00 0.00 0.00 0.00 0.00
0.06 0.07 0.15 0.09 0.06 0.02 0.01 0.00 0.00 0.00 0.00 0.00 0.00 0.00 0.00 0.00 0.03 0.04 0.03 0.03 0.05 0.12 0.22 0.32 0.25 0.08 0.00 0.00 0.01 0.00 0.00 0.01 0.01 0.01 0.01 0.00 0.00 0.00 0.00 0.00 0.00 0.00 0.00 0.00 0.00 0.00 0.00 0.00 0.00 0.00 0.00 0.00 0.00 0.00
0.19 0.27 0.27 0.18 0.07 0.01 0.00 0.00 0.00 0.00 0.00 0.00 0.00 0.00 0.00 0.00 0.00 0.03 0.06 0.04 0.07 0.27 0.33 0.20 0.06 0.03 0.03 0.03 0.03 0.02 0.00 0.00 0.00 0.00 0.00 0.00 0.00 0.00 0.00 0.01 0.01 0.00 0.00 0.00 0.00 0.00 0.00 0.00 0.00 0.00 0.00 0.00 0.00 0.00
0.46 0.52 0.50 0.21 0.11 0.02 0.00 0.00 0.00 0.00 0.00 0.00 0.00 0.00 0.00 0.00 0.00 0.01 0.07 0.16 0.23 0.33 0.27 0.13 0.05 0.03 0.04 0.06 0.05 0.03 0.00 0.00 0.00 0.00 0.00 0.00 0.00 0.00 0.00 0.00 0.00 0.00 0.00 0.00 0.00 0.00 0.00 0.00 0.00 0.00 0.00 0.00 0.00 0.00
0.21 0.28 0.27 0.30 0.17 0.07 0.03 0.01 0.00 0.01 0.01 0.00 0.00 0.01 0.00 0.00 0.01 0.03 0.07 0.19 0.29 0.16 0.12 0.12 0.13 0.11 0.08 0.07 0.07 0.07 0.05 0.02 0.00 0.00 0.00 0.00 0.00 0.00 0.00 0.00 0.00 0.00 0.00 0.00 0.00 0.00 0.00 0.00 0.00 0.00 0.00 0.00 0.00 0.00
0.27 0.32 0.32 0.25 0.15 0.09 0.04 0.01 0.01 0.01 0.00 0.00 0.00 0.00 0.00 0.01 0.01 0.03 0.10 0.11 0.12 0.10 0.08 0.08 0.12 0.16 0.17 0.14 0.14 0.12 0.11 0.08 0.04 0.02 0.01 0.00 0.00 0.00 0.00 0.00 0.00 0.00 0.00 0.00 0.00 0.00 0.00 0.00 0.00 0.00 0.00 0.00 0.00 0.00
0.22 0.29 0.29 0.22 0.14 0.06 0.03 0.01 0.02 0.01 0.01 0.00 0.00 0.00 0.00 0.00 0.02 0.05 0.06 0.04 0.03 0.04 0.08 0.12 0.11 0.10 0.10 0.12 0.14 0.18 0.21 0.18 0.13 0.09 0.07 0.05 0.03 0.02 0.01 0.01 0.00 0.00 0.00 0.00 0.00 0.00 0.00 0.00 0.00 0.00 0.00 0.00 0.00 0.00
0.48 0.39 0.26 0.21 0.07 0.05 0.02 0.01 0.01 0.01 0.00 0.00 0.02 0.00 0.00 0.02 0.02 0.02 0.02 0.00 0.01 0.03 0.06 0.09 0.11 0.12 0.11 0.10 0.10 0.10 0.12 0.19 0.21 0.19 0.18 0.15 0.11 0.11 0.09 0.06 0.03 0.01 0.01 0.02 0.01 0.00 0.00 0.00 0.00 0.00 0.00 0.00 0.00 0.01
0.46 0.17 0.07 0.01 0.01 0.01 0.00 0.00 0.00 0.00 0.00 0.01 0.02 0.00 0.00 0.02 0.02 0.01 0.00 0.00 0.01 0.03 0.05 0.07 0.07 0.08 0.07 0.08 0.10 0.12 0.13 0.15 0.16 0.18 0.22 0.25 0.20 0.17 0.16 0.15 0.10 0.06 0.04 0.05 0.05 0.04 0.03 0.01 0.01 0.01 0.01 0.01 0.02 0.03
0.21 0.13 0.05 0.01 0.00 0.01 0.00 0.00 0.00 0.00 0.01 0.02 0.01 0.00 0.02 0.03 0.01 0.01 0.01 0.00 0.01 0.02 0.04 0.08 0.12 0.11 0.08 0.10 0.11 0.12 0.15 0.17 0.18 0.16 0.22 0.33 0.34 0.26 0.18 0.15 0.14 0.11 0.11 0.12 0.09 0.08 0.06 0.05 0.04 0.04 0.05 0.05 0.05 0.05
0.06 0.00 0.01 0.01 0.00 0.00 0.00 0.01 0.02 0.02 0.01 0.02 0.03 0.02 0.02 0.02 0.01 0.00 0.00 0.00 0.01 0.02 0.04 0.08 0.12 0.15 0.14 0.12 0.14 0.16 0.18 0.21 0.25 0.26 0.30 0.36 0.40 0.40 0.34 0.30 0.30 0.30 0.27 0.21 0.16 0.14 0.13 0.11 0.10 0.12 0.14 0.11 0.09 0.08
0.02 0.00 0.00 0.00 0.00 0.00 0.00 0.00 0.00 0.00 0.00 0.00 0.00 0.00 0.00 0.00 0.00 0.00 0.00 0.01 0.02 0.04 0.06 0.09 0.12 0.14 0.17 0.18 0.19 0.22 0.24 0.24 0.20 0.19 0.15 0.20 0.29 0.41 0.45 0.42 0.44 0.44 0.38 0.34 0.31 0.24 0.21 0.22 0.22 0.24 0.26 0.25 0.23 0.22
0.01 0.00 0.00 0.00 0.00 0.00 0.00 0.00 0.00 0.00 0.00 0.00 0.00 0.00 0.00 0.00 0.00 0.00 0.00 0.01 0.04 0.07 0.11 0.14 0.16 0.19 0.21 0.22 0.23 0.23 0.25 0.28 0.26 0.16 0.13 0.14 0.20 0.31 0.40 0.40 0.43 0.46 0.44 0.40 0.47 0.52 0.49 0.48 0.49 0.47 0.42 0.37 0.33 0.30
0.00 0.00 0.00 0.00 0.00 0.00 0.00 0.00 0.00 0.00 0.00 0.00 0.00 0.00 0.00 0.00 0.00 0.01 0.01 0.03 0.07 0.11 0.16 0.19 0.22 0.27 0.28 0.30 0.29 0.27 0.26 0.32 0.37 0.36 0.29 0.30 0.30 0.31 0.37 0.41 0.41 0.42 0.45 0.42 0.37 0.35 0.34 0.30 0.27 0.26 0.27 0.26 0.25 0.23
0.01 0.00 0.00 0.00 0.00 0.01 0.01 0.01 0.00 0.00 0.00 0.00 0.00 0.00 0.00 0.00 0.01 0.01 0.02 0.05 0.10 0.13 0.17 0.21 0.21 0.26 0.31 0.31 0.33 0.34 0.29 0.29 0.35 0.38 0.34 0.29 0.28 0.27 0.30 0.34 0.39 0.41 0.43 0.42 0.38 0.37 0.36 0.36 0.37 0.34 0.33 0.33 0.30 0.27
0.06 0.04 0.03 0.02 0.02 0.01 0.01 0.01 0.02 0.02 0.01 0.00 0.00 0.00 0.01 0.01 0.01 0.02 0.03 0.07 0.11 0.14 0.16 0.21 0.26 0.28 0.27 0.28 0.31 0.35 0.37 0.38 0.39 0.42 0.42 0.36 0.32 0.32 0.35 0.36 0.38 0.40 0.40 0.40 0.43 0.44 0.46 0.42 0.40 0.38 0.35 0.32 0.30 0.28

GFSWCAN_prec_precacc_045.txt.gz
Total_Precipitation_Accumulation
0.03 0.05 0.07 0.09 0.10 0.10 0.09 0.07 0.06 0.05 0.07 0.08 0.07 0.08 0.12 0.18 0.16 0.18 0.28 0.37 0.42 0.13 0.02 0.00 0.00 0.01 0.00 0.00 0.02 0.02 0.08 0.12 0.17 0.22 0.20 0.07 0.02 0.01 0.00 0.00 0.00 0.01 0.03 0.05 0.05 0.08 0.00 0.00 0.00 0.00 0.00 0.00 0.00 0.01
0.09 0.11 0.14 0.13 0.11 0.09 0.07 0.08 0.07 0.08 0.11 0.11 0.06 0.09 0.13 0.16 0.19 0.25 0.26 0.29 0.25 0.15 0.01 0.00 0.00 0.00 0.00 0.00 0.02 0.01 0.07 0.11 0.21 0.19 0.16 0.09 0.03 0.00 0.00 0.00 0.00 0.00 0.00 0.00 0.00 0.00 0.00 0.00 0.00 0.00 0.00 0.00 0.00 0.00
0.09 0.12 0.14 0.11 0.08 0.08 0.09 0.09 0.11 0.16 0.17 0.09 0.10 0.09 0.11 0.14 0.15 0.30 0.30 0.23 0.24 0.24 0.05 0.03 0.02 0.00 0.00 0.00 0.00 0.04 0.07 0.15 0.23 0.21 0.32 0.14 0.06 0.04 0.02 0.00 0.00 0.00 0.00 0.00 0.00 0.00 0.00 0.00 0.00 0.00 0.00 0.00 0.00 0.01
0.11 0.13 0.12 0.09 0.10 0.12 0.12 0.15 0.22 0.23 0.15 0.14 0.13 0.08 0.08 0.08 0.15 0.22 0.11 0.10 0.21 0.26 0.19 0.05 0.01 0.02 0.01 0.02 0.02 0.02 0.09 0.17 0.29 0.48 0.33 0.19 0.08 0.03 0.02 0.01 0.00 0.01 0.00 0.00 0.00 0.00 0.00 0.00 0.00 0.00 0.00 0.00 0.00 0.00
0.14 0.13 0.12 0.15 0.19 0.20 0.24 0.25 0.18 0.14 0.15 0.17 0.15 0.06 0.12 0.18 0.16 0.08 0.02 0.07 0.15 0.31 0.33 0.18 0.16 0.01 0.01 0.05 0.04 0.06 0.11 0.30 0.34 0.59 0.57 0.22 0.09 0.06 0.02 0.01 0.00 0.00 0.00 0.00 0.00 0.00 0.00 0.00 0.00 0.00 0.00 0.00 0.00 0.00
0.17 0.15 0.16 0.18 0.23 0.28 0.24 0.21 0.17 0.15 0.20 0.20 0.10 0.14 0.15 0.10 0.14 0.15 0.20 0.36 0.28 0.32 0.60 0.43 0.34 0.16 0.06 0.09 0.09 0.15 0.22 0.43 0.67 0.50 0.53 0.33 0.13 0.20 0.17 0.04 0.00 0.00 0.00 0.00 0.00 0.00 0.00 0.00 0.00 0.00 0.00 0.00 0.00 0.00
0.18 0.16 0.17 0.20 0.24 0.21 0.20 0.17 0.14 0.17 0.17 0.10 0.12 0.11 0.05 0.04 0.11 0.12 0.25 0.62 0.58 0.57 0.68 0.78 0.66 0.48 0.14 0.23 0.27 0.30 0.31 0.55 0.89 0.66 0.41 0.33 0.29 0.53 0.34 0.05 0.00 0.01 0.01 0.01 0.01 0.00 0.00 0.00 0.00 0.00 0.00 0.00 0.00 0.00
0.17 0.15 0.16 0.20 0.22 0.18 0.15 0.13 0.12 0.12 0.10 0.06 0.06 0.01 0.01 0.08 0.06 0.07 0.05 0.18 0.49 0.88 0.91 1.04 0.98 0.96 0.32 0.53 0.46 0.40 0.39 0.48 1.03 0.74 0.34 0.24 0.35 0.35 0.20 0.02 0.05 0.04 0.03 0.01 0.00 0.00 0.00 0.00 0.00 0.00 0.00 0.00 0.00 0.00
0.16 0.14 0.12 0.14 0.14 0.12 0.10 0.08 0.11 0.13 0.05 0.01 0.00 0.01 0.08 0.06 0.04 0.12 0.21 0.40 0.63 1.02 0.82 0.77 0.90 0.80 0.64 0.64 0.46 0.55 0.47 0.57 0.72 0.54 0.23 0.25 0.27 0.28 0.05 0.06 0.10 0.14 0.10 0.04 0.02 0.00 0.00 0.00 0.00 0.00 0.00 0.00 0.00 0.00
0.19 0.12 0.09 0.10 0.10 0.09 0.06 0.07 0.08 0.05 0.01 0.00 0.01 0.04 0.11 0.02 0.05 0.48 0.83 1.06 1.07 0.83 0.58 0.62 0.54 0.45 0.89 0.67 0.58 0.62 0.34 0.55 0.64 0.31 0.23 0.28 0.17 0.02 0.03 0.06 0.06 0.13 0.14 0.06 0.01 0.00 0.00 0.00 0.00 0.00 0.00 0.00 0.00 0.00
0.14 0.08 0.05 0.08 0.09 0.09 0.07 0.05 0.03 0.01 0.00 0.00 0.02 0.05 0.04 0.05 0.62 1.16 1.33 1.06 0.65 0.44 0.43 0.40 0.40 0.37 0.48 0.54 0.37 0.40 0.46 0.42 0.69 0.45 0.26 0.22 0.17 0.04 0.00 0.02 0.01 0.04 0.07 0.02 0.00 0.00 0.00 0.00 0.00 0.00 0.00 0.00 0.00 0.00
0.18 0.10 0.10 0.13 0.13 0.10 0.05 0.03 0.02 0.01 0.02 0.04 0.06 0.06 0.12 0.44 1.03 0.96 0.96 0.59 0.25 0.21 0.22 0.27 0.28 0.33 0.43 0.30 0.45 0.36 0.30 0.26 0.29 0.20 0.27 0.24 0.18 0.14 0.09 0.01 0.02 0.02 0.03 0.03 0.00 0.00 0.00 0.00 0.00 0.00 0.00 0.00 0.00 0.00
0.17 0.11 0.12 0.13 0.09 0.07 0.03 0.01 0.01 0.01 0.02 0.02 0.05 0.16 0.30 0.56 0.73 0.55 0.45 0.25 0.10 0.09 0.08 0.11 0.26 0.22 0.39 0.36 0.39 0.40 0.19 0.08 0.08 0.11 0.07 0.04 0.00 0.00 0.05 0.07 0.05 0.04 0.05 0.10 0.06 0.03 0.02 0.03 0.05 0.08 0.08 0.06 0.06 0.06
0.13 0.11 0.10 0.11 0.07 0.02 0.01 0.00 0.00 0.02 0.03 0.01 0.07 0.15 0.25 0.32 0.37 0.27 0.17 0.14 0.05 0.04 0.03 0.05 0.12 0.20 0.27 0.23 0.22 0.21 0.10 0.07 0.09 0.11 0.11 0.03 0.02 0.00 0.00 0.00 0.00 0.00 0.02 0.09 0.18 0.20 0.21 0.32 0.34 0.27 0.19 0.15 0.12 0.11
0.13 0.12 0.12 0.09 0.07 0.02 0.02 0.01 0.00 0.01 0.01 0.02 0.10 0.13 0.15 0.22 0.09 0.05 0.04 0.05 0.02 0.02 0.03 0.02 0.08 0.13 0.18 0.22 0.18 0.14 0.09 0.09 0.13 0.20 0.13 0.07 0.06 0.03 0.00 0.00 0.00 0.00 0.00 0.01 0.09 0.06 0.04 0.07 0.07 0.17 0.25 0.21 0.13 0.10
0.21 0.21 0.11 0.04 0.02 0.02 0.00 0.00 0.00 0.01 0.01 0.02 0.07 0.15 0.11 0.07 0.04 0.01 0.01 0.02 0.02 0.02 0.05 0.06 0.11 0.14 0.16 0.25 0.20 0.19 0.27 0.28 0.20 0.14 0.08 0.04 0.07 0.05 0.02 0.00 0.00 0.00 0.00 0.00 0.01 0.01 0.00 0.00 0.00 0.02 0.08 0.21 0.20 0.17
0.38 0.11 0.04 0.03 0.03 0.01 0.00 0.00 0.00 0.01 0.01 0.03 0.03 0.09 0.10 0.06 0.06 0.04 0.02 0.00 0.01 0.07 0.17 0.25 0.26 0.13 0.12 0.14 0.13 0.21 0.31 0.19 0.09 0.06 0.02 0.01 0.01 0.00 0.00 0.00 0.00 0.00 0.00 0.01 0.02 0.02 0.02 0.02 0.01 0.00 0.00 0.01 0.06 0.14
0.15 0.02 0.05 0.04 0.03 0.02 0.01 0.00 0.00 0.00 0.01 0.01 0.00 0.01 0.01 0.03 0.04 0.05 0.03 0.02 0.02 0.11 0.27 0.50 0.30 0.15 0.05 0.03 0.03 0.07 0.10 0.06 0.06 0.03 0.02 0.01 0.00 0.00 0.00 0.00 0.00 0.02 0.07 0.11 0.09 0.08 0.06 0.02 0.01 0.00 0.00 0.00 0.00 0.00
0.06 0.07 0.15 0.09 0.06 0.02 0.01 0.00 0.00 0.00 0.00 0.00 0.00 0.00 0.00 0.00 0.03 0.04 0.03 0.03 0.05 0.12 0.22 0.32 0.25 0.08 0.00 0.00 0.01 0.00 0.00 0.01 0.01 0.01 0.01 0.00 0.00 0.00 0.01 0.03 0.03 0.04 0.09 0.05 0.01 0.00 0.00 0.00 0.00 0.00 0.00 0.00 0.00 0.00
0.19 0.27 0.27 0.18 0.07 0.01 0.00 0.00 0.00 0.00 0.00 0.00 0.00 0.00 0.00 0.00 0.00 0.03 0.06 0.04 0.07 0.27 0.33 0.20 0.06 0.03 0.03 0.03 0.03 0.02 0.00 0.00 0.00 0.00 0.00 0.00 0.00 0.00 0.00 0.02 0.04 0.04 0.02 0.00 0.00 0.00 0.00 0.00 0.00 0.00 0.00 0.00 0.00 0.00
0.46 0.52 0.50 0.21 0.11 0.02 0.00 0.00 0.00 0.00 0.00 0.00 0.00 0.00 0.00 0.00 0.00 0.01 0.07 0.16 0.23 0.33 0.27 0.13 0.05 0.03 0.04 0.06 0.05 0.03 0.00 0.00 0.00 0.00 0.00 0.00 0.00 0.00 0.00 0.00 0.00 0.00 0.00 0.00 0.00 0.00 0.00 0.00 0.00 0.00 0.00 0.00 0.00 0.00
0.21 0.28 0.27 0.30 0.17 0.07 0.03 0.01 0.00 0.01 0.01 0.00 0.00 0.01 0.00 0.00 0.01 0.03 0.07 0.19 0.29 0.16 0.12 0.12 0.13 0.11 0.08 0.07 0.07 0.07 0.05 0.02 0.00 0.00 0.00 0.00 0.00 0.00 0.00 0.00 0.00 0.00 0.00 0.00 0.00 0.00 0.00 0.00 0.00 0.00 0.00 0.00 0.00 0.00
0.27 0.32 0.32 0.25 0.15 0.09 0.04 0.01 0.01 0.01 0.00 0.00 0.00 0.00 0.00 0.01 0.01 0.03 0.10 0.11 0.12 0.10 0.08 0.08 0.12 0.16 0.17 0.14 0.14 0.12 0.11 0.08 0.04 0.02 0.01 0.00 0.00 0.00 0.00 0.00 0.00 0.00 0.00 0.00 0.00 0.00 0.00 0.00 0.00 0.00 0.00 0.00 0.00 0.00
0.22 0.29 0.29 0.22 0.15 0.06 0.03 0.01 0.02 0.01 0.01 0.00 0.00 0.00 0.00 0.00 0.02 0.05 0.06 0.04 0.03 0.04 0.08 0.12 0.11 0.10 0.10 0.12 0.14 0.18 0.21 0.18 0.13 0.09 0.07 0.05 0.03 0.02 0.01 0.01 0.00 0.00 0.00 0.00 0.00 0.00 0.00 0.00 0.00 0.00 0.00 0.00 0.00 0.00
0.48 0.39 0.27 0.24 0.10 0.05 0.03 0.02 0.01 0.01 0.00 0.00 0.02 0.00 0.00 0.02 0.02 0.02 0.02 0.00 0.01 0.03 0.06 0.09 0.11 0.12 0.11 0.10 0.10 0.10 0.12 0.19 0.21 0.19 0.18 0.15 0.11 0.11 0.09 0.06 0.03 0.01 0.01 0.02 0.01 0.00 0.00 0.00 0.00 0.00 0.00 0.00 0.00 0.01
0.48 0.18 0.09 0.02 0.02 0.01 0.00 0.00 0.00 0.00 0.00 0.01 0.02 0.00 0.00 0.02 0.02 0.01 0.00 0.00 0.01 0.03 0.05 0.07 0.07 0.08 0.07 0.08 0.10 0.12 0.13 0.15 0.16 0.18 0.22 0.25 0.20 0.17 0.16 0.15 0.10 0.06 0.04 0.05 0.05 0.04 0.03 0.01 0.01 0.01 0.01 0.01 0.02 0.03
0.24 0.14 0.06 0.01 0.00 0.01 0.00 0.00 0.00 0.00 0.01 0.02 0.01 0.00 0.02 0.04 0.01 0.01 0.01 0.00 0.01 0.02 0.04 0.08 0.12 0.11 0.08 0.10 0.11 0.12 0.15 0.17 0.18 0.16 0.22 0.33 0.34 0.26 0.18 0.15 0.14 0.11 0.11 0.12 0.09 0.08 0.06 0.05 0.04 0.04 0.05 0.05 0.05 0.05
0.06 0.00 0.01 0.01 0.00 0.00 0.00 0.01 0.02 0.02 0.01 0.02 0.04 0.03 0.03 0.02 0.01 0.00 0.00 0.00 0.01 0.02 0.04 0.08 0.12 0.15 0.14 0.12 0.14 0.16 0.18 0.21 0.25 0.26 0.30 0.36 0.40 0.40 0.34 0.30 0.30 0.30 0.27 0.21 0.16 0.14 0.13 0.11 0.10 0.12 0.14 0.11 0.09 0.08
0.02 0.00 0.00 0.00 0.00 0.00 0.00 0.00 0.00 0.00 0.00 0.00 0.02 0.00 0.00 0.00 0.00 0.00 0.00 0.01 0.02 0.04 0.06 0.09 0.12 0.14 0.17 0.18 0.19 0.22 0.24 0.24 0.20 0.19 0.15 0.20 0.29 0.41 0.45 0.42 0.44 0.44 0.38 0.34 0.31 0.24 0.21 0.22 0.22 0.24 0.26 0.25 0.23 0.22
0.01 0.00 0.00 0.00 0.00 0.00 0.00 0.00 0.00 0.00 0.00 0.00 0.00 0.00 0.00 0.00 0.00 0.00 0.00 0.01 0.04 0.07 0.11 0.14 0.16 0.19 0.21 0.22 0.23 0.23 0.25 0.28 0.26 0.16 0.13 0.14 0.20 0.31 0.40 0.40 0.43 0.46 0.44 0.40 0.47 0.52 0.49 0.48 0.49 0.47 0.42 0.37 0.33 0.30
0.00 0.00 0.00 0.00 0.00 0.00 0.00 0.00 0.00 0.00 0.00 0.00 0.00 0.00 0.00 0.00 0.00 0.01 0.01 0.03 0.07 0.11 0.16 0.19 0.22 0.27 0.28 0.30 0.29 0.27 0.26 0.32 0.37 0.36 0.29 0.30 0.30 0.31 0.37 0.41 0.41 0.42 0.45 0.42 0.37 0.35 0.34 0.30 0.27 0.26 0.27 0.26 0.25 0.23
0.01 0.00 0.00 0.00 0.00 0.01 0.01 0.01 0.00 0.00 0.00 0.00 0.00 0.00 0.00 0.00 0.01 0.01 0.02 0.05 0.10 0.13 0.17 0.21 0.21 0.26 0.31 0.31 0.33 0.34 0.29 0.29 0.35 0.38 0.34 0.29 0.28 0.27 0.30 0.34 0.39 0.41 0.43 0.42 0.38 0.37 0.36 0.36 0.37 0.34 0.33 0.33 0.30 0.27
0.06 0.05 0.03 0.02 0.02 0.01 0.01 0.01 0.02 0.02 0.01 0.00 0.00 0.00 0.01 0.01 0.01 0.02 0.03 0.07 0.11 0.14 0.16 0.21 0.26 0.28 0.27 0.28 0.31 0.35 0.37 0.38 0.39 0.42 0.42 0.36 0.32 0.32 0.35 0.36 0.38 0.40 0.40 0.40 0.43 0.44 0.46 0.42 0.40 0.38 0.35 0.32 0.30 0.28

GFSWCAN_prec_precacc_048.txt.gz
Total_Precipitation_Accumulation
0.03 0.05 0.07 0.09 0.10 0.10 0.09 0.07 0.06 0.05 0.07 0.08 0.07 0.08 0.12 0.18 0.16 0.18 0.28 0.37 0.42 0.13 0.02 0.00 0.00 0.01 0.00 0.00 0.02 0.02 0.08 0.12 0.18 0.22 0.21 0.07 0.02 0.01 0.00 0.00 0.00 0.01 0.03 0.05 0.06 0.08 0.00 0.00 0.00 0.00 0.00 0.00 0.00 0.01
0.09 0.11 0.14 0.13 0.11 0.09 0.07 0.08 0.07 0.08 0.11 0.12 0.06 0.09 0.13 0.16 0.20 0.25 0.26 0.29 0.25 0.15 0.01 0.00 0.00 0.00 0.00 0.00 0.02 0.01 0.07 0.11 0.21 0.20 0.17 0.09 0.04 0.00 0.00 0.00 0.00 0.00 0.00 0.00 0.00 0.00 0.00 0.00 0.00 0.00 0.00 0.00 0.00 0.00
0.09 0.12 0.14 0.11 0.08 0.08 0.09 0.09 0.11 0.16 0.18 0.09 0.10 0.09 0.11 0.15 0.16 0.30 0.30 0.23 0.24 0.25 0.05 0.03 0.02 0.00 0.00 0.00 0.00 0.04 0.07 0.15 0.23 0.21 0.32 0.14 0.06 0.04 0.02 0.00 0.00 0.00 0.00 0.00 0.00 0.00 0.00 0.00 0.00 0.00 0.00 0.00 0.00 0.01
0.11 0.13 0.12 0.09 0.10 0.12 0.12 0.15 0.22 0.24 0.15 0.14 0.13 0.08 0.09 0.10 0.15 0.23 0.11 0.10 0.21 0.26 0.19 0.05 0.01 0.02 0.01 0.02 0.02 0.02 0.09 0.17 0.29 0.48 0.33 0.19 0.08 0.03 0.02 0.01 0.00 0.01 0.00 0.00 0.00 0.00 0.00 0.00 0.00 0.00 0.00 0.00 0.00 0.00
0.14 0.13 0.12 0.15 0.19 0.20 0.24 0.25 0.18 0.14 0.15 0.17 0.15 0.06 0.13 0.18 0.16 0.08 0.02 0.07 0.16 0.32 0.34 0.18 0.16 0.01 0.01 0.05 0.04 0.06 0.11 0.30 0.34 0.59 0.57 0.22 0.09 0.06 0.02 0.01 0.00 0.00 0.00 0.00 0.00 0.00 0.00 0.00 0.00 0.00 0.00 0.00 0.00 0.00
0.17 0.15 0.16 0.18 0.23 0.28 0.24 0.21 0.17 0.15 0.20 0.20 0.10 0.14 0.15 0.10 0.14 0.15 0.20 0.36 0.28 0.32 0.60 0.43 0.34 0.16 0.06 0.09 0.09 0.15 0.22 0.43 0.67 0.50 0.53 0.33 0.13 0.20 0.17 0.04 0.00 0.00 0.00 0.00 0.00 0.00 0.00 0.00 0.00 0.00 0.00 0.00 0.00 0.00
0.18 0.16 0.17 0.20 0.24 0.21 0.20 0.17 0.14 0.17 0.17 0.10 0.12 0.11 0.05 0.04 0.11 0.12 0.25 0.62 0.58 0.57 0.68 0.78 0.66 0.48 0.14 0.23 0.27 0.30 0.31 0.55 0.89 0.66 0.41 0.33 0.29 0.53 0.34 0.05 0.00 0.01 0.01 0.01 0.01 0.00 0.00 0.00 0.00 0.00 0.00 0.00 0.00 0.00
0.17 0.15 0.16 0.20 0.22 0.18 0.15 0.13 0.12 0.12 0.10 0.06 0.06 0.01 0.01 0.08 0.06 0.07 0.05 0.19 0.49 0.88 0.91 1.04 0.98 0.96 0.32 0.53 0.46 0.40 0.39 0.48 1.03 0.74 0.34 0.24 0.35 0.35 0.20 0.02 0.05 0.04 0.04 0.02 0.01 0.01 0.01 0.00 0.00 0.00 0.00 0.00 0.00 0.00
0.16 0.14 0.12 0.14 0.14 0.12 0.10 0.08 0.11 0.13 0.05 0.01 0.00 0.01 0.08 0.06 0.04 0.12 0.21 0.40 0.63 1.02 0.82 0.77 0.90 0.80 0.64 0.64 0.47 0.55 0.47 0.57 0.72 0.54 0.23 0.25 0.27 0.28 0.05 0.06 0.10 0.14 0.15 0.16 0.13 0.04 0.02 0.02 0.00 0.00 0.00 0.00 0.00 0.00
0.19 0.12 0.09 0.10 0.10 0.09 0.06 0.07 0.08 0.05 0.01 0.00 0.01 0.04 0.11 0.02 0.05 0.48 0.83 1.06 1.07 0.83 0.58 0.62 0.54 0.45 0.89 0.67 0.59 0.63 0.34 0.55 0.65 0.31 0.23 0.28 0.17 0.02 0.03 0.06 0.06 0.14 0.24 0.28 0.27 0.10 0.03 0.02 0.00 0.00 0.00 0.00 0.00 0.00
0.14 0.08 0.05 0.08 0.09 0.09 0.07 0.05 0.03 0.01 0.00 0.00 0.02 0.05 0.04 0.05 0.62 1.16 1.33 1.06 0.65 0.44 0.43 0.40 0.40 0.37 0.48 0.55 0.37 0.41 0.47 0.44 0.70 0.45 0.26 0.22 0.22 0.09 0.05 0.02 0.01 0.07 0.15 0.10 0.13 0.05 0.01 0.00 0.00 0.00 0.00 0.00 0.00 0.00
0.18 0.10 0.10 0.13 0.13 0.10 0.05 0.03 0.02 0.01 0.02 0.04 0.06 0.06 0.12 0.44 1.03 0.96 0.96 0.59 0.25 0.21 0.22 0.27 0.28 0.33 0.43 0.30 0.46 0.37 0.32 0.28 0.30 0.23 0.29 0.29 0.23 0.17 0.19 0.07 0.03 0.02 0.04 0.05 0.01 0.01 0.00 0.00 0.00 0.00 0.00 0.00 0.00 0.00
0.17 0.11 0.12 0.13 0.09 0.07 0.03 0.01 0.01 0.01 0.02 0.02 0.05 0.16 0.30 0.56 0.73 0.55 0.45 0.25 0.10 0.09 0.08 0.11 0.26 0.22 0.39 0.36 0.40 0.43 0.22 0.09 0.13 0.17 0.19 0.14 0.05 0.02 0.09 0.17 0.16 0.11 0.06 0.22 0.23 0.10 0.03 0.03 0.05 0.08 0.08 0.06 0.06 0.06
0.13 0.11 0.10 0.11 0.07 0.02 0.01 0.00 0.00 0.02 0.03 0.01 0.07 0.15 0.25 0.32 0.37 0.27 0.17 0.14 0.05 0.04 0.03 0.05 0.12 0.20 0.27 0.23 0.23 0.24 0.11 0.11 0.21 0.24 0.20 0.07 0.05 0.04 0.02 0.04 0.07 0.08 0.08 0.20 0.44 0.40 0.27 0.32 0.34 0.27 0.19 0.15 0.12 0.11
0.13 0.12 0.12 0.09 0.07 0.02 0.02 0.01 0.00 0.01 0.01 0.02 0.10 0.13 0.15 0.22 0.09 0.05 0.04 0.05 0.02 0.02 0.03 0.02 0.08 0.13 0.18 0.23 0.21 0.20 0.21 0.34 0.28 0.26 0.17 0.10 0.09 0.08 0.05 0.03 0.02 0.05 0.07 0.08 0.18 0.21 0.18 0.08 0.07 0.17 0.25 0.21 0.13 0.10
0.21 0.21 0.11 0.04 0.02 0.02 0.00 0.00 0.00 0.01 0.01 0.02 0.07 0.15 0.11 0.07 0.04 0.01 0.01 0.02 0.02 0.02 0.05 0.06 0.11 0.14 0.16 0.25 0.20 0.27 0.47 0.40 0.23 0.15 0.10 0.05 0.09 0.07 0.05 0.03 0.01 0.00 0.01 0.02 0.04 0.06 0.04 0.01 0.01 0.02 0.08 0.21 0.20 0.17
0.38 0.11 0.04 0.03 0.03 0.01 0.00 0.00 0.00 0.01 0.01 0.03 0.03 0.09 0.10 0.06 0.06 0.04 0.02 0.00 0.01 0.07 0.17 0.25 0.26 0.13 0.12 0.14 0.13 0.21 0.31 0.19 0.09 0.06 0.02 0.01 0.01 0.01 0.01 0.00 0.00 0.00 0.01 0.03 0.08 0.08 0.09 0.07 0.02 0.00 0.00 0.01 0.06 0.14
0.15 0.02 0.05 0.04 0.03 0.02 0.01 0.00 0.00 0.00 0.01 0.01 0.00 0.01 0.01 0.03 0.04 0.05 0.03 0.02 0.02 0.11 0.27 0.50 0.30 0.15 0.05 0.03 0.03 0.07 0.10 0.06 0.06 0.03 0.02 0.01 0.00 0.00 0.01 0.02 0.00 0.03 0.12 0.17 0.15 0.13 0.12 0.10 0.07 0.03 0.00 0.00 0.00 0.00
0.07 0.07 0.15 0.09 0.06 0.02 0.01 0.00 0.00 0.00 0.00 0.00 0.00 0.00 0.00 0.00 0.03 0.04 0.03 0.03 0.05 0.12 0.22 0.32 0.25 0.08 0.00 0.00 0.01 0.00 0.00 0.01 0.01 0.01 0.01 0.00 0.00 0.00 0.01 0.04 0.06 0.07 0.18 0.11 0.02 0.00 0.01 0.02 0.03 0.02 0.00 0.00 0.00 0.00
0.19 0.27 0.27 0.18 0.07 0.01 0.00 0.00 0.00 0.00 0.00 0.00 0.00 0.00 0.00 0.00 0.00 0.03 0.06 0.04 0.07 0.27 0.33 0.20 0.06 0.03 0.03 0.03 0.03 0.02 0.00 0.00 0.00 0.00 0.00 0.00 0.00 0.00 0.00 0.02 0.05 0.07 0.07 0.05 0.04 0.02 0.00 0.00 0.00 0.00 0.00 0.00 0.00 0.00
0.47 0.53 0.50 0.21 0.11 0.02 0.00 0.00 0.00 0.00 0.00 0.00 0.00 0.00 0.00 0.00 0.00 0.01 0.07 0.16 0.23 0.33 0.27 0.13 0.05 0.03 0.04 0.06 0.05 0.03 0.00 0.00 0.00 0.00 0.00 0.00 0.00 0.00 0.00 0.00 0.00 0.01 0.02 0.02 0.02 0.01 0.00 0.00 0.00 0.00 0.00 0.00 0.00 0.00
0.21 0.28 0.27 0.30 0.17 0.07 0.03 0.01 0.00 0.01 0.01 0.00 0.00 0.01 0.00 0.00 0.01 0.03 0.07 0.19 0.29 0.16 0.12 0.12 0.13 0.11 0.08 0.07 0.07 0.07 0.05 0.02 0.00 0.00 0.00 0.00 0.00 0.00 0.00 0.00 0.00 0.00 0.00 0.00 0.01 0.00 0.00 0.00 0.00 0.00 0.00 0.00 0.00 0.00
0.27 0.32 0.32 0.25 0.15 0.09 0.04 0.01 0.01 0.01 0.00 0.00 0.00 0.00 0.00 0.01 0.01 0.03 0.10 0.11 0.12 0.10 0.08 0.08 0.12 0.16 0.17 0.14 0.14 0.12 0.11 0.08 0.04 0.02 0.01 0.00 0.00 0.00 0.00 0.00 0.00 0.00 0.00 0.00 0.00 0.00 0.00 0.00 0.00 0.00 0.00 0.00 0.00 0.00
0.22 0.29 0.29 0.22 0.15 0.06 0.03 0.02 0.02 0.01 0.01 0.00 0.00 0.00 0.00 0.00 0.02 0.05 0.06 0.04 0.03 0.04 0.08 0.12 0.11 0.10 0.10 0.12 0.14 0.18 0.21 0.18 0.13 0.09 0.07 0.05 0.03 0.02 0.01 0.01 0.00 0.00 0.00 0.00 0.00 0.00 0.00 0.00 0.00 0.00 0.00 0.00 0.00 0.00
0.48 0.39 0.27 0.25 0.10 0.05 0.03 0.02 0.02 0.01 0.00 0.00 0.02 0.00 0.00 0.02 0.02 0.02 0.02 0.00 0.01 0.03 0.06 0.09 0.11 0.12 0.11 0.10 0.10 0.10 0.12 0.19 0.21 0.19 0.18 0.15 0.11 0.11 0.09 0.06 0.03 0.01 0.01 0.02 0.01 0.00 0.00 0.00 0.00 0.00 0.00 0.00 0.00 0.01
0.48 0.19 0.09 0.02 0.02 0.01 0.00 0.00 0.01 0.00 0.00 0.01 0.02 0.00 0.00 0.02 0.02 0.01 0.00 0.00 0.01 0.03 0.05 0.07 0.07 0.08 0.07 0.08 0.10 0.12 0.13 0.15 0.16 0.18 0.22 0.25 0.20 0.17 0.16 0.15 0.10 0.06 0.04 0.05 0.05 0.04 0.03 0.01 0.01 0.01 0.01 0.01 0.02 0.03
0.25 0.15 0.06 0.01 0.00 0.01 0.00 0.00 0.00 0.00 0.01 0.02 0.01 0.00 0.02 0.04 0.01 0.01 0.01 0.00 0.01 0.02 0.04 0.08 0.12 0.11 0.08 0.10 0.11 0.12 0.15 0.17 0.18 0.16 0.22 0.33 0.34 0.26 0.18 0.15 0.14 0.11 0.11 0.12 0.09 0.08 0.06 0.05 0.04 0.04 0.05 0.05 0.05 0.05
0.06 0.00 0.01 0.02 0.00 0.00 0.00 0.01 0.02 0.02 0.01 0.02 0.04 0.03 0.03 0.02 0.01 0.00 0.00 0.00 0.01 0.02 0.04 0.08 0.12 0.15 0.14 0.12 0.14 0.16 0.18 0.21 0.25 0.26 0.30 0.36 0.40 0.40 0.34 0.30 0.30 0.30 0.27 0.21 0.16 0.14 0.13 0.11 0.10 0.12 0.14 0.11 0.09 0.08
0.02 0.00 0.00 0.01 0.00 0.00 0.00 0.00 0.00 0.00 0.00 0.00 0.02 0.00 0.00 0.00 0.00 0.00 0.00 0.01 0.02 0.04 0.06 0.09 0.12 0.14 0.17 0.18 0.19 0.22 0.24 0.24 0.20 0.19 0.15 0.20 0.29 0.41 0.45 0.42 0.44 0.44 0.38 0.34 0.31 0.24 0.21 0.22 0.22 0.24 0.26 0.25 0.23 0.22
0.01 0.00 0.00 0.00 0.00 0.00 0.00 0.00 0.00 0.00 0.00 0.00 0.00 0.00 0.00 0.00 0.00 0.00 0.00 0.01 0.04 0.07 0.11 0.14 0.16 0.19 0.21 0.22 0.23 0.23 0.25 0.28 0.26 0.16 0.13 0.14 0.20 0.31 0.40 0.40 0.43 0.46 0.44 0.40 0.47 0.52 0.49 0.48 0.49 0.47 0.42 0.38 0.33 0.30
0.00 0.00 0.00 0.00 0.00 0.00 0.00 0.00 0.00 0.00 0.00 0.00 0.00 0.00 0.00 0.00 0.00 0.01 0.01 0.03 0.07 0.11 0.16 0.19 0.22 0.27 0.28 0.30 0.29 0.27 0.26 0.32 0.37 0.36 0.29 0.30 0.30 0.31 0.37 0.41 0.41 0.42 0.45 0.42 0.37 0.35 0.34 0.30 0.27 0.26 0.27 0.26 0.25 0.23
0.01 0.00 0.00 0.00 0.00 0.01 0.01 0.01 0.00 0.00 0.00 0.00 0.00 0.00 0.00 0.00 0.01 0.01 0.02 0.05 0.10 0.13 0.17 0.21 0.21 0.26 0.31 0.31 0.33 0.34 0.29 0.29 0.35 0.38 0.34 0.29 0.28 0.27 0.30 0.34 0.39 0.41 0.43 0.42 0.38 0.37 0.36 0.36 0.37 0.34 0.34 0.33 0.30 0.27
0.07 0.05 0.03 0.03 0.02 0.01 0.01 0.01 0.02 0.02 0.01 0.00 0.00 0.00 0.01 0.01 0.01 0.02 0.03 0.07 0.11 0.14 0.16 0.21 0.26 0.28 0.27 0.28 0.31 0.35 0.37 0.38 0.39 0.42 0.42 0.36 0.32 0.32 0.35 0.36 0.38 0.40 0.40 0.40 0.43 0.44 0.46 0.42 0.40 0.39 0.35 0.32 0.30 0.29

GFSWCAN_prec_precacc_051.txt.gz
Total_Precipitation_Accumulation
0.03 0.05 0.07 0.09 0.10 0.10 0.09 0.07 0.06 0.05 0.07 0.08 0.07 0.08 0.12 0.18 0.16 0.18 0.28 0.37 0.42 0.13 0.02 0.00 0.00 0.01 0.00 0.00 0.02 0.02 0.09 0.12 0.18 0.22 0.21 0.07 0.02 0.01 0.00 0.00 0.00 0.01 0.03 0.05 0.06 0.09 0.00 0.00 0.00 0.00 0.00 0.00 0.00 0.01
0.09 0.11 0.14 0.13 0.11 0.09 0.07 0.08 0.07 0.08 0.11 0.12 0.06 0.09 0.13 0.17 0.21 0.25 0.26 0.29 0.25 0.15 0.01 0.00 0.00 0.00 0.00 0.00 0.02 0.01 0.08 0.12 0.21 0.20 0.18 0.09 0.04 0.00 0.00 0.00 0.00 0.00 0.00 0.00 0.00 0.00 0.00 0.00 0.00 0.00 0.00 0.00 0.00 0.00
0.09 0.12 0.14 0.11 0.08 0.08 0.09 0.09 0.11 0.16 0.18 0.09 0.10 0.09 0.11 0.15 0.16 0.30 0.30 0.23 0.24 0.25 0.05 0.03 0.02 0.00 0.00 0.00 0.00 0.04 0.07 0.15 0.23 0.21 0.32 0.14 0.06 0.04 0.02 0.00 0.00 0.00 0.00 0.00 0.00 0.00 0.00 0.00 0.00 0.00 0.00 0.00 0.00 0.01
0.11 0.13 0.12 0.09 0.10 0.12 0.12 0.15 0.22 0.24 0.15 0.14 0.13 0.08 0.09 0.10 0.16 0.23 0.11 0.10 0.22 0.26 0.19 0.05 0.01 0.02 0.01 0.02 0.02 0.02 0.09 0.17 0.29 0.48 0.33 0.19 0.08 0.03 0.02 0.01 0.00 0.01 0.00 0.00 0.00 0.00 0.00 0.00 0.00 0.00 0.00 0.00 0.00 0.00
0.14 0.13 0.12 0.15 0.19 0.20 0.24 0.25 0.18 0.14 0.15 0.17 0.15 0.06 0.13 0.18 0.16 0.08 0.02 0.07 0.16 0.32 0.34 0.18 0.16 0.01 0.01 0.05 0.04 0.06 0.11 0.30 0.34 0.59 0.57 0.22 0.09 0.06 0.02 0.01 0.00 0.00 0.00 0.00 0.00 0.00 0.00 0.00 0.00 0.00 0.00 0.00 0.00 0.00
0.17 0.15 0.16 0.18 0.23 0.28 0.24 0.21 0.17 0.15 0.20 0.20 0.10 0.14 0.15 0.10 0.14 0.15 0.20 0.36 0.28 0.32 0.60 0.43 0.34 0.16 0.06 0.09 0.09 0.15 0.22 0.43 0.67 0.50 0.53 0.33 0.13 0.20 0.17 0.04 0.00 0.00 0.00 0.00 0.00 0.00 0.00 0.00 0.00 0.00 0.00 0.00 0.00 0.00
0.18 0.16 0.17 0.20 0.24 0.21 0.20 0.17 0.14 0.17 0.17 0.10 0.12 0.11 0.05 0.04 0.11 0.12 0.25 0.62 0.58 0.57 0.68 0.78 0.66 0.48 0.14 0.23 0.27 0.30 0.31 0.55 0.89 0.66 0.41 0.33 0.29 0.53 0.34 0.05 0.00 0.01 0.01 0.01 0.01 0.00 0.00 0.00 0.00 0.00 0.00 0.00 0.00 0.00
0.17 0.15 0.16 0.20 0.22 0.18 0.15 0.13 0.12 0.12 0.10 0.06 0.06 0.01 0.01 0.08 0.06 0.07 0.05 0.19 0.49 0.88 0.91 1.04 0.98 0.96 0.32 0.53 0.46 0.40 0.39 0.48 1.03 0.74 0.34 0.24 0.35 0.35 0.20 0.02 0.05 0.04 0.04 0.02 0.01 0.01 0.01 0.01 0.00 0.00 0.00 0.00 0.00 0.00
0.16 0.14 0.12 0.14 0.14 0.12 0.10 0.08 0.11 0.13 0.05 0.01 0.00 0.01 0.08 0.06 0.04 0.12 0.21 0.40 0.63 1.02 0.82 0.77 0.90 0.80 0.64 0.64 0.47 0.56 0.47 0.57 0.72 0.54 0.23 0.25 0.27 0.28 0.05 0.06 0.10 0.14 0.15 0.16 0.13 0.06 0.05 0.03 0.02 0.02 0.00 0.00 0.00 0.00
0.19 0.12 0.09 0.10 0.10 0.09 0.06 0.07 0.08 0.05 0.01 0.00 0.01 0.04 0.11 0.02 0.05 0.48 0.83 1.06 1.07 0.83 0.58 0.62 0.54 0.45 0.89 0.67 0.60 0.64 0.35 0.55 0.65 0.31 0.23 0.28 0.17 0.03 0.05 0.11 0.08 0.15 0.29 0.33 0.40 0.27 0.13 0.18 0.10 0.06 0.02 0.00 0.00 0.00
0.14 0.08 0.05 0.08 0.09 0.09 0.07 0.05 0.03 0.01 0.00 0.00 0.02 0.05 0.04 0.05 0.62 1.16 1.33 1.06 0.65 0.44 0.43 0.40 0.40 0.37 0.48 0.55 0.38 0.42 0.48 0.44 0.70 0.45 0.26 0.23 0.27 0.12 0.06 0.05 0.04 0.08 0.17 0.13 0.27 0.25 0.10 0.11 0.13 0.09 0.03 0.00 0.00 0.00
0.18 0.10 0.10 0.13 0.13 0.10 0.05 0.03 0.02 0.01 0.02 0.04 0.06 0.06 0.12 0.44 1.03 0.96 0.96 0.59 0.25 0.21 0.22 0.27 0.28 0.33 0.43 0.30 0.48 0.38 0.34 0.30 0.30 0.25 0.33 0.36 0.26 0.18 0.20 0.09 0.06 0.03 0.05 0.06 0.08 0.16 0.09 0.01 0.01 0.01 0.00 0.00 0.00 0.00
0.17 0.11 0.12 0.13 0.09 0.07 0.03 0.01 0.01 0.01 0.02 0.02 0.05 0.16 0.30 0.56 0.73 0.55 0.45 0.25 0.10 0.09 0.08 0.11 0.26 0.22 0.39 0.36 0.41 0.45 0.24 0.11 0.23 0.33 0.35 0.17 0.05 0.03 0.10 0.19 0.20 0.16 0.10 0.23 0.26 0.17 0.09 0.04 0.05 0.08 0.08 0.06 0.06 0.06
0.13 0.11 0.10 0.11 0.07 0.02 0.01 0.00 0.00 0.02 0.03 0.01 0.07 0.15 0.25 0.32 0.37 0.27 0.17 0.14 0.05 0.04 0.03 0.05 0.12 0.20 0.27 0.23 0.24 0.26 0.12 0.23 0.42 0.31 0.22 0.07 0.06 0.04 0.02 0.05 0.10 0.14 0.13 0.24 0.56 0.59 0.41 0.40 0.35 0.27 0.19 0.15 0.12 0.11
0.13 0.12 0.12 0.09 0.07 0.02 0.02 0.01 0.00 0.01 0.01 0.02 0.10 0.13 0.15 0.22 0.09 0.05 0.04 0.05 0.02 0.02 0.03 0.02 0.08 0.13 0.18 0.23 0.21 0.20 0.28 0.45 0.31 0.26 0.17 0.10 0.09 0.08 0.06 0.03 0.03 0.07 0.13 0.16 0.25 0.32 0.36 0.23 0.09 0.17 0.25 0.21 0.13 0.10
0.21 0.21 0.11 0.04 0.02 0.02 0.00 0.00 0.00 0.01 0.01 0.02 0.07 0.15 0.11 0.07 0.04 0.01 0.01 0.02 0.02 0.02 0.05 0.06 0.11 0.14 0.16 0.26 0.20 0.27 0.47 0.40 0.23 0.15 0.10 0.05 0.09 0.07 0.05 0.04 0.01 0.00 0.01 0.06 0.14 0.18 0.20 0.16 0.07 0.06 0.10 0.21 0.20 0.17
0.38 0.11 0.04 0.03 0.03 0.01 0.00 0.00 0.00 0.01 0.01 0.03 0.03 0.09 0.10 0.06 0.06 0.04 0.02 0.00 0.01 0.07 0.17 0.25 0.26 0.13 0.12 0.14 0.13 0.21 0.31 0.19 0.09 0.06 0.02 0.01 0.01 0.01 0.01 0.00 0.00 0.00 0.01 0.03 0.09 0.12 0.16 0.19 0.12 0.06 0.03 0.02 0.06 0.14
0.15 0.03 0.05 0.04 0.03 0.02 0.01 0.00 0.00 0.00 0.01 0.01 0.00 0.01 0.01 0.03 0.04 0.05 0.03 0.02 0.02 0.11 0.27 0.50 0.30 0.15 0.05 0.03 0.03 0.07 0.10 0.06 0.06 0.03 0.02 0.01 0.00 0.00 0.01 0.02 0.00 0.03 0.12 0.18 0.16 0.15 0.14 0.11 0.08 0.05 0.02 0.00 0.00 0.00
0.07 0.07 0.15 0.09 0.06 0.02 0.01 0.00 0.00 0.00 0.00 0.00 0.00 0.00 0.00 0.00 0.03 0.04 0.03 0.03 0.05 0.12 0.22 0.32 0.25 0.08 0.00 0.00 0.01 0.00 0.00 0.01 0.01 0.01 0.01 0.00 0.00 0.00 0.01 0.04 0.06 0.07 0.20 0.14 0.05 0.04 0.02 0.02 0.04 0.04 0.03 0.01 0.00 0.00
0.20 0.27 0.27 0.18 0.07 0.01 0.00 0.00 0.00 0.00 0.00 0.00 0.00 0.00 0.00 0.00 0.00 0.03 0.06 0.04 0.07 0.27 0.33 0.20 0.06 0.03 0.03 0.03 0.03 0.02 0.00 0.00 0.00 0.00 0.00 0.00 0.00 0.00 0.00 0.02 0.05 0.07 0.08 0.08 0.08 0.08 0.05 0.02 0.00 0.00 0.00 0.00 0.00 0.00
0.47 0.53 0.50 0.21 0.11 0.02 0.00 0.00 0.00 0.00 0.00 0.00 0.00 0.00 0.00 0.00 0.00 0.01 0.07 0.16 0.23 0.33 0.27 0.13 0.05 0.03 0.04 0.06 0.05 0.03 0.00 0.00 0.00 0.00 0.00 0.00 0.00 0.00 0.00 0.00 0.00 0.01 0.02 0.03 0.05 0.06 0.06 0.03 0.01 0.00 0.00 0.00 0.00 0.00
0.21 0.28 0.27 0.30 0.17 0.07 0.03 0.01 0.00 0.01 0.01 0.00 0.00 0.01 0.00 0.00 0.01 0.03 0.07 0.19 0.29 0.16 0.12 0.12 0.13 0.11 0.08 0.07 0.07 0.07 0.05 0.02 0.00 0.00 0.00 0.00 0.00 0.00 0.00 0.00 0.00 0.00 0.00 0.00 0.01 0.00 0.01 0.01 0.00 0.00 0.00 0.00 0.00 0.00
0.27 0.32 0.32 0.25 0.15 0.09 0.04 0.01 0.01 0.01 0.00 0.00 0.00 0.00 0.00 0.01 0.01 0.03 0.10 0.11 0.12 0.10 0.08 0.08 0.12 0.16 0.17 0.14 0.14 0.12 0.11 0.08 0.04 0.02 0.01 0.00 0.00 0.00 0.00 0.00 0.00 0.00 0.00 0.00 0.00 0.00 0.00 0.00 0.00 0.00 0.00 0.00 0.00 0.00
0.22 0.29 0.29 0.22 0.15 0.06 0.03 0.02 0.02 0.01 0.01 0.00 0.00 0.00 0.00 0.00 0.03 0.05 0.06 0.04 0.03 0.04 0.08 0.12 0.11 0.10 0.10 0.12 0.14 0.18 0.21 0.19 0.13 0.09 0.07 0.05 0.03 0.02 0.01 0.01 0.00 0.00 0.00 0.00 0.00 0.00 0.00 0.00 0.00 0.00 0.00 0.00 0.00 0.00
0.48 0.39 0.27 0.25 0.10 0.05 0.03 0.02 0.02 0.02 0.00 0.00 0.02 0.00 0.00 0.02 0.02 0.02 0.02 0.00 0.01 0.03 0.06 0.09 0.11 0.12 0.11 0.10 0.10 0.10 0.12 0.19 0.21 0.19 0.18 0.15 0.11 0.11 0.09 0.06 0.03 0.01 0.01 0.02 0.01 0.00 0.00 0.00 0.00 0.00 0.00 0.00 0.00 0.01
0.48 0.19 0.09 0.02 0.02 0.01 0.00 0.00 0.01 0.00 0.00 0.01 0.02 0.00 0.00 0.02 0.02 0.01 0.00 0.00 0.01 0.03 0.05 0.07 0.07 0.08 0.07 0.08 0.10 0.12 0.13 0.15 0.16 0.18 0.22 0.25 0.20 0.17 0.16 0.15 0.10 0.06 0.04 0.05 0.05 0.04 0.03 0.01 0.01 0.01 0.01 0.01 0.02 0.03
0.25 0.15 0.06 0.01 0.00 0.01 0.00 0.00 0.00 0.00 0.01 0.02 0.01 0.00 0.02 0.04 0.01 0.01 0.01 0.00 0.01 0.02 0.04 0.08 0.12 0.11 0.08 0.10 0.11 0.12 0.15 0.17 0.18 0.16 0.22 0.33 0.34 0.26 0.18 0.15 0.14 0.11 0.11 0.12 0.09 0.08 0.06 0.05 0.04 0.04 0.05 0.05 0.05 0.05
0.06 0.00 0.01 0.02 0.00 0.00 0.00 0.01 0.02 0.02 0.01 0.02 0.04 0.03 0.03 0.02 0.01 0.00 0.00 0.00 0.01 0.02 0.04 0.08 0.12 0.15 0.14 0.12 0.14 0.16 0.18 0.21 0.25 0.26 0.30 0.36 0.40 0.40 0.34 0.30 0.30 0.30 0.27 0.21 0.16 0.14 0.13 0.11 0.10 0.12 0.14 0.11 0.09 0.08
0.02 0.00 0.00 0.01 0.00 0.00 0.00 0.00 0.00 0.00 0.00 0.00 0.02 0.00 0.00 0.00 0.00 0.00 0.00 0.01 0.02 0.04 0.06 0.09 0.12 0.14 0.17 0.18 0.19 0.22 0.24 0.24 0.20 0.19 0.15 0.20 0.29 0.41 0.45 0.42 0.44 0.44 0.38 0.34 0.31 0.24 0.21 0.22 0.22 0.24 0.26 0.25 0.23 0.22
0.01 0.00 0.00 0.00 0.00 0.00 0.00 0.00 0.00 0.00 0.00 0.00 0.00 0.00 0.00 0.00 0.00 0.00 0.00 0.01 0.04 0.07 0.11 0.14 0.16 0.19 0.21 0.22 0.23 0.23 0.25 0.28 0.26 0.16 0.13 0.14 0.20 0.31 0.40 0.40 0.43 0.46 0.44 0.40 0.47 0.52 0.49 0.48 0.49 0.47 0.42 0.38 0.33 0.30
0.00 0.00 0.00 0.00 0.00 0.00 0.00 0.00 0.00 0.00 0.00 0.00 0.00 0.00 0.00 0.00 0.00 0.01 0.01 0.03 0.07 0.11 0.16 0.19 0.22 0.27 0.28 0.30 0.29 0.27 0.26 0.32 0.37 0.36 0.29 0.30 0.30 0.31 0.37 0.41 0.41 0.42 0.45 0.42 0.37 0.35 0.34 0.30 0.27 0.26 0.27 0.26 0.25 0.23
0.01 0.00 0.00 0.00 0.00 0.01 0.01 0.01 0.00 0.00 0.00 0.00 0.00 0.00 0.00 0.00 0.01 0.01 0.02 0.05 0.10 0.13 0.17 0.21 0.21 0.26 0.31 0.31 0.33 0.34 0.29 0.29 0.35 0.38 0.34 0.29 0.28 0.27 0.30 0.34 0.39 0.41 0.43 0.42 0.38 0.37 0.36 0.36 0.37 0.34 0.34 0.33 0.30 0.27
0.07 0.06 0.03 0.03 0.02 0.01 0.01 0.01 0.02 0.02 0.01 0.00 0.00 0.00 0.01 0.01 0.01 0.02 0.03 0.07 0.11 0.14 0.16 0.21 0.26 0.28 0.28 0.28 0.31 0.35 0.37 0.38 0.39 0.42 0.42 0.36 0.32 0.32 0.35 0.36 0.38 0.40 0.40 0.40 0.43 0.44 0.46 0.42 0.40 0.39 0.35 0.32 0.30 0.29

GFSWCAN_prec_precacc_054.txt.gz
Total_Precipitation_Accumulation
0.18 0.08 0.07 0.09 0.10 0.10 0.09 0.07 0.06 0.05 0.07 0.08 0.07 0.08 0.12 0.18 0.16 0.18 0.28 0.37 0.42 0.13 0.02 0.00 0.00 0.01 0.00 0.00 0.02 0.02 0.09 0.13 0.18 0.22 0.21 0.07 0.02 0.01 0.00 0.00 0.00 0.01 0.03 0.05 0.06 0.09 0.00 0.00 0.00 0.00 0.00 0.00 0.00 0.01
0.15 0.13 0.14 0.13 0.11 0.09 0.07 0.08 0.07 0.08 0.11 0.12 0.06 0.09 0.13 0.17 0.21 0.25 0.26 0.29 0.25 0.15 0.01 0.00 0.00 0.00 0.00 0.00 0.02 0.01 0.08 0.12 0.21 0.21 0.19 0.09 0.04 0.01 0.00 0.00 0.00 0.00 0.00 0.00 0.00 0.00 0.00 0.00 0.00 0.00 0.00 0.00 0.00 0.00
0.11 0.12 0.14 0.11 0.08 0.08 0.09 0.09 0.11 0.16 0.19 0.09 0.10 0.09 0.11 0.15 0.16 0.30 0.30 0.23 0.24 0.25 0.05 0.03 0.02 0.00 0.00 0.00 0.00 0.04 0.07 0.15 0.23 0.21 0.32 0.15 0.06 0.04 0.02 0.00 0.00 0.00 0.00 0.00 0.00 0.00 0.00 0.00 0.00 0.00 0.00 0.00 0.00 0.01
0.12 0.14 0.12 0.09 0.10 0.12 0.12 0.15 0.22 0.25 0.15 0.14 0.13 0.08 0.09 0.10 0.16 0.23 0.11 0.10 0.22 0.26 0.19 0.05 0.01 0.02 0.01 0.02 0.02 0.02 0.09 0.17 0.29 0.48 0.33 0.19 0.08 0.03 0.02 0.01 0.00 0.01 0.00 0.00 0.00 0.00 0.00 0.00 0.00 0.00 0.00 0.00 0.00 0.00
0.15 0.13 0.12 0.15 0.19 0.20 0.24 0.25 0.19 0.15 0.15 0.17 0.15 0.06 0.13 0.18 0.16 0.08 0.02 0.07 0.16 0.32 0.34 0.18 0.16 0.01 0.01 0.05 0.04 0.06 0.11 0.30 0.34 0.59 0.57 0.22 0.09 0.06 0.02 0.01 0.00 0.00 0.00 0.00 0.00 0.00 0.00 0.00 0.00 0.00 0.00 0.00 0.00 0.00
0.17 0.16 0.16 0.18 0.23 0.28 0.24 0.21 0.18 0.15 0.20 0.20 0.10 0.14 0.15 0.10 0.14 0.15 0.20 0.36 0.28 0.32 0.60 0.43 0.34 0.16 0.06 0.09 0.09 0.15 0.22 0.43 0.67 0.50 0.53 0.33 0.13 0.20 0.17 0.04 0.00 0.00 0.00 0.00 0.00 0.00 0.00 0.00 0.00 0.00 0.00 0.00 0.00 0.00
0.19 0.16 0.17 0.20 0.24 0.21 0.20 0.17 0.14 0.17 0.17 0.10 0.12 0.11 0.05 0.04 0.11 0.12 0.25 0.62 0.58 0.57 0.68 0.78 0.66 0.48 0.14 0.23 0.27 0.30 0.31 0.55 0.89 0.66 0.41 0.33 0.29 0.53 0.34 0.05 0.00 0.01 0.01 0.01 0.01 0.00 0.00 0.00 0.00 0.00 0.00 0.00 0.00 0.00
0.17 0.15 0.16 0.20 0.22 0.18 0.15 0.13 0.12 0.12 0.10 0.06 0.06 0.01 0.01 0.08 0.06 0.07 0.05 0.19 0.49 0.88 0.91 1.04 0.98 0.96 0.32 0.53 0.46 0.40 0.39 0.48 1.03 0.74 0.34 0.24 0.35 0.35 0.20 0.02 0.05 0.04 0.04 0.02 0.01 0.01 0.01 0.01 0.00 0.00 0.00 0.00 0.00 0.00
0.16 0.14 0.12 0.14 0.15 0.12 0.10 0.08 0.11 0.13 0.05 0.01 0.00 0.01 0.08 0.06 0.04 0.12 0.21 0.40 0.63 1.02 0.82 0.77 0.90 0.80 0.64 0.64 0.47 0.56 0.47 0.57 0.72 0.54 0.23 0.25 0.27 0.28 0.06 0.08 0.11 0.14 0.15 0.17 0.13 0.06 0.06 0.04 0.02 0.03 0.02 0.03 0.04 0.02
0.19 0.12 0.09 0.10 0.10 0.09 0.06 0.07 0.08 0.05 0.01 0.00 0.01 0.04 0.11 0.02 0.05 0.48 0.83 1.06 1.07 0.83 0.58 0.62 0.54 0.45 0.89 0.67 0.60 0.64 0.35 0.56 0.65 0.31 0.23 0.28 0.18 0.03 0.05 0.12 0.09 0.15 0.30 0.34 0.42 0.29 0.16 0.22 0.13 0.08 0.14 0.10 0.10 0.06
0.14 0.08 0.06 0.08 0.10 0.09 0.07 0.05 0.03 0.01 0.00 0.00 0.02 0.05 0.04 0.05 0.62 1.16 1.33 1.06 0.65 0.44 0.43 0.40 0.40 0.37 0.48 0.55 0.38 0.42 0.49 0.46 0.70 0.46 0.29 0.28 0.29 0.12 0.07 0.05 0.04 0.08 0.18 0.14 0.30 0.32 0.18 0.26 0.31 0.19 0.22 0.23 0.19 0.08
0.19 0.11 0.10 0.14 0.13 0.10 0.05 0.03 0.02 0.01 0.02 0.04 0.06 0.06 0.12 0.44 1.03 0.96 0.96 0.59 0.25 0.21 0.22 0.27 0.28 0.33 0.43 0.30 0.49 0.39 0.35 0.32 0.34 0.31 0.43 0.40 0.26 0.18 0.20 0.09 0.06 0.04 0.06 0.07 0.10 0.22 0.18 0.09 0.13 0.15 0.17 0.14 0.08 0.04
0.18 0.11 0.13 0.13 0.09 0.07 0.03 0.01 0.01 0.01 0.02 0.02 0.05 0.16 0.30 0.56 0.73 0.55 0.45 0.25 0.10 0.09 0.08 0.11 0.26 0.22 0.39 0.36 0.41 0.46 0.26 0.15 0.33 0.43 0.40 0.18 0.05 0.03 0.10 0.19 0.20 0.16 0.10 0.25 0.27 0.17 0.11 0.08 0.09 0.11 0.11 0.07 0.06 0.06
0.14 0.11 0.10 0.11 0.07 0.02 0.01 0.00 0.00 0.02 0.03 0.01 0.07 0.15 0.25 0.32 0.37 0.27 0.17 0.14 0.05 0.04 0.03 0.05 0.12 0.20 0.27 0.23 0.24 0.26 0.13 0.27 0.47 0.32 0.22 0.07 0.06 0.04 0.02 0.05 0.10 0.14 0.13 0.24 0.56 0.60 0.43 0.43 0.38 0.28 0.20 0.15 0.12 0.11
0.14 0.13 0.12 0.10 0.07 0.02 0.02 0.01 0.00 0.01 0.01 0.02 0.10 0.13 0.15 0.22 0.09 0.05 0.04 0.05 0.02 0.02 0.03 0.02 0.08 0.13 0.18 0.23 0.21 0.20 0.28 0.46 0.31 0.26 0.17 0.10 0.09 0.08 0.06 0.03 0.03 0.07 0.13 0.16 0.25 0.33 0.39 0.27 0.14 0.18 0.25 0.24 0.16 0.11
0.21 0.22 0.12 0.04 0.02 0.02 0.00 0.00 0.00 0.01 0.01 0.02 0.07 0.15 0.11 0.07 0.04 0.01 0.01 0.02 0.02 0.02 0.05 0.06 0.11 0.14 0.16 0.26 0.21 0.27 0.47 0.40 0.23 0.15 0.10 0.05 0.09 0.07 0.05 0.04 0.01 0.00 0.01 0.06 0.14 0.19 0.23 0.20 0.12 0.09 0.13 0.24 0.21 0.17
0.38 0.11 0.04 0.03 0.03 0.01 0.00 0.00 0.00 0.01 0.01 0.03 0.03 0.09 0.10 0.06 0.06 0.04 0.02 0.00 0.01 0.07 0.17 0.25 0.26 0.13 0.12 0.14 0.13 0.21 0.31 0.19 0.09 0.06 0.02 0.01 0.01 0.01 0.01 0.00 0.00 0.00 0.01 0.03 0.09 0.13 0.20 0.24 0.20 0.12 0.09 0.08 0.11 0.15
0.16 0.03 0.05 0.04 0.03 0.02 0.01 0.00 0.00 0.00 0.01 0.01 0.00 0.01 0.01 0.03 0.04 0.05 0.03 0.02 0.02 0.11 0.27 0.50 0.30 0.15 0.05 0.03 0.03 0.07 0.10 0.06 0.06 0.03 0.02 0.01 0.00 0.00 0.01 0.02 0.00 0.03 0.12 0.18 0.17 0.16 0.17 0.16 0.12 0.07 0.04 0.01 0.02 0.02
0.07 0.07 0.15 0.09 0.06 0.02 0.01 0.00 0.00 0.00 0.00 0.00 0.00 0.00 0.00 0.00 0.03 0.04 0.03 0.03 0.05 0.12 0.22 0.32 0.25 0.08 0.00 0.00 0.01 0.00 0.00 0.01 0.01 0.01 0.01 0.00 0.00 0.00 0.01 0.04 0.06 0.07 0.20 0.14 0.05 0.06 0.05 0.06 0.07 0.05 0.04 0.03 0.01 0.00
0.20 0.27 0.27 0.18 0.07 0.01 0.00 0.00 0.00 0.00 0.00 0.00 0.00 0.00 0.00 0.00 0.00 0.03 0.06 0.04 0.07 0.27 0.33 0.20 0.06 0.03 0.03 0.03 0.03 0.02 0.00 0.00 0.00 0.00 0.00 0.00 0.00 0.00 0.00 0.02 0.05 0.07 0.08 0.08 0.09 0.10 0.09 0.07 0.05 0.02 0.01 0.01 0.01 0.01
0.47 0.53 0.50 0.21 0.11 0.02 0.00 0.00 0.00 0.00 0.00 0.00 0.00 0.00 0.00 0.00 0.00 0.01 0.07 0.16 0.23 0.33 0.27 0.13 0.05 0.03 0.04 0.06 0.05 0.03 0.00 0.00 0.00 0.00 0.00 0.00 0.00 0.00 0.00 0.00 0.00 0.01 0.02 0.03 0.05 0.06 0.08 0.06 0.07 0.05 0.02 0.01 0.00 0.00
0.21 0.28 0.27 0.30 0.17 0.07 0.03 0.01 0.00 0.01 0.01 0.00 0.00 0.01 0.00 0.00 0.01 0.04 0.07 0.19 0.29 0.16 0.12 0.12 0.13 0.11 0.08 0.07 0.07 0.07 0.05 0.02 0.00 0.00 0.00 0.00 0.00 0.00 0.00 0.00 0.00 0.00 0.00 0.00 0.01 0.00 0.01 0.01 0.03 0.04 0.04 0.02 0.00 0.00
0.27 0.32 0.32 0.25 0.15 0.09 0.04 0.01 0.01 0.01 0.00 0.00 0.01 0.00 0.00 0.01 0.02 0.03 0.10 0.11 0.12 0.10 0.08 0.08 0.12 0.16 0.17 0.14 0.14 0.12 0.11 0.08 0.04 0.02 0.01 0.00 0.00 0.00 0.00 0.00 0.00 0.00 0.00 0.00 0.00 0.00 0.00 0.00 0.00 0.00 0.00 0.00 0.00 0.00
0.22 0.29 0.29 0.22 0.15 0.06 0.03 0.02 0.02 0.02 0.01 0.01 0.00 0.00 0.00 0.00 0.03 0.06 0.06 0.04 0.03 0.04 0.08 0.12 0.11 0.10 0.10 0.12 0.14 0.18 0.21 0.19 0.13 0.09 0.07 0.05 0.03 0.02 0.01 0.01 0.00 0.00 0.00 0.00 0.00 0.00 0.00 0.00 0.00 0.00 0.00 0.00 0.00 0.00
0.48 0.39 0.27 0.25 0.10 0.05 0.03 0.02 0.02 0.02 0.00 0.00 0.02 0.00 0.00 0.02 0.02 0.02 0.02 0.00 0.01 0.03 0.06 0.09 0.11 0.12 0.11 0.10 0.10 0.10 0.12 0.19 0.21 0.19 0.18 0.15 0.12 0.11 0.09 0.06 0.03 0.01 0.01 0.02 0.01 0.00 0.00 0.00 0.00 0.00 0.00 0.00 0.00 0.01
0.48 0.19 0.09 0.02 0.02 0.01 0.00 0.00 0.01 0.00 0.00 0.01 0.02 0.00 0.01 0.02 0.02 0.01 0.00 0.00 0.01 0.03 0.05 0.07 0.07 0.08 0.07 0.08 0.10 0.12 0.13 0.15 0.16 0.18 0.22 0.25 0.21 0.17 0.16 0.15 0.10 0.06 0.04 0.05 0.05 0.04 0.03 0.01 0.01 0.01 0.01 0.01 0.02 0.03
0.25 0.15 0.06 0.01 0.00 0.01 0.00 0.00 0.00 0.00 0.01 0.02 0.01 0.01 0.02 0.04 0.01 0.01 0.01 0.00 0.01 0.02 0.04 0.08 0.12 0.11 0.08 0.10 0.11 0.12 0.15 0.17 0.18 0.16 0.22 0.33 0.34 0.26 0.18 0.15 0.14 0.11 0.11 0.12 0.09 0.08 0.06 0.05 0.04 0.04 0.05 0.05 0.05 0.05
0.06 0.00 0.01 0.02 0.00 0.00 0.00 0.01 0.02 0.02 0.01 0.02 0.04 0.03 0.03 0.02 0.01 0.00 0.00 0.00 0.01 0.02 0.04 0.08 0.12 0.15 0.14 0.12 0.14 0.16 0.18 0.21 0.25 0.26 0.30 0.36 0.40 0.40 0.34 0.30 0.30 0.30 0.27 0.21 0.16 0.14 0.13 0.11 0.10 0.12 0.14 0.11 0.09 0.08
0.02 0.00 0.00 0.01 0.00 0.01 0.00 0.00 0.00 0.00 0.00 0.00 0.02 0.00 0.00 0.00 0.00 0.00 0.00 0.01 0.02 0.04 0.06 0.09 0.12 0.14 0.17 0.18 0.19 0.22 0.24 0.24 0.20 0.19 0.15 0.20 0.29 0.41 0.45 0.42 0.44 0.44 0.38 0.34 0.31 0.24 0.21 0.22 0.22 0.24 0.26 0.25 0.23 0.22
0.01 0.00 0.00 0.00 0.00 0.00 0.00 0.00 0.00 0.00 0.00 0.00 0.00 0.00 0.00 0.00 0.00 0.00 0.00 0.01 0.04 0.07 0.11 0.14 0.16 0.19 0.21 0.22 0.23 0.23 0.25 0.28 0.26 0.16 0.13 0.14 0.20 0.31 0.40 0.40 0.43 0.46 0.44 0.40 0.47 0.52 0.49 0.48 0.49 0.47 0.42 0.38 0.33 0.30
0.00 0.00 0.00 0.00 0.00 0.00 0.00 0.00 0.00 0.00 0.00 0.00 0.00 0.00 0.00 0.00 0.00 0.01 0.01 0.03 0.07 0.11 0.16 0.19 0.22 0.27 0.28 0.30 0.29 0.27 0.26 0.32 0.37 0.36 0.29 0.30 0.30 0.31 0.37 0.41 0.41 0.42 0.45 0.42 0.37 0.35 0.34 0.30 0.27 0.26 0.27 0.26 0.25 0.23
0.02 0.00 0.00 0.00 0.00 0.01 0.01 0.01 0.00 0.00 0.00 0.00 0.00 0.00 0.00 0.00 0.01 0.01 0.02 0.05 0.10 0.13 0.17 0.21 0.21 0.26 0.31 0.31 0.33 0.35 0.29 0.30 0.36 0.38 0.35 0.30 0.28 0.27 0.30 0.34 0.39 0.41 0.43 0.42 0.38 0.37 0.36 0.36 0.37 0.34 0.34 0.33 0.30 0.27
0.07 0.06 0.04 0.03 0.02 0.01 0.01 0.01 0.02 0.02 0.01 0.00 0.00 0.00 0.01 0.01 0.01 0.02 0.03 0.07 0.11 0.14 0.16 0.21 0.26 0.28 0.28 0.28 0.31 0.35 0.38 0.39 0.40 0.43 0.43 0.38 0.33 0.32 0.35 0.36 0.38 0.40 0.40 0.40 0.43 0.44 0.46 0.42 0.40 0.39 0.35 0.32 0.30 0.29

GFSWCAN_prec_precacc_057.txt.gz
Total_Precipitation_Accumulation
0.37 0.25 0.19 0.17 0.12 0.11 0.09 0.07 0.06 0.05 0.07 0.08 0.07 0.08 0.12 0.18 0.16 0.18 0.28 0.37 0.42 0.13 0.02 0.00 0.00 0.01 0.00 0.00 0.02 0.02 0.09 0.13 0.19 0.23 0.22 0.08 0.02 0.01 0.00 0.00 0.00 0.01 0.03 0.05 0.06 0.09 0.00 0.00 0.00 0.00 0.00 0.00 0.00 0.01
0.38 0.25 0.20 0.16 0.12 0.09 0.07 0.08 0.07 0.08 0.11 0.12 0.06 0.09 0.13 0.17 0.21 0.25 0.26 0.29 0.25 0.15 0.01 0.00 0.00 0.00 0.00 0.00 0.02 0.01 0.08 0.12 0.21 0.22 0.19 0.09 0.04 0.01 0.00 0.00 0.00 0.00 0.00 0.00 0.00 0.00 0.00 0.00 0.00 0.00 0.00 0.00 0.00 0.00
0.33 0.23 0.16 0.13 0.09 0.08 0.09 0.09 0.11 0.16 0.19 0.09 0.10 0.09 0.11 0.15 0.16 0.30 0.30 0.23 0.24 0.25 0.05 0.03 0.02 0.00 0.00 0.00 0.00 0.04 0.07 0.15 0.23 0.21 0.32 0.15 0.06 0.04 0.02 0.00 0.00 0.00 0.00 0.00 0.00 0.00 0.00 0.00 0.00 0.00 0.00 0.00 0.00 0.01
0.36 0.24 0.13 0.10 0.11 0.12 0.12 0.15 0.22 0.25 0.15 0.14 0.13 0.08 0.09 0.10 0.16 0.23 0.11 0.10 0.22 0.26 0.19 0.05 0.01 0.02 0.01 0.02 0.02 0.02 0.09 0.17 0.29 0.48 0.33 0.19 0.08 0.03 0.02 0.01 0.00 0.01 0.00 0.00 0.00 0.00 0.00 0.00 0.00 0.00 0.00 0.00 0.00 0.00
0.48 0.23 0.14 0.16 0.19 0.20 0.24 0.25 0.19 0.15 0.15 0.17 0.15 0.07 0.13 0.18 0.16 0.08 0.02 0.07 0.16 0.32 0.34 0.18 0.16 0.01 0.01 0.05 0.04 0.06 0.11 0.30 0.34 0.59 0.57 0.22 0.09 0.06 0.02 0.01 0.00 0.00 0.00 0.00 0.00 0.00 0.00 0.00 0.00 0.00 0.00 0.00 0.00 0.00
0.46 0.30 0.19 0.19 0.24 0.28 0.24 0.21 0.18 0.16 0.20 0.21 0.11 0.14 0.15 0.10 0.14 0.15 0.20 0.36 0.28 0.32 0.60 0.43 0.34 0.16 0.06 0.09 0.09 0.15 0.22 0.43 0.67 0.50 0.53 0.33 0.13 0.20 0.17 0.05 0.00 0.00 0.00 0.00 0.00 0.00 0.00 0.00 0.00 0.00 0.00 0.00 0.00 0.00
0.35 0.27 0.22 0.22 0.24 0.21 0.20 0.17 0.14 0.17 0.17 0.10 0.12 0.11 0.05 0.04 0.11 0.12 0.25 0.62 0.58 0.57 0.68 0.78 0.66 0.48 0.14 0.23 0.27 0.30 0.31 0.55 0.89 0.66 0.41 0.33 0.29 0.53 0.34 0.05 0.00 0.01 0.01 0.01 0.01 0.00 0.00 0.00 0.00 0.00 0.00 0.00 0.00 0.00
0.28 0.19 0.20 0.22 0.22 0.18 0.15 0.13 0.12 0.12 0.10 0.06 0.06 0.01 0.01 0.08 0.06 0.07 0.05 0.19 0.49 0.88 0.91 1.04 0.98 0.96 0.32 0.53 0.46 0.40 0.39 0.48 1.03 0.74 0.34 0.24 0.35 0.35 0.20 0.02 0.05 0.04 0.04 0.02 0.01 0.01 0.01 0.01 0.00 0.00 0.00 0.00 0.00 0.00
0.25 0.18 0.14 0.14 0.15 0.12 0.10 0.08 0.11 0.13 0.05 0.01 0.00 0.01 0.08 0.06 0.04 0.12 0.21 0.40 0.63 1.02 0.82 0.77 0.90 0.80 0.64 0.64 0.48 0.56 0.47 0.57 0.72 0.54 0.23 0.25 0.27 0.29 0.06 0.08 0.11 0.14 0.15 0.17 0.13 0.06 0.06 0.05 0.02 0.03 0.02 0.03 0.04 0.04
0.26 0.17 0.10 0.10 0.10 0.09 0.06 0.07 0.09 0.05 0.01 0.00 0.01 0.04 0.11 0.02 0.05 0.48 0.83 1.06 1.07 0.83 0.58 0.62 0.54 0.45 0.89 0.67 0.60 0.65 0.35 0.56 0.65 0.31 0.24 0.30 0.19 0.03 0.05 0.12 0.09 0.15 0.30 0.34 0.42 0.30 0.17 0.23 0.14 0.10 0.15 0.11 0.11 0.13
0.22 0.11 0.06 0.08 0.10 0.10 0.07 0.06 0.04 0.02 0.01 0.00 0.02 0.05 0.04 0.05 0.62 1.16 1.33 1.06 0.65 0.44 0.43 0.40 0.40 0.37 0.48 0.55 0.38 0.42 0.50 0.46 0.70 0.47 0.32 0.31 0.29 0.12 0.07 0.05 0.04 0.08 0.18 0.14 0.31 0.32 0.20 0.30 0.35 0.24 0.28 0.32 0.33 0.32
0.25 0.12 0.10 0.14 0.14 0.11 0.06 0.04 0.03 0.01 0.02 0.04 0.06 0.06 0.12 0.44 1.03 0.96 0.96 0.59 0.25 0.21 0.22 0.27 0.28 0.33 0.43 0.30 0.49 0.40 0.35 0.33 0.35 0.32 0.44 0.41 0.26 0.18 0.20 0.09 0.06 0.04 0.06 0.07 0.10 0.22 0.18 0.11 0.16 0.19 0.27 0.29 0.27 0.29
0.24 0.12 0.13 0.13 0.09 0.08 0.04 0.01 0.02 0.01 0.02 0.02 0.05 0.16 0.30 0.56 0.73 0.55 0.45 0.25 0.10 0.09 0.08 0.11 0.26 0.22 0.39 0.36 0.41 0.46 0.26 0.15 0.34 0.43 0.40 0.18 0.05 0.03 0.10 0.19 0.20 0.16 0.10 0.25 0.27 0.18 0.11 0.09 0.11 0.14 0.15 0.11 0.10 0.10
0.17 0.12 0.11 0.11 0.08 0.03 0.02 0.01 0.00 0.02 0.03 0.01 0.07 0.15 0.25 0.32 0.37 0.27 0.17 0.14 0.05 0.04 0.03 0.05 0.12 0.20 0.27 0.23 0.24 0.26 0.13 0.27 0.48 0.32 0.22 0.07 0.06 0.04 0.02 0.05 0.10 0.14 0.13 0.24 0.56 0.60 0.44 0.44 0.40 0.30 0.21 0.15 0.12 0.11
0.16 0.15 0.14 0.11 0.08 0.03 0.03 0.01 0.00 0.01 0.01 0.02 0.10 0.13 0.15 0.22 0.09 0.05 0.04 0.05 0.02 0.02 0.03 0.02 0.08 0.13 0.18 0.23 0.21 0.20 0.28 0.46 0.31 0.26 0.17 0.10 0.09 0.08 0.06 0.03 0.03 0.07 0.13 0.16 0.25 0.33 0.40 0.29 0.16 0.20 0.26 0.24 0.16 0.12
0.23 0.24 0.13 0.05 0.03 0.03 0.01 0.00 0.00 0.01 0.01 0.02 0.07 0.15 0.11 0.07 0.04 0.01 0.01 0.02 0.02 0.02 0.05 0.06 0.11 0.14 0.16 0.26 0.21 0.27 0.47 0.40 0.23 0.15 0.10 0.05 0.09 0.07 0.05 0.04 0.01 0.00 0.01 0.06 0.14 0.19 0.24 0.22 0.16 0.13 0.16 0.25 0.22 0.18
0.39 0.14 0.05 0.04 0.04 0.01 0.00 0.00 0.00 0.01 0.01 0.03 0.03 0.09 0.10 0.06 0.06 0.04 0.02 0.00 0.01 0.07 0.17 0.25 0.26 0.13 0.12 0.14 0.13 0.21 0.31 0.19 0.09 0.06 0.02 0.01 0.01 0.01 0.01 0.00 0.00 0.00 0.01 0.03 0.09 0.13 0.20 0.25 0.23 0.17 0.15 0.15 0.14 0.19
0.17 0.04 0.06 0.05 0.04 0.02 0.01 0.00 0.00 0.00 0.01 0.01 0.00 0.01 0.01 0.03 0.04 0.05 0.03 0.02 0.02 0.11 0.27 0.50 0.30 0.15 0.05 0.03 0.03 0.07 0.10 0.06 0.06 0.03 0.02 0.01 0.00 0.00 0.01 0.02 0.00 0.03 0.12 0.18 0.17 0.16 0.17 0.17 0.16 0.11 0.09 0.07 0.06 0.05
0.11 0.10 0.16 0.10 0.06 0.02 0.01 0.00 0.00 0.00 0.00 0.00 0.00 0.00 0.00 0.00 0.03 0.04 0.03 0.03 0.05 0.12 0.22 0.32 0.25 0.08 0.00 0.00 0.01 0.00 0.00 0.01 0.01 0.01 0.01 0.00 0.00 0.00 0.01 0.04 0.06 0.07 0.20 0.14 0.05 0.06 0.05 0.06 0.09 0.10 0.09 0.06 0.03 0.02
0.21 0.28 0.27 0.18 0.07 0.01 0.00 0.00 0.00 0.00 0.00 0.00 0.00 0.00 0.00 0.00 0.00 0.03 0.06 0.04 0.07 0.27 0.33 0.20 0.06 0.03 0.03 0.03 0.03 0.02 0.00 0.00 0.00 0.00 0.00 0.00 0.00 0.00 0.00 0.02 0.05 0.07 0.08 0.08 0.09 0.10 0.09 0.07 0.06 0.06 0.06 0.04 0.03 0.03
0.48 0.53 0.50 0.21 0.11 0.02 0.00 0.00 0.00 0.00 0.00 0.00 0.00 0.00 0.00 0.00 0.00 0.01 0.07 0.16 0.23 0.33 0.27 0.13 0.05 0.03 0.04 0.06 0.05 0.03 0.00 0.00 0.00 0.00 0.00 0.00 0.00 0.00 0.00 0.00 0.00 0.01 0.02 0.03 0.05 0.06 0.08 0.06 0.08 0.07 0.07 0.07 0.05 0.02
0.21 0.28 0.27 0.30 0.17 0.07 0.03 0.01 0.00 0.01 0.01 0.00 0.00 0.01 0.00 0.00 0.01 0.04 0.08 0.19 0.29 0.16 0.12 0.12 0.13 0.11 0.08 0.07 0.07 0.07 0.05 0.02 0.00 0.00 0.00 0.00 0.00 0.00 0.00 0.00 0.00 0.00 0.00 0.00 0.01 0.00 0.01 0.01 0.03 0.04 0.06 0.09 0.08 0.03
0.27 0.32 0.32 0.25 0.15 0.09 0.04 0.01 0.01 0.01 0.00 0.00 0.01 0.00 0.00 0.01 0.02 0.04 0.10 0.11 0.12 0.10 0.08 0.08 0.12 0.16 0.17 0.14 0.14 0.12 0.11 0.08 0.04 0.02 0.01 0.00 0.00 0.00 0.00 0.00 0.00 0.00 0.00 0.00 0.00 0.00 0.00 0.00 0.00 0.00 0.00 0.02 0.05 0.05
0.22 0.29 0.29 0.22 0.15 0.06 0.03 0.02 0.02 0.02 0.01 0.01 0.00 0.00 0.00 0.00 0.03 0.06 0.06 0.04 0.03 0.04 0.08 0.12 0.11 0.10 0.10 0.12 0.14 0.18 0.21 0.19 0.13 0.09 0.07 0.05 0.03 0.02 0.01 0.01 0.00 0.00 0.00 0.00 0.00 0.00 0.00 0.00 0.00 0.00 0.00 0.00 0.01 0.01
0.48 0.39 0.27 0.25 0.10 0.05 0.03 0.02 0.02 0.02 0.00 0.00 0.02 0.00 0.00 0.02 0.02 0.02 0.02 0.00 0.01 0.03 0.06 0.09 0.11 0.12 0.11 0.10 0.10 0.10 0.12 0.19 0.21 0.19 0.18 0.15 0.12 0.11 0.09 0.06 0.03 0.01 0.01 0.02 0.01 0.00 0.00 0.00 0.00 0.00 0.00 0.00 0.00 0.01
0.48 0.19 0.09 0.02 0.02 0.01 0.00 0.00 0.01 0.00 0.00 0.01 0.02 0.00 0.01 0.02 0.02 0.01 0.00 0.00 0.01 0.03 0.05 0.07 0.07 0.08 0.07 0.08 0.10 0.12 0.13 0.15 0.16 0.18 0.22 0.25 0.21 0.17 0.16 0.15 0.10 0.06 0.04 0.05 0.05 0.04 0.03 0.01 0.01 0.01 0.01 0.01 0.02 0.03
0.25 0.15 0.06 0.01 0.00 0.01 0.00 0.00 0.00 0.00 0.01 0.02 0.01 0.01 0.02 0.04 0.01 0.01 0.01 0.00 0.01 0.02 0.04 0.08 0.12 0.11 0.08 0.10 0.11 0.12 0.15 0.17 0.18 0.16 0.22 0.33 0.34 0.26 0.18 0.15 0.14 0.11 0.11 0.12 0.09 0.08 0.06 0.05 0.04 0.04 0.05 0.05 0.05 0.05
0.06 0.00 0.01 0.02 0.00 0.00 0.00 0.01 0.02 0.02 0.01 0.02 0.04 0.03 0.03 0.02 0.01 0.00 0.00 0.00 0.01 0.02 0.04 0.08 0.12 0.15 0.14 0.12 0.14 0.16 0.18 0.21 0.25 0.26 0.30 0.36 0.40 0.40 0.34 0.30 0.30 0.30 0.27 0.21 0.16 0.14 0.13 0.11 0.10 0.12 0.14 0.11 0.09 0.08
0.02 0.00 0.00 0.01 0.00 0.01 0.00 0.00 0.00 0.00 0.00 0.00 0.02 0.00 0.00 0.00 0.00 0.00 0.00 0.01 0.02 0.04 0.06 0.09 0.12 0.14 0.17 0.18 0.19 0.22 0.24 0.24 0.20 0.19 0.15 0.20 0.29 0.41 0.45 0.42 0.44 0.44 0.38 0.34 0.31 0.24 0.21 0.22 0.22 0.24 0.26 0.25 0.23 0.22
0.01 0.00 0.00 0.00 0.00 0.00 0.00 0.00 0.00 0.00 0.00 0.00 0.00 0.00 0.00 0.00 0.00 0.00 0.00 0.01 0.04 0.07 0.11 0.14 0.16 0.19 0.21 0.22 0.23 0.23 0.25 0.28 0.26 0.17 0.14 0.15 0.20 0.31 0.40 0.40 0.43 0.46 0.44 0.40 0.47 0.52 0.49 0.48 0.49 0.47 0.42 0.38 0.33 0.30
0.00 0.00 0.00 0.00 0.00 0.00 0.00 0.00 0.00 0.00 0.00 0.00 0.00 0.00 0.00 0.00 0.00 0.01 0.01 0.03 0.07 0.11 0.16 0.19 0.22 0.27 0.28 0.30 0.29 0.27 0.26 0.32 0.37 0.36 0.30 0.31 0.31 0.31 0.37 0.41 0.41 0.42 0.45 0.42 0.37 0.35 0.34 0.30 0.27 0.26 0.27 0.26 0.25 0.23
0.02 0.00 0.00 0.00 0.00 0.01 0.01 0.01 0.00 0.00 0.00 0.00 0.00 0.00 0.00 0.00 0.01 0.01 0.02 0.05 0.10 0.13 0.17 0.21 0.21 0.26 0.31 0.31 0.33 0.35 0.30 0.30 0.36 0.39 0.35 0.31 0.30 0.28 0.30 0.35 0.39 0.41 0.43 0.42 0.38 0.37 0.36 0.36 0.37 0.34 0.34 0.33 0.31 0.27
0.07 0.06 0.04 0.03 0.02 0.01 0.01 0.01 0.02 0.02 0.01 0.00 0.00 0.00 0.01 0.01 0.01 0.02 0.03 0.07 0.11 0.14 0.16 0.21 0.26 0.28 0.28 0.28 0.31 0.35 0.38 0.39 0.40 0.43 0.44 0.40 0.36 0.34 0.35 0.36 0.38 0.40 0.40 0.40 0.43 0.44 0.46 0.42 0.40 0.39 0.35 0.32 0.30 0.29

GFSWCAN_prec_precacc_060.txt.gz
Total_Precipitation_Accumulation
0.67 0.65 0.63 0.41 0.23 0.20 0.14 0.07 0.06 0.05 0.07 0.08 0.07 0.08 0.12 0.18 0.16 0.18 0.28 0.37 0.42 0.13 0.02 0.00 0.00 0.01 0.00 0.00 0.02 0.02 0.09 0.13 0.20 0.24 0.22 0.09 0.02 0.01 0.00 0.00 0.00 0.01 0.03 0.05 0.06 0.09 0.00 0.00 0.00 0.00 0.00 0.00 0.00 0.01
0.62 0.57 0.63 0.46 0.21 0.13 0.09 0.08 0.07 0.08 0.11 0.12 0.06 0.09 0.13 0.17 0.21 0.25 0.26 0.29 0.25 0.15 0.01 0.00 0.00 0.00 0.00 0.00 0.02 0.01 0.08 0.12 0.22 0.24 0.19 0.09 0.04 0.01 0.00 0.00 0.00 0.00 0.00 0.00 0.00 0.00 0.00 0.00 0.00 0.00 0.00 0.00 0.00 0.00
0.58 0.61 0.61 0.43 0.17 0.11 0.10 0.09 0.11 0.16 0.19 0.09 0.10 0.09 0.11 0.15 0.16 0.30 0.30 0.23 0.24 0.25 0.05 0.03 0.02 0.00 0.00 0.00 0.00 0.04 0.07 0.15 0.23 0.21 0.32 0.15 0.06 0.04 0.02 0.00 0.00 0.00 0.00 0.00 0.00 0.00 0.00 0.00 0.00 0.00 0.00 0.00 0.00 0.01
0.58 0.56 0.49 0.37 0.18 0.15 0.13 0.15 0.22 0.25 0.15 0.14 0.13 0.08 0.09 0.10 0.16 0.23 0.11 0.10 0.22 0.26 0.19 0.05 0.01 0.02 0.01 0.02 0.02 0.02 0.09 0.17 0.29 0.48 0.33 0.19 0.08 0.03 0.02 0.01 0.00 0.01 0.00 0.00 0.00 0.00 0.00 0.00 0.00 0.00 0.00 0.00 0.00 0.00
0.88 0.70 0.47 0.34 0.26 0.23 0.26 0.25 0.19 0.15 0.15 0.17 0.15 0.07 0.13 0.18 0.16 0.08 0.02 0.07 0.16 0.32 0.34 0.18 0.16 0.01 0.01 0.05 0.04 0.06 0.11 0.30 0.34 0.59 0.57 0.22 0.09 0.06 0.02 0.01 0.00 0.00 0.00 0.00 0.00 0.00 0.00 0.00 0.00 0.00 0.00 0.00 0.00 0.00
0.78 0.82 0.64 0.36 0.29 0.30 0.25 0.21 0.18 0.16 0.20 0.21 0.11 0.14 0.15 0.10 0.14 0.15 0.20 0.36 0.28 0.32 0.60 0.43 0.34 0.16 0.06 0.09 0.09 0.15 0.22 0.43 0.67 0.50 0.53 0.33 0.13 0.20 0.17 0.05 0.00 0.00 0.00 0.00 0.00 0.00 0.00 0.00 0.00 0.00 0.00 0.00 0.00 0.00
0.60 0.65 0.55 0.41 0.31 0.23 0.20 0.18 0.14 0.17 0.17 0.11 0.12 0.11 0.05 0.04 0.11 0.12 0.25 0.62 0.58 0.57 0.68 0.78 0.66 0.48 0.14 0.23 0.27 0.30 0.31 0.55 0.89 0.66 0.41 0.33 0.29 0.53 0.34 0.05 0.00 0.01 0.01 0.01 0.01 0.00 0.00 0.00 0.00 0.00 0.00 0.00 0.00 0.00
0.59 0.50 0.43 0.37 0.30 0.19 0.15 0.13 0.12 0.12 0.10 0.07 0.06 0.01 0.01 0.08 0.06 0.07 0.05 0.19 0.49 0.88 0.91 1.04 0.98 0.96 0.32 0.53 0.46 0.40 0.39 0.48 1.03 0.74 0.34 0.24 0.35 0.35 0.20 0.02 0.05 0.04 0.04 0.02 0.01 0.02 0.01 0.01 0.00 0.00 0.00 0.00 0.00 0.00
0.69 0.48 0.37 0.29 0.20 0.13 0.11 0.09 0.12 0.13 0.05 0.01 0.00 0.01 0.08 0.06 0.04 0.12 0.21 0.40 0.63 1.02 0.82 0.77 0.90 0.80 0.64 0.64 0.48 0.56 0.47 0.57 0.72 0.54 0.23 0.25 0.27 0.29 0.06 0.08 0.11 0.14 0.15 0.17 0.13 0.06 0.06 0.05 0.02 0.03 0.02 0.03 0.04 0.04
0.63 0.48 0.32 0.24 0.15 0.10 0.06 0.07 0.09 0.05 0.01 0.00 0.01 0.04 0.11 0.02 0.05 0.48 0.83 1.06 1.07 0.83 0.58 0.62 0.54 0.45 0.89 0.67 0.60 0.65 0.35 0.56 0.65 0.31 0.24 0.30 0.19 0.03 0.05 0.12 0.09 0.15 0.30 0.34 0.42 0.30 0.17 0.23 0.14 0.10 0.15 0.11 0.12 0.14
0.49 0.38 0.25 0.19 0.12 0.10 0.07 0.06 0.04 0.02 0.01 0.00 0.02 0.05 0.04 0.05 0.62 1.16 1.33 1.06 0.65 0.44 0.43 0.40 0.40 0.37 0.48 0.55 0.38 0.42 0.50 0.46 0.70 0.47 0.32 0.31 0.30 0.12 0.07 0.05 0.04 0.08 0.18 0.14 0.31 0.32 0.20 0.30 0.35 0.25 0.29 0.33 0.34 0.35
0.50 0.36 0.26 0.19 0.14 0.11 0.06 0.04 0.03 0.01 0.02 0.04 0.06 0.06 0.12 0.44 1.03 0.96 0.96 0.59 0.25 0.21 0.22 0.27 0.28 0.33 0.43 0.30 0.49 0.40 0.36 0.33 0.35 0.32 0.44 0.41 0.26 0.18 0.20 0.09 0.06 0.04 0.06 0.07 0.10 0.22 0.18 0.11 0.16 0.19 0.27 0.30 0.29 0.34
0.51 0.32 0.23 0.16 0.10 0.08 0.04 0.01 0.02 0.01 0.02 0.02 0.05 0.16 0.30 0.56 0.73 0.55 0.45 0.25 0.10 0.09 0.08 0.11 0.26 0.22 0.39 0.36 0.41 0.46 0.26 0.15 0.34 0.44 0.40 0.18 0.05 0.03 0.10 0.19 0.20 0.16 0.10 0.25 0.27 0.18 0.11 0.09 0.11 0.14 0.15 0.11 0.10 0.11
0.46 0.25 0.16 0.13 0.08 0.03 0.02 0.01 0.00 0.02 0.03 0.01 0.07 0.15 0.25 0.32 0.37 0.27 0.17 0.14 0.05 0.04 0.03 0.05 0.12 0.20 0.27 0.23 0.24 0.26 0.13 0.28 0.49 0.32 0.22 0.07 0.06 0.04 0.02 0.05 0.10 0.14 0.13 0.24 0.56 0.60 0.44 0.44 0.40 0.30 0.21 0.15 0.12 0.11
0.36 0.25 0.16 0.12 0.08 0.03 0.03 0.01 0.00 0.01 0.01 0.02 0.10 0.13 0.15 0.22 0.09 0.05 0.04 0.05 0.02 0.02 0.03 0.02 0.08 0.13 0.18 0.23 0.21 0.20 0.28 0.46 0.31 0.26 0.17 0.10 0.09 0.08 0.06 0.03 0.03 0.07 0.13 0.16 0.25 0.33 0.40 0.29 0.16 0.20 0.27 0.25 0.17 0.12
0.38 0.30 0.15 0.06 0.04 0.04 0.01 0.00 0.00 0.01 0.01 0.02 0.07 0.15 0.11 0.07 0.04 0.01 0.01 0.02 0.02 0.02 0.05 0.06 0.11 0.14 0.16 0.26 0.21 0.27 0.47 0.40 0.23 0.15 0.10 0.05 0.09 0.07 0.05 0.04 0.01 0.00 0.01 0.06 0.14 0.19 0.24 0.22 0.16 0.13 0.17 0.27 0.23 0.19
0.45 0.19 0.07 0.05 0.05 0.02 0.00 0.00 0.00 0.01 0.01 0.03 0.03 0.09 0.10 0.06 0.06 0.04 0.02 0.00 0.01 0.07 0.17 0.25 0.26 0.13 0.12 0.14 0.13 0.21 0.31 0.19 0.09 0.06 0.02 0.01 0.01 0.01 0.01 0.00 0.00 0.00 0.01 0.03 0.09 0.13 0.20 0.25 0.24 0.18 0.16 0.16 0.16 0.21
0.19 0.06 0.07 0.06 0.04 0.03 0.01 0.00 0.00 0.00 0.01 0.01 0.00 0.01 0.01 0.03 0.04 0.05 0.03 0.02 0.02 0.11 0.27 0.50 0.30 0.15 0.05 0.03 0.03 0.07 0.10 0.06 0.06 0.03 0.02 0.01 0.00 0.00 0.01 0.02 0.00 0.03 0.12 0.18 0.17 0.16 0.17 0.17 0.16 0.12 0.11 0.10 0.09 0.08
0.12 0.12 0.16 0.10 0.06 0.02 0.01 0.00 0.00 0.00 0.00 0.00 0.00 0.00 0.00 0.00 0.03 0.04 0.03 0.03 0.05 0.12 0.22 0.32 0.25 0.08 0.00 0.00 0.01 0.00 0.00 0.01 0.01 0.01 0.01 0.00 0.00 0.00 0.01 0.04 0.06 0.07 0.20 0.14 0.05 0.06 0.05 0.06 0.09 0.10 0.10 0.10 0.08 0.06
0.24 0.30 0.29 0.19 0.07 0.01 0.00 0.00 0.00 0.00 0.00 0.00 0.00 0.00 0.00 0.00 0.00 0.03 0.06 0.04 0.07 0.27 0.33 0.20 0.06 0.03 0.03 0.03 0.03 0.02 0.00 0.00 0.00 0.00 0.00 0.00 0.00 0.00 0.00 0.02 0.05 0.07 0.08 0.08 0.09 0.10 0.09 0.07 0.06 0.06 0.06 0.07 0.09 0.09
0.53 0.56 0.51 0.21 0.11 0.02 0.00 0.00 0.00 0.00 0.00 0.00 0.00 0.00 0.00 0.00 0.00 0.01 0.07 0.16 0.23 0.33 0.27 0.13 0.05 0.03 0.04 0.06 0.05 0.03 0.00 0.00 0.00 0.00 0.00 0.00 0.00 0.00 0.00 0.00 0.00 0.01 0.02 0.03 0.05 0.06 0.08 0.06 0.08 0.07 0.07 0.09 0.11 0.09
0.23 0.28 0.27 0.30 0.17 0.07 0.03 0.01 0.00 0.01 0.01 0.00 0.00 0.01 0.00 0.00 0.01 0.04 0.08 0.19 0.29 0.16 0.12 0.12 0.13 0.11 0.08 0.07 0.07 0.07 0.05 0.02 0.00 0.00 0.00 0.00 0.00 0.00 0.00 0.00 0.00 0.00 0.00 0.01 0.01 0.00 0.01 0.01 0.03 0.04 0.06 0.10 0.12 0.09
0.28 0.32 0.33 0.26 0.16 0.09 0.04 0.01 0.01 0.01 0.00 0.00 0.01 0.00 0.00 0.01 0.02 0.04 0.10 0.11 0.12 0.10 0.08 0.08 0.12 0.16 0.17 0.14 0.14 0.12 0.11 0.08 0.04 0.02 0.01 0.00 0.00 0.00 0.00 0.00 0.00 0.00 0.00 0.00 0.01 0.00 0.00 0.00 0.00 0.00 0.00 0.02 0.06 0.08
0.22 0.30 0.30 0.23 0.15 0.06 0.03 0.02 0.02 0.02 0.01 0.01 0.00 0.00 0.00 0.00 0.03 0.06 0.06 0.04 0.03 0.04 0.08 0.12 0.11 0.10 0.10 0.12 0.14 0.18 0.21 0.19 0.13 0.09 0.07 0.05 0.03 0.02 0.01 0.01 0.00 0.00 0.00 0.00 0.00 0.00 0.00 0.00 0.00 0.00 0.00 0.00 0.01 0.02
0.48 0.39 0.27 0.25 0.10 0.05 0.03 0.02 0.02 0.02 0.00 0.01 0.02 0.00 0.00 0.02 0.02 0.02 0.02 0.00 0.01 0.03 0.06 0.09 0.11 0.12 0.11 0.10 0.10 0.10 0.12 0.19 0.21 0.19 0.18 0.15 0.12 0.11 0.09 0.06 0.03 0.01 0.01 0.02 0.01 0.00 0.00 0.00 0.00 0.00 0.00 0.00 0.00 0.01
0.49 0.19 0.09 0.02 0.02 0.01 0.00 0.00 0.01 0.00 0.00 0.01 0.02 0.01 0.01 0.03 0.02 0.01 0.00 0.00 0.01 0.03 0.05 0.07 0.07 0.08 0.07 0.08 0.10 0.12 0.13 0.15 0.16 0.18 0.22 0.25 0.21 0.17 0.16 0.15 0.10 0.06 0.04 0.05 0.05 0.04 0.03 0.01 0.01 0.01 0.01 0.01 0.02 0.03
0.25 0.15 0.06 0.01 0.00 0.01 0.00 0.00 0.00 0.00 0.01 0.02 0.01 0.01 0.02 0.04 0.01 0.01 0.01 0.00 0.01 0.02 0.04 0.08 0.12 0.11 0.08 0.10 0.11 0.12 0.15 0.17 0.18 0.16 0.22 0.33 0.34 0.26 0.18 0.15 0.14 0.11 0.11 0.12 0.09 0.08 0.06 0.05 0.04 0.04 0.05 0.05 0.05 0.05
0.06 0.00 0.01 0.02 0.00 0.00 0.00 0.01 0.02 0.02 0.01 0.02 0.04 0.03 0.03 0.02 0.01 0.00 0.00 0.00 0.01 0.02 0.04 0.08 0.12 0.15 0.14 0.12 0.14 0.16 0.18 0.21 0.25 0.26 0.30 0.36 0.40 0.40 0.34 0.30 0.30 0.30 0.27 0.21 0.16 0.14 0.13 0.11 0.10 0.12 0.14 0.11 0.09 0.08
0.02 0.00 0.00 0.01 0.01 0.01 0.00 0.00 0.00 0.00 0.00 0.00 0.02 0.00 0.00 0.00 0.00 0.00 0.00 0.01 0.02 0.04 0.06 0.09 0.12 0.14 0.17 0.18 0.19 0.22 0.24 0.24 0.20 0.19 0.15 0.20 0.29 0.41 0.45 0.42 0.44 0.44 0.38 0.34 0.31 0.24 0.21 0.22 0.22 0.24 0.26 0.26 0.23 0.22
0.01 0.00 0.00 0.00 0.00 0.00 0.00 0.00 0.00 0.00 0.00 0.00 0.00 0.00 0.00 0.00 0.00 0.00 0.00 0.01 0.04 0.07 0.11 0.14 0.16 0.19 0.21 0.22 0.23 0.23 0.25 0.28 0.26 0.17 0.15 0.15 0.20 0.31 0.40 0.40 0.43 0.46 0.45 0.40 0.47 0.52 0.49 0.48 0.49 0.47 0.42 0.38 0.33 0.30
0.00 0.00 0.00 0.00 0.00 0.00 0.00 0.00 0.00 0.00 0.00 0.00 0.00 0.00 0.00 0.00 0.00 0.01 0.01 0.03 0.07 0.11 0.16 0.19 0.22 0.27 0.28 0.30 0.29 0.27 0.26 0.32 0.37 0.36 0.30 0.32 0.31 0.32 0.37 0.42 0.42 0.43 0.45 0.42 0.38 0.35 0.34 0.30 0.27 0.26 0.27 0.26 0.25 0.24
0.02 0.01 0.00 0.00 0.00 0.01 0.01 0.01 0.00 0.00 0.00 0.00 0.00 0.01 0.00 0.00 0.01 0.01 0.02 0.05 0.10 0.13 0.17 0.21 0.21 0.26 0.31 0.31 0.33 0.35 0.30 0.31 0.36 0.39 0.36 0.32 0.31 0.31 0.31 0.36 0.40 0.42 0.43 0.43 0.38 0.37 0.37 0.36 0.38 0.34 0.34 0.34 0.31 0.27
0.07 0.06 0.04 0.03 0.02 0.01 0.01 0.01 0.02 0.02 0.01 0.00 0.00 0.00 0.01 0.01 0.01 0.02 0.03 0.07 0.11 0.14 0.16 0.21 0.26 0.28 0.28 0.28 0.31 0.35 0.38 0.39 0.40 0.43 0.45 0.41 0.39 0.37 0.36 0.36 0.39 0.40 0.40 0.40 0.43 0.44 0.46 0.42 0.40 0.39 0.35 0.33 0.31 0.29

GFSWCAN_prec_precacc_063.txt.gz
Total_Precipitation_Accumulation
0.84 0.85 0.90 0.87 0.78 0.64 0.38 0.26 0.14 0.06 0.07 0.08 0.07 0.08 0.12 0.18 0.16 0.18 0.28 0.37 0.42 0.13 0.02 0.00 0.00 0.01 0.00 0.00 0.02 0.02 0.09 0.13 0.20 0.25 0.23 0.09 0.03 0.01 0.00 0.00 0.00 0.02 0.04 0.05 0.06 0.10 0.01 0.00 0.00 0.00 0.00 0.00 0.00 0.01
0.79 0.72 0.79 0.72 0.54 0.49 0.34 0.22 0.14 0.09 0.11 0.12 0.06 0.09 0.13 0.17 0.21 0.25 0.26 0.29 0.25 0.15 0.01 0.00 0.00 0.00 0.00 0.00 0.02 0.01 0.08 0.12 0.22 0.24 0.19 0.09 0.04 0.01 0.00 0.00 0.00 0.00 0.00 0.00 0.00 0.00 0.00 0.00 0.00 0.00 0.00 0.00 0.00 0.00
0.73 0.76 0.87 0.97 0.69 0.49 0.38 0.19 0.13 0.16 0.19 0.09 0.10 0.09 0.11 0.15 0.16 0.30 0.30 0.23 0.24 0.25 0.05 0.03 0.02 0.00 0.00 0.00 0.00 0.04 0.07 0.15 0.23 0.21 0.32 0.15 0.06 0.04 0.02 0.01 0.00 0.00 0.00 0.00 0.00 0.00 0.00 0.00 0.00 0.00 0.00 0.00 0.00 0.01
0.69 0.68 0.69 0.85 0.88 0.63 0.44 0.26 0.24 0.25 0.15 0.14 0.13 0.08 0.09 0.10 0.16 0.23 0.11 0.10 0.22 0.26 0.19 0.05 0.01 0.02 0.01 0.02 0.02 0.02 0.09 0.17 0.29 0.48 0.33 0.19 0.08 0.03 0.02 0.01 0.00 0.01 0.00 0.00 0.00 0.00 0.00 0.00 0.00 0.00 0.00 0.00 0.00 0.00
0.99 0.85 0.62 0.57 0.63 0.56 0.50 0.35 0.21 0.16 0.15 0.17 0.15 0.07 0.13 0.18 0.16 0.08 0.02 0.07 0.16 0.32 0.34 0.18 0.16 0.01 0.01 0.05 0.04 0.06 0.11 0.30 0.34 0.59 0.57 0.22 0.09 0.06 0.02 0.01 0.00 0.00 0.00 0.00 0.00 0.00 0.00 0.00 0.00 0.00 0.00 0.00 0.00 0.00
0.96 1.10 1.17 0.73 0.53 0.52 0.44 0.30 0.20 0.16 0.20 0.21 0.11 0.14 0.15 0.10 0.14 0.15 0.20 0.36 0.28 0.32 0.60 0.43 0.34 0.16 0.06 0.09 0.09 0.15 0.22 0.43 0.67 0.50 0.53 0.33 0.13 0.20 0.17 0.05 0.00 0.00 0.00 0.00 0.00 0.00 0.00 0.00 0.00 0.00 0.00 0.00 0.00 0.00
0.76 0.94 1.18 1.14 0.64 0.42 0.32 0.23 0.15 0.18 0.18 0.11 0.12 0.11 0.05 0.04 0.11 0.12 0.25 0.62 0.58 0.57 0.68 0.78 0.66 0.48 0.14 0.23 0.27 0.30 0.31 0.55 0.89 0.66 0.41 0.33 0.29 0.53 0.34 0.05 0.00 0.01 0.01 0.01 0.01 0.00 0.00 0.00 0.00 0.00 0.00 0.00 0.00 0.00
0.70 0.68 0.70 0.91 0.69 0.43 0.24 0.16 0.13 0.13 0.10 0.07 0.06 0.01 0.01 0.08 0.06 0.07 0.05 0.19 0.49 0.88 0.91 1.04 0.98 0.96 0.32 0.53 0.46 0.40 0.39 0.48 1.03 0.74 0.34 0.24 0.35 0.35 0.20 0.02 0.05 0.04 0.04 0.02 0.01 0.02 0.01 0.01 0.00 0.00 0.00 0.00 0.00 0.00
0.86 0.71 0.50 0.48 0.46 0.33 0.18 0.10 0.12 0.14 0.05 0.01 0.00 0.01 0.08 0.06 0.04 0.12 0.21 0.40 0.63 1.02 0.82 0.77 0.90 0.80 0.64 0.64 0.48 0.56 0.47 0.57 0.72 0.54 0.23 0.25 0.27 0.29 0.06 0.08 0.11 0.14 0.15 0.17 0.13 0.06 0.06 0.05 0.02 0.03 0.02 0.03 0.04 0.04
0.94 0.95 0.59 0.41 0.30 0.23 0.13 0.09 0.09 0.05 0.01 0.00 0.01 0.04 0.11 0.02 0.05 0.48 0.83 1.06 1.07 0.83 0.58 0.62 0.54 0.45 0.89 0.67 0.60 0.65 0.35 0.56 0.65 0.31 0.24 0.30 0.19 0.03 0.05 0.12 0.09 0.15 0.30 0.34 0.42 0.30 0.17 0.23 0.14 0.10 0.15 0.11 0.12 0.14
0.82 0.87 0.57 0.43 0.27 0.17 0.11 0.08 0.04 0.02 0.01 0.00 0.02 0.05 0.04 0.05 0.62 1.16 1.33 1.06 0.65 0.44 0.43 0.40 0.40 0.37 0.48 0.55 0.38 0.42 0.50 0.46 0.70 0.47 0.32 0.31 0.30 0.12 0.07 0.05 0.04 0.08 0.18 0.14 0.31 0.32 0.20 0.30 0.35 0.25 0.29 0.33 0.34 0.35
0.79 0.73 0.51 0.40 0.24 0.14 0.08 0.05 0.03 0.01 0.02 0.04 0.06 0.06 0.12 0.44 1.03 0.96 0.96 0.59 0.25 0.21 0.22 0.27 0.28 0.33 0.43 0.30 0.49 0.40 0.36 0.33 0.35 0.32 0.44 0.41 0.26 0.18 0.20 0.09 0.06 0.04 0.06 0.07 0.10 0.22 0.18 0.11 0.16 0.19 0.27 0.30 0.29 0.34
0.75 0.57 0.40 0.28 0.14 0.09 0.05 0.02 0.02 0.01 0.02 0.02 0.05 0.16 0.30 0.56 0.73 0.55 0.45 0.25 0.10 0.09 0.08 0.11 0.26 0.22 0.39 0.36 0.41 0.46 0.26 0.15 0.34 0.44 0.40 0.18 0.05 0.03 0.10 0.19 0.20 0.16 0.10 0.25 0.27 0.18 0.11 0.09 0.11 0.14 0.15 0.11 0.10 0.11
0.71 0.42 0.28 0.19 0.10 0.04 0.03 0.01 0.00 0.02 0.03 0.01 0.07 0.15 0.25 0.32 0.37 0.27 0.17 0.14 0.05 0.04 0.03 0.05 0.12 0.20 0.27 0.23 0.24 0.26 0.13 0.28 0.49 0.33 0.22 0.07 0.06 0.04 0.02 0.05 0.10 0.14 0.13 0.24 0.56 0.60 0.44 0.44 0.40 0.30 0.21 0.15 0.12 0.11
0.61 0.43 0.26 0.15 0.10 0.04 0.03 0.01 0.00 0.01 0.01 0.02 0.10 0.13 0.15 0.22 0.09 0.05 0.04 0.05 0.02 0.02 0.03 0.02 0.08 0.13 0.18 0.23 0.21 0.20 0.28 0.46 0.31 0.26 0.17 0.10 0.09 0.08 0.06 0.03 0.03 0.07 0.13 0.16 0.25 0.33 0.40 0.29 0.16 0.20 0.27 0.25 0.17 0.12
0.60 0.54 0.24 0.10 0.05 0.04 0.01 0.00 0.00 0.01 0.01 0.02 0.07 0.15 0.11 0.07 0.04 0.01 0.01 0.02 0.02 0.02 0.05 0.06 0.11 0.14 0.16 0.26 0.21 0.27 0.47 0.40 0.23 0.15 0.10 0.05 0.09 0.07 0.05 0.04 0.01 0.00 0.01 0.06 0.14 0.19 0.24 0.22 0.16 0.13 0.17 0.27 0.23 0.19
0.72 0.49 0.18 0.07 0.06 0.02 0.00 0.00 0.00 0.01 0.01 0.03 0.03 0.09 0.10 0.06 0.06 0.04 0.02 0.00 0.01 0.07 0.17 0.25 0.26 0.13 0.12 0.14 0.13 0.21 0.31 0.19 0.09 0.06 0.02 0.01 0.01 0.01 0.01 0.00 0.00 0.00 0.01 0.03 0.09 0.13 0.20 0.25 0.24 0.18 0.16 0.16 0.16 0.21
0.33 0.17 0.11 0.07 0.04 0.03 0.01 0.00 0.00 0.00 0.01 0.01 0.00 0.01 0.01 0.03 0.04 0.05 0.03 0.02 0.02 0.11 0.27 0.50 0.30 0.15 0.05 0.03 0.03 0.07 0.10 0.06 0.06 0.03 0.02 0.01 0.00 0.00 0.01 0.02 0.00 0.03 0.12 0.18 0.17 0.16 0.17 0.17 0.16 0.12 0.11 0.10 0.10 0.09
0.16 0.13 0.17 0.10 0.06 0.02 0.01 0.00 0.00 0.00 0.00 0.00 0.00 0.00 0.00 0.00 0.03 0.04 0.03 0.03 0.05 0.12 0.22 0.32 0.25 0.08 0.00 0.00 0.01 0.00 0.00 0.01 0.01 0.01 0.01 0.00 0.00 0.00 0.01 0.04 0.06 0.07 0.20 0.14 0.05 0.06 0.05 0.06 0.09 0.10 0.10 0.10 0.09 0.08
0.25 0.31 0.29 0.19 0.07 0.01 0.00 0.00 0.00 0.00 0.00 0.00 0.00 0.00 0.00 0.00 0.00 0.03 0.06 0.04 0.07 0.27 0.33 0.20 0.06 0.03 0.03 0.03 0.03 0.02 0.00 0.00 0.00 0.00 0.00 0.00 0.00 0.00 0.00 0.02 0.05 0.07 0.08 0.08 0.09 0.10 0.09 0.07 0.06 0.06 0.06 0.07 0.09 0.10
0.59 0.58 0.51 0.21 0.11 0.02 0.01 0.00 0.00 0.00 0.00 0.00 0.00 0.00 0.00 0.00 0.00 0.01 0.07 0.16 0.23 0.33 0.27 0.13 0.05 0.03 0.04 0.06 0.05 0.03 0.00 0.00 0.00 0.00 0.00 0.00 0.00 0.00 0.00 0.00 0.00 0.01 0.02 0.03 0.05 0.06 0.08 0.07 0.08 0.07 0.07 0.09 0.11 0.10
0.28 0.29 0.28 0.30 0.17 0.07 0.03 0.01 0.00 0.01 0.01 0.00 0.00 0.01 0.00 0.00 0.01 0.04 0.08 0.19 0.29 0.16 0.12 0.12 0.13 0.11 0.08 0.07 0.07 0.07 0.05 0.02 0.00 0.00 0.00 0.00 0.00 0.00 0.00 0.00 0.00 0.00 0.00 0.01 0.01 0.00 0.01 0.02 0.03 0.04 0.06 0.10 0.12 0.09
0.28 0.32 0.33 0.27 0.17 0.10 0.05 0.02 0.01 0.01 0.00 0.00 0.01 0.00 0.00 0.01 0.02 0.04 0.10 0.11 0.12 0.10 0.08 0.08 0.12 0.16 0.17 0.14 0.14 0.12 0.11 0.08 0.04 0.02 0.01 0.00 0.00 0.00 0.00 0.00 0.00 0.00 0.00 0.00 0.01 0.00 0.00 0.00 0.00 0.00 0.00 0.02 0.06 0.08
0.22 0.30 0.31 0.25 0.16 0.07 0.04 0.02 0.02 0.02 0.01 0.01 0.00 0.00 0.00 0.00 0.03 0.06 0.06 0.04 0.03 0.04 0.08 0.12 0.11 0.10 0.10 0.12 0.14 0.18 0.21 0.19 0.13 0.09 0.07 0.05 0.03 0.02 0.01 0.01 0.00 0.00 0.00 0.00 0.00 0.00 0.00 0.00 0.00 0.00 0.00 0.00 0.01 0.02
0.49 0.40 0.28 0.26 0.10 0.05 0.03 0.02 0.02 0.02 0.00 0.01 0.02 0.00 0.00 0.02 0.02 0.02 0.02 0.00 0.01 0.03 0.06 0.09 0.11 0.12 0.11 0.10 0.10 0.10 0.12 0.19 0.21 0.19 0.18 0.15 0.12 0.11 0.09 0.06 0.03 0.01 0.01 0.02 0.01 0.00 0.00 0.00 0.00 0.00 0.00 0.00 0.00 0.01
0.49 0.19 0.09 0.02 0.02 0.01 0.00 0.00 0.01 0.00 0.00 0.01 0.02 0.01 0.01 0.03 0.02 0.01 0.00 0.00 0.01 0.03 0.05 0.07 0.07 0.08 0.07 0.08 0.10 0.12 0.13 0.15 0.16 0.18 0.22 0.25 0.21 0.17 0.16 0.15 0.10 0.06 0.04 0.05 0.05 0.04 0.03 0.01 0.01 0.01 0.01 0.01 0.02 0.03
0.25 0.15 0.06 0.01 0.00 0.01 0.00 0.00 0.00 0.00 0.01 0.02 0.01 0.01 0.02 0.04 0.01 0.01 0.01 0.00 0.01 0.02 0.04 0.08 0.12 0.11 0.08 0.10 0.11 0.12 0.15 0.17 0.18 0.16 0.22 0.33 0.34 0.26 0.19 0.16 0.14 0.12 0.11 0.12 0.09 0.08 0.06 0.05 0.04 0.04 0.05 0.05 0.05 0.05
0.06 0.00 0.01 0.02 0.00 0.00 0.00 0.01 0.02 0.02 0.01 0.02 0.04 0.03 0.03 0.02 0.01 0.00 0.00 0.00 0.01 0.02 0.04 0.08 0.12 0.15 0.14 0.12 0.14 0.16 0.18 0.21 0.25 0.26 0.30 0.36 0.40 0.40 0.34 0.30 0.30 0.31 0.28 0.21 0.16 0.14 0.13 0.11 0.10 0.12 0.14 0.11 0.09 0.08
0.02 0.00 0.00 0.01 0.01 0.01 0.00 0.00 0.00 0.00 0.00 0.00 0.02 0.00 0.00 0.00 0.00 0.00 0.00 0.01 0.02 0.04 0.06 0.09 0.12 0.14 0.17 0.18 0.19 0.22 0.24 0.24 0.20 0.19 0.15 0.20 0.29 0.41 0.45 0.42 0.44 0.44 0.38 0.35 0.31 0.24 0.22 0.22 0.23 0.24 0.26 0.26 0.23 0.22
0.01 0.00 0.00 0.00 0.00 0.00 0.00 0.00 0.00 0.00 0.00 0.00 0.00 0.00 0.00 0.00 0.00 0.00 0.00 0.01 0.04 0.07 0.11 0.14 0.16 0.19 0.21 0.22 0.23 0.23 0.25 0.28 0.26 0.17 0.15 0.15 0.20 0.31 0.40 0.41 0.43 0.47 0.45 0.41 0.47 0.52 0.49 0.48 0.49 0.47 0.42 0.38 0.33 0.30
0.00 0.00 0.00 0.00 0.00 0.00 0.00 0.00 0.00 0.00 0.00 0.00 0.00 0.00 0.00 0.00 0.00 0.01 0.01 0.03 0.07 0.11 0.16 0.19 0.22 0.27 0.28 0.30 0.29 0.27 0.26 0.32 0.37 0.36 0.31 0.32 0.31 0.32 0.37 0.42 0.43 0.44 0.46 0.43 0.38 0.36 0.35 0.31 0.27 0.26 0.27 0.26 0.25 0.24
0.02 0.01 0.00 0.00 0.00 0.01 0.01 0.01 0.00 0.00 0.00 0.00 0.00 0.01 0.00 0.00 0.01 0.01 0.02 0.05 0.10 0.13 0.17 0.21 0.21 0.26 0.31 0.31 0.33 0.35 0.30 0.31 0.36 0.39 0.36 0.33 0.32 0.32 0.33 0.37 0.41 0.43 0.44 0.43 0.39 0.38 0.37 0.36 0.38 0.34 0.34 0.34 0.31 0.28
0.07 0.06 0.04 0.03 0.02 0.01 0.01 0.01 0.02 0.02 0.01 0.00 0.00 0.00 0.01 0.01 0.01 0.02 0.03 0.07 0.11 0.14 0.16 0.21 0.26 0.28 0.28 0.28 0.31 0.35 0.38 0.39 0.40 0.44 0.46 0.42 0.40 0.41 0.38 0.37 0.39 0.40 0.40 0.41 0.43 0.45 0.46 0.42 0.40 0.39 0.35 0.33 0.31 0.29

GFSWCAN_prec_precacc_066.txt.gz
Total_Precipitation_Accumulation
0.85 0.86 0.93 0.93 0.98 1.02 0.95 0.97 0.79 0.44 0.22 0.12 0.09 0.08 0.12 0.18 0.16 0.18 0.28 0.37 0.42 0.13 0.02 0.00 0.00 0.01 0.00 0.00 0.02 0.02 0.09 0.13 0.20 0.26 0.24 0.10 0.03 0.01 0.00 0.00 0.00 0.02 0.04 0.06 0.06 0.10 0.01 0.00 0.00 0.00 0.00 0.00 0.00 0.01
0.80 0.73 0.81 0.77 0.62 0.57 0.45 0.56 0.61 0.39 0.26 0.16 0.09 0.09 0.13 0.17 0.21 0.25 0.26 0.29 0.25 0.15 0.01 0.00 0.00 0.00 0.00 0.00 0.02 0.01 0.08 0.12 0.22 0.24 0.19 0.09 0.04 0.01 0.00 0.01 0.00 0.00 0.00 0.00 0.00 0.00 0.00 0.00 0.00 0.00 0.00 0.00 0.00 0.00
0.74 0.77 0.89 1.04 0.93 0.77 0.53 0.46 0.44 0.38 0.30 0.13 0.11 0.09 0.11 0.15 0.16 0.30 0.30 0.23 0.24 0.25 0.05 0.03 0.02 0.00 0.00 0.00 0.00 0.04 0.07 0.15 0.23 0.21 0.32 0.15 0.06 0.04 0.02 0.01 0.00 0.00 0.00 0.00 0.00 0.00 0.00 0.00 0.00 0.00 0.00 0.00 0.00 0.01
0.69 0.68 0.70 0.95 1.20 1.17 1.09 0.79 0.53 0.40 0.25 0.16 0.14 0.09 0.09 0.10 0.16 0.23 0.11 0.10 0.22 0.26 0.19 0.05 0.01 0.02 0.01 0.02 0.02 0.02 0.09 0.17 0.29 0.48 0.33 0.19 0.08 0.03 0.02 0.01 0.00 0.01 0.00 0.00 0.00 0.00 0.00 0.00 0.00 0.00 0.00 0.00 0.00 0.00
1.00 0.86 0.63 0.62 0.77 0.78 0.85 0.77 0.45 0.30 0.22 0.19 0.16 0.07 0.13 0.18 0.16 0.08 0.02 0.07 0.16 0.32 0.34 0.18 0.16 0.01 0.01 0.05 0.04 0.06 0.11 0.30 0.34 0.59 0.57 0.22 0.09 0.06 0.02 0.01 0.00 0.00 0.00 0.00 0.00 0.00 0.00 0.00 0.00 0.00 0.00 0.00 0.00 0.00
0.97 1.11 1.19 0.79 0.63 0.66 0.67 0.48 0.36 0.26 0.26 0.22 0.12 0.15 0.15 0.10 0.14 0.15 0.20 0.36 0.28 0.32 0.60 0.43 0.34 0.16 0.06 0.09 0.09 0.15 0.22 0.43 0.67 0.50 0.53 0.33 0.13 0.20 0.17 0.05 0.00 0.00 0.00 0.00 0.00 0.00 0.00 0.00 0.00 0.00 0.00 0.00 0.00 0.00
0.77 0.96 1.26 1.40 0.86 0.64 0.55 0.38 0.30 0.28 0.21 0.12 0.13 0.11 0.05 0.04 0.11 0.12 0.25 0.62 0.58 0.57 0.68 0.78 0.66 0.48 0.14 0.23 0.27 0.30 0.31 0.55 0.89 0.66 0.41 0.33 0.29 0.53 0.34 0.05 0.00 0.01 0.01 0.01 0.01 0.00 0.00 0.00 0.00 0.00 0.00 0.00 0.00 0.00
0.71 0.73 0.91 1.39 1.15 0.73 0.46 0.33 0.30 0.19 0.12 0.07 0.06 0.01 0.01 0.08 0.06 0.07 0.05 0.19 0.49 0.88 0.91 1.04 0.98 0.96 0.32 0.53 0.46 0.40 0.39 0.48 1.03 0.74 0.34 0.24 0.35 0.35 0.20 0.02 0.05 0.04 0.04 0.02 0.01 0.02 0.01 0.01 0.00 0.00 0.00 0.00 0.00 0.00
0.87 0.75 0.67 0.86 1.13 0.69 0.48 0.33 0.25 0.17 0.06 0.02 0.00 0.01 0.08 0.06 0.04 0.12 0.21 0.40 0.63 1.02 0.82 0.77 0.90 0.80 0.64 0.64 0.48 0.56 0.47 0.57 0.72 0.54 0.23 0.25 0.27 0.29 0.06 0.08 0.11 0.14 0.15 0.17 0.13 0.06 0.06 0.05 0.02 0.03 0.02 0.03 0.04 0.04
0.94 0.99 0.68 0.55 0.61 0.58 0.40 0.30 0.16 0.08 0.02 0.00 0.01 0.04 0.11 0.02 0.05 0.48 0.83 1.06 1.07 0.83 0.58 0.62 0.54 0.45 0.89 0.67 0.60 0.65 0.35 0.56 0.65 0.31 0.24 0.30 0.19 0.03 0.05 0.12 0.09 0.15 0.30 0.34 0.42 0.30 0.17 0.23 0.14 0.10 0.15 0.11 0.12 0.14
0.85 1.01 0.76 0.56 0.33 0.35 0.28 0.19 0.08 0.03 0.01 0.00 0.02 0.05 0.04 0.05 0.62 1.16 1.33 1.06 0.65 0.44 0.43 0.40 0.40 0.37 0.48 0.55 0.38 0.42 0.50 0.46 0.70 0.47 0.32 0.31 0.30 0.12 0.07 0.05 0.04 0.08 0.18 0.14 0.31 0.32 0.20 0.30 0.35 0.25 0.29 0.33 0.34 0.35
0.87 0.95 0.84 0.60 0.35 0.24 0.17 0.09 0.04 0.01 0.02 0.04 0.06 0.06 0.12 0.44 1.03 0.96 0.96 0.59 0.25 0.21 0.22 0.27 0.28 0.33 0.43 0.30 0.49 0.40 0.36 0.33 0.35 0.32 0.45 0.41 0.26 0.18 0.20 0.09 0.06 0.04 0.06 0.07 0.10 0.22 0.18 0.11 0.16 0.19 0.27 0.30 0.29 0.34
0.88 0.87 0.71 0.45 0.28 0.18 0.10 0.03 0.02 0.01 0.02 0.02 0.05 0.16 0.30 0.56 0.73 0.55 0.45 0.25 0.10 0.09 0.08 0.11 0.26 0.22 0.39 0.36 0.41 0.46 0.26 0.16 0.34 0.44 0.40 0.18 0.06 0.03 0.10 0.19 0.20 0.16 0.10 0.25 0.27 0.18 0.11 0.09 0.11 0.14 0.15 0.11 0.10 0.11
0.89 0.81 0.48 0.33 0.22 0.12 0.06 0.02 0.01 0.02 0.03 0.01 0.07 0.15 0.25 0.32 0.37 0.27 0.17 0.14 0.05 0.04 0.03 0.05 0.12 0.20 0.27 0.23 0.24 0.26 0.13 0.28 0.49 0.33 0.22 0.07 0.06 0.04 0.02 0.05 0.10 0.14 0.13 0.24 0.56 0.60 0.44 0.44 0.40 0.30 0.21 0.15 0.12 0.11
0.83 0.74 0.45 0.32 0.20 0.09 0.05 0.01 0.00 0.01 0.01 0.02 0.10 0.13 0.15 0.22 0.09 0.05 0.04 0.05 0.02 0.02 0.03 0.02 0.08 0.13 0.18 0.23 0.21 0.20 0.28 0.46 0.31 0.26 0.17 0.10 0.09 0.08 0.06 0.03 0.03 0.07 0.13 0.16 0.25 0.33 0.40 0.29 0.16 0.20 0.27 0.25 0.17 0.13
0.84 0.79 0.50 0.29 0.13 0.06 0.02 0.00 0.00 0.01 0.01 0.02 0.07 0.15 0.11 0.07 0.04 0.01 0.01 0.02 0.02 0.02 0.05 0.06 0.11 0.14 0.16 0.26 0.21 0.27 0.47 0.40 0.23 0.15 0.10 0.05 0.09 0.07 0.05 0.04 0.01 0.00 0.01 0.06 0.14 0.19 0.24 0.22 0.16 0.13 0.17 0.27 0.23 0.20
0.98 0.92 0.49 0.19 0.07 0.02 0.00 0.00 0.00 0.01 0.01 0.03 0.03 0.09 0.10 0.06 0.06 0.04 0.02 0.00 0.01 0.07 0.17 0.25 0.26 0.13 0.12 0.14 0.13 0.21 0.31 0.19 0.09 0.06 0.02 0.01 0.01 0.01 0.01 0.00 0.00 0.00 0.01 0.03 0.09 0.13 0.20 0.25 0.24 0.18 0.16 0.16 0.16 0.22
0.48 0.38 0.28 0.10 0.05 0.03 0.01 0.00 0.00 0.00 0.01 0.01 0.00 0.01 0.01 0.03 0.04 0.05 0.03 0.02 0.02 0.11 0.27 0.50 0.30 0.15 0.05 0.03 0.03 0.07 0.10 0.06 0.06 0.03 0.02 0.01 0.00 0.00 0.01 0.02 0.00 0.03 0.12 0.18 0.17 0.16 0.17 0.17 0.16 0.12 0.11 0.10 0.10 0.09
0.22 0.19 0.21 0.10 0.06 0.02 0.01 0.00 0.00 0.00 0.00 0.00 0.00 0.00 0.00 0.00 0.03 0.04 0.03 0.03 0.05 0.12 0.22 0.32 0.25 0.08 0.00 0.00 0.01 0.00 0.00 0.01 0.01 0.01 0.01 0.00 0.00 0.00 0.01 0.04 0.06 0.07 0.20 0.14 0.05 0.06 0.05 0.06 0.09 0.10 0.10 0.10 0.09 0.08
0.28 0.35 0.30 0.19 0.07 0.01 0.00 0.00 0.00 0.00 0.00 0.00 0.00 0.00 0.00 0.00 0.00 0.03 0.06 0.04 0.07 0.27 0.33 0.20 0.06 0.03 0.03 0.03 0.03 0.02 0.00 0.00 0.00 0.00 0.00 0.00 0.00 0.00 0.00 0.02 0.05 0.07 0.08 0.08 0.09 0.10 0.09 0.07 0.06 0.06 0.06 0.07 0.09 0.10
0.74 0.62 0.51 0.21 0.11 0.02 0.01 0.00 0.00 0.00 0.00 0.00 0.00 0.00 0.00 0.00 0.00 0.01 0.07 0.16 0.23 0.33 0.27 0.13 0.05 0.03 0.04 0.06 0.05 0.03 0.00 0.00 0.00 0.00 0.00 0.00 0.00 0.00 0.00 0.00 0.00 0.01 0.02 0.03 0.05 0.06 0.08 0.07 0.08 0.07 0.07 0.09 0.11 0.10
0.44 0.30 0.28 0.30 0.17 0.07 0.03 0.01 0.00 0.01 0.01 0.00 0.01 0.01 0.00 0.00 0.01 0.04 0.08 0.19 0.29 0.16 0.12 0.12 0.13 0.11 0.08 0.07 0.07 0.07 0.05 0.02 0.00 0.00 0.00 0.00 0.00 0.00 0.00 0.00 0.00 0.00 0.00 0.01 0.01 0.00 0.01 0.02 0.03 0.04 0.06 0.10 0.12 0.09
0.29 0.32 0.33 0.27 0.17 0.10 0.05 0.02 0.01 0.01 0.00 0.01 0.01 0.00 0.00 0.01 0.02 0.04 0.10 0.11 0.12 0.10 0.08 0.08 0.12 0.16 0.17 0.14 0.14 0.12 0.11 0.08 0.04 0.02 0.01 0.00 0.00 0.00 0.00 0.00 0.00 0.00 0.00 0.00 0.01 0.00 0.00 0.00 0.00 0.00 0.00 0.02 0.06 0.08
0.22 0.31 0.32 0.27 0.17 0.07 0.04 0.02 0.02 0.02 0.02 0.01 0.00 0.00 0.00 0.00 0.03 0.06 0.06 0.04 0.03 0.04 0.08 0.12 0.11 0.10 0.10 0.12 0.14 0.18 0.21 0.19 0.13 0.09 0.07 0.05 0.03 0.02 0.01 0.01 0.00 0.00 0.00 0.00 0.00 0.00 0.00 0.00 0.00 0.00 0.00 0.00 0.01 0.02
0.52 0.43 0.30 0.27 0.11 0.05 0.03 0.03 0.02 0.02 0.01 0.01 0.02 0.00 0.00 0.02 0.02 0.02 0.02 0.00 0.01 0.03 0.06 0.09 0.11 0.12 0.11 0.10 0.10 0.10 0.12 0.19 0.21 0.19 0.18 0.15 0.12 0.11 0.09 0.06 0.03 0.01 0.01 0.02 0.01 0.01 0.00 0.00 0.00 0.00 0.00 0.00 0.00 0.01
0.51 0.20 0.10 0.03 0.02 0.02 0.01 0.01 0.01 0.01 0.00 0.01 0.02 0.01 0.01 0.03 0.02 0.01 0.00 0.00 0.01 0.03 0.05 0.07 0.07 0.08 0.07 0.08 0.10 0.12 0.13 0.15 0.16 0.18 0.22 0.25 0.21 0.17 0.16 0.15 0.11 0.06 0.05 0.05 0.06 0.05 0.03 0.01 0.01 0.01 0.01 0.01 0.02 0.03
0.25 0.15 0.06 0.01 0.01 0.01 0.01 0.00 0.00 0.00 0.01 0.02 0.01 0.01 0.02 0.04 0.01 0.01 0.01 0.00 0.01 0.02 0.04 0.08 0.12 0.11 0.08 0.10 0.11 0.12 0.15 0.17 0.18 0.16 0.22 0.33 0.34 0.26 0.19 0.16 0.15 0.12 0.11 0.12 0.10 0.08 0.06 0.05 0.04 0.04 0.05 0.05 0.05 0.05
0.06 0.00 0.01 0.03 0.01 0.01 0.01 0.01 0.02 0.02 0.01 0.02 0.04 0.03 0.03 0.02 0.01 0.00 0.00 0.00 0.01 0.02 0.04 0.08 0.12 0.15 0.14 0.12 0.14 0.16 0.18 0.21 0.25 0.26 0.30 0.36 0.40 0.40 0.34 0.30 0.30 0.31 0.28 0.21 0.16 0.15 0.14 0.12 0.11 0.13 0.14 0.12 0.09 0.08
0.03 0.01 0.01 0.02 0.01 0.01 0.00 0.00 0.00 0.00 0.00 0.00 0.02 0.00 0.00 0.00 0.00 0.00 0.00 0.01 0.02 0.04 0.06 0.09 0.12 0.14 0.17 0.18 0.19 0.22 0.24 0.24 0.20 0.19 0.15 0.20 0.29 0.41 0.45 0.42 0.44 0.44 0.38 0.35 0.31 0.25 0.24 0.25 0.25 0.26 0.27 0.27 0.23 0.22
0.02 0.00 0.00 0.00 0.00 0.00 0.00 0.00 0.00 0.00 0.00 0.00 0.00 0.00 0.00 0.00 0.00 0.00 0.00 0.01 0.04 0.07 0.11 0.14 0.16 0.19 0.21 0.22 0.23 0.23 0.25 0.28 0.26 0.17 0.15 0.16 0.20 0.31 0.40 0.41 0.43 0.47 0.46 0.42 0.48 0.53 0.51 0.50 0.50 0.47 0.43 0.38 0.34 0.31
0.00 0.00 0.00 0.00 0.00 0.00 0.00 0.00 0.00 0.00 0.00 0.00 0.00 0.00 0.00 0.00 0.00 0.01 0.01 0.03 0.07 0.11 0.16 0.19 0.22 0.27 0.28 0.30 0.29 0.27 0.26 0.32 0.37 0.36 0.31 0.33 0.32 0.32 0.37 0.42 0.43 0.45 0.47 0.44 0.39 0.36 0.35 0.31 0.28 0.27 0.27 0.27 0.25 0.24
0.02 0.01 0.00 0.00 0.00 0.01 0.01 0.01 0.00 0.00 0.00 0.00 0.00 0.01 0.00 0.00 0.01 0.01 0.02 0.05 0.10 0.13 0.17 0.21 0.21 0.26 0.31 0.31 0.33 0.35 0.30 0.31 0.36 0.39 0.37 0.33 0.32 0.32 0.35 0.38 0.42 0.43 0.44 0.44 0.40 0.38 0.38 0.37 0.38 0.35 0.35 0.34 0.31 0.28
0.07 0.06 0.04 0.03 0.02 0.01 0.01 0.01 0.02 0.02 0.01 0.00 0.00 0.00 0.01 0.01 0.01 0.02 0.03 0.07 0.11 0.14 0.16 0.21 0.26 0.28 0.28 0.28 0.31 0.35 0.38 0.39 0.41 0.44 0.46 0.43 0.41 0.43 0.40 0.38 0.39 0.40 0.40 0.41 0.44 0.45 0.47 0.43 0.40 0.39 0.36 0.33 0.31 0.29

GFSWCAN_prec_precacc_069.txt.gz
Total_Precipitation_Accumulation
0.88 0.87 0.94 0.94 1.00 1.10 1.12 1.20 1.24 1.07 0.72 0.49 0.32 0.18 0.12 0.18 0.16 0.18 0.28 0.37 0.42 0.13 0.02 0.00 0.00 0.01 0.00 0.00 0.02 0.02 0.09 0.13 0.20 0.26 0.24 0.10 0.03 0.01 0.00 0.00 0.00 0.02 0.04 0.06 0.06 0.10 0.01 0.00 0.00 0.00 0.00 0.00 0.00 0.01
0.83 0.74 0.82 0.78 0.64 0.61 0.49 0.61 0.71 0.60 0.45 0.41 0.31 0.14 0.13 0.17 0.21 0.25 0.26 0.29 0.25 0.15 0.01 0.00 0.00 0.00 0.00 0.00 0.02 0.01 0.08 0.12 0.22 0.24 0.19 0.09 0.04 0.01 0.00 0.01 0.00 0.00 0.00 0.00 0.00 0.00 0.00 0.00 0.00 0.00 0.00 0.00 0.00 0.00
0.76 0.78 0.89 1.04 0.95 0.84 0.71 0.67 0.72 0.60 0.44 0.33 0.27 0.13 0.12 0.15 0.16 0.30 0.30 0.23 0.24 0.25 0.05 0.03 0.02 0.00 0.00 0.00 0.00 0.04 0.07 0.15 0.23 0.21 0.32 0.15 0.06 0.04 0.02 0.01 0.00 0.00 0.00 0.00 0.00 0.00 0.00 0.00 0.00 0.00 0.00 0.00 0.00 0.01
0.71 0.69 0.71 0.96 1.22 1.24 1.29 1.15 0.96 0.67 0.45 0.36 0.23 0.14 0.10 0.10 0.16 0.23 0.11 0.10 0.22 0.26 0.19 0.05 0.01 0.02 0.01 0.02 0.02 0.02 0.09 0.17 0.29 0.48 0.33 0.19 0.08 0.03 0.02 0.01 0.00 0.01 0.00 0.00 0.00 0.00 0.00 0.00 0.00 0.00 0.00 0.00 0.00 0.00
1.01 0.87 0.64 0.63 0.78 0.83 0.99 1.06 0.76 0.48 0.41 0.31 0.24 0.13 0.15 0.18 0.16 0.08 0.02 0.07 0.16 0.32 0.34 0.18 0.16 0.01 0.01 0.05 0.04 0.06 0.11 0.30 0.34 0.59 0.57 0.22 0.09 0.06 0.02 0.01 0.00 0.00 0.00 0.00 0.00 0.00 0.00 0.00 0.00 0.00 0.00 0.00 0.00 0.00
0.98 1.12 1.20 0.79 0.63 0.68 0.81 0.68 0.48 0.38 0.40 0.30 0.16 0.17 0.16 0.10 0.14 0.15 0.20 0.36 0.28 0.32 0.60 0.43 0.34 0.16 0.06 0.09 0.09 0.15 0.22 0.43 0.67 0.50 0.53 0.33 0.13 0.20 0.17 0.05 0.00 0.00 0.00 0.00 0.00 0.00 0.00 0.00 0.00 0.00 0.00 0.00 0.00 0.00
0.78 0.97 1.26 1.40 0.86 0.65 0.74 0.66 0.39 0.40 0.32 0.16 0.15 0.12 0.06 0.04 0.11 0.12 0.25 0.62 0.58 0.57 0.68 0.78 0.66 0.48 0.14 0.23 0.27 0.30 0.31 0.55 0.89 0.66 0.41 0.33 0.29 0.53 0.34 0.05 0.00 0.01 0.01 0.01 0.01 0.00 0.00 0.00 0.00 0.00 0.00 0.00 0.00 0.00
0.71 0.74 0.91 1.39 1.16 0.74 0.61 0.57 0.47 0.37 0.17 0.08 0.07 0.03 0.01 0.08 0.06 0.07 0.05 0.19 0.49 0.88 0.91 1.04 0.98 0.96 0.32 0.53 0.46 0.40 0.39 0.48 1.03 0.74 0.34 0.24 0.35 0.35 0.20 0.02 0.05 0.04 0.04 0.02 0.01 0.02 0.01 0.01 0.00 0.00 0.00 0.00 0.00 0.00
0.88 0.75 0.67 0.87 1.22 0.74 0.62 0.54 0.46 0.27 0.07 0.02 0.00 0.01 0.08 0.06 0.04 0.12 0.21 0.40 0.63 1.02 0.82 0.77 0.90 0.80 0.64 0.64 0.48 0.56 0.47 0.57 0.72 0.54 0.23 0.25 0.27 0.29 0.06 0.08 0.11 0.14 0.15 0.17 0.13 0.06 0.06 0.05 0.02 0.03 0.02 0.03 0.04 0.04
0.95 1.00 0.68 0.61 0.89 0.71 0.56 0.50 0.31 0.10 0.02 0.00 0.01 0.04 0.11 0.02 0.05 0.48 0.83 1.06 1.07 0.83 0.58 0.62 0.54 0.45 0.89 0.67 0.60 0.65 0.35 0.56 0.65 0.31 0.24 0.30 0.19 0.03 0.05 0.12 0.09 0.15 0.30 0.34 0.42 0.30 0.17 0.23 0.14 0.10 0.15 0.11 0.12 0.14
0.86 1.01 0.77 0.61 0.60 0.51 0.45 0.35 0.15 0.04 0.01 0.00 0.02 0.05 0.04 0.05 0.62 1.16 1.33 1.06 0.65 0.44 0.43 0.40 0.40 0.37 0.48 0.55 0.38 0.42 0.50 0.46 0.70 0.47 0.32 0.31 0.30 0.12 0.07 0.05 0.04 0.08 0.18 0.14 0.31 0.32 0.20 0.30 0.35 0.25 0.29 0.33 0.34 0.35
0.87 0.95 0.85 0.64 0.46 0.35 0.31 0.21 0.06 0.01 0.02 0.04 0.06 0.06 0.12 0.44 1.03 0.96 0.96 0.59 0.25 0.21 0.22 0.27 0.28 0.33 0.43 0.30 0.49 0.40 0.36 0.33 0.35 0.32 0.45 0.41 0.27 0.18 0.20 0.09 0.06 0.04 0.06 0.07 0.10 0.22 0.18 0.11 0.16 0.19 0.27 0.30 0.29 0.34
0.88 0.87 0.75 0.50 0.35 0.31 0.21 0.10 0.02 0.01 0.02 0.02 0.05 0.16 0.30 0.56 0.73 0.55 0.45 0.25 0.10 0.09 0.08 0.11 0.26 0.22 0.39 0.36 0.41 0.46 0.26 0.16 0.34 0.44 0.40 0.18 0.06 0.03 0.10 0.19 0.20 0.16 0.10 0.25 0.27 0.18 0.11 0.09 0.11 0.14 0.15 0.11 0.10 0.11
0.89 0.82 0.60 0.40 0.31 0.26 0.17 0.04 0.02 0.02 0.03 0.01 0.07 0.15 0.25 0.32 0.37 0.27 0.17 0.14 0.05 0.04 0.03 0.05 0.12 0.20 0.27 0.23 0.24 0.26 0.13 0.28 0.49 0.33 0.22 0.07 0.06 0.04 0.02 0.05 0.10 0.14 0.13 0.24 0.56 0.60 0.44 0.44 0.40 0.30 0.21 0.15 0.12 0.11
0.86 0.82 0.61 0.44 0.30 0.25 0.14 0.02 0.00 0.01 0.01 0.02 0.10 0.13 0.15 0.22 0.09 0.05 0.04 0.05 0.02 0.02 0.03 0.02 0.08 0.13 0.18 0.23 0.21 0.20 0.28 0.46 0.31 0.26 0.17 0.10 0.09 0.08 0.06 0.03 0.03 0.07 0.13 0.16 0.25 0.33 0.40 0.29 0.16 0.20 0.27 0.25 0.17 0.13
0.96 1.06 0.75 0.48 0.28 0.18 0.04 0.00 0.00 0.01 0.01 0.02 0.07 0.15 0.11 0.07 0.04 0.01 0.01 0.02 0.02 0.02 0.05 0.06 0.11 0.14 0.16 0.26 0.21 0.27 0.47 0.40 0.23 0.15 0.10 0.05 0.09 0.07 0.05 0.04 0.01 0.00 0.01 0.06 0.14 0.19 0.24 0.22 0.16 0.13 0.17 0.27 0.23 0.20
1.25 1.31 0.76 0.45 0.25 0.07 0.00 0.00 0.00 0.01 0.01 0.03 0.03 0.09 0.10 0.06 0.06 0.04 0.02 0.00 0.01 0.07 0.17 0.25 0.26 0.13 0.12 0.14 0.13 0.21 0.31 0.19 0.09 0.06 0.02 0.01 0.01 0.01 0.01 0.00 0.00 0.00 0.01 0.03 0.09 0.13 0.20 0.25 0.24 0.18 0.16 0.16 0.16 0.22
0.69 0.52 0.50 0.36 0.13 0.03 0.01 0.00 0.01 0.01 0.01 0.01 0.00 0.01 0.01 0.03 0.04 0.05 0.03 0.02 0.02 0.11 0.27 0.50 0.30 0.15 0.05 0.03 0.03 0.07 0.10 0.06 0.06 0.03 0.02 0.01 0.00 0.00 0.01 0.02 0.00 0.03 0.12 0.18 0.17 0.16 0.17 0.17 0.16 0.12 0.11 0.10 0.10 0.09
0.34 0.28 0.37 0.19 0.07 0.02 0.01 0.00 0.00 0.00 0.00 0.00 0.00 0.00 0.00 0.00 0.03 0.04 0.03 0.03 0.05 0.12 0.22 0.32 0.25 0.08 0.00 0.00 0.01 0.00 0.00 0.01 0.01 0.01 0.01 0.00 0.00 0.00 0.01 0.04 0.06 0.07 0.20 0.14 0.05 0.06 0.05 0.06 0.09 0.10 0.10 0.10 0.09 0.08
0.35 0.46 0.37 0.20 0.07 0.01 0.00 0.00 0.00 0.00 0.00 0.00 0.00 0.00 0.00 0.00 0.00 0.03 0.06 0.04 0.07 0.27 0.33 0.20 0.06 0.03 0.03 0.03 0.03 0.02 0.00 0.00 0.00 0.00 0.00 0.00 0.00 0.00 0.00 0.02 0.05 0.07 0.08 0.08 0.09 0.10 0.09 0.07 0.06 0.06 0.06 0.07 0.09 0.10
0.94 0.74 0.52 0.21 0.12 0.02 0.01 0.00 0.00 0.00 0.00 0.00 0.00 0.00 0.00 0.00 0.00 0.01 0.07 0.16 0.23 0.33 0.27 0.13 0.05 0.03 0.04 0.06 0.05 0.03 0.00 0.00 0.00 0.00 0.00 0.00 0.00 0.00 0.00 0.00 0.00 0.01 0.02 0.03 0.05 0.06 0.08 0.07 0.08 0.07 0.07 0.09 0.11 0.10
0.81 0.35 0.28 0.31 0.17 0.07 0.03 0.01 0.00 0.01 0.01 0.00 0.01 0.01 0.01 0.01 0.01 0.04 0.08 0.19 0.29 0.16 0.12 0.12 0.13 0.11 0.08 0.07 0.07 0.07 0.05 0.02 0.00 0.00 0.00 0.00 0.00 0.00 0.00 0.00 0.00 0.00 0.00 0.01 0.01 0.00 0.01 0.02 0.03 0.04 0.06 0.10 0.12 0.09
0.36 0.33 0.34 0.27 0.17 0.10 0.05 0.02 0.01 0.01 0.01 0.01 0.01 0.01 0.01 0.01 0.02 0.04 0.10 0.11 0.12 0.10 0.08 0.08 0.12 0.16 0.17 0.14 0.14 0.12 0.11 0.08 0.04 0.02 0.01 0.00 0.00 0.00 0.00 0.00 0.00 0.00 0.00 0.00 0.01 0.00 0.00 0.00 0.00 0.00 0.00 0.02 0.06 0.08
0.23 0.32 0.33 0.27 0.17 0.07 0.04 0.02 0.02 0.02 0.02 0.01 0.01 0.00 0.00 0.00 0.03 0.06 0.06 0.04 0.03 0.04 0.08 0.12 0.11 0.10 0.10 0.12 0.14 0.18 0.21 0.19 0.13 0.09 0.07 0.05 0.03 0.02 0.01 0.01 0.00 0.00 0.00 0.00 0.00 0.00 0.00 0.00 0.00 0.00 0.00 0.00 0.01 0.02
0.54 0.45 0.31 0.27 0.11 0.05 0.03 0.03 0.02 0.02 0.01 0.01 0.03 0.00 0.00 0.02 0.02 0.02 0.02 0.00 0.01 0.03 0.06 0.09 0.11 0.12 0.11 0.10 0.10 0.10 0.12 0.19 0.21 0.19 0.18 0.15 0.12 0.11 0.09 0.06 0.03 0.01 0.01 0.02 0.01 0.01 0.00 0.00 0.00 0.00 0.00 0.00 0.00 0.01
0.53 0.21 0.10 0.03 0.02 0.02 0.01 0.01 0.01 0.01 0.01 0.02 0.02 0.01 0.01 0.03 0.02 0.01 0.00 0.00 0.01 0.03 0.05 0.07 0.07 0.08 0.07 0.08 0.10 0.12 0.13 0.15 0.16 0.18 0.22 0.25 0.21 0.17 0.16 0.15 0.11 0.07 0.05 0.05 0.06 0.05 0.03 0.01 0.01 0.01 0.01 0.01 0.03 0.03
0.25 0.15 0.06 0.01 0.01 0.01 0.01 0.00 0.01 0.01 0.01 0.02 0.01 0.01 0.02 0.04 0.01 0.01 0.01 0.00 0.01 0.02 0.04 0.08 0.12 0.11 0.08 0.10 0.11 0.12 0.15 0.17 0.18 0.16 0.22 0.33 0.34 0.26 0.19 0.17 0.15 0.12 0.12 0.13 0.10 0.09 0.07 0.06 0.05 0.05 0.05 0.06 0.06 0.06
0.06 0.00 0.01 0.03 0.01 0.01 0.02 0.03 0.03 0.02 0.01 0.02 0.04 0.03 0.03 0.02 0.01 0.00 0.00 0.00 0.01 0.02 0.04 0.08 0.12 0.15 0.14 0.12 0.14 0.16 0.18 0.21 0.25 0.26 0.30 0.36 0.40 0.40 0.34 0.30 0.30 0.31 0.28 0.21 0.17 0.16 0.15 0.13 0.12 0.13 0.15 0.13 0.10 0.09
0.03 0.01 0.01 0.03 0.02 0.02 0.01 0.01 0.00 0.00 0.00 0.00 0.02 0.00 0.00 0.00 0.00 0.00 0.00 0.01 0.02 0.04 0.06 0.09 0.12 0.14 0.17 0.18 0.19 0.22 0.24 0.24 0.20 0.19 0.15 0.20 0.29 0.41 0.45 0.42 0.44 0.44 0.38 0.35 0.32 0.27 0.25 0.26 0.26 0.27 0.29 0.28 0.24 0.23
0.02 0.00 0.01 0.01 0.01 0.01 0.00 0.00 0.00 0.00 0.00 0.00 0.00 0.00 0.00 0.00 0.00 0.00 0.00 0.01 0.04 0.07 0.11 0.14 0.16 0.19 0.21 0.22 0.23 0.23 0.25 0.28 0.26 0.17 0.16 0.16 0.20 0.31 0.40 0.41 0.44 0.47 0.46 0.42 0.48 0.53 0.51 0.50 0.50 0.48 0.43 0.38 0.34 0.31
0.01 0.00 0.00 0.00 0.00 0.00 0.00 0.00 0.00 0.00 0.00 0.00 0.00 0.00 0.00 0.00 0.00 0.01 0.01 0.03 0.07 0.11 0.16 0.19 0.22 0.27 0.28 0.30 0.29 0.27 0.26 0.32 0.37 0.36 0.31 0.33 0.32 0.32 0.38 0.43 0.44 0.45 0.47 0.44 0.39 0.37 0.36 0.31 0.28 0.27 0.28 0.27 0.25 0.24
0.02 0.01 0.00 0.00 0.00 0.01 0.01 0.01 0.00 0.00 0.00 0.00 0.00 0.01 0.00 0.00 0.01 0.01 0.02 0.05 0.10 0.13 0.17 0.21 0.21 0.26 0.31 0.31 0.33 0.35 0.30 0.31 0.36 0.39 0.37 0.34 0.33 0.32 0.36 0.40 0.42 0.43 0.44 0.44 0.40 0.38 0.38 0.37 0.38 0.35 0.35 0.34 0.31 0.28
0.07 0.06 0.04 0.03 0.02 0.01 0.01 0.01 0.02 0.02 0.01 0.00 0.00 0.00 0.01 0.01 0.01 0.02 0.03 0.07 0.11 0.14 0.16 0.21 0.26 0.28 0.28 0.28 0.31 0.35 0.38 0.39 0.41 0.44 0.46 0.44 0.42 0.44 0.41 0.38 0.39 0.41 0.40 0.41 0.44 0.45 0.47 0.43 0.41 0.40 0.36 0.33 0.31 0.29

GFSWCAN_prec_precacc_072.txt.gz
Total_Precipitation_Accumulation
0.91 0.90 0.97 0.97 1.02 1.13 1.14 1.22 1.33 1.22 1.00 0.73 0.50 0.32 0.19 0.20 0.17 0.18 0.28 0.37 0.42 0.13 0.02 0.00 0.00 0.01 0.00 0.00 0.02 0.02 0.09 0.13 0.20 0.26 0.24 0.10 0.03 0.01 0.00 0.00 0.00 0.02 0.04 0.06 0.06 0.10 0.01 0.00 0.00 0.00 0.00 0.00 0.00 0.01
0.85 0.76 0.85 0.80 0.66 0.63 0.50 0.63 0.84 0.80 0.62 0.52 0.43 0.28 0.16 0.18 0.21 0.25 0.26 0.29 0.25 0.15 0.01 0.00 0.00 0.00 0.00 0.00 0.02 0.01 0.08 0.12 0.22 0.24 0.19 0.09 0.04 0.01 0.00 0.01 0.00 0.00 0.00 0.00 0.00 0.00 0.00 0.00 0.00 0.00 0.00 0.00 0.00 0.00
0.78 0.79 0.90 1.06 0.96 0.85 0.72 0.71 0.87 0.87 0.61 0.47 0.36 0.19 0.13 0.16 0.16 0.30 0.30 0.23 0.24 0.25 0.05 0.03 0.02 0.00 0.00 0.00 0.00 0.04 0.07 0.15 0.23 0.21 0.32 0.15 0.06 0.04 0.02 0.01 0.00 0.00 0.00 0.00 0.00 0.00 0.00 0.00 0.00 0.00 0.00 0.00 0.00 0.01
0.73 0.70 0.72 0.98 1.23 1.25 1.30 1.20 1.09 0.87 0.60 0.51 0.32 0.16 0.11 0.11 0.16 0.23 0.11 0.10 0.22 0.26 0.19 0.05 0.01 0.02 0.01 0.02 0.02 0.02 0.09 0.17 0.29 0.48 0.33 0.19 0.08 0.03 0.02 0.01 0.00 0.01 0.00 0.00 0.00 0.00 0.00 0.00 0.00 0.00 0.00 0.00 0.00 0.00
1.03 0.88 0.65 0.64 0.79 0.84 1.01 1.12 0.97 0.67 0.55 0.49 0.36 0.14 0.15 0.18 0.16 0.08 0.02 0.07 0.16 0.32 0.34 0.18 0.16 0.01 0.01 0.05 0.04 0.06 0.11 0.30 0.34 0.59 0.57 0.22 0.09 0.06 0.02 0.01 0.00 0.00 0.00 0.00 0.00 0.00 0.00 0.00 0.00 0.00 0.00 0.00 0.00 0.00
1.00 1.12 1.20 0.80 0.63 0.68 0.82 0.71 0.57 0.51 0.53 0.46 0.22 0.18 0.17 0.10 0.14 0.15 0.20 0.36 0.28 0.32 0.60 0.43 0.34 0.16 0.06 0.09 0.09 0.15 0.22 0.43 0.67 0.50 0.53 0.33 0.13 0.20 0.17 0.05 0.00 0.00 0.00 0.00 0.00 0.00 0.00 0.00 0.00 0.00 0.00 0.00 0.00 0.00
0.79 0.97 1.27 1.40 0.87 0.65 0.76 0.79 0.51 0.51 0.46 0.28 0.16 0.13 0.07 0.04 0.11 0.12 0.25 0.62 0.58 0.57 0.68 0.78 0.66 0.48 0.14 0.23 0.27 0.30 0.31 0.55 0.89 0.66 0.41 0.33 0.29 0.53 0.34 0.05 0.00 0.01 0.01 0.01 0.01 0.00 0.00 0.00 0.00 0.00 0.00 0.00 0.00 0.00
0.72 0.74 0.92 1.39 1.16 0.74 0.62 0.73 0.53 0.49 0.31 0.14 0.08 0.04 0.01 0.08 0.06 0.07 0.05 0.19 0.49 0.88 0.91 1.04 0.98 0.96 0.32 0.53 0.46 0.40 0.39 0.48 1.03 0.74 0.34 0.24 0.35 0.35 0.20 0.02 0.05 0.04 0.04 0.02 0.01 0.02 0.01 0.01 0.00 0.00 0.00 0.00 0.00 0.00
0.88 0.76 0.67 0.87 1.22 0.74 0.63 0.63 0.53 0.39 0.15 0.03 0.00 0.01 0.08 0.06 0.04 0.12 0.21 0.40 0.63 1.02 0.82 0.77 0.90 0.80 0.64 0.64 0.48 0.56 0.47 0.57 0.72 0.54 0.23 0.25 0.27 0.29 0.06 0.08 0.11 0.14 0.15 0.17 0.13 0.06 0.06 0.05 0.02 0.03 0.02 0.03 0.04 0.04
0.95 1.00 0.69 0.62 0.89 0.71 0.60 0.59 0.38 0.16 0.04 0.01 0.01 0.04 0.11 0.02 0.05 0.48 0.83 1.06 1.07 0.83 0.58 0.62 0.54 0.45 0.89 0.67 0.60 0.65 0.35 0.56 0.65 0.31 0.24 0.30 0.19 0.03 0.05 0.12 0.09 0.15 0.30 0.34 0.42 0.30 0.17 0.23 0.14 0.10 0.15 0.11 0.12 0.14
0.86 1.01 0.77 0.61 0.63 0.52 0.50 0.44 0.20 0.06 0.01 0.00 0.02 0.05 0.04 0.05 0.62 1.16 1.33 1.06 0.65 0.44 0.43 0.40 0.40 0.37 0.48 0.55 0.38 0.42 0.50 0.46 0.70 0.47 0.32 0.31 0.30 0.12 0.07 0.05 0.04 0.08 0.18 0.14 0.31 0.32 0.20 0.30 0.35 0.25 0.29 0.33 0.34 0.35
0.88 0.95 0.85 0.67 0.62 0.37 0.37 0.28 0.08 0.02 0.02 0.04 0.06 0.06 0.12 0.44 1.03 0.97 0.96 0.59 0.25 0.21 0.22 0.27 0.28 0.33 0.43 0.30 0.49 0.40 0.36 0.33 0.35 0.32 0.45 0.41 0.27 0.18 0.20 0.09 0.06 0.04 0.06 0.07 0.10 0.22 0.18 0.11 0.16 0.19 0.27 0.30 0.29 0.34
0.88 0.88 0.76 0.58 0.55 0.36 0.29 0.14 0.02 0.01 0.02 0.02 0.05 0.16 0.30 0.56 0.73 0.55 0.45 0.25 0.10 0.09 0.08 0.11 0.26 0.22 0.39 0.36 0.41 0.46 0.26 0.16 0.34 0.44 0.40 0.18 0.06 0.03 0.10 0.19 0.20 0.16 0.10 0.25 0.27 0.18 0.11 0.09 0.11 0.14 0.15 0.11 0.10 0.11
0.90 0.82 0.61 0.53 0.46 0.36 0.25 0.06 0.02 0.02 0.03 0.01 0.07 0.15 0.25 0.32 0.37 0.27 0.17 0.14 0.05 0.04 0.03 0.05 0.12 0.20 0.27 0.23 0.24 0.26 0.13 0.28 0.49 0.33 0.22 0.07 0.06 0.04 0.02 0.05 0.10 0.14 0.13 0.24 0.56 0.60 0.44 0.44 0.40 0.30 0.21 0.15 0.12 0.11
0.87 0.82 0.64 0.58 0.42 0.35 0.23 0.03 0.00 0.01 0.01 0.02 0.10 0.13 0.15 0.22 0.09 0.05 0.04 0.05 0.02 0.02 0.03 0.02 0.08 0.13 0.18 0.23 0.21 0.20 0.28 0.46 0.31 0.26 0.17 0.10 0.09 0.08 0.06 0.03 0.03 0.07 0.13 0.16 0.25 0.33 0.40 0.29 0.16 0.20 0.27 0.25 0.17 0.13
0.96 1.08 0.83 0.58 0.38 0.30 0.12 0.00 0.00 0.01 0.01 0.02 0.07 0.15 0.11 0.07 0.04 0.01 0.01 0.02 0.02 0.02 0.05 0.06 0.11 0.14 0.16 0.26 0.21 0.27 0.47 0.40 0.23 0.15 0.10 0.05 0.09 0.07 0.05 0.04 0.01 0.00 0.01 0.06 0.14 0.19 0.24 0.22 0.16 0.13 0.17 0.27 0.23 0.20
1.28 1.37 0.92 0.57 0.39 0.17 0.03 0.00 0.00 0.01 0.01 0.03 0.03 0.09 0.10 0.06 0.06 0.04 0.02 0.00 0.01 0.07 0.17 0.25 0.26 0.13 0.12 0.14 0.13 0.21 0.31 0.19 0.09 0.06 0.02 0.01 0.01 0.01 0.01 0.00 0.00 0.00 0.01 0.03 0.09 0.13 0.20 0.25 0.24 0.18 0.16 0.16 0.16 0.22
0.74 0.61 0.70 0.58 0.34 0.11 0.04 0.01 0.01 0.01 0.01 0.01 0.00 0.01 0.01 0.03 0.04 0.05 0.03 0.02 0.02 0.11 0.27 0.50 0.30 0.15 0.05 0.03 0.03 0.07 0.10 0.06 0.06 0.03 0.02 0.01 0.00 0.00 0.01 0.02 0.00 0.03 0.12 0.18 0.17 0.16 0.17 0.17 0.16 0.12 0.11 0.10 0.10 0.09
0.45 0.46 0.59 0.39 0.17 0.06 0.04 0.01 0.00 0.00 0.00 0.00 0.00 0.00 0.00 0.00 0.03 0.04 0.03 0.03 0.05 0.12 0.22 0.32 0.25 0.08 0.00 0.00 0.01 0.00 0.00 0.01 0.01 0.01 0.01 0.00 0.00 0.00 0.01 0.04 0.06 0.07 0.20 0.14 0.05 0.06 0.05 0.06 0.09 0.10 0.10 0.10 0.09 0.08
0.59 0.64 0.52 0.27 0.07 0.01 0.00 0.00 0.00 0.00 0.00 0.00 0.00 0.00 0.00 0.00 0.00 0.03 0.06 0.04 0.07 0.27 0.33 0.20 0.06 0.03 0.03 0.03 0.03 0.02 0.00 0.00 0.00 0.00 0.00 0.00 0.00 0.00 0.00 0.02 0.05 0.07 0.08 0.08 0.09 0.10 0.09 0.07 0.06 0.06 0.06 0.07 0.09 0.10
1.27 0.92 0.65 0.25 0.13 0.03 0.01 0.00 0.00 0.00 0.00 0.00 0.00 0.00 0.00 0.00 0.00 0.01 0.07 0.16 0.23 0.33 0.27 0.13 0.05 0.03 0.04 0.06 0.05 0.03 0.00 0.00 0.00 0.00 0.00 0.00 0.00 0.00 0.00 0.00 0.00 0.01 0.02 0.03 0.05 0.06 0.08 0.07 0.08 0.07 0.07 0.09 0.11 0.10
1.37 0.64 0.39 0.32 0.18 0.08 0.03 0.01 0.00 0.01 0.01 0.00 0.01 0.01 0.01 0.01 0.01 0.04 0.08 0.19 0.29 0.16 0.12 0.12 0.13 0.11 0.08 0.07 0.07 0.07 0.05 0.02 0.00 0.00 0.00 0.00 0.00 0.00 0.00 0.00 0.00 0.00 0.00 0.01 0.01 0.00 0.01 0.02 0.03 0.05 0.07 0.10 0.13 0.09
0.70 0.41 0.35 0.28 0.18 0.11 0.05 0.02 0.02 0.01 0.01 0.01 0.01 0.01 0.01 0.01 0.02 0.04 0.10 0.11 0.12 0.10 0.08 0.08 0.12 0.16 0.17 0.14 0.14 0.12 0.11 0.08 0.04 0.02 0.01 0.00 0.00 0.00 0.00 0.00 0.00 0.00 0.00 0.00 0.01 0.01 0.00 0.00 0.00 0.00 0.00 0.02 0.06 0.08
0.32 0.39 0.36 0.29 0.17 0.08 0.04 0.03 0.02 0.02 0.02 0.01 0.01 0.01 0.01 0.00 0.03 0.06 0.06 0.04 0.03 0.04 0.08 0.12 0.11 0.10 0.10 0.12 0.14 0.18 0.21 0.19 0.13 0.09 0.07 0.05 0.03 0.02 0.01 0.01 0.00 0.00 0.00 0.00 0.00 0.00 0.00 0.00 0.00 0.00 0.00 0.00 0.01 0.02
0.61 0.49 0.32 0.28 0.11 0.05 0.03 0.03 0.02 0.02 0.01 0.02 0.03 0.01 0.01 0.02 0.02 0.02 0.02 0.00 0.01 0.03 0.06 0.09 0.11 0.12 0.11 0.10 0.10 0.10 0.12 0.19 0.21 0.19 0.18 0.15 0.12 0.11 0.09 0.06 0.03 0.01 0.01 0.02 0.02 0.01 0.00 0.00 0.00 0.00 0.00 0.00 0.01 0.02
0.59 0.23 0.10 0.03 0.02 0.02 0.01 0.01 0.01 0.01 0.03 0.04 0.03 0.01 0.01 0.03 0.02 0.01 0.00 0.00 0.01 0.03 0.05 0.07 0.07 0.08 0.07 0.08 0.10 0.12 0.13 0.15 0.16 0.18 0.22 0.25 0.21 0.17 0.16 0.16 0.11 0.07 0.05 0.05 0.07 0.06 0.04 0.01 0.01 0.01 0.01 0.02 0.04 0.04
0.26 0.15 0.06 0.01 0.01 0.01 0.01 0.01 0.02 0.03 0.05 0.04 0.01 0.01 0.02 0.04 0.01 0.01 0.01 0.00 0.01 0.02 0.04 0.08 0.12 0.11 0.08 0.10 0.11 0.12 0.15 0.17 0.18 0.16 0.22 0.33 0.34 0.27 0.19 0.17 0.15 0.12 0.12 0.13 0.11 0.09 0.08 0.06 0.05 0.05 0.06 0.06 0.07 0.07
0.06 0.00 0.01 0.03 0.01 0.01 0.02 0.04 0.07 0.05 0.03 0.02 0.04 0.03 0.03 0.02 0.01 0.00 0.00 0.00 0.01 0.02 0.04 0.08 0.12 0.15 0.14 0.12 0.14 0.16 0.18 0.21 0.25 0.26 0.30 0.36 0.40 0.40 0.34 0.30 0.30 0.31 0.28 0.21 0.18 0.18 0.16 0.14 0.12 0.14 0.16 0.13 0.10 0.10
0.03 0.01 0.01 0.03 0.02 0.02 0.02 0.04 0.02 0.00 0.00 0.00 0.02 0.00 0.00 0.00 0.00 0.00 0.00 0.01 0.02 0.04 0.06 0.09 0.12 0.14 0.17 0.18 0.19 0.22 0.24 0.24 0.20 0.19 0.15 0.20 0.29 0.41 0.45 0.42 0.44 0.44 0.38 0.35 0.32 0.27 0.26 0.27 0.28 0.28 0.30 0.28 0.25 0.24
0.02 0.00 0.01 0.01 0.01 0.02 0.02 0.01 0.01 0.00 0.00 0.00 0.00 0.00 0.00 0.00 0.00 0.00 0.00 0.01 0.04 0.07 0.11 0.14 0.16 0.19 0.21 0.22 0.23 0.23 0.25 0.28 0.26 0.17 0.16 0.16 0.20 0.31 0.40 0.41 0.44 0.47 0.46 0.42 0.48 0.53 0.51 0.50 0.50 0.48 0.43 0.39 0.34 0.31
0.01 0.01 0.00 0.00 0.01 0.01 0.01 0.01 0.00 0.00 0.00 0.00 0.00 0.00 0.00 0.00 0.00 0.01 0.01 0.03 0.07 0.11 0.16 0.19 0.22 0.27 0.28 0.30 0.29 0.27 0.26 0.32 0.37 0.36 0.31 0.34 0.32 0.32 0.38 0.43 0.44 0.46 0.47 0.44 0.39 0.37 0.36 0.31 0.28 0.27 0.28 0.27 0.26 0.25
0.02 0.01 0.01 0.00 0.00 0.01 0.01 0.01 0.00 0.00 0.00 0.00 0.00 0.01 0.00 0.00 0.01 0.01 0.02 0.05 0.10 0.13 0.17 0.21 0.21 0.26 0.31 0.31 0.33 0.35 0.30 0.31 0.36 0.39 0.37 0.34 0.33 0.33 0.38 0.41 0.43 0.44 0.44 0.44 0.40 0.39 0.38 0.37 0.38 0.35 0.35 0.34 0.31 0.28
0.08 0.07 0.05 0.04 0.03 0.01 0.01 0.01 0.02 0.02 0.01 0.00 0.00 0.00 0.01 0.01 0.01 0.02 0.03 0.07 0.11 0.14 0.16 0.21 0.26 0.28 0.28 0.28 0.31 0.35 0.38 0.39 0.41 0.44 0.46 0.44 0.43 0.45 0.42 0.38 0.40 0.41 0.40 0.41 0.44 0.45 0.47 0.43 0.41 0.40 0.36 0.33 0.31 0.29

GFSWCAN_prec_precacc_075.txt.gz
Total_Precipitation_Accumulation
0.92 0.91 1.01 1.00 1.05 1.14 1.15 1.23 1.33 1.31 1.35 0.91 0.69 0.47 0.31 0.27 0.19 0.19 0.29 0.37 0.42 0.13 0.02 0.00 0.00 0.01 0.00 0.00 0.02 0.02 0.09 0.13 0.20 0.26 0.24 0.10 0.03 0.01 0.00 0.00 0.00 0.02 0.04 0.06 0.06 0.10 0.01 0.00 0.00 0.00 0.00 0.00 0.00 0.01
0.86 0.77 0.86 0.82 0.67 0.64 0.51 0.63 0.84 0.90 0.79 0.63 0.58 0.38 0.20 0.20 0.21 0.25 0.26 0.29 0.25 0.15 0.01 0.00 0.00 0.00 0.00 0.00 0.02 0.01 0.08 0.12 0.22 0.24 0.19 0.09 0.04 0.01 0.00 0.01 0.00 0.00 0.00 0.00 0.00 0.00 0.00 0.00 0.00 0.00 0.00 0.00 0.00 0.00
0.78 0.80 0.91 1.07 0.97 0.86 0.73 0.72 0.88 1.00 0.68 0.57 0.45 0.25 0.14 0.17 0.17 0.30 0.30 0.23 0.24 0.25 0.05 0.03 0.02 0.00 0.00 0.00 0.00 0.04 0.07 0.15 0.23 0.21 0.32 0.15 0.06 0.04 0.02 0.01 0.00 0.00 0.00 0.00 0.00 0.00 0.00 0.00 0.00 0.00 0.00 0.00 0.00 0.01
0.73 0.71 0.73 0.98 1.23 1.25 1.30 1.20 1.13 0.99 0.64 0.60 0.38 0.20 0.12 0.11 0.16 0.23 0.11 0.10 0.22 0.26 0.19 0.05 0.01 0.02 0.01 0.02 0.02 0.02 0.09 0.17 0.29 0.48 0.33 0.19 0.08 0.03 0.02 0.01 0.00 0.01 0.00 0.00 0.00 0.00 0.00 0.00 0.00 0.00 0.00 0.00 0.00 0.00
1.03 0.88 0.66 0.64 0.79 0.84 1.01 1.12 1.01 0.84 0.58 0.53 0.41 0.16 0.15 0.18 0.16 0.08 0.02 0.07 0.16 0.32 0.34 0.18 0.16 0.01 0.01 0.05 0.04 0.06 0.11 0.30 0.34 0.59 0.57 0.22 0.09 0.06 0.02 0.01 0.00 0.00 0.00 0.00 0.00 0.00 0.00 0.00 0.00 0.00 0.00 0.00 0.00 0.00
1.00 1.13 1.22 0.81 0.63 0.68 0.82 0.71 0.57 0.58 0.56 0.49 0.24 0.18 0.17 0.10 0.14 0.15 0.20 0.36 0.28 0.32 0.60 0.43 0.34 0.16 0.06 0.09 0.09 0.15 0.22 0.43 0.67 0.50 0.53 0.33 0.13 0.20 0.17 0.05 0.00 0.00 0.00 0.00 0.00 0.00 0.00 0.00 0.00 0.00 0.00 0.00 0.00 0.00
0.80 0.98 1.28 1.41 0.87 0.65 0.76 0.79 0.53 0.54 0.49 0.30 0.17 0.13 0.07 0.04 0.11 0.12 0.25 0.62 0.58 0.57 0.68 0.78 0.66 0.48 0.14 0.23 0.27 0.30 0.31 0.55 0.89 0.66 0.41 0.33 0.29 0.53 0.34 0.05 0.00 0.01 0.01 0.01 0.01 0.00 0.00 0.00 0.00 0.00 0.00 0.00 0.00 0.00
0.73 0.75 0.93 1.40 1.16 0.74 0.62 0.85 0.56 0.50 0.33 0.16 0.08 0.04 0.01 0.08 0.06 0.07 0.05 0.19 0.49 0.88 0.91 1.04 0.98 0.96 0.32 0.53 0.46 0.40 0.39 0.48 1.03 0.74 0.34 0.24 0.35 0.35 0.20 0.02 0.05 0.04 0.04 0.02 0.01 0.02 0.01 0.01 0.00 0.00 0.00 0.00 0.00 0.00
0.88 0.76 0.68 0.88 1.22 0.74 0.64 0.71 0.61 0.40 0.17 0.05 0.00 0.01 0.08 0.06 0.04 0.12 0.21 0.40 0.63 1.02 0.82 0.77 0.90 0.80 0.64 0.64 0.48 0.56 0.47 0.57 0.72 0.54 0.23 0.25 0.27 0.29 0.06 0.08 0.11 0.14 0.15 0.17 0.13 0.06 0.06 0.05 0.02 0.03 0.02 0.03 0.04 0.04
0.95 1.00 0.69 0.62 0.90 0.72 0.61 0.63 0.45 0.17 0.05 0.01 0.01 0.04 0.11 0.02 0.05 0.48 0.83 1.06 1.07 0.83 0.58 0.62 0.54 0.45 0.89 0.67 0.60 0.65 0.35 0.56 0.65 0.31 0.24 0.30 0.19 0.03 0.05 0.12 0.09 0.15 0.30 0.34 0.42 0.30 0.17 0.23 0.14 0.10 0.15 0.11 0.12 0.14
0.86 1.01 0.77 0.62 0.63 0.53 0.50 0.52 0.26 0.07 0.01 0.00 0.02 0.05 0.04 0.05 0.62 1.16 1.33 1.06 0.65 0.44 0.43 0.40 0.40 0.37 0.48 0.55 0.38 0.42 0.50 0.46 0.70 0.47 0.32 0.31 0.30 0.12 0.07 0.05 0.04 0.08 0.18 0.14 0.31 0.32 0.20 0.30 0.35 0.25 0.29 0.33 0.34 0.35
0.88 0.96 0.85 0.67 0.62 0.37 0.37 0.40 0.12 0.02 0.02 0.04 0.06 0.06 0.12 0.44 1.03 0.97 0.96 0.59 0.25 0.21 0.22 0.27 0.28 0.33 0.43 0.30 0.49 0.40 0.36 0.33 0.35 0.32 0.45 0.41 0.27 0.18 0.20 0.09 0.06 0.04 0.06 0.07 0.10 0.22 0.18 0.11 0.16 0.19 0.27 0.30 0.29 0.34
0.89 0.88 0.76 0.58 0.55 0.36 0.31 0.24 0.04 0.01 0.02 0.02 0.05 0.16 0.30 0.56 0.73 0.55 0.45 0.25 0.10 0.09 0.08 0.11 0.26 0.22 0.39 0.36 0.41 0.46 0.26 0.16 0.34 0.44 0.40 0.18 0.06 0.03 0.10 0.19 0.20 0.16 0.10 0.25 0.27 0.18 0.11 0.09 0.11 0.14 0.15 0.11 0.10 0.11
0.90 0.82 0.61 0.53 0.49 0.37 0.26 0.11 0.03 0.03 0.03 0.01 0.07 0.15 0.25 0.32 0.37 0.27 0.17 0.15 0.05 0.04 0.03 0.05 0.12 0.20 0.27 0.23 0.24 0.26 0.13 0.28 0.49 0.33 0.22 0.07 0.06 0.04 0.02 0.05 0.10 0.14 0.13 0.24 0.56 0.60 0.44 0.44 0.40 0.30 0.21 0.15 0.12 0.11
0.87 0.82 0.64 0.63 0.50 0.40 0.27 0.08 0.03 0.02 0.01 0.02 0.10 0.13 0.15 0.22 0.09 0.05 0.04 0.06 0.02 0.02 0.03 0.02 0.08 0.13 0.18 0.23 0.21 0.20 0.28 0.46 0.31 0.26 0.17 0.10 0.09 0.08 0.06 0.03 0.03 0.07 0.13 0.16 0.25 0.33 0.40 0.29 0.16 0.20 0.27 0.25 0.17 0.13
0.97 1.09 0.86 0.77 0.57 0.46 0.24 0.07 0.03 0.02 0.01 0.02 0.07 0.15 0.11 0.07 0.05 0.01 0.01 0.02 0.02 0.02 0.05 0.06 0.11 0.14 0.16 0.26 0.21 0.27 0.47 0.40 0.23 0.15 0.10 0.05 0.09 0.07 0.05 0.04 0.01 0.00 0.01 0.06 0.14 0.19 0.24 0.22 0.16 0.13 0.17 0.27 0.23 0.20
1.30 1.37 0.98 0.81 0.67 0.40 0.15 0.04 0.02 0.03 0.02 0.03 0.03 0.09 0.10 0.06 0.06 0.04 0.02 0.00 0.01 0.07 0.17 0.25 0.26 0.13 0.12 0.14 0.13 0.21 0.31 0.19 0.09 0.06 0.02 0.01 0.01 0.01 0.01 0.00 0.00 0.00 0.01 0.03 0.09 0.13 0.20 0.25 0.24 0.18 0.16 0.16 0.16 0.22
0.75 0.61 0.74 0.79 0.65 0.40 0.18 0.05 0.04 0.03 0.01 0.01 0.00 0.01 0.01 0.03 0.04 0.05 0.03 0.02 0.02 0.11 0.27 0.50 0.30 0.15 0.05 0.03 0.03 0.07 0.10 0.06 0.06 0.03 0.02 0.01 0.00 0.00 0.01 0.02 0.00 0.03 0.12 0.18 0.17 0.16 0.17 0.17 0.16 0.12 0.11 0.10 0.10 0.09
0.45 0.46 0.63 0.61 0.43 0.22 0.13 0.07 0.01 0.00 0.00 0.00 0.00 0.00 0.00 0.00 0.03 0.04 0.03 0.03 0.05 0.12 0.22 0.32 0.25 0.08 0.00 0.00 0.01 0.00 0.00 0.01 0.01 0.01 0.01 0.00 0.00 0.00 0.01 0.04 0.06 0.07 0.20 0.14 0.05 0.06 0.05 0.06 0.09 0.10 0.10 0.10 0.09 0.08
0.60 0.69 0.59 0.43 0.14 0.04 0.03 0.06 0.00 0.00 0.00 0.00 0.00 0.00 0.00 0.00 0.00 0.03 0.06 0.04 0.07 0.27 0.33 0.20 0.06 0.03 0.03 0.03 0.03 0.02 0.00 0.00 0.00 0.00 0.00 0.00 0.00 0.00 0.00 0.02 0.05 0.07 0.08 0.08 0.09 0.10 0.09 0.07 0.06 0.06 0.06 0.07 0.10 0.11
1.35 1.02 0.75 0.47 0.33 0.10 0.03 0.01 0.00 0.00 0.00 0.00 0.00 0.00 0.00 0.00 0.00 0.01 0.07 0.16 0.23 0.33 0.27 0.13 0.05 0.03 0.04 0.06 0.05 0.03 0.00 0.00 0.00 0.00 0.00 0.00 0.00 0.00 0.00 0.00 0.00 0.01 0.02 0.03 0.05 0.06 0.08 0.07 0.08 0.07 0.07 0.09 0.12 0.11
1.58 0.95 0.79 0.66 0.35 0.12 0.04 0.01 0.00 0.01 0.01 0.00 0.01 0.01 0.01 0.01 0.01 0.04 0.08 0.19 0.29 0.16 0.12 0.12 0.13 0.11 0.08 0.07 0.07 0.07 0.05 0.02 0.00 0.00 0.00 0.00 0.00 0.00 0.00 0.00 0.00 0.00 0.00 0.01 0.01 0.01 0.01 0.02 0.03 0.05 0.07 0.10 0.13 0.09
1.00 0.74 0.63 0.49 0.29 0.13 0.06 0.02 0.02 0.02 0.01 0.02 0.01 0.01 0.01 0.01 0.02 0.04 0.10 0.11 0.12 0.10 0.08 0.08 0.12 0.16 0.17 0.14 0.14 0.12 0.11 0.08 0.04 0.02 0.01 0.00 0.00 0.00 0.00 0.00 0.00 0.00 0.01 0.01 0.01 0.01 0.00 0.00 0.00 0.00 0.00 0.02 0.06 0.08
0.54 0.68 0.60 0.41 0.20 0.09 0.05 0.04 0.03 0.03 0.02 0.01 0.01 0.01 0.01 0.00 0.03 0.06 0.06 0.04 0.03 0.04 0.08 0.12 0.11 0.10 0.10 0.12 0.14 0.18 0.21 0.19 0.13 0.09 0.07 0.05 0.03 0.02 0.01 0.01 0.00 0.00 0.00 0.01 0.00 0.00 0.00 0.00 0.00 0.00 0.00 0.00 0.01 0.02
0.87 0.68 0.42 0.34 0.12 0.06 0.03 0.03 0.03 0.03 0.02 0.02 0.03 0.01 0.01 0.03 0.02 0.02 0.02 0.00 0.01 0.03 0.06 0.09 0.11 0.12 0.11 0.10 0.10 0.10 0.12 0.19 0.21 0.19 0.18 0.15 0.12 0.11 0.09 0.06 0.03 0.01 0.01 0.02 0.02 0.01 0.00 0.00 0.00 0.00 0.00 0.01 0.02 0.03
0.78 0.35 0.14 0.03 0.02 0.02 0.01 0.01 0.01 0.02 0.03 0.04 0.03 0.01 0.01 0.03 0.02 0.01 0.00 0.00 0.01 0.03 0.05 0.07 0.07 0.08 0.07 0.08 0.10 0.12 0.13 0.15 0.16 0.18 0.22 0.25 0.21 0.18 0.17 0.16 0.11 0.07 0.05 0.05 0.07 0.06 0.04 0.01 0.01 0.01 0.01 0.02 0.05 0.05
0.32 0.16 0.06 0.01 0.01 0.01 0.01 0.01 0.02 0.03 0.05 0.05 0.02 0.01 0.02 0.04 0.01 0.01 0.01 0.00 0.01 0.02 0.04 0.08 0.12 0.11 0.08 0.10 0.11 0.12 0.15 0.17 0.18 0.16 0.22 0.33 0.34 0.27 0.19 0.17 0.16 0.12 0.12 0.14 0.11 0.10 0.08 0.07 0.06 0.05 0.06 0.07 0.07 0.08
0.07 0.00 0.01 0.03 0.01 0.02 0.02 0.05 0.09 0.08 0.04 0.03 0.05 0.03 0.03 0.02 0.01 0.00 0.00 0.00 0.01 0.02 0.04 0.08 0.12 0.15 0.14 0.12 0.14 0.16 0.18 0.21 0.25 0.26 0.30 0.36 0.40 0.40 0.34 0.30 0.30 0.31 0.29 0.21 0.19 0.18 0.16 0.15 0.13 0.15 0.16 0.14 0.11 0.11
0.03 0.01 0.01 0.03 0.02 0.03 0.04 0.05 0.03 0.01 0.00 0.00 0.02 0.00 0.00 0.00 0.00 0.00 0.00 0.01 0.02 0.04 0.06 0.09 0.12 0.14 0.17 0.18 0.19 0.22 0.24 0.24 0.20 0.19 0.15 0.20 0.29 0.41 0.45 0.42 0.44 0.44 0.38 0.35 0.32 0.27 0.27 0.28 0.28 0.29 0.30 0.29 0.25 0.25
0.02 0.00 0.01 0.02 0.02 0.03 0.03 0.03 0.02 0.01 0.00 0.00 0.00 0.00 0.00 0.00 0.00 0.00 0.00 0.01 0.04 0.07 0.11 0.14 0.16 0.19 0.21 0.22 0.23 0.23 0.25 0.28 0.26 0.17 0.16 0.16 0.20 0.31 0.40 0.41 0.44 0.47 0.47 0.42 0.48 0.53 0.51 0.50 0.50 0.48 0.43 0.39 0.34 0.31
0.01 0.01 0.01 0.01 0.01 0.02 0.03 0.02 0.01 0.01 0.00 0.00 0.00 0.00 0.00 0.00 0.00 0.01 0.01 0.03 0.07 0.11 0.16 0.19 0.22 0.27 0.28 0.30 0.29 0.27 0.26 0.32 0.37 0.36 0.31 0.34 0.32 0.32 0.38 0.43 0.44 0.46 0.47 0.44 0.39 0.37 0.36 0.31 0.28 0.27 0.28 0.27 0.26 0.25
0.02 0.01 0.01 0.01 0.02 0.03 0.04 0.03 0.01 0.01 0.00 0.00 0.00 0.01 0.00 0.00 0.01 0.01 0.02 0.05 0.10 0.13 0.17 0.21 0.21 0.26 0.31 0.31 0.33 0.35 0.30 0.31 0.36 0.39 0.37 0.34 0.33 0.34 0.38 0.41 0.43 0.44 0.44 0.44 0.40 0.39 0.38 0.37 0.38 0.35 0.35 0.34 0.31 0.28
0.08 0.07 0.05 0.05 0.07 0.05 0.03 0.02 0.03 0.02 0.01 0.00 0.00 0.00 0.01 0.01 0.01 0.02 0.03 0.07 0.11 0.14 0.16 0.21 0.26 0.28 0.28 0.28 0.31 0.35 0.38 0.39 0.41 0.44 0.47 0.44 0.43 0.46 0.42 0.38 0.40 0.41 0.40 0.41 0.44 0.45 0.47 0.43 0.41 0.40 0.36 0.33 0.31 0.29

GFSWCAN_prec_precacc_078.txt.gz
Total_Precipitation_Accumulation
0.92 0.92 1.01 1.01 1.06 1.15 1.16 1.24 1.34 1.39 1.43 0.94 0.78 0.59 0.35 0.29 0.20 0.19 0.29 0.37 0.42 0.13 0.02 0.00 0.00 0.01 0.00 0.00 0.02 0.02 0.09 0.13 0.20 0.26 0.24 0.10 0.03 0.01 0.00 0.00 0.00 0.02 0.04 0.06 0.06 0.10 0.01 0.00 0.00 0.00 0.00 0.00 0.00 0.01
0.86 0.77 0.87 0.82 0.68 0.65 0.52 0.64 0.84 0.94 0.83 0.64 0.59 0.41 0.23 0.22 0.21 0.25 0.26 0.29 0.25 0.15 0.01 0.00 0.00 0.00 0.00 0.00 0.02 0.01 0.08 0.12 0.22 0.24 0.19 0.09 0.04 0.01 0.00 0.01 0.00 0.00 0.00 0.00 0.00 0.00 0.00 0.00 0.00 0.00 0.00 0.00 0.00 0.00
0.78 0.80 0.92 1.08 0.98 0.87 0.73 0.72 0.89 1.06 0.68 0.58 0.45 0.25 0.14 0.17 0.17 0.30 0.30 0.23 0.24 0.25 0.05 0.03 0.02 0.00 0.00 0.00 0.00 0.04 0.07 0.15 0.23 0.21 0.32 0.15 0.06 0.04 0.02 0.01 0.00 0.00 0.00 0.00 0.00 0.00 0.00 0.00 0.00 0.00 0.00 0.00 0.00 0.01
0.73 0.71 0.73 0.99 1.24 1.26 1.31 1.21 1.14 1.07 0.65 0.60 0.38 0.20 0.12 0.11 0.16 0.23 0.11 0.10 0.22 0.26 0.19 0.05 0.01 0.02 0.01 0.02 0.02 0.02 0.09 0.17 0.29 0.48 0.33 0.19 0.08 0.03 0.02 0.01 0.00 0.01 0.00 0.00 0.00 0.00 0.00 0.00 0.00 0.00 0.00 0.00 0.00 0.00
1.03 0.89 0.66 0.65 0.80 0.84 1.01 1.12 1.01 0.88 0.60 0.53 0.41 0.16 0.15 0.18 0.16 0.08 0.02 0.07 0.16 0.32 0.34 0.18 0.16 0.01 0.01 0.05 0.04 0.06 0.11 0.30 0.34 0.59 0.57 0.22 0.09 0.06 0.02 0.01 0.00 0.00 0.00 0.00 0.00 0.00 0.00 0.00 0.00 0.00 0.00 0.00 0.00 0.00
1.00 1.13 1.22 0.81 0.64 0.68 0.82 0.71 0.57 0.59 0.57 0.49 0.25 0.18 0.17 0.10 0.14 0.15 0.20 0.36 0.28 0.32 0.60 0.43 0.34 0.16 0.06 0.09 0.09 0.15 0.22 0.43 0.67 0.50 0.53 0.33 0.13 0.20 0.17 0.05 0.00 0.00 0.00 0.00 0.00 0.00 0.00 0.00 0.00 0.00 0.00 0.00 0.00 0.00
0.80 0.98 1.29 1.41 0.87 0.65 0.76 0.79 0.53 0.54 0.49 0.30 0.17 0.13 0.07 0.04 0.11 0.12 0.25 0.62 0.58 0.57 0.68 0.78 0.66 0.48 0.14 0.23 0.27 0.30 0.31 0.55 0.89 0.66 0.41 0.33 0.29 0.53 0.34 0.05 0.00 0.01 0.01 0.01 0.01 0.00 0.00 0.00 0.00 0.00 0.00 0.00 0.00 0.00
0.73 0.75 0.93 1.40 1.16 0.74 0.62 0.86 0.57 0.51 0.33 0.16 0.08 0.04 0.01 0.08 0.06 0.07 0.05 0.19 0.49 0.88 0.91 1.04 0.98 0.96 0.32 0.53 0.46 0.40 0.39 0.48 1.03 0.74 0.34 0.24 0.35 0.35 0.20 0.02 0.05 0.04 0.04 0.02 0.01 0.02 0.01 0.01 0.00 0.00 0.00 0.00 0.00 0.00
0.88 0.76 0.68 0.88 1.22 0.74 0.64 0.74 0.69 0.42 0.17 0.05 0.00 0.01 0.08 0.06 0.04 0.12 0.21 0.40 0.63 1.02 0.82 0.77 0.90 0.80 0.64 0.64 0.48 0.56 0.47 0.57 0.72 0.54 0.23 0.25 0.27 0.29 0.06 0.08 0.11 0.14 0.15 0.17 0.13 0.06 0.06 0.05 0.02 0.03 0.02 0.03 0.04 0.04
0.95 1.00 0.69 0.62 0.90 0.72 0.61 0.65 0.50 0.19 0.06 0.01 0.01 0.04 0.11 0.02 0.05 0.48 0.83 1.06 1.07 0.83 0.58 0.62 0.54 0.45 0.89 0.67 0.60 0.65 0.35 0.56 0.65 0.31 0.24 0.30 0.19 0.03 0.05 0.12 0.09 0.15 0.30 0.34 0.42 0.30 0.17 0.23 0.14 0.10 0.15 0.11 0.12 0.14
0.86 1.01 0.77 0.62 0.64 0.53 0.51 0.54 0.31 0.10 0.02 0.00 0.02 0.05 0.04 0.05 0.62 1.16 1.33 1.06 0.65 0.44 0.43 0.40 0.40 0.37 0.48 0.55 0.38 0.42 0.50 0.46 0.70 0.47 0.32 0.31 0.30 0.12 0.07 0.05 0.04 0.08 0.18 0.14 0.31 0.32 0.20 0.30 0.35 0.25 0.29 0.33 0.34 0.35
0.88 0.96 0.86 0.68 0.62 0.38 0.38 0.43 0.20 0.03 0.02 0.04 0.06 0.06 0.12 0.44 1.03 0.97 0.96 0.59 0.25 0.21 0.22 0.27 0.28 0.33 0.43 0.30 0.49 0.40 0.36 0.33 0.35 0.32 0.45 0.41 0.27 0.18 0.20 0.09 0.06 0.04 0.06 0.07 0.10 0.22 0.18 0.11 0.16 0.19 0.27 0.30 0.29 0.34
0.89 0.88 0.77 0.59 0.55 0.37 0.31 0.27 0.10 0.02 0.03 0.02 0.05 0.16 0.30 0.56 0.73 0.55 0.45 0.25 0.10 0.09 0.08 0.11 0.26 0.22 0.39 0.36 0.41 0.46 0.26 0.16 0.34 0.44 0.40 0.18 0.06 0.03 0.10 0.19 0.20 0.16 0.10 0.25 0.27 0.18 0.11 0.09 0.11 0.14 0.15 0.11 0.10 0.11
0.90 0.83 0.62 0.54 0.49 0.37 0.26 0.13 0.09 0.05 0.03 0.01 0.07 0.15 0.25 0.32 0.37 0.27 0.17 0.15 0.05 0.04 0.03 0.05 0.12 0.20 0.27 0.23 0.24 0.26 0.13 0.28 0.49 0.33 0.22 0.07 0.06 0.04 0.02 0.05 0.10 0.14 0.13 0.24 0.56 0.60 0.44 0.44 0.40 0.30 0.21 0.15 0.12 0.11
0.88 0.83 0.66 0.64 0.50 0.40 0.27 0.11 0.13 0.07 0.02 0.02 0.10 0.13 0.15 0.22 0.09 0.05 0.04 0.06 0.02 0.02 0.03 0.02 0.08 0.13 0.18 0.23 0.21 0.20 0.28 0.46 0.31 0.26 0.17 0.10 0.09 0.08 0.06 0.03 0.03 0.07 0.13 0.16 0.25 0.33 0.40 0.29 0.16 0.20 0.27 0.25 0.17 0.13
0.99 1.11 0.88 0.77 0.58 0.46 0.26 0.12 0.24 0.22 0.04 0.02 0.07 0.15 0.11 0.07 0.05 0.01 0.01 0.02 0.02 0.02 0.05 0.06 0.11 0.14 0.16 0.26 0.21 0.27 0.47 0.40 0.23 0.15 0.10 0.05 0.09 0.07 0.05 0.04 0.01 0.00 0.01 0.06 0.14 0.19 0.24 0.22 0.16 0.13 0.17 0.27 0.23 0.20
1.32 1.38 0.98 0.83 0.69 0.45 0.23 0.12 0.19 0.24 0.11 0.03 0.03 0.09 0.10 0.06 0.06 0.04 0.02 0.00 0.01 0.07 0.17 0.25 0.26 0.13 0.12 0.14 0.13 0.21 0.31 0.19 0.09 0.06 0.02 0.01 0.01 0.01 0.01 0.00 0.00 0.00 0.01 0.03 0.09 0.13 0.20 0.25 0.24 0.18 0.16 0.16 0.16 0.22
0.77 0.61 0.79 0.89 0.70 0.54 0.42 0.26 0.18 0.18 0.09 0.01 0.00 0.01 0.01 0.03 0.04 0.05 0.03 0.02 0.02 0.11 0.27 0.50 0.30 0.15 0.05 0.03 0.03 0.07 0.10 0.06 0.06 0.03 0.02 0.01 0.00 0.00 0.01 0.02 0.00 0.03 0.12 0.18 0.17 0.16 0.17 0.17 0.16 0.12 0.11 0.10 0.10 0.09
0.47 0.46 0.74 0.68 0.45 0.35 0.38 0.32 0.15 0.06 0.01 0.00 0.00 0.00 0.00 0.00 0.03 0.04 0.03 0.03 0.05 0.12 0.22 0.32 0.25 0.08 0.00 0.00 0.01 0.00 0.00 0.01 0.01 0.01 0.01 0.00 0.00 0.00 0.01 0.04 0.06 0.07 0.20 0.14 0.05 0.06 0.05 0.06 0.09 0.10 0.10 0.10 0.09 0.09
0.62 0.70 0.66 0.49 0.21 0.19 0.14 0.18 0.06 0.01 0.00 0.00 0.00 0.00 0.00 0.00 0.00 0.03 0.06 0.04 0.07 0.27 0.33 0.20 0.06 0.03 0.03 0.03 0.03 0.02 0.00 0.00 0.00 0.00 0.00 0.00 0.00 0.00 0.00 0.02 0.05 0.07 0.08 0.08 0.09 0.10 0.09 0.07 0.06 0.06 0.06 0.07 0.11 0.11
1.40 1.08 0.85 0.59 0.51 0.26 0.10 0.04 0.01 0.00 0.00 0.00 0.00 0.00 0.00 0.00 0.00 0.01 0.07 0.16 0.23 0.33 0.27 0.13 0.05 0.03 0.04 0.06 0.05 0.03 0.00 0.00 0.00 0.00 0.00 0.00 0.00 0.00 0.00 0.00 0.00 0.01 0.02 0.03 0.05 0.06 0.08 0.07 0.08 0.08 0.07 0.10 0.12 0.11
1.63 1.03 0.97 0.85 0.57 0.25 0.09 0.02 0.00 0.01 0.01 0.00 0.01 0.01 0.01 0.01 0.01 0.04 0.08 0.19 0.29 0.16 0.12 0.12 0.13 0.11 0.08 0.07 0.07 0.07 0.05 0.02 0.00 0.00 0.00 0.00 0.00 0.00 0.00 0.00 0.00 0.00 0.00 0.01 0.01 0.01 0.01 0.02 0.03 0.05 0.07 0.10 0.13 0.09
1.03 0.77 0.71 0.66 0.48 0.23 0.12 0.02 0.03 0.02 0.01 0.03 0.03 0.02 0.02 0.02 0.02 0.04 0.10 0.11 0.12 0.10 0.08 0.08 0.12 0.16 0.17 0.14 0.14 0.12 0.11 0.08 0.04 0.02 0.01 0.00 0.00 0.00 0.00 0.00 0.00 0.00 0.01 0.01 0.01 0.01 0.00 0.00 0.00 0.00 0.00 0.02 0.06 0.08
0.55 0.74 0.72 0.52 0.26 0.14 0.08 0.07 0.04 0.04 0.03 0.03 0.04 0.03 0.01 0.01 0.03 0.06 0.06 0.04 0.03 0.04 0.08 0.12 0.11 0.10 0.10 0.12 0.14 0.18 0.21 0.19 0.13 0.09 0.07 0.05 0.03 0.02 0.01 0.01 0.00 0.00 0.01 0.01 0.00 0.00 0.00 0.00 0.00 0.00 0.00 0.00 0.01 0.02
0.96 0.81 0.53 0.44 0.18 0.08 0.03 0.03 0.03 0.03 0.03 0.03 0.04 0.02 0.01 0.03 0.02 0.02 0.02 0.00 0.01 0.03 0.06 0.09 0.11 0.12 0.11 0.10 0.10 0.10 0.12 0.19 0.21 0.19 0.18 0.15 0.12 0.11 0.09 0.06 0.03 0.01 0.01 0.02 0.02 0.01 0.00 0.00 0.00 0.00 0.00 0.01 0.03 0.03
0.90 0.47 0.23 0.08 0.04 0.02 0.01 0.01 0.01 0.02 0.03 0.04 0.04 0.01 0.01 0.03 0.02 0.01 0.00 0.00 0.01 0.03 0.05 0.07 0.07 0.08 0.07 0.08 0.10 0.12 0.13 0.15 0.16 0.18 0.22 0.25 0.21 0.18 0.17 0.16 0.11 0.07 0.05 0.06 0.08 0.07 0.04 0.01 0.01 0.01 0.01 0.03 0.05 0.06
0.44 0.22 0.08 0.02 0.01 0.01 0.01 0.01 0.02 0.04 0.06 0.06 0.02 0.01 0.03 0.05 0.02 0.01 0.01 0.00 0.01 0.02 0.04 0.08 0.12 0.11 0.08 0.10 0.11 0.12 0.15 0.17 0.18 0.16 0.22 0.33 0.34 0.27 0.19 0.17 0.16 0.12 0.13 0.14 0.11 0.10 0.09 0.07 0.06 0.06 0.06 0.07 0.07 0.09
0.14 0.01 0.01 0.03 0.01 0.02 0.03 0.06 0.09 0.09 0.06 0.03 0.05 0.03 0.03 0.02 0.01 0.00 0.00 0.00 0.01 0.02 0.04 0.08 0.12 0.15 0.14 0.12 0.14 0.16 0.18 0.21 0.25 0.26 0.30 0.36 0.40 0.40 0.34 0.30 0.30 0.31 0.29 0.22 0.19 0.19 0.17 0.15 0.14 0.15 0.17 0.14 0.11 0.11
0.03 0.01 0.01 0.03 0.02 0.03 0.04 0.05 0.04 0.02 0.00 0.00 0.02 0.01 0.00 0.00 0.00 0.00 0.00 0.01 0.02 0.04 0.06 0.09 0.12 0.14 0.17 0.18 0.19 0.22 0.24 0.24 0.20 0.19 0.15 0.20 0.29 0.41 0.45 0.42 0.44 0.44 0.38 0.35 0.32 0.28 0.27 0.29 0.29 0.29 0.30 0.29 0.25 0.25
0.02 0.00 0.01 0.03 0.03 0.03 0.03 0.03 0.02 0.01 0.00 0.00 0.00 0.00 0.00 0.00 0.00 0.00 0.00 0.01 0.04 0.07 0.11 0.14 0.16 0.19 0.21 0.22 0.23 0.23 0.25 0.28 0.26 0.17 0.16 0.16 0.20 0.31 0.40 0.41 0.44 0.47 0.47 0.42 0.48 0.53 0.51 0.50 0.50 0.48 0.43 0.39 0.35 0.31
0.01 0.01 0.01 0.01 0.01 0.02 0.03 0.03 0.02 0.02 0.02 0.01 0.01 0.01 0.01 0.00 0.00 0.01 0.01 0.03 0.07 0.11 0.16 0.19 0.22 0.27 0.28 0.30 0.29 0.27 0.26 0.32 0.37 0.36 0.31 0.34 0.32 0.32 0.38 0.43 0.45 0.46 0.48 0.44 0.39 0.37 0.36 0.31 0.28 0.27 0.28 0.27 0.26 0.25
0.02 0.01 0.01 0.01 0.02 0.03 0.04 0.04 0.02 0.01 0.01 0.01 0.01 0.01 0.00 0.00 0.01 0.01 0.02 0.05 0.10 0.13 0.17 0.21 0.21 0.26 0.31 0.31 0.33 0.35 0.30 0.31 0.36 0.39 0.37 0.34 0.33 0.34 0.38 0.41 0.43 0.44 0.44 0.44 0.40 0.39 0.38 0.37 0.39 0.35 0.35 0.34 0.32 0.28
0.08 0.07 0.05 0.05 0.08 0.06 0.04 0.04 0.05 0.03 0.01 0.01 0.01 0.00 0.01 0.01 0.01 0.02 0.03 0.07 0.11 0.14 0.16 0.21 0.26 0.28 0.28 0.28 0.31 0.35 0.38 0.39 0.41 0.44 0.47 0.45 0.43 0.46 0.42 0.38 0.40 0.41 0.40 0.41 0.44 0.45 0.47 0.43 0.41 0.40 0.36 0.33 0.31 0.30

GFSWCAN_prec_precacc_081.txt.gz
Total_Precipitation_Accumulation
0.92 0.92 1.01 1.02 1.07 1.16 1.16 1.24 1.34 1.40 1.45 0.98 0.79 0.60 0.35 0.29 0.20 0.19 0.29 0.37 0.42 0.13 0.02 0.00 0.00 0.01 0.00 0.00 0.02 0.02 0.09 0.13 0.20 0.26 0.24 0.10 0.03 0.01 0.00 0.00 0.00 0.02 0.04 0.06 0.06 0.10 0.01 0.00 0.00 0.00 0.00 0.00 0.00 0.01
0.86 0.77 0.87 0.83 0.69 0.65 0.53 0.64 0.85 0.96 0.84 0.65 0.60 0.42 0.23 0.22 0.21 0.25 0.26 0.29 0.25 0.15 0.01 0.00 0.00 0.00 0.00 0.00 0.02 0.01 0.08 0.12 0.22 0.24 0.19 0.09 0.04 0.01 0.00 0.01 0.00 0.00 0.00 0.00 0.00 0.00 0.00 0.00 0.00 0.00 0.00 0.00 0.00 0.00
0.78 0.80 0.92 1.08 0.99 0.88 0.73 0.72 0.89 1.12 0.70 0.58 0.45 0.26 0.15 0.17 0.17 0.30 0.30 0.23 0.24 0.25 0.05 0.03 0.02 0.00 0.00 0.00 0.00 0.04 0.07 0.15 0.23 0.21 0.32 0.15 0.06 0.04 0.02 0.01 0.00 0.00 0.00 0.00 0.00 0.00 0.00 0.00 0.00 0.00 0.00 0.00 0.00 0.01
0.73 0.71 0.73 0.99 1.25 1.27 1.31 1.21 1.15 1.08 0.66 0.60 0.38 0.21 0.12 0.11 0.16 0.23 0.11 0.10 0.22 0.26 0.19 0.05 0.01 0.02 0.01 0.02 0.02 0.02 0.09 0.17 0.29 0.48 0.33 0.19 0.08 0.03 0.02 0.01 0.00 0.01 0.00 0.00 0.00 0.00 0.00 0.00 0.00 0.00 0.00 0.00 0.00 0.00
1.03 0.89 0.66 0.65 0.80 0.85 1.01 1.12 1.01 0.88 0.60 0.53 0.42 0.16 0.15 0.18 0.16 0.08 0.02 0.07 0.16 0.32 0.34 0.18 0.16 0.01 0.01 0.05 0.04 0.06 0.11 0.30 0.34 0.59 0.57 0.22 0.09 0.06 0.02 0.01 0.00 0.00 0.00 0.00 0.00 0.00 0.00 0.00 0.00 0.00 0.00 0.00 0.00 0.00
1.00 1.13 1.22 0.81 0.64 0.69 0.82 0.71 0.57 0.59 0.57 0.49 0.26 0.19 0.17 0.10 0.14 0.15 0.20 0.36 0.28 0.32 0.60 0.43 0.34 0.16 0.06 0.09 0.09 0.15 0.22 0.43 0.67 0.50 0.53 0.33 0.13 0.20 0.17 0.05 0.00 0.00 0.00 0.00 0.00 0.00 0.00 0.00 0.00 0.00 0.00 0.00 0.00 0.00
0.80 0.98 1.29 1.41 0.87 0.65 0.77 0.79 0.53 0.54 0.49 0.30 0.18 0.13 0.07 0.04 0.11 0.12 0.25 0.62 0.58 0.57 0.68 0.78 0.66 0.48 0.14 0.23 0.27 0.30 0.31 0.55 0.89 0.66 0.41 0.33 0.29 0.53 0.34 0.05 0.00 0.01 0.01 0.01 0.01 0.00 0.00 0.00 0.00 0.00 0.00 0.00 0.00 0.00
0.73 0.75 0.93 1.40 1.17 0.75 0.62 0.86 0.57 0.51 0.33 0.16 0.08 0.04 0.01 0.08 0.06 0.07 0.05 0.19 0.49 0.88 0.91 1.04 0.98 0.96 0.32 0.53 0.46 0.40 0.39 0.48 1.03 0.74 0.34 0.24 0.35 0.35 0.20 0.02 0.05 0.04 0.04 0.02 0.01 0.02 0.01 0.01 0.00 0.00 0.00 0.00 0.00 0.00
0.88 0.76 0.68 0.88 1.22 0.75 0.64 0.75 0.71 0.43 0.18 0.05 0.00 0.01 0.08 0.06 0.04 0.12 0.21 0.40 0.63 1.02 0.82 0.77 0.90 0.80 0.64 0.64 0.48 0.56 0.47 0.57 0.72 0.54 0.23 0.25 0.27 0.29 0.06 0.08 0.11 0.14 0.15 0.17 0.13 0.06 0.06 0.05 0.02 0.03 0.02 0.03 0.04 0.04
0.95 1.00 0.69 0.62 0.90 0.72 0.61 0.65 0.53 0.20 0.08 0.01 0.01 0.04 0.11 0.02 0.05 0.48 0.83 1.06 1.07 0.83 0.58 0.62 0.54 0.45 0.89 0.67 0.60 0.65 0.35 0.56 0.65 0.31 0.24 0.30 0.19 0.03 0.05 0.12 0.09 0.15 0.30 0.34 0.42 0.30 0.17 0.23 0.14 0.10 0.15 0.11 0.12 0.14
0.86 1.01 0.77 0.62 0.64 0.53 0.51 0.54 0.36 0.13 0.03 0.01 0.02 0.05 0.04 0.05 0.62 1.16 1.33 1.06 0.65 0.44 0.43 0.40 0.40 0.37 0.48 0.55 0.38 0.42 0.50 0.46 0.70 0.47 0.32 0.31 0.30 0.12 0.07 0.05 0.04 0.08 0.18 0.14 0.31 0.32 0.20 0.30 0.35 0.25 0.29 0.33 0.34 0.35
0.88 0.96 0.86 0.68 0.62 0.38 0.38 0.44 0.25 0.04 0.02 0.04 0.06 0.06 0.12 0.44 1.03 0.97 0.96 0.59 0.25 0.21 0.22 0.27 0.28 0.33 0.43 0.30 0.49 0.40 0.36 0.33 0.35 0.32 0.45 0.41 0.27 0.18 0.20 0.09 0.06 0.04 0.06 0.07 0.10 0.22 0.18 0.11 0.16 0.19 0.27 0.30 0.29 0.34
0.89 0.88 0.77 0.59 0.55 0.38 0.32 0.28 0.14 0.04 0.04 0.02 0.05 0.16 0.30 0.56 0.73 0.55 0.45 0.25 0.10 0.09 0.08 0.11 0.26 0.22 0.39 0.36 0.41 0.46 0.26 0.16 0.34 0.44 0.40 0.18 0.06 0.03 0.10 0.19 0.20 0.16 0.10 0.25 0.27 0.18 0.11 0.09 0.11 0.14 0.15 0.11 0.10 0.11
0.90 0.83 0.62 0.54 0.50 0.38 0.27 0.14 0.12 0.10 0.05 0.01 0.07 0.15 0.25 0.32 0.37 0.27 0.17 0.15 0.05 0.04 0.03 0.05 0.12 0.20 0.27 0.23 0.24 0.26 0.13 0.28 0.49 0.33 0.22 0.07 0.06 0.04 0.02 0.05 0.10 0.14 0.13 0.24 0.56 0.60 0.44 0.44 0.40 0.30 0.21 0.15 0.12 0.11
0.88 0.83 0.66 0.64 0.51 0.41 0.28 0.13 0.15 0.16 0.06 0.05 0.11 0.13 0.15 0.22 0.09 0.05 0.04 0.06 0.02 0.02 0.03 0.02 0.08 0.13 0.18 0.23 0.21 0.20 0.28 0.46 0.31 0.26 0.17 0.10 0.09 0.08 0.06 0.03 0.03 0.07 0.13 0.16 0.25 0.33 0.40 0.29 0.16 0.20 0.27 0.25 0.17 0.13
0.99 1.12 0.89 0.77 0.59 0.48 0.28 0.14 0.27 0.34 0.11 0.04 0.08 0.15 0.11 0.07 0.05 0.01 0.01 0.02 0.02 0.02 0.05 0.06 0.11 0.14 0.16 0.26 0.21 0.27 0.47 0.40 0.23 0.15 0.10 0.05 0.09 0.07 0.05 0.04 0.01 0.00 0.01 0.06 0.14 0.19 0.24 0.22 0.16 0.13 0.17 0.27 0.23 0.20
1.34 1.39 0.98 0.83 0.70 0.48 0.24 0.12 0.21 0.35 0.24 0.10 0.03 0.09 0.10 0.06 0.06 0.04 0.02 0.00 0.01 0.07 0.17 0.25 0.26 0.13 0.12 0.14 0.13 0.21 0.31 0.19 0.09 0.06 0.02 0.01 0.01 0.01 0.01 0.00 0.00 0.00 0.01 0.03 0.09 0.13 0.20 0.25 0.24 0.18 0.16 0.16 0.16 0.22
0.78 0.62 0.80 0.90 0.73 0.58 0.45 0.27 0.18 0.26 0.19 0.04 0.00 0.01 0.01 0.03 0.04 0.05 0.03 0.02 0.02 0.11 0.27 0.50 0.30 0.15 0.05 0.03 0.03 0.07 0.10 0.06 0.06 0.03 0.02 0.01 0.00 0.00 0.01 0.02 0.00 0.03 0.12 0.18 0.17 0.16 0.17 0.17 0.16 0.12 0.11 0.10 0.10 0.09
0.49 0.47 0.75 0.69 0.47 0.39 0.45 0.39 0.17 0.08 0.02 0.00 0.00 0.00 0.00 0.00 0.03 0.04 0.03 0.03 0.05 0.12 0.22 0.32 0.25 0.08 0.00 0.00 0.01 0.00 0.00 0.01 0.01 0.01 0.01 0.00 0.00 0.00 0.01 0.04 0.06 0.07 0.20 0.14 0.05 0.06 0.05 0.06 0.09 0.10 0.10 0.10 0.10 0.09
0.67 0.72 0.68 0.52 0.22 0.25 0.21 0.26 0.10 0.01 0.00 0.00 0.00 0.00 0.00 0.00 0.01 0.03 0.06 0.04 0.07 0.27 0.33 0.20 0.06 0.03 0.03 0.03 0.03 0.02 0.00 0.00 0.00 0.00 0.00 0.00 0.00 0.00 0.00 0.02 0.05 0.07 0.08 0.08 0.09 0.10 0.09 0.07 0.06 0.06 0.06 0.07 0.11 0.11
1.54 1.15 0.91 0.69 0.63 0.35 0.16 0.07 0.03 0.01 0.00 0.00 0.00 0.01 0.01 0.00 0.01 0.01 0.07 0.16 0.23 0.33 0.27 0.13 0.05 0.03 0.04 0.06 0.05 0.03 0.00 0.00 0.00 0.00 0.00 0.00 0.00 0.00 0.00 0.00 0.00 0.01 0.02 0.03 0.05 0.06 0.08 0.07 0.08 0.08 0.07 0.10 0.12 0.11
1.81 1.16 1.04 0.96 0.76 0.36 0.15 0.06 0.01 0.01 0.01 0.00 0.01 0.02 0.02 0.01 0.01 0.04 0.08 0.20 0.29 0.16 0.12 0.12 0.13 0.11 0.08 0.07 0.07 0.07 0.05 0.02 0.00 0.00 0.00 0.00 0.00 0.00 0.00 0.00 0.00 0.00 0.00 0.01 0.01 0.01 0.01 0.02 0.03 0.05 0.07 0.10 0.13 0.09
1.14 0.85 0.76 0.73 0.61 0.35 0.19 0.03 0.03 0.03 0.02 0.04 0.04 0.04 0.05 0.04 0.04 0.05 0.11 0.11 0.12 0.10 0.08 0.08 0.12 0.16 0.17 0.14 0.14 0.12 0.11 0.08 0.04 0.02 0.01 0.00 0.00 0.00 0.00 0.00 0.00 0.00 0.01 0.01 0.01 0.01 0.00 0.00 0.00 0.00 0.00 0.02 0.06 0.08
0.64 0.83 0.80 0.60 0.31 0.19 0.13 0.11 0.07 0.05 0.05 0.04 0.06 0.05 0.03 0.02 0.04 0.07 0.06 0.04 0.03 0.04 0.08 0.12 0.11 0.10 0.10 0.12 0.14 0.18 0.21 0.19 0.13 0.09 0.07 0.05 0.03 0.02 0.01 0.01 0.00 0.00 0.01 0.01 0.00 0.00 0.00 0.00 0.00 0.00 0.00 0.00 0.01 0.02
1.08 0.97 0.63 0.53 0.23 0.09 0.04 0.05 0.05 0.05 0.04 0.04 0.05 0.03 0.02 0.03 0.04 0.03 0.02 0.00 0.01 0.03 0.06 0.09 0.11 0.12 0.11 0.10 0.10 0.10 0.12 0.19 0.21 0.19 0.18 0.15 0.12 0.11 0.09 0.06 0.03 0.01 0.01 0.02 0.02 0.01 0.00 0.00 0.00 0.00 0.00 0.01 0.03 0.04
1.06 0.61 0.29 0.10 0.05 0.02 0.01 0.01 0.02 0.02 0.03 0.04 0.04 0.02 0.02 0.04 0.03 0.01 0.00 0.00 0.01 0.03 0.05 0.07 0.07 0.08 0.07 0.08 0.10 0.12 0.13 0.15 0.16 0.18 0.22 0.25 0.21 0.18 0.17 0.16 0.11 0.07 0.05 0.06 0.08 0.07 0.04 0.01 0.01 0.01 0.01 0.03 0.06 0.06
0.58 0.34 0.11 0.02 0.01 0.01 0.01 0.01 0.02 0.04 0.06 0.06 0.03 0.02 0.04 0.07 0.02 0.01 0.01 0.00 0.01 0.02 0.04 0.08 0.12 0.11 0.08 0.10 0.11 0.12 0.15 0.17 0.18 0.16 0.22 0.33 0.34 0.27 0.19 0.17 0.16 0.12 0.13 0.14 0.12 0.10 0.09 0.07 0.06 0.06 0.07 0.07 0.08 0.09
0.21 0.03 0.02 0.03 0.01 0.02 0.03 0.06 0.09 0.09 0.06 0.03 0.05 0.04 0.04 0.03 0.01 0.00 0.00 0.00 0.01 0.02 0.04 0.08 0.12 0.15 0.14 0.12 0.14 0.16 0.18 0.21 0.25 0.26 0.30 0.36 0.40 0.40 0.34 0.30 0.30 0.31 0.30 0.22 0.19 0.19 0.17 0.15 0.14 0.15 0.17 0.14 0.11 0.11
0.03 0.01 0.01 0.03 0.02 0.03 0.04 0.05 0.04 0.02 0.00 0.00 0.02 0.01 0.00 0.00 0.00 0.00 0.01 0.01 0.02 0.04 0.06 0.09 0.12 0.14 0.17 0.18 0.19 0.22 0.24 0.24 0.20 0.19 0.15 0.20 0.29 0.41 0.45 0.42 0.44 0.44 0.38 0.35 0.32 0.28 0.27 0.30 0.29 0.30 0.30 0.29 0.25 0.25
0.02 0.00 0.01 0.03 0.03 0.03 0.03 0.03 0.02 0.01 0.00 0.00 0.00 0.00 0.00 0.01 0.01 0.01 0.02 0.03 0.04 0.07 0.11 0.14 0.16 0.19 0.21 0.22 0.23 0.23 0.25 0.28 0.26 0.17 0.16 0.16 0.20 0.31 0.40 0.41 0.44 0.47 0.47 0.42 0.48 0.53 0.51 0.50 0.50 0.48 0.43 0.39 0.35 0.31
0.01 0.01 0.01 0.01 0.01 0.02 0.03 0.03 0.02 0.02 0.02 0.02 0.02 0.02 0.01 0.01 0.01 0.01 0.02 0.04 0.07 0.11 0.16 0.19 0.22 0.27 0.28 0.30 0.29 0.27 0.26 0.32 0.37 0.36 0.31 0.34 0.32 0.32 0.38 0.43 0.45 0.46 0.48 0.44 0.39 0.37 0.36 0.31 0.28 0.27 0.28 0.27 0.26 0.25
0.02 0.01 0.01 0.01 0.02 0.03 0.04 0.04 0.03 0.02 0.02 0.02 0.02 0.02 0.01 0.01 0.01 0.01 0.02 0.05 0.10 0.13 0.17 0.21 0.21 0.26 0.31 0.31 0.33 0.35 0.30 0.31 0.36 0.39 0.37 0.34 0.33 0.34 0.38 0.41 0.43 0.44 0.44 0.44 0.40 0.39 0.38 0.37 0.39 0.35 0.35 0.34 0.32 0.29
0.08 0.07 0.05 0.05 0.08 0.06 0.04 0.04 0.05 0.04 0.01 0.01 0.01 0.01 0.01 0.01 0.01 0.02 0.03 0.07 0.11 0.14 0.16 0.21 0.26 0.28 0.28 0.28 0.31 0.35 0.38 0.39 0.41 0.44 0.47 0.45 0.44 0.46 0.42 0.38 0.40 0.41 0.40 0.41 0.44 0.45 0.47 0.43 0.41 0.40 0.36 0.33 0.31 0.30

GFSWCAN_prec_precacc_084.txt.gz
Total_Precipitation_Accumulation
0.92 0.92 1.01 1.02 1.07 1.16 1.17 1.24 1.34 1.40 1.49 1.01 0.80 0.60 0.35 0.29 0.20 0.19 0.29 0.37 0.42 0.13 0.02 0.00 0.00 0.01 0.00 0.00 0.02 0.02 0.09 0.13 0.20 0.26 0.24 0.10 0.03 0.01 0.00 0.00 0.00 0.02 0.04 0.06 0.06 0.10 0.01 0.00 0.00 0.00 0.00 0.00 0.00 0.01
0.86 0.77 0.87 0.83 0.69 0.66 0.53 0.64 0.85 0.97 0.84 0.65 0.60 0.42 0.24 0.22 0.21 0.25 0.26 0.29 0.25 0.15 0.01 0.00 0.00 0.00 0.00 0.00 0.02 0.01 0.08 0.12 0.22 0.24 0.19 0.09 0.04 0.01 0.00 0.01 0.00 0.00 0.00 0.00 0.00 0.00 0.00 0.00 0.00 0.00 0.00 0.00 0.00 0.00
0.78 0.80 0.92 1.08 0.99 0.88 0.74 0.72 0.90 1.13 0.70 0.58 0.45 0.26 0.15 0.17 0.17 0.30 0.30 0.23 0.24 0.25 0.05 0.03 0.02 0.00 0.00 0.00 0.00 0.04 0.07 0.15 0.23 0.21 0.32 0.15 0.06 0.04 0.02 0.01 0.00 0.00 0.00 0.00 0.00 0.00 0.00 0.00 0.00 0.00 0.00 0.00 0.00 0.01
0.73 0.71 0.73 0.99 1.25 1.27 1.31 1.21 1.15 1.09 0.66 0.60 0.38 0.21 0.12 0.11 0.16 0.23 0.11 0.10 0.22 0.26 0.19 0.05 0.01 0.02 0.01 0.02 0.02 0.02 0.09 0.17 0.29 0.48 0.33 0.19 0.08 0.03 0.02 0.01 0.00 0.01 0.00 0.00 0.00 0.00 0.00 0.00 0.00 0.00 0.00 0.00 0.00 0.00
1.03 0.89 0.66 0.65 0.80 0.85 1.01 1.12 1.01 0.88 0.60 0.53 0.43 0.17 0.15 0.18 0.16 0.08 0.02 0.07 0.16 0.32 0.34 0.18 0.16 0.01 0.01 0.05 0.04 0.06 0.11 0.30 0.34 0.59 0.57 0.22 0.09 0.06 0.02 0.01 0.00 0.00 0.00 0.00 0.00 0.00 0.00 0.00 0.00 0.00 0.00 0.00 0.00 0.00
1.00 1.13 1.22 0.81 0.64 0.69 0.82 0.71 0.57 0.59 0.57 0.49 0.26 0.19 0.17 0.10 0.14 0.15 0.20 0.36 0.28 0.32 0.60 0.43 0.34 0.16 0.06 0.09 0.09 0.15 0.22 0.43 0.67 0.50 0.53 0.33 0.13 0.20 0.17 0.05 0.00 0.00 0.00 0.00 0.00 0.00 0.00 0.00 0.00 0.00 0.00 0.00 0.00 0.00
0.80 0.98 1.29 1.41 0.88 0.65 0.77 0.80 0.53 0.54 0.49 0.30 0.18 0.13 0.07 0.04 0.11 0.12 0.25 0.62 0.58 0.57 0.68 0.78 0.66 0.48 0.14 0.23 0.27 0.30 0.31 0.55 0.89 0.66 0.41 0.33 0.29 0.53 0.34 0.05 0.00 0.01 0.01 0.01 0.01 0.00 0.00 0.00 0.00 0.00 0.00 0.00 0.00 0.00
0.73 0.75 0.93 1.40 1.17 0.75 0.62 0.86 0.57 0.51 0.33 0.16 0.08 0.04 0.01 0.08 0.06 0.07 0.05 0.19 0.49 0.88 0.91 1.04 0.98 0.96 0.32 0.53 0.46 0.40 0.39 0.48 1.03 0.74 0.34 0.24 0.35 0.35 0.20 0.02 0.05 0.04 0.04 0.02 0.01 0.02 0.01 0.01 0.00 0.00 0.00 0.00 0.00 0.00
0.88 0.76 0.68 0.88 1.22 0.75 0.64 0.75 0.72 0.43 0.18 0.05 0.00 0.01 0.08 0.06 0.04 0.12 0.21 0.40 0.63 1.02 0.82 0.77 0.90 0.80 0.64 0.64 0.48 0.56 0.47 0.57 0.72 0.54 0.23 0.25 0.27 0.29 0.06 0.08 0.11 0.14 0.15 0.17 0.13 0.06 0.06 0.05 0.02 0.03 0.02 0.03 0.04 0.04
0.95 1.00 0.69 0.62 0.90 0.72 0.61 0.65 0.55 0.21 0.09 0.01 0.01 0.04 0.11 0.02 0.05 0.48 0.83 1.06 1.07 0.83 0.58 0.62 0.54 0.45 0.89 0.67 0.60 0.65 0.35 0.56 0.65 0.31 0.24 0.30 0.19 0.03 0.05 0.12 0.09 0.15 0.30 0.34 0.42 0.30 0.17 0.23 0.14 0.10 0.15 0.11 0.12 0.14
0.86 1.01 0.77 0.62 0.64 0.53 0.51 0.54 0.41 0.13 0.03 0.01 0.02 0.05 0.04 0.05 0.62 1.16 1.33 1.06 0.65 0.44 0.43 0.40 0.40 0.37 0.48 0.55 0.38 0.42 0.50 0.46 0.70 0.47 0.32 0.31 0.30 0.12 0.07 0.05 0.04 0.08 0.18 0.14 0.31 0.32 0.20 0.30 0.35 0.25 0.29 0.33 0.34 0.35
0.88 0.96 0.86 0.68 0.62 0.38 0.38 0.44 0.29 0.04 0.02 0.04 0.06 0.06 0.12 0.44 1.03 0.97 0.96 0.59 0.25 0.21 0.22 0.27 0.28 0.33 0.43 0.30 0.49 0.40 0.36 0.33 0.35 0.32 0.45 0.41 0.27 0.18 0.20 0.09 0.06 0.04 0.06 0.07 0.10 0.22 0.18 0.11 0.16 0.19 0.27 0.30 0.29 0.34
0.89 0.88 0.77 0.59 0.55 0.38 0.33 0.28 0.16 0.05 0.04 0.02 0.05 0.16 0.30 0.56 0.73 0.55 0.45 0.25 0.10 0.09 0.08 0.11 0.26 0.22 0.39 0.36 0.41 0.46 0.26 0.16 0.34 0.44 0.40 0.18 0.06 0.03 0.10 0.19 0.20 0.16 0.10 0.25 0.27 0.18 0.11 0.09 0.11 0.14 0.15 0.11 0.10 0.11
0.90 0.83 0.62 0.54 0.50 0.38 0.29 0.16 0.14 0.12 0.06 0.01 0.07 0.15 0.25 0.32 0.37 0.27 0.17 0.15 0.05 0.04 0.03 0.05 0.12 0.20 0.27 0.23 0.24 0.26 0.13 0.28 0.49 0.33 0.22 0.07 0.06 0.04 0.02 0.05 0.10 0.14 0.13 0.24 0.56 0.60 0.44 0.44 0.40 0.30 0.21 0.15 0.12 0.11
0.88 0.83 0.66 0.65 0.51 0.42 0.30 0.15 0.16 0.17 0.07 0.06 0.11 0.13 0.15 0.22 0.09 0.05 0.04 0.06 0.02 0.02 0.03 0.02 0.08 0.13 0.18 0.23 0.21 0.20 0.28 0.46 0.31 0.26 0.17 0.10 0.09 0.08 0.06 0.03 0.03 0.07 0.13 0.16 0.25 0.33 0.40 0.29 0.16 0.20 0.27 0.25 0.17 0.13
0.99 1.12 0.89 0.77 0.59 0.49 0.32 0.16 0.27 0.35 0.15 0.06 0.08 0.15 0.11 0.07 0.05 0.01 0.01 0.02 0.02 0.02 0.05 0.06 0.11 0.14 0.16 0.26 0.21 0.27 0.47 0.40 0.23 0.15 0.10 0.05 0.09 0.07 0.05 0.04 0.01 0.00 0.01 0.06 0.14 0.19 0.24 0.22 0.16 0.13 0.17 0.27 0.23 0.20
1.34 1.40 0.98 0.84 0.71 0.52 0.28 0.13 0.22 0.37 0.29 0.13 0.03 0.09 0.10 0.06 0.06 0.04 0.02 0.00 0.01 0.07 0.17 0.25 0.26 0.13 0.12 0.14 0.13 0.21 0.31 0.19 0.09 0.06 0.02 0.01 0.01 0.01 0.01 0.00 0.00 0.00 0.01 0.03 0.09 0.13 0.20 0.25 0.24 0.18 0.16 0.16 0.16 0.22
0.78 0.62 0.80 0.92 0.76 0.64 0.53 0.30 0.19 0.27 0.22 0.04 0.00 0.01 0.01 0.03 0.04 0.05 0.03 0.02 0.02 0.11 0.27 0.50 0.30 0.15 0.05 0.03 0.03 0.07 0.10 0.06 0.06 0.03 0.02 0.01 0.00 0.00 0.01 0.02 0.00 0.03 0.12 0.18 0.17 0.16 0.17 0.17 0.16 0.12 0.11 0.10 0.10 0.09
0.49 0.47 0.76 0.72 0.49 0.43 0.52 0.46 0.19 0.09 0.02 0.00 0.00 0.00 0.00 0.00 0.03 0.04 0.03 0.03 0.05 0.12 0.22 0.32 0.25 0.08 0.00 0.00 0.01 0.00 0.00 0.01 0.01 0.01 0.01 0.00 0.00 0.00 0.01 0.04 0.06 0.07 0.20 0.14 0.05 0.06 0.05 0.06 0.09 0.10 0.10 0.10 0.10 0.09
0.67 0.72 0.70 0.55 0.23 0.28 0.25 0.32 0.14 0.01 0.00 0.00 0.00 0.00 0.00 0.00 0.01 0.04 0.07 0.04 0.07 0.28 0.33 0.20 0.06 0.03 0.03 0.03 0.03 0.02 0.00 0.00 0.00 0.00 0.00 0.00 0.00 0.00 0.00 0.02 0.05 0.07 0.08 0.08 0.09 0.10 0.09 0.07 0.06 0.06 0.06 0.08 0.11 0.11
1.56 1.16 1.02 0.83 0.74 0.42 0.19 0.08 0.03 0.01 0.00 0.00 0.00 0.01 0.01 0.00 0.01 0.02 0.07 0.16 0.24 0.34 0.27 0.13 0.05 0.03 0.04 0.06 0.05 0.03 0.00 0.00 0.00 0.00 0.00 0.00 0.00 0.00 0.00 0.00 0.00 0.01 0.02 0.03 0.05 0.06 0.08 0.07 0.08 0.08 0.07 0.10 0.12 0.11
1.84 1.18 1.24 1.16 0.84 0.45 0.18 0.08 0.01 0.01 0.01 0.01 0.01 0.02 0.02 0.01 0.02 0.04 0.09 0.21 0.30 0.16 0.12 0.12 0.13 0.11 0.08 0.07 0.07 0.07 0.05 0.02 0.00 0.00 0.00 0.00 0.00 0.00 0.00 0.00 0.00 0.00 0.00 0.01 0.01 0.01 0.01 0.02 0.03 0.05 0.07 0.10 0.13 0.09
1.21 0.87 0.83 0.87 0.68 0.40 0.24 0.06 0.04 0.04 0.03 0.05 0.05 0.05 0.05 0.05 0.05 0.08 0.15 0.13 0.12 0.10 0.08 0.09 0.12 0.16 0.17 0.14 0.14 0.12 0.11 0.08 0.04 0.02 0.01 0.00 0.00 0.00 0.00 0.00 0.00 0.00 0.01 0.01 0.01 0.01 0.00 0.00 0.00 0.00 0.00 0.02 0.06 0.08
0.70 0.88 0.85 0.69 0.36 0.23 0.16 0.14 0.10 0.07 0.06 0.06 0.07 0.06 0.03 0.02 0.06 0.11 0.10 0.04 0.03 0.04 0.09 0.12 0.11 0.10 0.10 0.12 0.14 0.18 0.21 0.19 0.13 0.09 0.07 0.05 0.03 0.02 0.01 0.01 0.00 0.00 0.01 0.01 0.00 0.00 0.00 0.00 0.00 0.00 0.00 0.00 0.01 0.02
1.20 1.09 0.69 0.60 0.28 0.10 0.05 0.06 0.06 0.06 0.05 0.05 0.05 0.03 0.02 0.04 0.04 0.04 0.02 0.00 0.01 0.03 0.06 0.09 0.11 0.12 0.11 0.11 0.11 0.11 0.12 0.19 0.21 0.19 0.18 0.15 0.12 0.11 0.09 0.06 0.03 0.01 0.01 0.02 0.02 0.01 0.00 0.00 0.00 0.00 0.00 0.01 0.03 0.04
1.15 0.69 0.33 0.11 0.05 0.02 0.01 0.01 0.02 0.02 0.03 0.04 0.04 0.02 0.02 0.04 0.03 0.01 0.00 0.00 0.01 0.04 0.05 0.07 0.07 0.08 0.07 0.08 0.10 0.13 0.13 0.15 0.16 0.18 0.22 0.25 0.21 0.18 0.17 0.16 0.11 0.07 0.05 0.06 0.08 0.07 0.04 0.01 0.01 0.01 0.02 0.03 0.06 0.06
0.71 0.47 0.18 0.03 0.01 0.01 0.01 0.01 0.02 0.04 0.06 0.06 0.03 0.02 0.04 0.07 0.02 0.01 0.01 0.00 0.01 0.02 0.04 0.08 0.13 0.11 0.09 0.10 0.11 0.12 0.15 0.17 0.18 0.16 0.22 0.33 0.34 0.27 0.19 0.17 0.16 0.12 0.13 0.14 0.12 0.11 0.09 0.07 0.06 0.06 0.07 0.07 0.08 0.09
0.35 0.08 0.03 0.03 0.01 0.02 0.03 0.06 0.09 0.09 0.06 0.03 0.05 0.04 0.04 0.03 0.01 0.00 0.00 0.00 0.01 0.02 0.04 0.09 0.13 0.15 0.14 0.12 0.14 0.16 0.18 0.21 0.25 0.26 0.30 0.36 0.40 0.40 0.34 0.30 0.30 0.31 0.30 0.22 0.19 0.19 0.17 0.16 0.14 0.16 0.17 0.14 0.11 0.11
0.09 0.02 0.01 0.03 0.02 0.03 0.04 0.05 0.04 0.02 0.00 0.00 0.02 0.01 0.00 0.00 0.00 0.00 0.01 0.02 0.02 0.04 0.06 0.09 0.12 0.14 0.17 0.18 0.19 0.22 0.24 0.24 0.20 0.19 0.15 0.20 0.29 0.41 0.45 0.42 0.44 0.44 0.38 0.36 0.32 0.28 0.27 0.30 0.30 0.30 0.30 0.29 0.25 0.25
0.02 0.00 0.01 0.03 0.03 0.03 0.03 0.03 0.02 0.01 0.00 0.00 0.00 0.00 0.00 0.01 0.01 0.02 0.02 0.04 0.05 0.08 0.11 0.14 0.17 0.19 0.21 0.22 0.23 0.23 0.25 0.28 0.26 0.17 0.16 0.16 0.20 0.31 0.40 0.41 0.44 0.47 0.47 0.42 0.48 0.53 0.51 0.50 0.50 0.48 0.43 0.39 0.35 0.31
0.01 0.01 0.01 0.01 0.01 0.02 0.03 0.03 0.02 0.02 0.02 0.02 0.02 0.02 0.02 0.01 0.02 0.02 0.02 0.04 0.07 0.11 0.16 0.19 0.22 0.27 0.28 0.30 0.29 0.27 0.26 0.32 0.37 0.36 0.31 0.34 0.32 0.32 0.38 0.43 0.45 0.47 0.48 0.44 0.39 0.37 0.36 0.31 0.28 0.27 0.28 0.27 0.26 0.25
0.02 0.01 0.01 0.01 0.02 0.04 0.04 0.04 0.03 0.02 0.02 0.02 0.02 0.02 0.02 0.01 0.01 0.01 0.03 0.06 0.10 0.13 0.17 0.21 0.21 0.26 0.31 0.31 0.33 0.35 0.30 0.31 0.36 0.39 0.37 0.34 0.33 0.34 0.38 0.41 0.44 0.44 0.44 0.44 0.40 0.39 0.38 0.37 0.39 0.35 0.35 0.35 0.32 0.29
0.08 0.07 0.05 0.05 0.08 0.07 0.04 0.04 0.05 0.04 0.01 0.01 0.01 0.01 0.02 0.01 0.01 0.02 0.03 0.07 0.11 0.14 0.16 0.21 0.26 0.28 0.28 0.28 0.31 0.35 0.38 0.39 0.41 0.44 0.47 0.45 0.44 0.47 0.42 0.38 0.40 0.41 0.40 0.41 0.44 0.45 0.47 0.43 0.41 0.40 0.36 0.34 0.31 0.30

GFSWCAN_prec_precacc_087.txt.gz
Total_Precipitation_Accumulation
0.92 0.92 1.01 1.02 1.07 1.16 1.17 1.24 1.34 1.41 1.49 1.01 0.80 0.60 0.35 0.29 0.20 0.19 0.29 0.37 0.42 0.13 0.02 0.00 0.00 0.01 0.00 0.00 0.02 0.02 0.09 0.13 0.20 0.26 0.24 0.10 0.03 0.01 0.00 0.00 0.00 0.02 0.04 0.06 0.06 0.10 0.01 0.00 0.00 0.00 0.00 0.00 0.00 0.01
0.86 0.77 0.87 0.83 0.69 0.66 0.53 0.64 0.85 0.97 0.84 0.65 0.60 0.42 0.24 0.22 0.21 0.25 0.26 0.29 0.25 0.15 0.01 0.00 0.00 0.00 0.00 0.00 0.02 0.01 0.08 0.12 0.22 0.24 0.19 0.09 0.04 0.01 0.00 0.01 0.00 0.00 0.00 0.00 0.00 0.00 0.00 0.00 0.00 0.00 0.00 0.00 0.00 0.00
0.78 0.80 0.92 1.08 0.99 0.88 0.74 0.72 0.90 1.13 0.70 0.58 0.45 0.26 0.15 0.17 0.17 0.30 0.30 0.23 0.24 0.25 0.05 0.03 0.02 0.00 0.00 0.00 0.00 0.04 0.07 0.15 0.23 0.21 0.32 0.15 0.06 0.04 0.02 0.01 0.00 0.00 0.00 0.00 0.00 0.00 0.00 0.00 0.00 0.00 0.00 0.00 0.00 0.01
0.73 0.71 0.73 0.99 1.25 1.27 1.31 1.21 1.15 1.09 0.66 0.60 0.38 0.21 0.12 0.11 0.16 0.23 0.11 0.10 0.22 0.26 0.19 0.05 0.01 0.02 0.01 0.02 0.02 0.02 0.09 0.17 0.29 0.48 0.33 0.19 0.08 0.03 0.02 0.01 0.00 0.01 0.00 0.00 0.00 0.00 0.00 0.00 0.00 0.00 0.00 0.00 0.00 0.00
1.03 0.89 0.66 0.65 0.80 0.85 1.01 1.12 1.01 0.88 0.60 0.53 0.43 0.17 0.15 0.18 0.16 0.08 0.02 0.07 0.16 0.32 0.34 0.18 0.16 0.01 0.01 0.05 0.04 0.06 0.11 0.30 0.34 0.59 0.57 0.22 0.09 0.06 0.02 0.01 0.00 0.00 0.00 0.00 0.00 0.00 0.00 0.00 0.00 0.00 0.00 0.00 0.00 0.00
1.00 1.13 1.22 0.81 0.64 0.69 0.82 0.71 0.57 0.59 0.57 0.49 0.26 0.19 0.17 0.10 0.14 0.15 0.20 0.36 0.28 0.32 0.60 0.43 0.34 0.16 0.06 0.09 0.09 0.15 0.22 0.43 0.67 0.50 0.53 0.33 0.13 0.20 0.17 0.05 0.00 0.00 0.00 0.00 0.00 0.00 0.00 0.00 0.00 0.00 0.00 0.00 0.00 0.00
0.80 0.98 1.29 1.41 0.88 0.65 0.77 0.80 0.53 0.54 0.49 0.30 0.18 0.13 0.07 0.04 0.11 0.12 0.25 0.62 0.58 0.57 0.68 0.78 0.66 0.48 0.14 0.23 0.27 0.30 0.31 0.55 0.89 0.66 0.41 0.33 0.29 0.53 0.34 0.05 0.00 0.01 0.01 0.01 0.01 0.00 0.00 0.00 0.00 0.00 0.00 0.00 0.00 0.00
0.73 0.75 0.93 1.40 1.17 0.75 0.62 0.86 0.57 0.51 0.33 0.16 0.08 0.04 0.01 0.08 0.06 0.07 0.05 0.19 0.49 0.88 0.91 1.04 0.98 0.96 0.32 0.53 0.46 0.40 0.39 0.48 1.03 0.74 0.34 0.24 0.35 0.35 0.20 0.02 0.05 0.04 0.04 0.02 0.01 0.02 0.01 0.01 0.00 0.00 0.00 0.00 0.00 0.00
0.88 0.76 0.68 0.88 1.22 0.75 0.64 0.75 0.72 0.43 0.18 0.05 0.00 0.01 0.08 0.06 0.04 0.12 0.21 0.40 0.63 1.02 0.82 0.77 0.90 0.80 0.64 0.64 0.48 0.56 0.47 0.57 0.72 0.54 0.23 0.25 0.27 0.29 0.06 0.08 0.11 0.14 0.15 0.17 0.13 0.06 0.06 0.05 0.02 0.03 0.02 0.03 0.04 0.04
0.95 1.00 0.69 0.62 0.90 0.72 0.61 0.65 0.56 0.21 0.09 0.01 0.01 0.04 0.11 0.02 0.05 0.48 0.83 1.06 1.07 0.83 0.58 0.62 0.54 0.45 0.89 0.67 0.60 0.65 0.35 0.56 0.65 0.31 0.24 0.30 0.19 0.03 0.05 0.12 0.09 0.15 0.30 0.34 0.42 0.30 0.17 0.23 0.14 0.10 0.15 0.11 0.12 0.14
0.86 1.01 0.77 0.62 0.64 0.53 0.51 0.54 0.43 0.13 0.03 0.01 0.02 0.05 0.04 0.05 0.62 1.16 1.33 1.06 0.65 0.44 0.43 0.40 0.40 0.37 0.48 0.55 0.38 0.42 0.50 0.46 0.70 0.47 0.32 0.31 0.30 0.12 0.07 0.05 0.04 0.08 0.18 0.14 0.31 0.32 0.20 0.30 0.35 0.25 0.29 0.33 0.34 0.35
0.88 0.96 0.86 0.68 0.62 0.38 0.38 0.44 0.30 0.04 0.02 0.04 0.06 0.06 0.12 0.44 1.03 0.97 0.96 0.59 0.25 0.21 0.22 0.27 0.28 0.33 0.43 0.30 0.49 0.40 0.36 0.33 0.35 0.32 0.45 0.41 0.27 0.18 0.20 0.09 0.06 0.04 0.06 0.07 0.10 0.22 0.18 0.11 0.16 0.19 0.27 0.30 0.29 0.34
0.89 0.88 0.77 0.59 0.55 0.38 0.33 0.28 0.17 0.05 0.04 0.02 0.05 0.16 0.30 0.56 0.73 0.55 0.45 0.25 0.10 0.09 0.08 0.11 0.26 0.22 0.39 0.36 0.41 0.46 0.26 0.16 0.34 0.44 0.40 0.18 0.06 0.03 0.10 0.19 0.20 0.16 0.10 0.25 0.27 0.18 0.11 0.09 0.11 0.14 0.15 0.11 0.10 0.11
0.90 0.83 0.62 0.54 0.50 0.38 0.30 0.18 0.14 0.13 0.06 0.01 0.07 0.15 0.25 0.32 0.37 0.27 0.17 0.15 0.05 0.04 0.03 0.05 0.12 0.20 0.27 0.23 0.24 0.26 0.13 0.28 0.49 0.33 0.22 0.07 0.06 0.04 0.02 0.05 0.10 0.14 0.13 0.24 0.56 0.60 0.44 0.44 0.40 0.30 0.21 0.15 0.12 0.11
0.88 0.83 0.66 0.65 0.51 0.42 0.31 0.17 0.16 0.17 0.07 0.06 0.11 0.13 0.15 0.22 0.09 0.05 0.04 0.06 0.02 0.02 0.03 0.02 0.08 0.13 0.18 0.23 0.21 0.20 0.28 0.46 0.31 0.26 0.17 0.10 0.09 0.08 0.06 0.03 0.03 0.07 0.13 0.16 0.25 0.33 0.40 0.29 0.16 0.20 0.27 0.25 0.17 0.13
1.01 1.13 0.89 0.77 0.59 0.49 0.34 0.16 0.27 0.35 0.16 0.07 0.08 0.15 0.11 0.07 0.05 0.01 0.01 0.02 0.02 0.02 0.05 0.06 0.11 0.14 0.16 0.26 0.21 0.27 0.47 0.40 0.23 0.15 0.10 0.05 0.09 0.07 0.05 0.04 0.01 0.00 0.01 0.06 0.14 0.19 0.24 0.22 0.16 0.13 0.17 0.27 0.23 0.20
1.37 1.40 0.98 0.84 0.71 0.54 0.30 0.15 0.24 0.38 0.31 0.14 0.03 0.09 0.10 0.06 0.06 0.04 0.02 0.00 0.01 0.07 0.17 0.25 0.26 0.13 0.12 0.14 0.13 0.21 0.31 0.20 0.09 0.06 0.02 0.01 0.01 0.01 0.01 0.00 0.00 0.00 0.01 0.03 0.09 0.13 0.20 0.25 0.24 0.18 0.16 0.16 0.16 0.22
0.81 0.62 0.81 0.93 0.76 0.66 0.59 0.34 0.20 0.29 0.23 0.04 0.00 0.01 0.01 0.03 0.04 0.05 0.03 0.02 0.02 0.11 0.27 0.50 0.30 0.15 0.05 0.03 0.03 0.07 0.10 0.07 0.06 0.03 0.02 0.01 0.00 0.00 0.01 0.02 0.00 0.03 0.12 0.18 0.17 0.16 0.17 0.17 0.16 0.12 0.11 0.10 0.10 0.09
0.50 0.50 0.78 0.73 0.50 0.46 0.58 0.52 0.22 0.10 0.03 0.00 0.00 0.00 0.00 0.00 0.03 0.04 0.03 0.03 0.05 0.12 0.23 0.32 0.25 0.08 0.00 0.00 0.01 0.01 0.00 0.01 0.01 0.01 0.01 0.00 0.00 0.00 0.01 0.04 0.06 0.07 0.20 0.14 0.05 0.06 0.05 0.06 0.09 0.10 0.10 0.10 0.10 0.09
0.77 0.79 0.72 0.55 0.23 0.28 0.26 0.36 0.18 0.02 0.00 0.00 0.00 0.00 0.00 0.00 0.01 0.04 0.07 0.04 0.07 0.28 0.34 0.20 0.06 0.03 0.04 0.04 0.04 0.02 0.00 0.00 0.00 0.00 0.00 0.00 0.00 0.00 0.00 0.02 0.05 0.07 0.08 0.08 0.09 0.10 0.09 0.07 0.06 0.06 0.06 0.08 0.11 0.11
1.67 1.21 1.06 0.86 0.77 0.44 0.19 0.09 0.03 0.01 0.00 0.00 0.00 0.01 0.01 0.00 0.01 0.02 0.07 0.16 0.24 0.34 0.27 0.13 0.05 0.03 0.05 0.06 0.06 0.03 0.00 0.00 0.00 0.00 0.00 0.00 0.00 0.00 0.00 0.00 0.00 0.01 0.02 0.03 0.05 0.06 0.08 0.07 0.08 0.08 0.07 0.10 0.12 0.11
1.90 1.22 1.34 1.26 0.94 0.53 0.20 0.09 0.01 0.01 0.01 0.01 0.01 0.02 0.02 0.01 0.02 0.04 0.09 0.21 0.30 0.16 0.12 0.12 0.13 0.11 0.08 0.07 0.07 0.07 0.05 0.02 0.00 0.00 0.00 0.00 0.00 0.00 0.00 0.00 0.00 0.00 0.00 0.01 0.01 0.01 0.01 0.02 0.03 0.05 0.07 0.10 0.13 0.09
1.27 0.92 0.92 0.96 0.77 0.46 0.28 0.07 0.05 0.04 0.03 0.05 0.05 0.05 0.05 0.05 0.05 0.08 0.15 0.13 0.12 0.10 0.08 0.09 0.12 0.16 0.17 0.14 0.14 0.12 0.11 0.08 0.04 0.02 0.01 0.00 0.00 0.00 0.00 0.00 0.00 0.00 0.01 0.01 0.01 0.01 0.00 0.00 0.00 0.00 0.00 0.02 0.06 0.08
0.78 0.93 0.91 0.76 0.41 0.26 0.19 0.16 0.12 0.09 0.09 0.07 0.07 0.06 0.03 0.02 0.07 0.12 0.10 0.04 0.03 0.04 0.09 0.12 0.11 0.10 0.10 0.12 0.14 0.18 0.21 0.19 0.13 0.09 0.07 0.05 0.03 0.02 0.01 0.01 0.00 0.00 0.01 0.01 0.00 0.00 0.00 0.00 0.00 0.00 0.00 0.00 0.01 0.02
1.31 1.19 0.73 0.64 0.33 0.12 0.06 0.07 0.07 0.07 0.06 0.05 0.05 0.03 0.02 0.04 0.05 0.05 0.02 0.00 0.01 0.03 0.06 0.09 0.11 0.12 0.11 0.11 0.11 0.11 0.12 0.19 0.21 0.19 0.18 0.15 0.12 0.11 0.09 0.06 0.03 0.01 0.01 0.02 0.02 0.01 0.00 0.00 0.00 0.00 0.00 0.01 0.03 0.04
1.26 0.76 0.36 0.12 0.06 0.02 0.01 0.02 0.02 0.02 0.03 0.05 0.04 0.02 0.02 0.04 0.03 0.01 0.00 0.00 0.01 0.04 0.05 0.07 0.07 0.08 0.07 0.08 0.10 0.13 0.13 0.15 0.16 0.18 0.22 0.25 0.21 0.18 0.17 0.16 0.11 0.07 0.05 0.06 0.08 0.07 0.04 0.01 0.01 0.01 0.02 0.03 0.06 0.06
0.75 0.48 0.20 0.03 0.01 0.01 0.01 0.01 0.02 0.04 0.06 0.06 0.03 0.02 0.04 0.07 0.02 0.01 0.01 0.00 0.01 0.02 0.04 0.08 0.13 0.11 0.09 0.10 0.11 0.12 0.15 0.17 0.18 0.16 0.22 0.33 0.34 0.27 0.19 0.17 0.16 0.12 0.13 0.14 0.12 0.11 0.09 0.07 0.06 0.06 0.07 0.07 0.08 0.09
0.36 0.08 0.03 0.03 0.01 0.02 0.03 0.06 0.09 0.09 0.06 0.03 0.05 0.04 0.04 0.03 0.01 0.00 0.00 0.00 0.01 0.02 0.04 0.09 0.13 0.15 0.14 0.12 0.14 0.16 0.18 0.21 0.25 0.26 0.30 0.36 0.40 0.40 0.34 0.30 0.30 0.31 0.30 0.22 0.19 0.19 0.17 0.16 0.14 0.16 0.17 0.14 0.11 0.11
0.09 0.02 0.01 0.03 0.02 0.03 0.04 0.05 0.04 0.02 0.00 0.00 0.02 0.01 0.00 0.00 0.00 0.00 0.01 0.02 0.02 0.04 0.06 0.09 0.12 0.14 0.17 0.18 0.19 0.22 0.24 0.24 0.20 0.19 0.15 0.20 0.29 0.41 0.45 0.42 0.44 0.44 0.38 0.36 0.32 0.28 0.28 0.30 0.30 0.30 0.30 0.29 0.25 0.25
0.02 0.00 0.01 0.03 0.03 0.03 0.03 0.03 0.02 0.01 0.00 0.00 0.00 0.00 0.00 0.01 0.01 0.02 0.02 0.04 0.05 0.08 0.11 0.14 0.17 0.19 0.21 0.22 0.23 0.23 0.25 0.28 0.26 0.17 0.16 0.16 0.20 0.31 0.40 0.41 0.44 0.47 0.47 0.42 0.48 0.53 0.51 0.50 0.50 0.48 0.43 0.39 0.35 0.31
0.01 0.01 0.01 0.01 0.01 0.02 0.03 0.03 0.02 0.02 0.02 0.02 0.02 0.02 0.02 0.01 0.02 0.02 0.02 0.04 0.07 0.11 0.16 0.19 0.22 0.27 0.28 0.30 0.30 0.27 0.26 0.32 0.37 0.36 0.31 0.34 0.32 0.32 0.38 0.43 0.45 0.47 0.48 0.44 0.39 0.37 0.36 0.31 0.28 0.27 0.28 0.27 0.26 0.25
0.02 0.01 0.01 0.01 0.02 0.04 0.04 0.04 0.03 0.02 0.02 0.02 0.02 0.02 0.02 0.01 0.01 0.01 0.03 0.06 0.10 0.13 0.17 0.21 0.21 0.26 0.31 0.31 0.33 0.35 0.31 0.31 0.36 0.39 0.37 0.34 0.33 0.34 0.38 0.41 0.44 0.44 0.44 0.44 0.40 0.39 0.38 0.37 0.39 0.35 0.35 0.35 0.32 0.29
0.09 0.07 0.05 0.05 0.08 0.07 0.04 0.04 0.05 0.04 0.01 0.01 0.01 0.01 0.02 0.01 0.01 0.02 0.03 0.07 0.11 0.14 0.16 0.21 0.26 0.28 0.28 0.28 0.31 0.35 0.38 0.39 0.41 0.44 0.47 0.45 0.44 0.47 0.42 0.38 0.40 0.41 0.40 0.41 0.44 0.45 0.47 0.43 0.41 0.40 0.36 0.34 0.31 0.30

GFSWCAN_prec_precacc_090.txt.gz
Total_Precipitation_Accumulation
0.92 0.92 1.01 1.02 1.07 1.16 1.17 1.24 1.34 1.41 1.49 1.01 0.80 0.60 0.35 0.29 0.20 0.19 0.29 0.37 0.42 0.13 0.02 0.00 0.00 0.01 0.00 0.00 0.02 0.02 0.09 0.13 0.20 0.26 0.24 0.10 0.03 0.01 0.00 0.00 0.00 0.02 0.04 0.06 0.06 0.10 0.01 0.00 0.00 0.00 0.00 0.00 0.00 0.01
0.86 0.77 0.87 0.83 0.69 0.66 0.53 0.64 0.85 0.97 0.84 0.65 0.60 0.42 0.24 0.22 0.21 0.25 0.26 0.29 0.25 0.15 0.01 0.00 0.00 0.00 0.00 0.00 0.02 0.01 0.08 0.12 0.22 0.24 0.19 0.09 0.04 0.01 0.00 0.01 0.00 0.00 0.00 0.00 0.00 0.00 0.00 0.00 0.00 0.00 0.00 0.00 0.00 0.00
0.78 0.80 0.92 1.08 0.99 0.88 0.74 0.72 0.90 1.13 0.70 0.58 0.45 0.26 0.15 0.17 0.17 0.30 0.30 0.23 0.24 0.25 0.05 0.03 0.02 0.00 0.00 0.00 0.00 0.04 0.07 0.15 0.23 0.21 0.32 0.15 0.06 0.04 0.02 0.01 0.00 0.00 0.00 0.00 0.00 0.00 0.00 0.00 0.00 0.00 0.00 0.00 0.00 0.01
0.73 0.71 0.73 0.99 1.25 1.27 1.31 1.21 1.15 1.09 0.66 0.60 0.38 0.21 0.12 0.11 0.16 0.23 0.11 0.10 0.22 0.26 0.19 0.05 0.01 0.02 0.01 0.02 0.02 0.02 0.09 0.17 0.29 0.48 0.33 0.19 0.08 0.03 0.02 0.01 0.00 0.01 0.00 0.00 0.00 0.00 0.00 0.00 0.00 0.00 0.00 0.00 0.00 0.00
1.03 0.89 0.66 0.65 0.80 0.85 1.01 1.12 1.01 0.88 0.60 0.53 0.43 0.17 0.15 0.18 0.16 0.08 0.02 0.07 0.16 0.32 0.34 0.18 0.16 0.01 0.01 0.05 0.04 0.06 0.11 0.30 0.34 0.59 0.57 0.22 0.09 0.06 0.02 0.01 0.00 0.00 0.00 0.00 0.00 0.00 0.00 0.00 0.00 0.00 0.00 0.00 0.00 0.00
1.00 1.13 1.22 0.81 0.64 0.69 0.82 0.71 0.57 0.59 0.57 0.49 0.26 0.19 0.17 0.10 0.14 0.15 0.20 0.36 0.28 0.32 0.60 0.43 0.34 0.16 0.06 0.09 0.09 0.15 0.22 0.43 0.67 0.50 0.53 0.33 0.13 0.20 0.17 0.05 0.00 0.00 0.00 0.00 0.00 0.00 0.00 0.00 0.00 0.00 0.00 0.00 0.00 0.00
0.80 0.98 1.29 1.41 0.88 0.65 0.77 0.80 0.53 0.54 0.49 0.30 0.18 0.13 0.07 0.04 0.11 0.12 0.25 0.62 0.58 0.57 0.68 0.78 0.66 0.48 0.14 0.23 0.27 0.30 0.31 0.55 0.89 0.66 0.41 0.33 0.29 0.53 0.34 0.05 0.00 0.01 0.01 0.01 0.01 0.00 0.00 0.00 0.00 0.00 0.00 0.00 0.00 0.00
0.73 0.75 0.93 1.40 1.17 0.75 0.62 0.86 0.57 0.51 0.33 0.16 0.08 0.04 0.01 0.08 0.06 0.07 0.05 0.19 0.49 0.88 0.91 1.04 0.98 0.96 0.32 0.53 0.46 0.40 0.39 0.48 1.03 0.74 0.34 0.24 0.35 0.35 0.20 0.02 0.05 0.04 0.04 0.02 0.01 0.02 0.01 0.01 0.00 0.00 0.00 0.00 0.00 0.00
0.88 0.76 0.68 0.88 1.22 0.75 0.64 0.75 0.72 0.43 0.18 0.05 0.00 0.01 0.08 0.06 0.04 0.12 0.21 0.40 0.63 1.02 0.82 0.77 0.90 0.80 0.64 0.64 0.48 0.56 0.47 0.57 0.72 0.54 0.23 0.25 0.27 0.29 0.06 0.08 0.11 0.14 0.15 0.17 0.13 0.06 0.06 0.05 0.02 0.03 0.02 0.03 0.04 0.04
0.95 1.00 0.69 0.62 0.90 0.72 0.61 0.65 0.56 0.21 0.09 0.01 0.01 0.04 0.11 0.02 0.05 0.48 0.83 1.06 1.07 0.83 0.58 0.62 0.54 0.45 0.89 0.67 0.60 0.65 0.35 0.56 0.65 0.31 0.24 0.30 0.19 0.03 0.05 0.12 0.09 0.15 0.30 0.34 0.42 0.30 0.17 0.23 0.14 0.10 0.15 0.11 0.12 0.14
0.86 1.01 0.78 0.62 0.64 0.53 0.51 0.54 0.43 0.14 0.03 0.01 0.02 0.05 0.04 0.05 0.62 1.16 1.33 1.06 0.65 0.44 0.43 0.40 0.40 0.37 0.48 0.55 0.38 0.42 0.50 0.46 0.70 0.47 0.32 0.31 0.30 0.12 0.07 0.05 0.04 0.08 0.18 0.14 0.31 0.32 0.20 0.30 0.35 0.25 0.29 0.33 0.34 0.35
0.89 0.97 0.86 0.68 0.62 0.38 0.38 0.44 0.30 0.04 0.02 0.04 0.06 0.06 0.12 0.44 1.03 0.97 0.96 0.59 0.25 0.21 0.22 0.27 0.28 0.33 0.43 0.30 0.49 0.40 0.36 0.33 0.35 0.32 0.45 0.41 0.27 0.18 0.20 0.09 0.06 0.04 0.06 0.07 0.10 0.22 0.18 0.11 0.16 0.19 0.27 0.30 0.29 0.34
0.91 0.91 0.78 0.59 0.55 0.38 0.33 0.28 0.17 0.06 0.04 0.02 0.05 0.16 0.30 0.56 0.73 0.55 0.45 0.25 0.10 0.09 0.08 0.11 0.26 0.22 0.39 0.36 0.41 0.46 0.26 0.16 0.34 0.44 0.40 0.18 0.06 0.03 0.10 0.19 0.20 0.16 0.10 0.25 0.27 0.18 0.11 0.09 0.11 0.14 0.15 0.11 0.10 0.11
0.95 0.88 0.66 0.55 0.50 0.38 0.30 0.19 0.14 0.13 0.06 0.01 0.07 0.15 0.25 0.32 0.37 0.27 0.17 0.15 0.05 0.04 0.03 0.05 0.12 0.20 0.27 0.23 0.24 0.26 0.13 0.28 0.49 0.33 0.22 0.07 0.06 0.04 0.02 0.05 0.10 0.14 0.13 0.24 0.56 0.60 0.44 0.44 0.40 0.30 0.21 0.15 0.12 0.11
0.97 0.93 0.73 0.67 0.51 0.42 0.32 0.18 0.16 0.17 0.07 0.06 0.11 0.13 0.15 0.22 0.09 0.05 0.04 0.06 0.02 0.02 0.03 0.02 0.08 0.13 0.18 0.23 0.21 0.20 0.28 0.46 0.31 0.26 0.17 0.10 0.09 0.08 0.06 0.03 0.03 0.07 0.13 0.16 0.25 0.33 0.40 0.29 0.16 0.20 0.27 0.25 0.17 0.13
1.22 1.39 1.07 0.81 0.59 0.50 0.35 0.17 0.27 0.36 0.17 0.07 0.08 0.15 0.11 0.07 0.05 0.01 0.01 0.02 0.02 0.02 0.05 0.06 0.11 0.14 0.16 0.26 0.21 0.27 0.47 0.40 0.24 0.16 0.10 0.05 0.09 0.07 0.05 0.04 0.01 0.00 0.01 0.06 0.14 0.19 0.24 0.22 0.16 0.13 0.17 0.27 0.23 0.20
1.75 1.63 1.05 0.85 0.72 0.55 0.31 0.16 0.24 0.38 0.31 0.14 0.03 0.09 0.10 0.06 0.06 0.04 0.02 0.00 0.01 0.07 0.17 0.25 0.26 0.13 0.12 0.14 0.13 0.21 0.31 0.20 0.10 0.06 0.02 0.01 0.01 0.01 0.01 0.00 0.00 0.00 0.01 0.03 0.09 0.13 0.20 0.25 0.24 0.18 0.16 0.16 0.16 0.22
1.09 0.71 0.83 0.97 0.79 0.69 0.61 0.36 0.21 0.29 0.24 0.04 0.00 0.01 0.01 0.03 0.04 0.05 0.03 0.02 0.02 0.11 0.27 0.50 0.30 0.15 0.05 0.03 0.03 0.08 0.10 0.07 0.06 0.03 0.02 0.01 0.00 0.00 0.01 0.02 0.00 0.03 0.12 0.18 0.17 0.16 0.17 0.17 0.16 0.12 0.11 0.10 0.10 0.09
0.64 0.55 0.88 0.80 0.54 0.49 0.60 0.55 0.25 0.12 0.03 0.00 0.00 0.00 0.00 0.00 0.03 0.04 0.03 0.03 0.05 0.12 0.23 0.32 0.25 0.08 0.00 0.00 0.01 0.01 0.00 0.01 0.01 0.01 0.01 0.00 0.00 0.00 0.01 0.04 0.06 0.07 0.20 0.14 0.05 0.06 0.05 0.06 0.09 0.10 0.10 0.10 0.10 0.09
0.99 0.97 0.92 0.69 0.28 0.33 0.31 0.39 0.20 0.02 0.01 0.00 0.00 0.00 0.00 0.00 0.01 0.04 0.07 0.04 0.07 0.28 0.34 0.20 0.06 0.03 0.04 0.04 0.04 0.02 0.00 0.00 0.00 0.00 0.00 0.00 0.00 0.00 0.00 0.02 0.05 0.07 0.08 0.08 0.09 0.10 0.09 0.07 0.06 0.06 0.06 0.08 0.11 0.11
2.01 1.52 1.35 1.09 0.91 0.50 0.20 0.09 0.04 0.01 0.00 0.00 0.00 0.01 0.01 0.00 0.01 0.02 0.07 0.16 0.24 0.34 0.27 0.13 0.05 0.03 0.05 0.06 0.06 0.03 0.00 0.00 0.00 0.00 0.00 0.00 0.00 0.00 0.00 0.00 0.00 0.01 0.02 0.03 0.05 0.06 0.08 0.07 0.08 0.08 0.07 0.10 0.12 0.11
2.20 1.60 1.74 1.56 1.13 0.62 0.24 0.09 0.01 0.01 0.01 0.01 0.01 0.02 0.02 0.02 0.02 0.04 0.09 0.21 0.30 0.16 0.12 0.12 0.13 0.11 0.08 0.07 0.07 0.07 0.05 0.02 0.00 0.00 0.00 0.00 0.00 0.00 0.00 0.00 0.00 0.00 0.00 0.01 0.01 0.01 0.01 0.02 0.03 0.05 0.07 0.10 0.13 0.09
1.65 1.28 1.25 1.23 0.98 0.61 0.36 0.09 0.05 0.04 0.03 0.05 0.05 0.05 0.05 0.05 0.06 0.08 0.15 0.13 0.12 0.10 0.08 0.09 0.12 0.16 0.17 0.14 0.14 0.12 0.11 0.08 0.04 0.02 0.01 0.00 0.00 0.00 0.00 0.00 0.00 0.00 0.01 0.01 0.01 0.01 0.00 0.00 0.00 0.00 0.00 0.02 0.06 0.08
1.20 1.29 1.25 1.02 0.54 0.38 0.25 0.21 0.15 0.10 0.10 0.07 0.07 0.06 0.03 0.02 0.07 0.12 0.11 0.04 0.03 0.04 0.09 0.12 0.11 0.10 0.10 0.12 0.14 0.18 0.21 0.19 0.13 0.09 0.07 0.05 0.03 0.02 0.01 0.01 0.00 0.00 0.01 0.01 0.00 0.00 0.00 0.00 0.00 0.00 0.00 0.00 0.01 0.02
1.67 1.55 1.02 0.87 0.43 0.15 0.07 0.09 0.09 0.07 0.07 0.06 0.05 0.03 0.02 0.04 0.05 0.05 0.02 0.00 0.01 0.03 0.06 0.09 0.11 0.12 0.11 0.11 0.11 0.11 0.12 0.19 0.22 0.19 0.18 0.15 0.12 0.11 0.09 0.06 0.03 0.01 0.01 0.02 0.02 0.01 0.00 0.00 0.00 0.00 0.00 0.01 0.03 0.04
1.49 0.93 0.44 0.16 0.08 0.02 0.01 0.02 0.02 0.02 0.03 0.05 0.04 0.02 0.02 0.04 0.04 0.01 0.00 0.00 0.01 0.04 0.05 0.07 0.07 0.08 0.07 0.08 0.10 0.13 0.13 0.15 0.17 0.18 0.22 0.25 0.21 0.18 0.17 0.16 0.11 0.07 0.05 0.06 0.08 0.07 0.04 0.01 0.01 0.01 0.02 0.03 0.06 0.06
0.90 0.56 0.22 0.03 0.01 0.01 0.01 0.01 0.02 0.04 0.06 0.06 0.03 0.02 0.04 0.07 0.02 0.01 0.01 0.00 0.01 0.02 0.04 0.08 0.13 0.11 0.09 0.10 0.11 0.12 0.15 0.18 0.19 0.16 0.22 0.33 0.34 0.27 0.19 0.17 0.16 0.12 0.13 0.14 0.12 0.11 0.09 0.07 0.06 0.06 0.07 0.07 0.08 0.09
0.39 0.09 0.04 0.04 0.01 0.02 0.03 0.06 0.09 0.09 0.06 0.03 0.05 0.04 0.04 0.03 0.01 0.00 0.00 0.00 0.01 0.02 0.04 0.09 0.13 0.15 0.14 0.12 0.14 0.16 0.18 0.21 0.25 0.26 0.30 0.36 0.40 0.40 0.35 0.30 0.30 0.31 0.30 0.22 0.19 0.19 0.17 0.16 0.15 0.16 0.17 0.14 0.11 0.11
0.11 0.03 0.01 0.03 0.02 0.03 0.04 0.05 0.04 0.02 0.00 0.00 0.02 0.01 0.00 0.00 0.00 0.00 0.01 0.02 0.02 0.04 0.06 0.09 0.12 0.14 0.17 0.18 0.20 0.23 0.24 0.24 0.20 0.19 0.15 0.20 0.29 0.41 0.45 0.42 0.44 0.44 0.38 0.36 0.32 0.28 0.28 0.30 0.30 0.30 0.30 0.29 0.25 0.25
0.03 0.00 0.01 0.03 0.03 0.03 0.03 0.03 0.02 0.01 0.00 0.00 0.00 0.00 0.00 0.01 0.01 0.02 0.02 0.04 0.05 0.08 0.11 0.14 0.17 0.19 0.21 0.22 0.23 0.24 0.25 0.28 0.26 0.17 0.16 0.16 0.21 0.31 0.40 0.41 0.44 0.47 0.47 0.42 0.48 0.53 0.51 0.51 0.50 0.48 0.43 0.39 0.35 0.31
0.01 0.01 0.01 0.01 0.01 0.02 0.03 0.03 0.02 0.02 0.02 0.02 0.02 0.02 0.02 0.01 0.02 0.02 0.02 0.04 0.07 0.11 0.16 0.19 0.22 0.27 0.28 0.30 0.30 0.27 0.26 0.32 0.37 0.36 0.31 0.34 0.32 0.32 0.38 0.43 0.45 0.47 0.48 0.44 0.39 0.37 0.36 0.31 0.28 0.27 0.28 0.27 0.26 0.25
0.02 0.01 0.01 0.01 0.02 0.04 0.04 0.04 0.03 0.02 0.02 0.02 0.02 0.02 0.02 0.01 0.01 0.01 0.03 0.06 0.10 0.13 0.17 0.21 0.21 0.26 0.31 0.31 0.33 0.35 0.31 0.31 0.36 0.40 0.37 0.35 0.33 0.34 0.38 0.41 0.44 0.44 0.44 0.44 0.40 0.39 0.38 0.37 0.39 0.35 0.35 0.35 0.32 0.29
0.09 0.07 0.05 0.05 0.08 0.07 0.04 0.04 0.05 0.04 0.01 0.01 0.01 0.01 0.02 0.01 0.01 0.02 0.03 0.07 0.11 0.14 0.16 0.21 0.26 0.28 0.28 0.28 0.31 0.35 0.38 0.40 0.41 0.45 0.47 0.45 0.44 0.47 0.42 0.38 0.40 0.41 0.40 0.41 0.44 0.45 0.47 0.43 0.41 0.40 0.36 0.34 0.31 0.30

GFSWCAN_prec_precacc_093.txt.gz
Total_Precipitation_Accumulation
0.92 0.92 1.01 1.02 1.07 1.16 1.17 1.24 1.34 1.41 1.49 1.01 0.80 0.60 0.35 0.29 0.20 0.19 0.29 0.37 0.42 0.13 0.02 0.00 0.00 0.01 0.00 0.00 0.02 0.02 0.09 0.13 0.20 0.26 0.24 0.10 0.03 0.01 0.00 0.00 0.00 0.02 0.04 0.06 0.06 0.10 0.01 0.00 0.00 0.00 0.00 0.00 0.00 0.01
0.86 0.77 0.87 0.83 0.69 0.66 0.53 0.64 0.85 0.97 0.84 0.65 0.60 0.42 0.24 0.22 0.21 0.25 0.26 0.29 0.25 0.15 0.01 0.00 0.00 0.00 0.00 0.00 0.02 0.01 0.08 0.12 0.22 0.24 0.19 0.09 0.04 0.01 0.00 0.01 0.00 0.00 0.00 0.00 0.00 0.00 0.00 0.00 0.00 0.00 0.00 0.00 0.00 0.00
0.79 0.80 0.92 1.08 0.99 0.88 0.74 0.72 0.90 1.13 0.70 0.58 0.45 0.26 0.15 0.17 0.17 0.30 0.30 0.23 0.24 0.25 0.05 0.03 0.02 0.00 0.00 0.00 0.00 0.04 0.07 0.15 0.23 0.21 0.32 0.15 0.06 0.04 0.02 0.01 0.00 0.00 0.00 0.00 0.00 0.00 0.00 0.00 0.00 0.00 0.00 0.00 0.00 0.01
0.73 0.71 0.74 0.99 1.25 1.27 1.31 1.21 1.15 1.09 0.66 0.60 0.38 0.21 0.12 0.11 0.16 0.23 0.11 0.10 0.22 0.26 0.19 0.05 0.01 0.02 0.01 0.02 0.02 0.02 0.09 0.17 0.29 0.48 0.33 0.19 0.08 0.03 0.02 0.01 0.00 0.01 0.00 0.00 0.00 0.00 0.00 0.00 0.00 0.00 0.00 0.00 0.00 0.00
1.03 0.89 0.66 0.65 0.80 0.85 1.01 1.12 1.01 0.88 0.60 0.53 0.43 0.17 0.15 0.18 0.16 0.08 0.02 0.07 0.16 0.32 0.34 0.18 0.16 0.01 0.01 0.05 0.04 0.06 0.11 0.30 0.34 0.59 0.57 0.22 0.09 0.06 0.02 0.01 0.00 0.00 0.00 0.00 0.00 0.00 0.00 0.00 0.00 0.00 0.00 0.00 0.00 0.00
1.01 1.14 1.22 0.81 0.64 0.69 0.82 0.71 0.57 0.59 0.57 0.49 0.26 0.19 0.17 0.10 0.14 0.15 0.20 0.36 0.28 0.32 0.60 0.43 0.34 0.16 0.06 0.09 0.09 0.15 0.22 0.43 0.67 0.50 0.53 0.33 0.13 0.20 0.17 0.05 0.00 0.00 0.00 0.00 0.00 0.00 0.00 0.00 0.00 0.00 0.00 0.00 0.00 0.00
0.80 0.98 1.29 1.41 0.88 0.65 0.77 0.80 0.53 0.54 0.49 0.30 0.18 0.13 0.07 0.04 0.11 0.12 0.25 0.62 0.58 0.57 0.68 0.78 0.66 0.48 0.14 0.23 0.27 0.30 0.31 0.55 0.89 0.66 0.41 0.33 0.29 0.53 0.34 0.05 0.00 0.01 0.01 0.01 0.01 0.00 0.00 0.00 0.00 0.00 0.00 0.00 0.00 0.00
0.73 0.75 0.93 1.41 1.17 0.75 0.62 0.86 0.57 0.51 0.33 0.16 0.08 0.04 0.01 0.08 0.06 0.07 0.05 0.19 0.49 0.88 0.91 1.04 0.98 0.96 0.32 0.53 0.46 0.40 0.39 0.48 1.03 0.74 0.34 0.24 0.35 0.35 0.20 0.02 0.05 0.04 0.04 0.02 0.01 0.02 0.01 0.01 0.00 0.00 0.00 0.00 0.00 0.00
0.89 0.77 0.68 0.88 1.22 0.75 0.64 0.75 0.72 0.43 0.18 0.05 0.00 0.01 0.08 0.06 0.04 0.12 0.21 0.40 0.63 1.02 0.82 0.77 0.90 0.80 0.64 0.64 0.48 0.56 0.47 0.57 0.72 0.54 0.23 0.25 0.27 0.29 0.06 0.08 0.11 0.14 0.15 0.17 0.13 0.06 0.06 0.05 0.02 0.03 0.02 0.03 0.04 0.04
0.96 1.01 0.70 0.62 0.90 0.72 0.61 0.65 0.56 0.21 0.09 0.01 0.01 0.04 0.11 0.02 0.05 0.48 0.83 1.06 1.07 0.83 0.58 0.62 0.54 0.45 0.89 0.67 0.60 0.65 0.35 0.56 0.65 0.31 0.24 0.30 0.19 0.03 0.05 0.12 0.09 0.15 0.30 0.34 0.42 0.30 0.17 0.23 0.14 0.10 0.15 0.11 0.12 0.14
0.87 1.01 0.78 0.62 0.64 0.53 0.51 0.54 0.43 0.14 0.03 0.01 0.02 0.05 0.04 0.05 0.62 1.16 1.33 1.06 0.65 0.44 0.43 0.40 0.40 0.37 0.48 0.55 0.38 0.42 0.50 0.46 0.70 0.47 0.32 0.31 0.30 0.12 0.07 0.05 0.04 0.08 0.18 0.14 0.31 0.32 0.20 0.30 0.35 0.25 0.29 0.33 0.34 0.35
0.90 0.97 0.87 0.68 0.63 0.39 0.38 0.44 0.31 0.04 0.02 0.04 0.06 0.06 0.12 0.44 1.03 0.97 0.96 0.59 0.25 0.21 0.22 0.27 0.28 0.33 0.43 0.30 0.49 0.40 0.36 0.33 0.35 0.32 0.45 0.41 0.27 0.18 0.20 0.09 0.06 0.04 0.06 0.07 0.10 0.22 0.18 0.11 0.16 0.19 0.27 0.30 0.29 0.34
0.93 0.93 0.82 0.63 0.59 0.40 0.34 0.28 0.18 0.06 0.04 0.02 0.05 0.16 0.30 0.56 0.73 0.55 0.45 0.25 0.10 0.09 0.08 0.11 0.26 0.22 0.39 0.36 0.41 0.46 0.26 0.16 0.34 0.44 0.40 0.18 0.06 0.03 0.10 0.19 0.20 0.16 0.10 0.25 0.27 0.18 0.11 0.09 0.11 0.14 0.15 0.11 0.10 0.11
1.00 0.94 0.77 0.67 0.60 0.45 0.31 0.19 0.15 0.13 0.06 0.01 0.07 0.15 0.25 0.32 0.37 0.27 0.17 0.15 0.05 0.04 0.03 0.05 0.12 0.20 0.27 0.23 0.24 0.26 0.13 0.28 0.49 0.33 0.22 0.07 0.06 0.04 0.02 0.05 0.10 0.14 0.13 0.24 0.56 0.60 0.44 0.44 0.40 0.30 0.21 0.15 0.12 0.11
1.07 1.06 0.93 0.90 0.68 0.50 0.34 0.19 0.16 0.17 0.07 0.06 0.11 0.13 0.15 0.22 0.09 0.05 0.04 0.06 0.02 0.02 0.03 0.02 0.08 0.13 0.18 0.23 0.21 0.20 0.28 0.46 0.31 0.26 0.17 0.10 0.09 0.08 0.06 0.03 0.03 0.07 0.13 0.16 0.25 0.33 0.40 0.29 0.16 0.20 0.27 0.25 0.17 0.13
1.41 1.71 1.49 1.09 0.75 0.57 0.39 0.18 0.28 0.36 0.18 0.07 0.08 0.15 0.11 0.07 0.05 0.01 0.01 0.02 0.02 0.02 0.05 0.06 0.11 0.14 0.16 0.26 0.21 0.27 0.47 0.40 0.24 0.16 0.10 0.05 0.09 0.07 0.05 0.04 0.01 0.00 0.01 0.06 0.14 0.19 0.24 0.22 0.16 0.13 0.17 0.27 0.23 0.20
2.14 2.06 1.31 0.97 0.83 0.63 0.36 0.17 0.25 0.40 0.32 0.14 0.03 0.09 0.10 0.06 0.06 0.04 0.02 0.00 0.01 0.07 0.17 0.25 0.26 0.13 0.12 0.14 0.13 0.21 0.31 0.20 0.10 0.06 0.02 0.01 0.01 0.01 0.01 0.00 0.00 0.00 0.01 0.03 0.09 0.13 0.20 0.25 0.24 0.18 0.16 0.16 0.16 0.22
1.55 0.95 0.89 1.07 0.97 0.88 0.76 0.44 0.23 0.30 0.26 0.05 0.00 0.01 0.01 0.03 0.04 0.05 0.03 0.02 0.02 0.11 0.27 0.50 0.30 0.15 0.05 0.03 0.03 0.08 0.10 0.07 0.06 0.03 0.02 0.01 0.00 0.00 0.01 0.02 0.00 0.03 0.12 0.18 0.17 0.16 0.17 0.17 0.16 0.12 0.11 0.10 0.10 0.09
0.97 0.69 0.98 1.01 0.79 0.75 0.83 0.69 0.31 0.13 0.03 0.00 0.00 0.00 0.00 0.00 0.03 0.04 0.03 0.03 0.05 0.12 0.23 0.32 0.25 0.08 0.00 0.00 0.01 0.01 0.00 0.01 0.01 0.01 0.01 0.00 0.00 0.00 0.01 0.04 0.06 0.07 0.20 0.14 0.05 0.06 0.05 0.06 0.09 0.10 0.10 0.10 0.10 0.09
1.32 1.20 1.17 0.98 0.60 0.69 0.60 0.56 0.29 0.05 0.01 0.00 0.00 0.00 0.00 0.00 0.01 0.04 0.07 0.04 0.07 0.28 0.34 0.20 0.06 0.03 0.04 0.04 0.04 0.02 0.00 0.00 0.00 0.00 0.00 0.00 0.00 0.00 0.00 0.02 0.05 0.07 0.08 0.08 0.09 0.10 0.09 0.07 0.06 0.06 0.06 0.08 0.11 0.11
2.66 1.98 1.76 1.69 1.56 0.95 0.41 0.17 0.07 0.02 0.00 0.00 0.00 0.01 0.01 0.00 0.01 0.02 0.07 0.16 0.24 0.34 0.27 0.13 0.05 0.03 0.05 0.06 0.06 0.03 0.00 0.00 0.00 0.00 0.00 0.00 0.00 0.00 0.00 0.00 0.00 0.01 0.02 0.03 0.05 0.06 0.08 0.07 0.08 0.08 0.07 0.10 0.12 0.11
2.74 2.11 2.46 2.39 1.76 1.02 0.41 0.16 0.02 0.02 0.01 0.01 0.01 0.02 0.02 0.02 0.02 0.04 0.09 0.21 0.30 0.16 0.12 0.12 0.13 0.11 0.08 0.07 0.07 0.07 0.05 0.02 0.00 0.00 0.00 0.00 0.00 0.00 0.00 0.00 0.00 0.00 0.00 0.01 0.02 0.01 0.01 0.02 0.03 0.05 0.07 0.10 0.13 0.09
2.02 1.71 1.77 1.73 1.38 0.85 0.46 0.13 0.06 0.05 0.03 0.05 0.05 0.05 0.05 0.05 0.06 0.08 0.16 0.13 0.12 0.10 0.08 0.09 0.12 0.16 0.17 0.14 0.14 0.12 0.11 0.08 0.04 0.02 0.01 0.00 0.00 0.00 0.00 0.00 0.00 0.00 0.01 0.01 0.01 0.01 0.00 0.00 0.00 0.00 0.00 0.02 0.06 0.08
1.75 1.87 1.79 1.43 0.79 0.51 0.32 0.27 0.21 0.12 0.11 0.08 0.08 0.06 0.03 0.02 0.08 0.13 0.11 0.04 0.03 0.04 0.09 0.12 0.11 0.10 0.10 0.12 0.14 0.18 0.21 0.19 0.13 0.09 0.07 0.05 0.03 0.02 0.01 0.01 0.00 0.00 0.01 0.01 0.00 0.00 0.00 0.00 0.00 0.00 0.00 0.00 0.01 0.02
2.19 2.08 1.43 1.14 0.56 0.19 0.09 0.11 0.11 0.09 0.09 0.06 0.05 0.03 0.02 0.04 0.05 0.05 0.03 0.00 0.01 0.03 0.07 0.09 0.11 0.12 0.11 0.11 0.11 0.11 0.12 0.19 0.22 0.19 0.18 0.15 0.12 0.11 0.09 0.06 0.03 0.01 0.01 0.03 0.02 0.01 0.00 0.00 0.00 0.00 0.00 0.01 0.03 0.04
1.88 1.19 0.59 0.22 0.11 0.03 0.02 0.02 0.03 0.03 0.03 0.05 0.04 0.02 0.02 0.04 0.04 0.01 0.00 0.00 0.01 0.04 0.05 0.07 0.07 0.08 0.07 0.08 0.10 0.13 0.13 0.15 0.17 0.19 0.22 0.25 0.21 0.18 0.17 0.16 0.12 0.07 0.05 0.06 0.08 0.07 0.04 0.01 0.01 0.01 0.02 0.03 0.06 0.06
1.18 0.68 0.26 0.04 0.01 0.01 0.01 0.01 0.02 0.04 0.06 0.06 0.03 0.02 0.05 0.09 0.03 0.01 0.01 0.00 0.01 0.02 0.04 0.08 0.13 0.11 0.09 0.10 0.11 0.12 0.15 0.18 0.19 0.16 0.22 0.33 0.34 0.27 0.20 0.17 0.16 0.13 0.13 0.14 0.12 0.11 0.09 0.07 0.06 0.06 0.07 0.07 0.08 0.09
0.50 0.12 0.05 0.05 0.01 0.02 0.03 0.06 0.09 0.09 0.06 0.03 0.05 0.04 0.05 0.03 0.01 0.00 0.00 0.00 0.01 0.02 0.04 0.09 0.13 0.15 0.14 0.12 0.14 0.16 0.18 0.21 0.25 0.26 0.30 0.36 0.40 0.40 0.35 0.30 0.31 0.32 0.30 0.22 0.19 0.19 0.17 0.16 0.15 0.16 0.17 0.14 0.11 0.11
0.13 0.03 0.01 0.03 0.02 0.03 0.04 0.05 0.04 0.02 0.00 0.00 0.03 0.01 0.00 0.00 0.00 0.00 0.01 0.02 0.02 0.04 0.06 0.09 0.12 0.14 0.17 0.18 0.20 0.23 0.24 0.24 0.20 0.19 0.15 0.20 0.29 0.41 0.46 0.42 0.44 0.44 0.38 0.36 0.32 0.28 0.28 0.30 0.30 0.30 0.30 0.29 0.25 0.25
0.04 0.00 0.01 0.03 0.03 0.03 0.03 0.03 0.02 0.01 0.00 0.01 0.01 0.01 0.01 0.01 0.01 0.02 0.02 0.04 0.05 0.08 0.11 0.14 0.17 0.19 0.21 0.22 0.23 0.24 0.25 0.28 0.26 0.17 0.16 0.16 0.21 0.32 0.40 0.41 0.45 0.48 0.47 0.42 0.48 0.53 0.52 0.51 0.51 0.48 0.43 0.39 0.35 0.31
0.01 0.01 0.01 0.01 0.01 0.02 0.03 0.03 0.02 0.02 0.03 0.02 0.02 0.02 0.02 0.01 0.02 0.02 0.02 0.04 0.07 0.11 0.16 0.19 0.22 0.27 0.28 0.30 0.30 0.27 0.26 0.32 0.37 0.36 0.31 0.34 0.32 0.32 0.38 0.44 0.45 0.47 0.48 0.44 0.39 0.37 0.36 0.31 0.28 0.27 0.28 0.27 0.26 0.25
0.03 0.01 0.01 0.01 0.02 0.04 0.04 0.04 0.03 0.03 0.02 0.02 0.02 0.02 0.02 0.01 0.01 0.01 0.03 0.06 0.10 0.13 0.17 0.21 0.21 0.26 0.31 0.31 0.33 0.35 0.31 0.31 0.36 0.40 0.37 0.35 0.34 0.34 0.38 0.41 0.44 0.44 0.44 0.44 0.40 0.39 0.38 0.37 0.39 0.35 0.35 0.35 0.32 0.29
0.09 0.07 0.05 0.06 0.09 0.07 0.04 0.05 0.06 0.05 0.02 0.01 0.01 0.01 0.02 0.01 0.01 0.02 0.03 0.07 0.11 0.14 0.16 0.21 0.26 0.28 0.28 0.28 0.31 0.35 0.38 0.40 0.41 0.45 0.47 0.45 0.44 0.47 0.42 0.39 0.40 0.41 0.40 0.41 0.44 0.45 0.47 0.43 0.41 0.40 0.36 0.34 0.31 0.30

GFSWCAN_prec_precacc_096.txt.gz
Total_Precipitation_Accumulation
0.93 0.92 1.02 1.02 1.07 1.16 1.17 1.24 1.34 1.41 1.49 1.01 0.80 0.60 0.35 0.29 0.20 0.19 0.29 0.37 0.42 0.13 0.02 0.00 0.00 0.01 0.00 0.00 0.02 0.02 0.09 0.13 0.20 0.26 0.24 0.10 0.03 0.01 0.00 0.00 0.00 0.02 0.04 0.06 0.06 0.10 0.01 0.00 0.00 0.00 0.00 0.00 0.00 0.01
0.86 0.77 0.87 0.83 0.69 0.66 0.53 0.64 0.85 0.97 0.84 0.65 0.60 0.42 0.24 0.22 0.21 0.25 0.26 0.29 0.25 0.15 0.01 0.00 0.00 0.00 0.00 0.00 0.02 0.01 0.08 0.12 0.22 0.24 0.19 0.09 0.04 0.01 0.00 0.01 0.00 0.00 0.00 0.00 0.00 0.00 0.00 0.00 0.00 0.00 0.00 0.00 0.00 0.00
0.79 0.80 0.92 1.09 0.99 0.88 0.74 0.72 0.90 1.13 0.70 0.58 0.45 0.26 0.15 0.17 0.17 0.30 0.30 0.23 0.24 0.25 0.05 0.03 0.02 0.00 0.00 0.00 0.00 0.04 0.07 0.15 0.23 0.21 0.32 0.15 0.06 0.04 0.02 0.01 0.00 0.00 0.00 0.00 0.00 0.00 0.00 0.00 0.00 0.00 0.00 0.00 0.00 0.01
0.73 0.71 0.74 0.99 1.25 1.27 1.31 1.21 1.15 1.09 0.66 0.60 0.38 0.21 0.12 0.11 0.16 0.23 0.11 0.10 0.22 0.26 0.19 0.05 0.01 0.02 0.01 0.02 0.02 0.02 0.09 0.17 0.29 0.48 0.33 0.19 0.08 0.03 0.02 0.01 0.00 0.01 0.00 0.00 0.00 0.00 0.00 0.00 0.00 0.00 0.00 0.00 0.00 0.00
1.03 0.89 0.66 0.65 0.80 0.85 1.01 1.12 1.01 0.88 0.60 0.53 0.43 0.17 0.15 0.18 0.16 0.08 0.02 0.07 0.16 0.32 0.34 0.18 0.16 0.01 0.01 0.05 0.04 0.06 0.11 0.30 0.34 0.59 0.57 0.22 0.09 0.06 0.02 0.01 0.00 0.00 0.00 0.00 0.00 0.00 0.00 0.00 0.00 0.00 0.00 0.00 0.00 0.00
1.01 1.14 1.22 0.82 0.65 0.69 0.82 0.71 0.57 0.59 0.57 0.49 0.26 0.19 0.17 0.10 0.14 0.15 0.20 0.36 0.28 0.32 0.60 0.43 0.34 0.16 0.06 0.09 0.09 0.15 0.22 0.43 0.67 0.50 0.53 0.33 0.13 0.20 0.17 0.05 0.00 0.00 0.00 0.00 0.00 0.00 0.00 0.00 0.00 0.00 0.00 0.00 0.00 0.00
0.80 0.98 1.29 1.41 0.88 0.65 0.77 0.80 0.53 0.54 0.49 0.30 0.18 0.13 0.07 0.04 0.11 0.12 0.25 0.62 0.58 0.57 0.68 0.78 0.66 0.48 0.14 0.23 0.27 0.30 0.31 0.55 0.89 0.66 0.41 0.33 0.29 0.53 0.34 0.05 0.00 0.01 0.01 0.01 0.01 0.00 0.00 0.00 0.00 0.00 0.00 0.00 0.00 0.00
0.73 0.75 0.93 1.41 1.17 0.75 0.62 0.86 0.57 0.51 0.33 0.16 0.08 0.04 0.01 0.08 0.06 0.07 0.05 0.19 0.49 0.88 0.91 1.04 0.98 0.96 0.32 0.53 0.46 0.40 0.39 0.48 1.03 0.74 0.34 0.24 0.35 0.35 0.20 0.02 0.05 0.04 0.04 0.02 0.01 0.02 0.01 0.01 0.00 0.00 0.00 0.00 0.00 0.00
0.89 0.77 0.68 0.88 1.23 0.75 0.64 0.75 0.72 0.43 0.18 0.05 0.01 0.01 0.08 0.06 0.04 0.12 0.21 0.40 0.63 1.02 0.82 0.77 0.90 0.80 0.64 0.64 0.48 0.56 0.47 0.57 0.72 0.54 0.23 0.25 0.27 0.29 0.06 0.08 0.11 0.14 0.15 0.17 0.13 0.06 0.06 0.05 0.02 0.03 0.02 0.03 0.04 0.04
0.97 1.01 0.70 0.62 0.90 0.72 0.61 0.65 0.56 0.21 0.09 0.01 0.01 0.04 0.11 0.02 0.05 0.48 0.83 1.06 1.07 0.83 0.58 0.62 0.54 0.45 0.89 0.67 0.60 0.65 0.35 0.56 0.65 0.31 0.24 0.30 0.19 0.03 0.05 0.12 0.09 0.15 0.30 0.34 0.42 0.30 0.17 0.23 0.14 0.10 0.15 0.11 0.12 0.14
0.89 1.03 0.78 0.62 0.64 0.54 0.52 0.55 0.43 0.14 0.03 0.01 0.02 0.05 0.04 0.05 0.62 1.16 1.33 1.06 0.65 0.44 0.43 0.40 0.40 0.37 0.48 0.55 0.38 0.42 0.50 0.46 0.70 0.47 0.32 0.31 0.30 0.12 0.07 0.05 0.04 0.08 0.18 0.14 0.31 0.32 0.20 0.30 0.35 0.25 0.29 0.33 0.34 0.35
0.93 1.01 0.89 0.69 0.63 0.40 0.41 0.45 0.31 0.05 0.02 0.04 0.06 0.06 0.12 0.44 1.03 0.97 0.96 0.59 0.25 0.21 0.22 0.27 0.28 0.33 0.43 0.30 0.49 0.40 0.36 0.33 0.35 0.32 0.45 0.41 0.27 0.18 0.20 0.09 0.06 0.04 0.06 0.07 0.10 0.22 0.18 0.11 0.16 0.19 0.27 0.30 0.29 0.34
0.99 0.99 0.88 0.66 0.62 0.46 0.42 0.33 0.20 0.07 0.04 0.02 0.05 0.16 0.30 0.56 0.73 0.55 0.45 0.25 0.10 0.09 0.08 0.11 0.26 0.22 0.39 0.36 0.41 0.46 0.26 0.16 0.34 0.44 0.40 0.18 0.06 0.03 0.10 0.19 0.20 0.16 0.10 0.25 0.27 0.18 0.11 0.09 0.11 0.14 0.15 0.11 0.10 0.11
1.09 1.03 0.85 0.74 0.68 0.56 0.44 0.28 0.21 0.16 0.06 0.01 0.07 0.15 0.25 0.32 0.37 0.27 0.17 0.15 0.05 0.04 0.03 0.05 0.12 0.20 0.27 0.23 0.24 0.26 0.13 0.28 0.49 0.33 0.22 0.07 0.06 0.04 0.02 0.05 0.10 0.14 0.13 0.24 0.56 0.60 0.44 0.44 0.40 0.30 0.21 0.15 0.12 0.11
1.18 1.19 1.09 1.05 0.82 0.66 0.51 0.33 0.26 0.21 0.08 0.06 0.11 0.13 0.15 0.22 0.09 0.05 0.04 0.06 0.02 0.02 0.03 0.02 0.08 0.13 0.18 0.23 0.21 0.20 0.28 0.46 0.31 0.26 0.17 0.10 0.09 0.08 0.06 0.03 0.03 0.07 0.13 0.16 0.25 0.33 0.40 0.29 0.16 0.20 0.27 0.25 0.17 0.13
1.55 2.02 1.81 1.30 0.94 0.77 0.60 0.39 0.45 0.46 0.22 0.07 0.08 0.15 0.11 0.07 0.05 0.01 0.01 0.02 0.02 0.02 0.05 0.06 0.11 0.14 0.16 0.26 0.21 0.27 0.47 0.40 0.24 0.16 0.10 0.05 0.09 0.07 0.05 0.04 0.01 0.00 0.01 0.06 0.14 0.19 0.24 0.22 0.16 0.13 0.17 0.27 0.23 0.20
2.47 2.49 1.56 1.09 0.99 0.87 0.64 0.46 0.49 0.57 0.40 0.15 0.03 0.09 0.10 0.06 0.06 0.04 0.02 0.00 0.01 0.07 0.17 0.25 0.26 0.13 0.12 0.14 0.13 0.21 0.31 0.20 0.10 0.06 0.02 0.01 0.01 0.01 0.01 0.00 0.00 0.00 0.01 0.03 0.09 0.13 0.20 0.25 0.24 0.18 0.16 0.16 0.16 0.22
1.99 1.32 1.04 1.18 1.25 1.35 1.34 0.88 0.51 0.49 0.36 0.07 0.01 0.01 0.01 0.03 0.04 0.05 0.03 0.02 0.02 0.11 0.27 0.50 0.30 0.15 0.05 0.03 0.03 0.08 0.10 0.07 0.06 0.03 0.02 0.01 0.00 0.00 0.01 0.02 0.00 0.03 0.12 0.18 0.17 0.16 0.17 0.17 0.16 0.12 0.11 0.10 0.10 0.09
1.32 0.93 1.16 1.26 1.22 1.37 1.38 1.09 0.51 0.21 0.05 0.00 0.00 0.00 0.00 0.00 0.03 0.04 0.03 0.03 0.05 0.12 0.23 0.32 0.25 0.08 0.00 0.00 0.01 0.01 0.00 0.01 0.01 0.01 0.01 0.00 0.00 0.00 0.01 0.04 0.06 0.07 0.20 0.14 0.05 0.06 0.05 0.06 0.09 0.10 0.10 0.10 0.10 0.09
1.71 1.47 1.44 1.28 0.98 1.25 1.08 0.85 0.43 0.07 0.02 0.00 0.00 0.00 0.00 0.00 0.01 0.04 0.07 0.04 0.07 0.28 0.34 0.20 0.06 0.03 0.04 0.04 0.04 0.02 0.00 0.00 0.00 0.00 0.00 0.00 0.00 0.00 0.00 0.02 0.05 0.07 0.08 0.08 0.09 0.10 0.09 0.07 0.06 0.06 0.06 0.08 0.11 0.11
3.32 2.52 2.18 2.19 2.19 1.67 0.89 0.38 0.13 0.03 0.00 0.00 0.00 0.01 0.01 0.01 0.01 0.02 0.08 0.16 0.24 0.34 0.27 0.13 0.05 0.03 0.05 0.06 0.06 0.03 0.00 0.00 0.00 0.00 0.00 0.00 0.00 0.00 0.00 0.00 0.00 0.01 0.02 0.03 0.05 0.06 0.08 0.07 0.08 0.08 0.07 0.10 0.12 0.11
3.30 2.61 3.09 3.03 2.39 1.66 0.82 0.33 0.05 0.03 0.01 0.01 0.02 0.02 0.02 0.02 0.02 0.05 0.09 0.22 0.30 0.16 0.12 0.12 0.13 0.11 0.08 0.07 0.07 0.07 0.05 0.02 0.00 0.00 0.00 0.00 0.00 0.00 0.00 0.00 0.00 0.00 0.00 0.01 0.02 0.01 0.02 0.02 0.03 0.05 0.07 0.10 0.13 0.09
2.51 2.18 2.23 2.19 1.83 1.22 0.71 0.24 0.08 0.06 0.03 0.06 0.06 0.05 0.06 0.05 0.06 0.08 0.16 0.14 0.12 0.10 0.08 0.09 0.12 0.16 0.17 0.14 0.14 0.12 0.11 0.08 0.04 0.02 0.01 0.00 0.00 0.00 0.00 0.00 0.00 0.00 0.01 0.01 0.01 0.01 0.00 0.00 0.00 0.00 0.00 0.02 0.06 0.08
2.24 2.37 2.26 1.83 1.09 0.71 0.46 0.37 0.27 0.15 0.14 0.11 0.11 0.07 0.04 0.03 0.08 0.13 0.11 0.04 0.03 0.04 0.09 0.12 0.11 0.10 0.10 0.12 0.14 0.18 0.21 0.19 0.13 0.09 0.07 0.05 0.03 0.02 0.01 0.01 0.00 0.00 0.01 0.01 0.00 0.00 0.00 0.00 0.00 0.00 0.00 0.00 0.01 0.02
2.64 2.55 1.81 1.47 0.74 0.25 0.12 0.13 0.13 0.10 0.10 0.08 0.06 0.04 0.02 0.05 0.06 0.05 0.03 0.00 0.01 0.03 0.07 0.09 0.11 0.12 0.11 0.11 0.11 0.11 0.12 0.19 0.22 0.19 0.18 0.15 0.12 0.11 0.09 0.06 0.03 0.01 0.01 0.03 0.02 0.01 0.00 0.00 0.00 0.00 0.00 0.01 0.03 0.04
2.24 1.44 0.74 0.30 0.15 0.04 0.02 0.02 0.03 0.03 0.04 0.06 0.04 0.03 0.02 0.05 0.04 0.01 0.00 0.00 0.01 0.04 0.05 0.07 0.07 0.08 0.07 0.08 0.10 0.13 0.13 0.15 0.17 0.19 0.22 0.25 0.21 0.18 0.17 0.16 0.12 0.07 0.05 0.06 0.08 0.07 0.04 0.01 0.01 0.01 0.02 0.03 0.06 0.06
1.50 0.84 0.29 0.05 0.01 0.01 0.01 0.01 0.02 0.04 0.07 0.06 0.04 0.03 0.05 0.09 0.03 0.01 0.01 0.00 0.01 0.02 0.04 0.08 0.13 0.11 0.09 0.10 0.11 0.12 0.15 0.18 0.19 0.16 0.22 0.33 0.34 0.27 0.20 0.17 0.16 0.13 0.13 0.14 0.12 0.11 0.09 0.07 0.06 0.06 0.07 0.07 0.08 0.09
0.64 0.14 0.05 0.06 0.01 0.02 0.03 0.06 0.09 0.09 0.06 0.03 0.05 0.04 0.05 0.03 0.01 0.00 0.00 0.00 0.01 0.02 0.04 0.09 0.13 0.15 0.14 0.12 0.14 0.16 0.18 0.21 0.25 0.26 0.30 0.36 0.40 0.40 0.35 0.30 0.31 0.32 0.30 0.22 0.19 0.19 0.17 0.16 0.15 0.16 0.17 0.14 0.11 0.11
0.15 0.04 0.01 0.03 0.02 0.03 0.04 0.05 0.04 0.02 0.00 0.00 0.03 0.01 0.00 0.00 0.00 0.00 0.01 0.02 0.02 0.04 0.06 0.09 0.12 0.14 0.17 0.18 0.20 0.23 0.24 0.24 0.20 0.19 0.15 0.20 0.29 0.41 0.46 0.42 0.44 0.44 0.39 0.36 0.32 0.28 0.28 0.30 0.30 0.30 0.30 0.29 0.25 0.25
0.04 0.00 0.01 0.03 0.03 0.03 0.03 0.03 0.02 0.01 0.00 0.01 0.01 0.01 0.01 0.01 0.01 0.02 0.02 0.04 0.05 0.08 0.11 0.14 0.17 0.19 0.21 0.22 0.23 0.24 0.25 0.28 0.26 0.17 0.16 0.16 0.21 0.32 0.40 0.41 0.45 0.48 0.47 0.42 0.48 0.53 0.52 0.51 0.51 0.48 0.43 0.39 0.35 0.31
0.01 0.01 0.01 0.01 0.01 0.02 0.03 0.03 0.02 0.02 0.03 0.02 0.03 0.03 0.02 0.01 0.02 0.02 0.02 0.04 0.07 0.11 0.16 0.19 0.22 0.27 0.28 0.30 0.30 0.27 0.26 0.32 0.37 0.36 0.31 0.34 0.32 0.32 0.38 0.44 0.45 0.47 0.48 0.44 0.39 0.37 0.36 0.32 0.28 0.27 0.28 0.27 0.26 0.25
0.03 0.01 0.01 0.01 0.02 0.04 0.04 0.04 0.03 0.03 0.02 0.02 0.02 0.02 0.02 0.01 0.01 0.01 0.03 0.06 0.10 0.13 0.17 0.21 0.21 0.26 0.31 0.31 0.33 0.35 0.31 0.31 0.36 0.40 0.37 0.35 0.34 0.34 0.38 0.41 0.44 0.44 0.45 0.44 0.40 0.39 0.38 0.37 0.39 0.35 0.35 0.35 0.32 0.29
0.10 0.07 0.05 0.06 0.09 0.07 0.04 0.05 0.07 0.06 0.03 0.02 0.02 0.01 0.02 0.01 0.01 0.02 0.03 0.07 0.11 0.14 0.16 0.21 0.26 0.28 0.28 0.28 0.31 0.35 0.38 0.40 0.41 0.45 0.47 0.45 0.44 0.47 0.42 0.39 0.41 0.41 0.41 0.41 0.44 0.45 0.47 0.43 0.41 0.40 0.36 0.34 0.31 0.30

GFSWCAN_prec_precacc_099.txt.gz
Total_Precipitation_Accumulation
0.93 0.92 1.02 1.02 1.07 1.16 1.17 1.24 1.34 1.41 1.49 1.01 0.80 0.60 0.35 0.29 0.20 0.19 0.29 0.37 0.42 0.13 0.02 0.00 0.00 0.01 0.00 0.00 0.02 0.02 0.09 0.13 0.20 0.26 0.24 0.10 0.03 0.01 0.00 0.00 0.00 0.02 0.04 0.06 0.06 0.10 0.01 0.00 0.00 0.00 0.00 0.00 0.00 0.01
0.86 0.77 0.87 0.84 0.70 0.66 0.53 0.64 0.85 0.97 0.84 0.65 0.60 0.42 0.24 0.22 0.21 0.25 0.26 0.29 0.25 0.15 0.01 0.00 0.00 0.00 0.00 0.00 0.02 0.01 0.08 0.12 0.22 0.24 0.19 0.09 0.04 0.01 0.00 0.01 0.00 0.00 0.00 0.00 0.00 0.00 0.00 0.00 0.00 0.00 0.00 0.00 0.00 0.00
0.79 0.80 0.92 1.09 0.99 0.88 0.74 0.72 0.90 1.13 0.70 0.58 0.45 0.26 0.15 0.17 0.17 0.30 0.30 0.23 0.24 0.25 0.05 0.03 0.02 0.00 0.00 0.00 0.00 0.04 0.07 0.15 0.23 0.21 0.32 0.15 0.06 0.04 0.02 0.01 0.00 0.00 0.00 0.00 0.00 0.00 0.00 0.00 0.00 0.00 0.00 0.00 0.00 0.01
0.73 0.71 0.74 0.99 1.25 1.27 1.32 1.21 1.15 1.09 0.66 0.60 0.38 0.21 0.12 0.11 0.16 0.23 0.11 0.10 0.22 0.26 0.19 0.05 0.01 0.02 0.01 0.02 0.02 0.02 0.09 0.17 0.29 0.48 0.33 0.19 0.08 0.03 0.02 0.01 0.00 0.01 0.00 0.00 0.00 0.00 0.00 0.00 0.00 0.00 0.00 0.00 0.00 0.00
1.03 0.89 0.66 0.65 0.80 0.85 1.02 1.13 1.01 0.88 0.60 0.53 0.43 0.17 0.15 0.18 0.16 0.08 0.02 0.07 0.16 0.32 0.34 0.18 0.16 0.01 0.01 0.05 0.04 0.06 0.11 0.30 0.34 0.59 0.57 0.22 0.09 0.06 0.02 0.01 0.00 0.00 0.00 0.00 0.00 0.00 0.00 0.00 0.00 0.00 0.00 0.00 0.00 0.00
1.01 1.14 1.22 0.82 0.65 0.69 0.82 0.71 0.57 0.59 0.57 0.49 0.26 0.19 0.17 0.10 0.14 0.15 0.20 0.36 0.28 0.32 0.60 0.43 0.34 0.16 0.06 0.09 0.09 0.15 0.22 0.43 0.67 0.50 0.53 0.33 0.13 0.20 0.17 0.05 0.00 0.00 0.00 0.00 0.00 0.00 0.00 0.00 0.00 0.00 0.00 0.00 0.00 0.00
0.81 0.99 1.29 1.41 0.88 0.65 0.77 0.80 0.53 0.54 0.49 0.30 0.18 0.13 0.07 0.04 0.11 0.12 0.25 0.62 0.58 0.57 0.68 0.78 0.66 0.48 0.14 0.23 0.27 0.30 0.31 0.55 0.89 0.66 0.41 0.33 0.29 0.53 0.34 0.05 0.00 0.01 0.01 0.01 0.01 0.00 0.00 0.00 0.00 0.00 0.00 0.00 0.00 0.00
0.74 0.75 0.93 1.41 1.17 0.75 0.63 0.86 0.57 0.51 0.33 0.16 0.08 0.04 0.01 0.08 0.06 0.07 0.05 0.19 0.49 0.88 0.91 1.04 0.98 0.96 0.32 0.53 0.46 0.40 0.39 0.48 1.03 0.74 0.34 0.24 0.35 0.35 0.20 0.02 0.05 0.04 0.04 0.02 0.01 0.02 0.01 0.01 0.00 0.00 0.00 0.00 0.00 0.00
0.90 0.78 0.69 0.89 1.23 0.75 0.64 0.75 0.72 0.43 0.18 0.05 0.01 0.01 0.08 0.06 0.04 0.12 0.21 0.40 0.63 1.02 0.82 0.77 0.90 0.80 0.64 0.64 0.48 0.56 0.47 0.57 0.72 0.54 0.23 0.25 0.27 0.29 0.06 0.08 0.11 0.14 0.15 0.17 0.13 0.06 0.06 0.05 0.02 0.03 0.02 0.03 0.04 0.04
0.97 1.02 0.71 0.63 0.91 0.74 0.62 0.66 0.57 0.22 0.09 0.01 0.01 0.04 0.11 0.02 0.05 0.48 0.83 1.06 1.07 0.83 0.58 0.62 0.54 0.45 0.89 0.67 0.60 0.65 0.35 0.56 0.65 0.31 0.24 0.30 0.19 0.03 0.05 0.12 0.09 0.15 0.30 0.34 0.42 0.30 0.17 0.23 0.14 0.10 0.15 0.11 0.12 0.14
0.89 1.04 0.80 0.65 0.68 0.59 0.55 0.57 0.46 0.15 0.03 0.01 0.02 0.05 0.04 0.05 0.62 1.16 1.33 1.06 0.65 0.44 0.43 0.40 0.40 0.37 0.48 0.55 0.38 0.42 0.50 0.46 0.70 0.47 0.32 0.31 0.30 0.12 0.07 0.05 0.04 0.08 0.18 0.14 0.31 0.32 0.20 0.30 0.35 0.25 0.29 0.33 0.34 0.35
0.93 1.02 0.91 0.74 0.69 0.47 0.47 0.51 0.36 0.06 0.02 0.04 0.06 0.06 0.12 0.44 1.03 0.97 0.96 0.59 0.25 0.21 0.22 0.27 0.28 0.33 0.43 0.30 0.49 0.40 0.36 0.33 0.35 0.32 0.45 0.41 0.27 0.18 0.20 0.09 0.06 0.04 0.06 0.07 0.10 0.22 0.18 0.11 0.16 0.19 0.27 0.30 0.29 0.34
0.99 1.00 0.91 0.72 0.72 0.58 0.52 0.42 0.28 0.11 0.06 0.03 0.05 0.16 0.30 0.56 0.73 0.55 0.45 0.25 0.10 0.09 0.08 0.11 0.26 0.22 0.39 0.36 0.41 0.46 0.26 0.16 0.34 0.44 0.40 0.18 0.06 0.03 0.10 0.19 0.20 0.16 0.10 0.25 0.27 0.18 0.11 0.09 0.11 0.14 0.15 0.11 0.10 0.11
1.10 1.05 0.91 0.82 0.81 0.73 0.59 0.41 0.36 0.23 0.11 0.05 0.09 0.16 0.25 0.32 0.37 0.27 0.17 0.15 0.05 0.04 0.03 0.05 0.12 0.20 0.27 0.23 0.24 0.26 0.13 0.28 0.49 0.33 0.22 0.07 0.06 0.04 0.02 0.05 0.10 0.14 0.13 0.24 0.56 0.60 0.44 0.44 0.40 0.30 0.21 0.15 0.12 0.11
1.19 1.22 1.16 1.18 1.01 0.89 0.70 0.56 0.47 0.32 0.16 0.10 0.12 0.13 0.15 0.22 0.09 0.05 0.04 0.06 0.02 0.02 0.03 0.02 0.08 0.13 0.18 0.23 0.21 0.20 0.28 0.46 0.31 0.26 0.17 0.10 0.09 0.08 0.06 0.03 0.03 0.07 0.13 0.16 0.25 0.33 0.40 0.29 0.16 0.20 0.27 0.25 0.17 0.13
1.58 2.09 1.96 1.44 1.16 1.08 0.88 0.77 0.84 0.80 0.43 0.14 0.10 0.15 0.11 0.07 0.05 0.01 0.01 0.03 0.02 0.02 0.05 0.06 0.11 0.14 0.16 0.26 0.21 0.27 0.47 0.40 0.24 0.16 0.10 0.05 0.09 0.07 0.05 0.04 0.01 0.00 0.01 0.06 0.14 0.19 0.24 0.22 0.16 0.13 0.17 0.27 0.23 0.20
2.60 2.64 1.64 1.20 1.22 1.22 1.08 1.16 1.14 1.01 0.63 0.23 0.05 0.09 0.10 0.06 0.06 0.05 0.02 0.01 0.02 0.07 0.17 0.25 0.26 0.13 0.12 0.14 0.13 0.21 0.31 0.20 0.10 0.06 0.02 0.01 0.01 0.01 0.01 0.00 0.00 0.00 0.01 0.03 0.09 0.13 0.20 0.25 0.24 0.18 0.16 0.16 0.16 0.22
2.25 1.43 1.11 1.27 1.54 1.87 2.10 1.64 1.08 0.86 0.53 0.10 0.01 0.01 0.01 0.03 0.05 0.07 0.04 0.03 0.02 0.11 0.27 0.50 0.30 0.15 0.05 0.03 0.03 0.08 0.10 0.07 0.06 0.03 0.02 0.01 0.00 0.00 0.01 0.02 0.00 0.03 0.12 0.18 0.17 0.16 0.17 0.17 0.16 0.12 0.11 0.10 0.10 0.09
1.40 1.03 1.25 1.45 1.58 2.00 2.12 1.74 1.00 0.46 0.10 0.01 0.00 0.00 0.00 0.00 0.03 0.06 0.05 0.03 0.05 0.12 0.23 0.32 0.25 0.08 0.00 0.01 0.02 0.01 0.00 0.01 0.01 0.01 0.01 0.00 0.00 0.00 0.01 0.04 0.06 0.07 0.20 0.14 0.05 0.06 0.05 0.06 0.09 0.10 0.10 0.10 0.10 0.09
1.83 1.64 1.62 1.54 1.21 1.68 1.69 1.33 0.71 0.15 0.03 0.00 0.00 0.00 0.00 0.00 0.01 0.05 0.10 0.06 0.07 0.28 0.34 0.20 0.06 0.03 0.04 0.04 0.04 0.02 0.00 0.00 0.00 0.00 0.00 0.00 0.00 0.00 0.00 0.02 0.05 0.07 0.08 0.08 0.09 0.10 0.09 0.07 0.06 0.06 0.06 0.08 0.11 0.11
3.56 2.82 2.54 2.57 2.62 2.27 1.49 0.76 0.28 0.07 0.01 0.00 0.00 0.01 0.01 0.01 0.01 0.03 0.10 0.17 0.27 0.36 0.27 0.13 0.05 0.03 0.05 0.06 0.06 0.03 0.00 0.00 0.00 0.00 0.00 0.00 0.00 0.00 0.00 0.00 0.00 0.01 0.02 0.03 0.05 0.06 0.08 0.07 0.08 0.08 0.07 0.10 0.12 0.11
3.66 2.97 3.65 3.63 2.95 2.22 1.27 0.60 0.13 0.04 0.01 0.01 0.02 0.02 0.03 0.02 0.02 0.05 0.13 0.35 0.41 0.18 0.12 0.12 0.13 0.11 0.08 0.07 0.07 0.07 0.05 0.02 0.00 0.00 0.00 0.00 0.00 0.00 0.00 0.00 0.00 0.00 0.00 0.01 0.02 0.01 0.02 0.02 0.03 0.05 0.07 0.10 0.13 0.09
2.97 2.67 2.69 2.61 2.21 1.58 1.00 0.41 0.13 0.08 0.03 0.06 0.06 0.06 0.07 0.05 0.06 0.08 0.17 0.16 0.13 0.10 0.08 0.09 0.12 0.16 0.18 0.14 0.14 0.12 0.11 0.08 0.04 0.02 0.01 0.00 0.00 0.00 0.00 0.00 0.00 0.00 0.01 0.01 0.01 0.01 0.00 0.00 0.00 0.00 0.00 0.02 0.06 0.08
2.61 2.81 2.70 2.24 1.41 0.98 0.65 0.51 0.33 0.17 0.16 0.12 0.12 0.08 0.05 0.03 0.10 0.14 0.12 0.04 0.03 0.04 0.09 0.12 0.11 0.11 0.10 0.12 0.14 0.18 0.21 0.19 0.13 0.09 0.07 0.05 0.03 0.02 0.01 0.01 0.00 0.00 0.01 0.01 0.00 0.00 0.00 0.00 0.00 0.00 0.00 0.00 0.01 0.02
2.98 2.97 2.19 1.78 0.95 0.34 0.15 0.16 0.14 0.11 0.11 0.09 0.07 0.05 0.04 0.06 0.07 0.07 0.03 0.00 0.01 0.03 0.07 0.09 0.11 0.12 0.11 0.11 0.11 0.11 0.12 0.19 0.22 0.19 0.18 0.15 0.12 0.11 0.09 0.06 0.03 0.01 0.01 0.03 0.02 0.01 0.00 0.00 0.00 0.00 0.00 0.01 0.03 0.04
2.62 1.71 0.89 0.39 0.19 0.04 0.02 0.03 0.03 0.03 0.04 0.06 0.05 0.03 0.03 0.06 0.06 0.02 0.00 0.00 0.01 0.04 0.05 0.07 0.07 0.08 0.07 0.08 0.10 0.13 0.13 0.15 0.17 0.19 0.22 0.25 0.21 0.18 0.17 0.16 0.12 0.07 0.05 0.06 0.08 0.07 0.04 0.01 0.01 0.01 0.02 0.03 0.06 0.06
1.84 1.08 0.36 0.06 0.01 0.01 0.01 0.01 0.02 0.04 0.07 0.06 0.05 0.03 0.06 0.10 0.03 0.01 0.01 0.00 0.01 0.02 0.04 0.08 0.13 0.11 0.09 0.10 0.11 0.12 0.15 0.18 0.19 0.16 0.22 0.33 0.34 0.27 0.20 0.17 0.16 0.13 0.13 0.14 0.12 0.11 0.09 0.07 0.06 0.06 0.07 0.07 0.08 0.09
0.84 0.21 0.06 0.06 0.01 0.02 0.03 0.06 0.09 0.09 0.06 0.03 0.05 0.04 0.05 0.03 0.01 0.00 0.00 0.00 0.01 0.02 0.04 0.09 0.13 0.15 0.14 0.12 0.14 0.16 0.18 0.21 0.25 0.26 0.30 0.36 0.40 0.40 0.35 0.30 0.31 0.32 0.30 0.22 0.19 0.19 0.17 0.16 0.15 0.16 0.17 0.14 0.11 0.11
0.18 0.04 0.01 0.03 0.02 0.03 0.04 0.05 0.04 0.02 0.00 0.00 0.03 0.01 0.00 0.00 0.00 0.00 0.01 0.02 0.02 0.04 0.06 0.09 0.12 0.14 0.17 0.18 0.20 0.23 0.24 0.24 0.20 0.19 0.15 0.20 0.29 0.41 0.46 0.42 0.44 0.44 0.39 0.36 0.32 0.28 0.28 0.30 0.30 0.30 0.30 0.29 0.25 0.25
0.04 0.00 0.01 0.03 0.03 0.03 0.03 0.03 0.02 0.01 0.00 0.01 0.01 0.01 0.01 0.01 0.01 0.02 0.02 0.04 0.05 0.08 0.11 0.14 0.17 0.19 0.21 0.22 0.23 0.24 0.25 0.28 0.26 0.17 0.16 0.16 0.21 0.32 0.40 0.41 0.45 0.48 0.47 0.42 0.48 0.53 0.52 0.51 0.51 0.48 0.43 0.39 0.35 0.31
0.01 0.01 0.01 0.01 0.01 0.02 0.03 0.03 0.02 0.02 0.03 0.02 0.03 0.03 0.02 0.02 0.02 0.02 0.02 0.04 0.07 0.11 0.16 0.19 0.22 0.27 0.28 0.30 0.30 0.27 0.26 0.32 0.37 0.36 0.31 0.34 0.32 0.32 0.38 0.44 0.45 0.47 0.48 0.44 0.39 0.37 0.36 0.32 0.28 0.27 0.28 0.27 0.26 0.25
0.04 0.02 0.01 0.01 0.02 0.04 0.04 0.04 0.03 0.03 0.02 0.02 0.02 0.02 0.02 0.01 0.01 0.01 0.03 0.06 0.10 0.13 0.17 0.21 0.21 0.26 0.31 0.31 0.33 0.35 0.31 0.31 0.36 0.40 0.37 0.35 0.34 0.34 0.38 0.41 0.44 0.44 0.45 0.44 0.40 0.39 0.38 0.37 0.39 0.35 0.35 0.35 0.32 0.29
0.12 0.09 0.06 0.07 0.11 0.09 0.05 0.05 0.07 0.06 0.04 0.02 0.02 0.01 0.02 0.01 0.01 0.02 0.03 0.07 0.11 0.14 0.16 0.21 0.26 0.28 0.28 0.28 0.31 0.35 0.38 0.40 0.41 0.45 0.47 0.45 0.44 0.47 0.42 0.39 0.41 0.41 0.41 0.41 0.44 0.45 0.47 0.43 0.41 0.40 0.36 0.34 0.31 0.30

GFSWCAN_prec_precacc_102.txt.gz
Total_Precipitation_Accumulation
0.93 0.92 1.02 1.02 1.07 1.17 1.18 1.24 1.34 1.41 1.49 1.01 0.80 0.60 0.35 0.29 0.20 0.19 0.29 0.37 0.42 0.13 0.02 0.00 0.00 0.01 0.00 0.00 0.02 0.02 0.09 0.13 0.20 0.26 0.24 0.10 0.03 0.01 0.00 0.00 0.00 0.02 0.04 0.06 0.06 0.10 0.01 0.00 0.00 0.00 0.00 0.00 0.00 0.01
0.86 0.77 0.87 0.84 0.70 0.66 0.54 0.64 0.85 0.97 0.84 0.65 0.60 0.42 0.24 0.22 0.21 0.25 0.26 0.29 0.25 0.15 0.01 0.00 0.00 0.00 0.00 0.00 0.02 0.01 0.08 0.12 0.22 0.24 0.19 0.09 0.04 0.01 0.00 0.01 0.00 0.00 0.00 0.00 0.00 0.00 0.00 0.00 0.00 0.00 0.00 0.00 0.00 0.00
0.79 0.80 0.92 1.09 0.99 0.88 0.74 0.73 0.90 1.13 0.70 0.58 0.45 0.26 0.15 0.17 0.17 0.30 0.30 0.23 0.24 0.25 0.05 0.03 0.02 0.00 0.00 0.00 0.00 0.04 0.07 0.15 0.23 0.21 0.32 0.15 0.06 0.04 0.02 0.01 0.00 0.00 0.00 0.00 0.00 0.00 0.00 0.00 0.00 0.00 0.00 0.00 0.00 0.01
0.74 0.72 0.74 0.99 1.25 1.27 1.32 1.21 1.15 1.09 0.66 0.60 0.38 0.21 0.12 0.11 0.16 0.23 0.11 0.10 0.22 0.26 0.19 0.05 0.01 0.02 0.01 0.02 0.02 0.02 0.09 0.17 0.29 0.48 0.33 0.19 0.08 0.03 0.02 0.01 0.00 0.01 0.00 0.00 0.00 0.00 0.00 0.00 0.00 0.00 0.00 0.00 0.00 0.00
1.03 0.89 0.67 0.66 0.81 0.85 1.02 1.13 1.01 0.88 0.60 0.53 0.43 0.17 0.15 0.18 0.16 0.08 0.02 0.07 0.16 0.32 0.34 0.18 0.16 0.01 0.01 0.05 0.04 0.06 0.11 0.30 0.34 0.59 0.57 0.22 0.09 0.06 0.02 0.01 0.00 0.00 0.00 0.00 0.00 0.00 0.00 0.00 0.00 0.00 0.00 0.00 0.00 0.00
1.01 1.14 1.23 0.82 0.65 0.69 0.83 0.71 0.58 0.59 0.57 0.49 0.26 0.19 0.17 0.10 0.14 0.15 0.20 0.36 0.28 0.32 0.60 0.43 0.34 0.16 0.06 0.09 0.09 0.15 0.22 0.43 0.67 0.50 0.53 0.33 0.13 0.20 0.17 0.05 0.00 0.00 0.00 0.00 0.00 0.00 0.00 0.00 0.00 0.00 0.00 0.00 0.00 0.00
0.81 0.99 1.29 1.41 0.88 0.66 0.77 0.80 0.53 0.54 0.49 0.30 0.18 0.13 0.07 0.04 0.11 0.12 0.25 0.62 0.58 0.57 0.68 0.78 0.66 0.48 0.14 0.23 0.27 0.30 0.31 0.55 0.89 0.66 0.41 0.33 0.29 0.53 0.34 0.05 0.00 0.01 0.01 0.01 0.01 0.00 0.00 0.00 0.00 0.00 0.00 0.00 0.00 0.00
0.74 0.75 0.93 1.41 1.17 0.76 0.64 0.87 0.57 0.51 0.33 0.16 0.08 0.04 0.01 0.08 0.06 0.07 0.05 0.19 0.49 0.88 0.91 1.04 0.98 0.96 0.32 0.53 0.46 0.40 0.39 0.48 1.03 0.74 0.34 0.24 0.35 0.35 0.20 0.02 0.05 0.04 0.04 0.02 0.01 0.02 0.01 0.01 0.00 0.00 0.00 0.00 0.00 0.00
0.91 0.78 0.69 0.89 1.23 0.76 0.66 0.76 0.73 0.44 0.18 0.06 0.01 0.02 0.08 0.06 0.04 0.12 0.21 0.40 0.63 1.02 0.82 0.77 0.90 0.80 0.64 0.64 0.48 0.56 0.47 0.57 0.72 0.54 0.23 0.25 0.27 0.29 0.06 0.08 0.11 0.14 0.15 0.17 0.13 0.06 0.06 0.05 0.02 0.03 0.02 0.03 0.04 0.04
0.98 1.03 0.71 0.63 0.92 0.76 0.65 0.71 0.61 0.25 0.11 0.03 0.01 0.04 0.11 0.02 0.05 0.48 0.83 1.06 1.07 0.83 0.58 0.62 0.54 0.45 0.89 0.67 0.60 0.65 0.35 0.56 0.65 0.31 0.24 0.30 0.19 0.03 0.05 0.12 0.09 0.15 0.30 0.34 0.42 0.30 0.17 0.23 0.14 0.10 0.15 0.11 0.12 0.14
0.90 1.04 0.80 0.65 0.68 0.60 0.60 0.67 0.57 0.23 0.09 0.02 0.02 0.05 0.04 0.05 0.62 1.16 1.33 1.06 0.65 0.44 0.43 0.40 0.40 0.37 0.48 0.55 0.38 0.42 0.50 0.46 0.70 0.47 0.32 0.31 0.30 0.12 0.07 0.05 0.04 0.08 0.18 0.14 0.31 0.32 0.20 0.30 0.35 0.25 0.29 0.33 0.34 0.35
0.94 1.02 0.92 0.74 0.69 0.49 0.54 0.66 0.52 0.14 0.04 0.05 0.07 0.06 0.12 0.44 1.03 0.97 0.96 0.59 0.25 0.21 0.22 0.27 0.28 0.33 0.43 0.30 0.49 0.40 0.36 0.33 0.35 0.32 0.45 0.41 0.27 0.18 0.20 0.09 0.06 0.04 0.06 0.07 0.10 0.22 0.18 0.11 0.16 0.19 0.27 0.30 0.29 0.34
1.00 1.01 0.92 0.73 0.72 0.61 0.61 0.58 0.43 0.23 0.13 0.07 0.09 0.18 0.30 0.56 0.73 0.55 0.45 0.25 0.10 0.09 0.08 0.11 0.26 0.22 0.39 0.36 0.41 0.46 0.26 0.16 0.34 0.44 0.40 0.18 0.06 0.03 0.10 0.19 0.20 0.16 0.10 0.25 0.27 0.18 0.11 0.09 0.11 0.14 0.15 0.11 0.10 0.11
1.10 1.06 0.91 0.82 0.82 0.76 0.70 0.59 0.59 0.44 0.24 0.17 0.20 0.22 0.27 0.32 0.37 0.27 0.17 0.15 0.05 0.04 0.03 0.05 0.12 0.20 0.27 0.23 0.24 0.26 0.13 0.28 0.49 0.33 0.22 0.07 0.06 0.04 0.02 0.05 0.10 0.14 0.13 0.24 0.56 0.60 0.44 0.44 0.40 0.30 0.21 0.15 0.12 0.11
1.20 1.23 1.16 1.18 1.02 0.93 0.83 0.78 0.76 0.58 0.39 0.31 0.27 0.18 0.15 0.22 0.09 0.05 0.04 0.06 0.02 0.02 0.03 0.02 0.08 0.13 0.18 0.23 0.21 0.20 0.28 0.46 0.31 0.26 0.17 0.10 0.09 0.08 0.06 0.03 0.03 0.07 0.13 0.16 0.25 0.33 0.40 0.29 0.16 0.20 0.27 0.25 0.17 0.13
1.59 2.12 1.97 1.45 1.17 1.13 1.05 1.10 1.26 1.27 0.85 0.51 0.34 0.18 0.11 0.07 0.05 0.01 0.01 0.03 0.02 0.02 0.05 0.06 0.11 0.14 0.16 0.26 0.21 0.27 0.47 0.40 0.24 0.16 0.10 0.05 0.09 0.07 0.05 0.04 0.01 0.00 0.01 0.06 0.14 0.19 0.24 0.22 0.16 0.13 0.17 0.27 0.23 0.20
2.67 2.70 1.66 1.20 1.23 1.29 1.35 1.72 1.92 1.61 1.04 0.59 0.19 0.10 0.10 0.06 0.06 0.05 0.02 0.01 0.02 0.07 0.17 0.25 0.26 0.13 0.12 0.14 0.13 0.21 0.32 0.20 0.10 0.06 0.02 0.01 0.01 0.01 0.01 0.00 0.00 0.00 0.01 0.03 0.09 0.13 0.20 0.25 0.24 0.18 0.16 0.16 0.16 0.22
2.33 1.51 1.18 1.31 1.59 2.12 2.69 2.23 1.60 1.34 0.88 0.22 0.02 0.01 0.01 0.03 0.05 0.07 0.04 0.03 0.02 0.11 0.27 0.50 0.30 0.15 0.05 0.03 0.04 0.08 0.11 0.07 0.06 0.03 0.02 0.01 0.00 0.00 0.01 0.02 0.00 0.03 0.12 0.18 0.17 0.16 0.17 0.17 0.16 0.12 0.11 0.10 0.10 0.09
1.41 1.07 1.35 1.61 1.80 2.25 2.45 2.14 1.43 0.81 0.24 0.03 0.00 0.00 0.00 0.00 0.03 0.06 0.05 0.03 0.06 0.12 0.23 0.33 0.25 0.08 0.00 0.01 0.02 0.01 0.00 0.01 0.01 0.01 0.01 0.00 0.00 0.00 0.01 0.04 0.06 0.07 0.20 0.14 0.05 0.06 0.05 0.06 0.09 0.10 0.10 0.10 0.10 0.09
1.86 1.68 1.70 1.75 1.54 2.03 2.09 1.73 1.08 0.32 0.08 0.00 0.00 0.00 0.00 0.00 0.01 0.05 0.10 0.07 0.08 0.30 0.36 0.21 0.06 0.03 0.04 0.04 0.04 0.02 0.00 0.00 0.00 0.00 0.00 0.00 0.00 0.00 0.00 0.02 0.05 0.07 0.08 0.08 0.09 0.10 0.09 0.07 0.06 0.06 0.06 0.08 0.11 0.11
3.63 2.87 2.63 2.85 3.13 2.79 1.93 1.05 0.39 0.11 0.02 0.00 0.00 0.01 0.01 0.01 0.01 0.03 0.11 0.18 0.34 0.48 0.31 0.13 0.05 0.03 0.05 0.06 0.06 0.03 0.00 0.00 0.00 0.00 0.00 0.00 0.00 0.00 0.00 0.00 0.00 0.01 0.02 0.03 0.05 0.06 0.08 0.07 0.08 0.08 0.07 0.10 0.12 0.11
3.75 3.07 3.86 4.07 3.46 2.70 1.61 0.79 0.18 0.05 0.01 0.01 0.02 0.02 0.03 0.03 0.03 0.05 0.14 0.40 0.49 0.20 0.12 0.12 0.13 0.11 0.08 0.07 0.07 0.07 0.05 0.02 0.00 0.00 0.00 0.00 0.00 0.00 0.00 0.00 0.00 0.00 0.00 0.01 0.02 0.01 0.02 0.02 0.03 0.05 0.07 0.10 0.13 0.09
3.11 2.91 3.01 2.99 2.58 1.97 1.28 0.56 0.19 0.09 0.04 0.06 0.06 0.07 0.09 0.06 0.06 0.09 0.22 0.21 0.15 0.10 0.08 0.09 0.12 0.16 0.18 0.14 0.14 0.12 0.11 0.08 0.04 0.02 0.01 0.00 0.00 0.00 0.00 0.00 0.00 0.00 0.01 0.01 0.01 0.01 0.00 0.00 0.00 0.00 0.00 0.02 0.06 0.08
2.76 3.03 3.00 2.63 1.76 1.28 0.85 0.65 0.41 0.20 0.19 0.13 0.13 0.09 0.05 0.03 0.12 0.18 0.14 0.04 0.03 0.04 0.09 0.12 0.11 0.11 0.10 0.12 0.14 0.18 0.21 0.19 0.13 0.09 0.07 0.05 0.03 0.02 0.01 0.01 0.00 0.00 0.01 0.01 0.00 0.00 0.00 0.00 0.00 0.00 0.00 0.00 0.01 0.02
3.17 3.21 2.50 2.12 1.17 0.46 0.22 0.17 0.15 0.12 0.12 0.10 0.07 0.05 0.04 0.07 0.10 0.09 0.03 0.00 0.01 0.03 0.07 0.09 0.11 0.12 0.11 0.11 0.11 0.11 0.12 0.19 0.22 0.19 0.18 0.15 0.12 0.11 0.09 0.06 0.03 0.01 0.01 0.03 0.02 0.01 0.00 0.00 0.00 0.00 0.00 0.01 0.03 0.04
2.79 1.85 1.01 0.45 0.22 0.05 0.02 0.03 0.03 0.03 0.04 0.06 0.05 0.04 0.03 0.07 0.09 0.02 0.00 0.00 0.01 0.04 0.05 0.07 0.08 0.09 0.07 0.08 0.10 0.13 0.13 0.15 0.17 0.19 0.22 0.25 0.21 0.18 0.17 0.16 0.12 0.07 0.05 0.06 0.08 0.07 0.04 0.01 0.01 0.01 0.02 0.03 0.06 0.06
1.98 1.19 0.43 0.07 0.01 0.01 0.01 0.01 0.02 0.04 0.07 0.07 0.05 0.04 0.06 0.12 0.04 0.01 0.01 0.00 0.01 0.02 0.04 0.08 0.13 0.11 0.09 0.10 0.11 0.12 0.15 0.18 0.19 0.16 0.22 0.33 0.34 0.27 0.20 0.17 0.16 0.13 0.13 0.14 0.12 0.11 0.09 0.07 0.06 0.06 0.07 0.07 0.08 0.09
0.91 0.23 0.06 0.06 0.01 0.02 0.03 0.06 0.09 0.09 0.06 0.03 0.05 0.04 0.05 0.03 0.01 0.00 0.00 0.00 0.01 0.02 0.04 0.09 0.13 0.15 0.14 0.12 0.14 0.16 0.18 0.21 0.25 0.26 0.30 0.36 0.40 0.40 0.35 0.30 0.31 0.32 0.30 0.22 0.19 0.19 0.17 0.16 0.15 0.16 0.17 0.14 0.11 0.11
0.22 0.05 0.01 0.03 0.02 0.03 0.04 0.05 0.04 0.02 0.00 0.00 0.03 0.01 0.00 0.00 0.00 0.00 0.01 0.02 0.02 0.04 0.06 0.09 0.12 0.14 0.17 0.18 0.20 0.23 0.24 0.24 0.20 0.19 0.15 0.20 0.29 0.41 0.46 0.42 0.44 0.44 0.39 0.36 0.32 0.28 0.28 0.30 0.30 0.30 0.30 0.29 0.25 0.25
0.04 0.00 0.01 0.03 0.03 0.03 0.03 0.03 0.02 0.01 0.00 0.01 0.01 0.01 0.01 0.01 0.01 0.02 0.02 0.04 0.05 0.08 0.11 0.14 0.17 0.19 0.21 0.22 0.23 0.24 0.25 0.28 0.26 0.17 0.16 0.16 0.21 0.32 0.40 0.41 0.45 0.48 0.47 0.42 0.48 0.53 0.52 0.51 0.51 0.48 0.43 0.39 0.35 0.31
0.01 0.01 0.01 0.01 0.01 0.02 0.03 0.03 0.02 0.02 0.03 0.02 0.03 0.03 0.02 0.02 0.02 0.02 0.02 0.04 0.07 0.11 0.16 0.19 0.22 0.27 0.28 0.30 0.30 0.27 0.26 0.32 0.37 0.36 0.31 0.34 0.32 0.32 0.38 0.44 0.45 0.47 0.48 0.44 0.39 0.37 0.36 0.32 0.28 0.27 0.28 0.27 0.26 0.25
0.04 0.02 0.01 0.01 0.02 0.04 0.04 0.04 0.03 0.03 0.02 0.02 0.02 0.02 0.02 0.01 0.01 0.01 0.03 0.06 0.10 0.13 0.17 0.21 0.21 0.26 0.31 0.31 0.33 0.35 0.31 0.31 0.36 0.40 0.37 0.35 0.34 0.34 0.38 0.41 0.44 0.44 0.45 0.44 0.40 0.39 0.38 0.37 0.39 0.35 0.35 0.35 0.32 0.29
0.13 0.10 0.07 0.07 0.11 0.09 0.05 0.06 0.08 0.06 0.04 0.02 0.02 0.01 0.02 0.01 0.01 0.02 0.03 0.07 0.11 0.14 0.16 0.21 0.26 0.28 0.28 0.28 0.31 0.35 0.38 0.40 0.41 0.45 0.47 0.45 0.44 0.47 0.42 0.39 0.41 0.41 0.41 0.41 0.44 0.45 0.47 0.43 0.41 0.40 0.36 0.34 0.31 0.30

GFSWCAN_prec_precacc_105.txt.gz
Total_Precipitation_Accumulation
0.93 0.92 1.02 1.02 1.07 1.17 1.18 1.24 1.34 1.41 1.49 1.01 0.80 0.60 0.35 0.29 0.20 0.19 0.29 0.37 0.42 0.13 0.02 0.00 0.00 0.01 0.00 0.00 0.02 0.02 0.09 0.13 0.20 0.26 0.24 0.10 0.03 0.01 0.00 0.00 0.00 0.02 0.04 0.06 0.06 0.10 0.01 0.00 0.00 0.00 0.00 0.00 0.00 0.01
0.86 0.77 0.87 0.84 0.70 0.66 0.54 0.64 0.85 0.97 0.84 0.65 0.60 0.42 0.24 0.22 0.21 0.25 0.26 0.29 0.25 0.15 0.01 0.00 0.00 0.00 0.00 0.00 0.02 0.01 0.08 0.12 0.22 0.24 0.19 0.09 0.04 0.01 0.00 0.01 0.00 0.00 0.00 0.00 0.00 0.00 0.00 0.00 0.00 0.00 0.00 0.00 0.00 0.00
0.79 0.80 0.92 1.09 1.00 0.88 0.74 0.73 0.90 1.13 0.70 0.58 0.45 0.26 0.15 0.17 0.17 0.30 0.30 0.23 0.24 0.25 0.05 0.03 0.02 0.00 0.00 0.00 0.00 0.04 0.07 0.15 0.23 0.21 0.32 0.15 0.06 0.04 0.02 0.01 0.00 0.00 0.00 0.00 0.00 0.00 0.00 0.00 0.00 0.00 0.00 0.00 0.00 0.01
0.74 0.72 0.74 0.99 1.25 1.27 1.32 1.22 1.15 1.09 0.66 0.60 0.38 0.21 0.12 0.11 0.16 0.23 0.11 0.10 0.22 0.26 0.19 0.05 0.01 0.02 0.01 0.02 0.02 0.02 0.09 0.17 0.29 0.48 0.33 0.19 0.08 0.03 0.02 0.01 0.00 0.01 0.00 0.00 0.00 0.00 0.00 0.00 0.00 0.00 0.00 0.00 0.00 0.00
1.04 0.89 0.67 0.66 0.81 0.86 1.02 1.14 1.02 0.88 0.60 0.53 0.43 0.17 0.15 0.18 0.16 0.08 0.02 0.07 0.16 0.32 0.34 0.18 0.16 0.01 0.01 0.05 0.04 0.06 0.11 0.30 0.34 0.59 0.57 0.22 0.09 0.06 0.02 0.01 0.00 0.00 0.00 0.00 0.00 0.00 0.00 0.00 0.00 0.00 0.00 0.00 0.00 0.00
1.01 1.14 1.23 0.82 0.65 0.70 0.83 0.72 0.58 0.59 0.57 0.49 0.26 0.19 0.17 0.10 0.14 0.15 0.20 0.36 0.28 0.32 0.60 0.43 0.34 0.16 0.06 0.09 0.09 0.15 0.22 0.43 0.67 0.50 0.53 0.33 0.13 0.20 0.17 0.05 0.00 0.00 0.00 0.00 0.00 0.00 0.00 0.00 0.00 0.00 0.00 0.00 0.00 0.00
0.81 0.99 1.29 1.42 0.89 0.66 0.78 0.81 0.54 0.55 0.50 0.31 0.18 0.14 0.07 0.04 0.11 0.12 0.25 0.62 0.58 0.57 0.68 0.78 0.66 0.48 0.14 0.23 0.27 0.30 0.31 0.55 0.89 0.66 0.41 0.33 0.29 0.53 0.34 0.05 0.00 0.01 0.01 0.01 0.01 0.00 0.00 0.00 0.00 0.00 0.00 0.00 0.00 0.00
0.74 0.75 0.93 1.41 1.17 0.76 0.64 0.88 0.59 0.54 0.36 0.17 0.09 0.04 0.02 0.08 0.06 0.07 0.05 0.19 0.49 0.88 0.91 1.04 0.98 0.96 0.32 0.53 0.46 0.40 0.39 0.48 1.03 0.74 0.34 0.24 0.35 0.35 0.20 0.02 0.05 0.04 0.04 0.02 0.01 0.02 0.01 0.01 0.00 0.00 0.00 0.00 0.00 0.00
0.91 0.78 0.69 0.89 1.24 0.76 0.66 0.78 0.75 0.47 0.23 0.09 0.03 0.02 0.09 0.06 0.04 0.12 0.21 0.40 0.63 1.02 0.82 0.77 0.90 0.80 0.64 0.64 0.48 0.56 0.47 0.57 0.72 0.54 0.23 0.25 0.27 0.29 0.06 0.08 0.11 0.14 0.15 0.17 0.13 0.06 0.06 0.05 0.02 0.03 0.02 0.03 0.04 0.04
0.98 1.03 0.71 0.63 0.92 0.76 0.66 0.72 0.64 0.32 0.19 0.10 0.04 0.05 0.11 0.02 0.05 0.48 0.83 1.06 1.07 0.83 0.58 0.62 0.54 0.45 0.89 0.67 0.60 0.65 0.35 0.56 0.65 0.31 0.24 0.30 0.19 0.03 0.05 0.12 0.09 0.15 0.30 0.34 0.42 0.30 0.17 0.23 0.14 0.10 0.15 0.11 0.12 0.14
0.90 1.04 0.80 0.65 0.69 0.61 0.61 0.68 0.62 0.40 0.26 0.09 0.05 0.06 0.04 0.05 0.62 1.16 1.33 1.06 0.65 0.44 0.43 0.40 0.40 0.37 0.48 0.55 0.38 0.42 0.50 0.46 0.70 0.47 0.32 0.31 0.30 0.12 0.07 0.05 0.04 0.08 0.18 0.14 0.31 0.32 0.20 0.30 0.35 0.25 0.29 0.33 0.34 0.35
0.94 1.02 0.92 0.74 0.70 0.49 0.55 0.68 0.61 0.23 0.08 0.08 0.11 0.09 0.14 0.45 1.04 0.97 0.96 0.59 0.25 0.21 0.22 0.27 0.28 0.33 0.43 0.30 0.49 0.40 0.36 0.33 0.35 0.32 0.45 0.41 0.27 0.18 0.20 0.09 0.06 0.04 0.06 0.07 0.10 0.22 0.18 0.11 0.16 0.19 0.27 0.30 0.29 0.34
1.00 1.01 0.92 0.73 0.72 0.61 0.62 0.61 0.52 0.32 0.25 0.18 0.21 0.34 0.39 0.61 0.77 0.57 0.45 0.25 0.10 0.09 0.08 0.11 0.26 0.22 0.39 0.36 0.41 0.46 0.26 0.16 0.34 0.44 0.40 0.18 0.06 0.03 0.10 0.19 0.20 0.16 0.10 0.25 0.27 0.18 0.11 0.09 0.11 0.14 0.15 0.11 0.10 0.11
1.11 1.06 0.91 0.82 0.82 0.76 0.71 0.62 0.75 0.58 0.37 0.43 0.46 0.43 0.35 0.34 0.38 0.27 0.17 0.15 0.05 0.04 0.03 0.05 0.12 0.20 0.27 0.24 0.24 0.26 0.13 0.28 0.49 0.33 0.22 0.07 0.06 0.04 0.02 0.05 0.10 0.14 0.13 0.24 0.56 0.60 0.44 0.44 0.40 0.30 0.21 0.15 0.12 0.11
1.20 1.23 1.16 1.18 1.02 0.93 0.85 0.84 0.91 0.66 0.55 0.60 0.57 0.32 0.20 0.22 0.09 0.05 0.04 0.06 0.02 0.02 0.03 0.02 0.08 0.13 0.18 0.23 0.21 0.20 0.28 0.46 0.31 0.26 0.17 0.10 0.09 0.08 0.06 0.03 0.03 0.07 0.13 0.16 0.25 0.33 0.40 0.29 0.16 0.20 0.27 0.25 0.17 0.13
1.59 2.13 1.97 1.45 1.17 1.13 1.07 1.21 1.45 1.41 1.11 0.89 0.71 0.32 0.12 0.07 0.05 0.01 0.01 0.03 0.02 0.02 0.05 0.07 0.11 0.14 0.16 0.26 0.21 0.27 0.47 0.40 0.24 0.16 0.10 0.05 0.09 0.07 0.05 0.04 0.01 0.00 0.01 0.06 0.14 0.19 0.24 0.22 0.16 0.13 0.17 0.27 0.23 0.20
2.69 2.71 1.66 1.20 1.24 1.31 1.42 1.93 2.17 1.87 1.32 0.88 0.41 0.15 0.10 0.06 0.06 0.05 0.02 0.01 0.02 0.07 0.17 0.26 0.27 0.13 0.12 0.14 0.13 0.21 0.32 0.20 0.10 0.06 0.02 0.01 0.01 0.01 0.01 0.00 0.00 0.00 0.01 0.03 0.09 0.13 0.20 0.25 0.24 0.18 0.16 0.16 0.16 0.22
2.34 1.51 1.18 1.33 1.64 2.23 2.84 2.42 1.80 1.55 1.12 0.36 0.05 0.01 0.01 0.03 0.05 0.07 0.04 0.03 0.03 0.12 0.28 0.52 0.30 0.16 0.05 0.03 0.04 0.08 0.11 0.07 0.06 0.03 0.02 0.01 0.00 0.00 0.01 0.02 0.00 0.03 0.12 0.18 0.17 0.16 0.17 0.17 0.16 0.12 0.11 0.10 0.10 0.09
1.41 1.07 1.35 1.63 1.95 2.52 2.75 2.35 1.62 0.96 0.31 0.05 0.00 0.00 0.00 0.00 0.03 0.06 0.05 0.03 0.07 0.14 0.25 0.35 0.27 0.09 0.00 0.01 0.02 0.01 0.00 0.01 0.01 0.01 0.01 0.00 0.00 0.00 0.01 0.04 0.06 0.07 0.20 0.14 0.05 0.06 0.05 0.06 0.09 0.10 0.10 0.10 0.10 0.09
1.87 1.69 1.71 1.76 1.70 2.42 2.61 2.24 1.40 0.46 0.10 0.00 0.00 0.00 0.00 0.00 0.01 0.05 0.10 0.07 0.10 0.35 0.47 0.30 0.09 0.03 0.04 0.04 0.04 0.02 0.00 0.00 0.00 0.00 0.00 0.00 0.00 0.00 0.00 0.02 0.05 0.07 0.08 0.08 0.09 0.10 0.09 0.07 0.06 0.06 0.06 0.08 0.11 0.11
3.65 2.88 2.65 2.91 3.24 3.07 2.40 1.50 0.66 0.21 0.04 0.01 0.00 0.01 0.01 0.01 0.01 0.03 0.11 0.19 0.44 0.67 0.41 0.15 0.05 0.03 0.05 0.06 0.06 0.03 0.00 0.00 0.00 0.00 0.00 0.00 0.00 0.00 0.00 0.00 0.00 0.01 0.02 0.03 0.05 0.06 0.08 0.07 0.08 0.08 0.07 0.10 0.12 0.11
3.77 3.12 3.93 4.20 3.65 2.91 1.87 1.09 0.42 0.17 0.04 0.02 0.02 0.02 0.04 0.03 0.03 0.05 0.14 0.43 0.59 0.25 0.12 0.12 0.13 0.11 0.08 0.07 0.07 0.07 0.05 0.02 0.00 0.00 0.00 0.00 0.00 0.00 0.00 0.00 0.00 0.00 0.00 0.01 0.02 0.01 0.02 0.02 0.03 0.05 0.07 0.10 0.13 0.09
3.17 2.97 3.16 3.22 2.90 2.28 1.45 0.65 0.28 0.18 0.09 0.11 0.10 0.11 0.11 0.06 0.06 0.10 0.24 0.23 0.16 0.10 0.08 0.09 0.12 0.16 0.18 0.14 0.14 0.12 0.11 0.08 0.04 0.02 0.01 0.00 0.00 0.00 0.00 0.00 0.00 0.01 0.01 0.01 0.01 0.01 0.00 0.00 0.00 0.00 0.00 0.02 0.06 0.08
2.88 3.20 3.21 2.91 2.01 1.53 1.05 0.77 0.47 0.23 0.23 0.16 0.15 0.12 0.06 0.04 0.13 0.22 0.16 0.04 0.03 0.04 0.09 0.12 0.11 0.11 0.10 0.12 0.14 0.18 0.21 0.19 0.13 0.09 0.07 0.05 0.03 0.02 0.01 0.01 0.00 0.00 0.01 0.01 0.00 0.00 0.00 0.00 0.00 0.00 0.00 0.00 0.01 0.02
3.44 3.48 2.66 2.29 1.33 0.56 0.29 0.23 0.18 0.13 0.13 0.11 0.08 0.05 0.05 0.07 0.12 0.12 0.03 0.00 0.01 0.03 0.07 0.09 0.11 0.12 0.11 0.11 0.11 0.11 0.12 0.19 0.22 0.19 0.18 0.15 0.12 0.11 0.09 0.06 0.03 0.01 0.01 0.03 0.02 0.01 0.00 0.00 0.00 0.00 0.00 0.01 0.03 0.04
3.04 1.96 1.11 0.48 0.24 0.06 0.03 0.03 0.04 0.03 0.04 0.07 0.05 0.04 0.04 0.08 0.13 0.05 0.00 0.00 0.01 0.04 0.05 0.07 0.08 0.09 0.07 0.08 0.10 0.13 0.13 0.15 0.17 0.19 0.22 0.25 0.21 0.18 0.17 0.16 0.12 0.07 0.05 0.06 0.08 0.07 0.04 0.01 0.01 0.01 0.02 0.03 0.06 0.06
2.13 1.23 0.45 0.08 0.01 0.01 0.01 0.01 0.02 0.04 0.07 0.07 0.05 0.04 0.07 0.15 0.06 0.01 0.01 0.00 0.01 0.02 0.04 0.08 0.13 0.11 0.09 0.10 0.11 0.12 0.15 0.18 0.19 0.16 0.22 0.33 0.34 0.27 0.20 0.17 0.16 0.13 0.13 0.14 0.12 0.11 0.09 0.07 0.06 0.06 0.07 0.07 0.08 0.09
1.04 0.31 0.08 0.07 0.01 0.02 0.03 0.06 0.09 0.09 0.06 0.03 0.05 0.04 0.06 0.04 0.01 0.00 0.00 0.00 0.01 0.02 0.04 0.09 0.13 0.15 0.14 0.12 0.14 0.16 0.18 0.21 0.25 0.26 0.30 0.36 0.40 0.40 0.35 0.30 0.31 0.32 0.30 0.22 0.19 0.19 0.17 0.16 0.15 0.16 0.17 0.14 0.11 0.11
0.22 0.07 0.05 0.08 0.04 0.04 0.04 0.05 0.04 0.02 0.00 0.00 0.03 0.01 0.00 0.00 0.00 0.00 0.01 0.02 0.02 0.04 0.06 0.09 0.12 0.14 0.17 0.18 0.20 0.23 0.24 0.24 0.20 0.19 0.15 0.20 0.29 0.41 0.46 0.42 0.44 0.44 0.39 0.36 0.32 0.28 0.28 0.30 0.30 0.30 0.30 0.29 0.25 0.25
0.04 0.00 0.01 0.03 0.04 0.04 0.03 0.03 0.02 0.01 0.00 0.01 0.01 0.01 0.01 0.01 0.01 0.02 0.02 0.04 0.05 0.08 0.11 0.14 0.17 0.19 0.21 0.22 0.23 0.24 0.25 0.28 0.26 0.17 0.16 0.16 0.21 0.32 0.40 0.41 0.45 0.48 0.47 0.42 0.48 0.53 0.52 0.51 0.51 0.48 0.43 0.39 0.35 0.31
0.01 0.01 0.01 0.01 0.01 0.02 0.03 0.03 0.02 0.02 0.03 0.02 0.03 0.03 0.02 0.02 0.02 0.02 0.02 0.04 0.07 0.11 0.16 0.19 0.22 0.27 0.28 0.30 0.30 0.27 0.26 0.32 0.37 0.36 0.31 0.34 0.32 0.32 0.38 0.44 0.45 0.47 0.48 0.44 0.39 0.37 0.36 0.32 0.28 0.27 0.28 0.27 0.26 0.25
0.05 0.02 0.01 0.01 0.02 0.04 0.04 0.04 0.03 0.03 0.02 0.02 0.02 0.02 0.02 0.01 0.01 0.01 0.03 0.06 0.10 0.13 0.17 0.21 0.21 0.26 0.31 0.31 0.33 0.35 0.31 0.31 0.36 0.40 0.37 0.35 0.34 0.34 0.38 0.41 0.44 0.44 0.45 0.44 0.40 0.39 0.38 0.37 0.39 0.35 0.35 0.35 0.32 0.29
0.14 0.11 0.08 0.08 0.12 0.09 0.05 0.06 0.08 0.06 0.04 0.02 0.02 0.01 0.02 0.01 0.01 0.02 0.03 0.07 0.11 0.14 0.16 0.21 0.26 0.28 0.28 0.28 0.31 0.35 0.38 0.40 0.41 0.45 0.47 0.45 0.44 0.47 0.42 0.39 0.41 0.41 0.41 0.41 0.44 0.45 0.47 0.43 0.41 0.40 0.36 0.34 0.31 0.30

GFSWCAN_prec_precacc_108.txt.gz
Total_Precipitation_Accumulation
0.93 0.92 1.02 1.02 1.08 1.17 1.18 1.24 1.34 1.41 1.49 1.01 0.80 0.60 0.35 0.29 0.20 0.19 0.29 0.37 0.42 0.13 0.02 0.00 0.00 0.01 0.00 0.00 0.02 0.02 0.09 0.13 0.20 0.26 0.24 0.10 0.03 0.01 0.00 0.00 0.00 0.02 0.04 0.06 0.06 0.10 0.01 0.00 0.00 0.00 0.00 0.00 0.00 0.01
0.86 0.77 0.87 0.84 0.70 0.66 0.54 0.64 0.85 0.97 0.84 0.65 0.60 0.42 0.24 0.22 0.21 0.25 0.26 0.29 0.25 0.15 0.01 0.00 0.00 0.00 0.00 0.00 0.02 0.01 0.08 0.12 0.22 0.24 0.19 0.09 0.04 0.01 0.00 0.01 0.00 0.00 0.00 0.00 0.00 0.00 0.00 0.00 0.00 0.00 0.00 0.00 0.00 0.00
0.80 0.80 0.92 1.09 1.00 0.89 0.75 0.73 0.90 1.14 0.70 0.58 0.45 0.26 0.15 0.17 0.17 0.30 0.30 0.23 0.24 0.25 0.05 0.03 0.02 0.00 0.00 0.00 0.00 0.04 0.07 0.15 0.23 0.21 0.32 0.15 0.06 0.04 0.02 0.01 0.00 0.00 0.00 0.00 0.00 0.00 0.00 0.00 0.00 0.00 0.00 0.00 0.00 0.01
0.74 0.72 0.74 1.00 1.25 1.28 1.32 1.22 1.15 1.09 0.66 0.60 0.38 0.21 0.12 0.11 0.16 0.23 0.11 0.10 0.22 0.26 0.19 0.05 0.01 0.02 0.01 0.02 0.02 0.02 0.09 0.17 0.29 0.48 0.33 0.19 0.08 0.03 0.02 0.01 0.00 0.01 0.00 0.00 0.00 0.00 0.00 0.00 0.00 0.00 0.00 0.00 0.00 0.00
1.04 0.89 0.67 0.66 0.81 0.86 1.02 1.14 1.02 0.89 0.61 0.54 0.43 0.17 0.15 0.18 0.16 0.08 0.02 0.07 0.16 0.32 0.34 0.18 0.16 0.01 0.01 0.05 0.04 0.06 0.11 0.30 0.34 0.59 0.57 0.22 0.09 0.06 0.02 0.01 0.00 0.00 0.00 0.00 0.00 0.00 0.00 0.00 0.00 0.00 0.00 0.00 0.00 0.00
1.01 1.14 1.23 0.82 0.65 0.70 0.84 0.73 0.59 0.61 0.57 0.50 0.26 0.19 0.17 0.10 0.14 0.15 0.20 0.36 0.28 0.32 0.60 0.43 0.34 0.16 0.06 0.09 0.09 0.15 0.22 0.43 0.67 0.50 0.53 0.33 0.13 0.20 0.17 0.05 0.00 0.00 0.00 0.00 0.00 0.00 0.00 0.00 0.00 0.00 0.00 0.00 0.00 0.00
0.81 0.99 1.30 1.42 0.89 0.67 0.78 0.82 0.54 0.56 0.50 0.31 0.19 0.14 0.07 0.05 0.11 0.12 0.25 0.62 0.58 0.57 0.68 0.78 0.66 0.48 0.14 0.23 0.27 0.30 0.31 0.55 0.89 0.66 0.41 0.33 0.29 0.53 0.34 0.05 0.00 0.01 0.01 0.01 0.01 0.00 0.00 0.00 0.00 0.00 0.00 0.00 0.00 0.00
0.74 0.75 0.93 1.41 1.17 0.76 0.65 0.89 0.59 0.55 0.37 0.20 0.11 0.06 0.02 0.09 0.06 0.07 0.05 0.19 0.49 0.88 0.91 1.04 0.98 0.96 0.32 0.53 0.46 0.40 0.39 0.48 1.03 0.74 0.34 0.24 0.35 0.35 0.20 0.02 0.05 0.04 0.04 0.02 0.01 0.02 0.01 0.01 0.00 0.00 0.00 0.00 0.00 0.00
0.91 0.78 0.69 0.89 1.24 0.76 0.67 0.78 0.76 0.48 0.25 0.15 0.09 0.05 0.10 0.06 0.04 0.12 0.21 0.40 0.63 1.02 0.82 0.77 0.90 0.80 0.64 0.64 0.48 0.56 0.47 0.57 0.72 0.54 0.23 0.25 0.27 0.29 0.06 0.08 0.11 0.14 0.15 0.17 0.13 0.06 0.06 0.05 0.02 0.03 0.02 0.03 0.04 0.04
0.98 1.03 0.71 0.63 0.92 0.76 0.66 0.72 0.64 0.32 0.26 0.23 0.09 0.07 0.12 0.02 0.05 0.48 0.83 1.06 1.07 0.83 0.58 0.62 0.54 0.45 0.89 0.67 0.60 0.65 0.35 0.56 0.65 0.31 0.24 0.31 0.19 0.03 0.05 0.12 0.09 0.15 0.30 0.34 0.42 0.30 0.17 0.23 0.14 0.10 0.15 0.11 0.12 0.14
0.90 1.04 0.80 0.65 0.69 0.61 0.61 0.68 0.62 0.43 0.34 0.14 0.08 0.08 0.05 0.05 0.62 1.16 1.33 1.06 0.65 0.45 0.43 0.40 0.40 0.37 0.48 0.55 0.38 0.42 0.50 0.46 0.70 0.47 0.32 0.31 0.30 0.12 0.07 0.05 0.04 0.08 0.18 0.14 0.31 0.32 0.20 0.30 0.35 0.25 0.29 0.33 0.34 0.35
0.94 1.02 0.92 0.74 0.70 0.49 0.55 0.68 0.63 0.24 0.09 0.14 0.20 0.16 0.18 0.49 1.10 1.00 0.98 0.59 0.25 0.21 0.22 0.27 0.28 0.33 0.43 0.30 0.49 0.40 0.36 0.33 0.35 0.32 0.45 0.41 0.27 0.18 0.20 0.09 0.06 0.04 0.06 0.07 0.10 0.22 0.18 0.11 0.16 0.19 0.27 0.30 0.29 0.34
1.00 1.01 0.92 0.73 0.72 0.61 0.62 0.61 0.53 0.38 0.32 0.27 0.35 0.52 0.55 0.70 0.82 0.60 0.46 0.25 0.10 0.09 0.08 0.11 0.26 0.22 0.39 0.36 0.41 0.46 0.26 0.16 0.34 0.44 0.40 0.18 0.06 0.03 0.10 0.19 0.20 0.16 0.10 0.25 0.27 0.18 0.11 0.09 0.11 0.14 0.15 0.11 0.10 0.11
1.11 1.07 0.92 0.83 0.82 0.76 0.71 0.63 0.77 0.61 0.43 0.56 0.65 0.63 0.47 0.39 0.38 0.27 0.17 0.15 0.05 0.04 0.03 0.05 0.12 0.20 0.27 0.24 0.24 0.26 0.13 0.28 0.49 0.33 0.22 0.07 0.06 0.04 0.02 0.05 0.10 0.14 0.13 0.24 0.56 0.60 0.44 0.44 0.40 0.30 0.21 0.15 0.12 0.11
1.20 1.23 1.17 1.18 1.02 0.93 0.86 0.87 0.99 0.70 0.62 0.75 0.78 0.47 0.28 0.22 0.09 0.05 0.04 0.06 0.02 0.02 0.03 0.02 0.08 0.13 0.18 0.23 0.21 0.20 0.28 0.46 0.31 0.26 0.17 0.10 0.09 0.08 0.06 0.03 0.03 0.07 0.13 0.16 0.25 0.33 0.40 0.29 0.16 0.20 0.27 0.25 0.17 0.13
1.60 2.13 1.97 1.45 1.17 1.13 1.07 1.25 1.54 1.46 1.22 1.00 0.86 0.40 0.13 0.07 0.05 0.01 0.01 0.03 0.02 0.02 0.05 0.07 0.12 0.15 0.17 0.26 0.21 0.27 0.47 0.40 0.24 0.16 0.10 0.05 0.09 0.07 0.05 0.04 0.01 0.00 0.01 0.06 0.14 0.19 0.24 0.22 0.16 0.13 0.17 0.27 0.23 0.20
2.71 2.72 1.66 1.20 1.24 1.32 1.47 1.99 2.23 1.99 1.54 1.08 0.47 0.16 0.10 0.06 0.06 0.05 0.02 0.01 0.02 0.07 0.18 0.30 0.34 0.16 0.14 0.16 0.13 0.21 0.32 0.20 0.10 0.06 0.02 0.01 0.01 0.01 0.01 0.00 0.00 0.00 0.01 0.03 0.09 0.13 0.20 0.25 0.24 0.18 0.16 0.16 0.16 0.22
2.36 1.51 1.18 1.33 1.65 2.27 2.91 2.52 1.90 1.68 1.23 0.41 0.06 0.01 0.01 0.03 0.05 0.07 0.04 0.03 0.03 0.12 0.28 0.55 0.34 0.20 0.07 0.04 0.04 0.08 0.11 0.07 0.06 0.03 0.02 0.01 0.00 0.00 0.01 0.02 0.00 0.03 0.12 0.18 0.17 0.16 0.17 0.17 0.16 0.12 0.11 0.10 0.10 0.09
1.41 1.07 1.35 1.64 1.98 2.61 2.84 2.46 1.70 1.11 0.37 0.06 0.00 0.00 0.00 0.00 0.03 0.06 0.05 0.03 0.07 0.14 0.27 0.45 0.42 0.19 0.01 0.01 0.02 0.01 0.00 0.01 0.01 0.01 0.01 0.00 0.00 0.00 0.01 0.04 0.06 0.07 0.20 0.14 0.05 0.06 0.05 0.06 0.09 0.10 0.10 0.10 0.10 0.09
1.88 1.70 1.72 1.78 1.79 2.52 2.77 2.41 1.57 0.62 0.18 0.01 0.00 0.00 0.00 0.00 0.01 0.05 0.10 0.07 0.10 0.37 0.57 0.43 0.14 0.04 0.04 0.04 0.04 0.02 0.00 0.00 0.00 0.00 0.00 0.00 0.00 0.00 0.00 0.02 0.05 0.07 0.08 0.08 0.09 0.10 0.09 0.07 0.06 0.06 0.06 0.08 0.11 0.11
3.69 2.89 2.67 2.97 3.32 3.17 2.57 1.62 0.76 0.27 0.08 0.02 0.00 0.01 0.01 0.01 0.01 0.03 0.11 0.19 0.45 0.72 0.46 0.16 0.05 0.03 0.05 0.06 0.06 0.03 0.00 0.00 0.00 0.00 0.00 0.00 0.00 0.00 0.00 0.00 0.00 0.01 0.02 0.03 0.05 0.06 0.08 0.07 0.08 0.08 0.07 0.10 0.12 0.11
3.78 3.12 3.96 4.27 3.71 2.99 1.95 1.12 0.45 0.20 0.09 0.06 0.03 0.03 0.05 0.04 0.03 0.05 0.15 0.45 0.62 0.26 0.12 0.12 0.13 0.11 0.08 0.07 0.07 0.07 0.05 0.02 0.00 0.00 0.00 0.00 0.00 0.00 0.00 0.00 0.00 0.00 0.00 0.01 0.02 0.01 0.02 0.02 0.03 0.05 0.07 0.10 0.13 0.09
3.23 3.03 3.25 3.31 3.01 2.41 1.53 0.66 0.30 0.19 0.10 0.12 0.12 0.14 0.13 0.07 0.07 0.12 0.31 0.27 0.16 0.10 0.08 0.09 0.12 0.16 0.18 0.14 0.14 0.12 0.11 0.08 0.04 0.02 0.01 0.00 0.00 0.00 0.00 0.00 0.00 0.01 0.02 0.01 0.01 0.02 0.02 0.02 0.01 0.01 0.01 0.02 0.06 0.08
2.99 3.33 3.34 3.08 2.18 1.64 1.14 0.88 0.53 0.26 0.26 0.18 0.17 0.13 0.07 0.05 0.17 0.30 0.22 0.05 0.03 0.04 0.09 0.12 0.11 0.11 0.10 0.12 0.14 0.18 0.21 0.19 0.13 0.09 0.07 0.05 0.03 0.02 0.01 0.01 0.01 0.00 0.01 0.01 0.01 0.01 0.01 0.01 0.01 0.01 0.00 0.00 0.01 0.02
3.64 3.73 2.85 2.42 1.37 0.62 0.33 0.27 0.24 0.20 0.19 0.14 0.10 0.06 0.05 0.08 0.14 0.14 0.04 0.00 0.01 0.03 0.07 0.09 0.11 0.12 0.11 0.11 0.11 0.11 0.12 0.19 0.22 0.19 0.18 0.15 0.12 0.11 0.09 0.06 0.03 0.01 0.01 0.03 0.02 0.01 0.00 0.00 0.00 0.00 0.00 0.01 0.03 0.04
3.29 2.05 1.21 0.53 0.26 0.07 0.04 0.05 0.05 0.04 0.05 0.08 0.06 0.05 0.05 0.11 0.17 0.06 0.00 0.00 0.01 0.04 0.05 0.07 0.08 0.09 0.07 0.08 0.10 0.13 0.13 0.15 0.17 0.19 0.22 0.25 0.21 0.18 0.17 0.16 0.12 0.07 0.05 0.06 0.08 0.07 0.04 0.01 0.01 0.01 0.02 0.03 0.06 0.06
2.27 1.30 0.49 0.11 0.03 0.03 0.01 0.01 0.02 0.04 0.08 0.08 0.05 0.05 0.10 0.22 0.08 0.01 0.01 0.00 0.01 0.02 0.04 0.08 0.13 0.11 0.09 0.10 0.11 0.12 0.15 0.18 0.19 0.16 0.22 0.33 0.34 0.27 0.20 0.17 0.16 0.13 0.13 0.14 0.12 0.11 0.09 0.07 0.06 0.06 0.07 0.07 0.08 0.09
1.20 0.36 0.09 0.09 0.02 0.02 0.04 0.07 0.10 0.10 0.06 0.03 0.05 0.06 0.08 0.05 0.01 0.00 0.00 0.00 0.01 0.02 0.04 0.09 0.13 0.15 0.14 0.12 0.14 0.16 0.18 0.21 0.25 0.26 0.30 0.36 0.40 0.40 0.35 0.30 0.31 0.32 0.30 0.22 0.19 0.19 0.17 0.16 0.15 0.16 0.17 0.14 0.11 0.11
0.26 0.13 0.09 0.11 0.07 0.05 0.05 0.05 0.04 0.02 0.00 0.00 0.03 0.01 0.00 0.00 0.00 0.00 0.01 0.02 0.02 0.04 0.06 0.09 0.12 0.14 0.17 0.18 0.20 0.23 0.24 0.24 0.20 0.19 0.15 0.20 0.29 0.41 0.46 0.42 0.44 0.44 0.39 0.36 0.32 0.28 0.28 0.30 0.30 0.30 0.30 0.29 0.25 0.25
0.04 0.00 0.02 0.04 0.06 0.07 0.04 0.03 0.02 0.01 0.00 0.01 0.01 0.01 0.01 0.01 0.01 0.02 0.02 0.04 0.05 0.08 0.11 0.14 0.17 0.19 0.21 0.22 0.23 0.24 0.25 0.28 0.26 0.17 0.16 0.16 0.21 0.32 0.40 0.41 0.45 0.48 0.47 0.42 0.48 0.53 0.52 0.51 0.51 0.48 0.43 0.39 0.35 0.31
0.01 0.01 0.01 0.01 0.01 0.02 0.03 0.03 0.02 0.02 0.03 0.02 0.03 0.03 0.02 0.02 0.02 0.02 0.02 0.04 0.07 0.11 0.16 0.19 0.22 0.27 0.28 0.30 0.30 0.27 0.26 0.32 0.37 0.36 0.31 0.34 0.32 0.32 0.38 0.44 0.45 0.47 0.48 0.44 0.39 0.37 0.36 0.32 0.28 0.27 0.28 0.27 0.26 0.25
0.05 0.02 0.01 0.01 0.02 0.04 0.04 0.04 0.03 0.03 0.02 0.02 0.02 0.02 0.02 0.01 0.01 0.01 0.03 0.06 0.10 0.13 0.17 0.21 0.21 0.26 0.31 0.31 0.33 0.35 0.31 0.31 0.36 0.40 0.37 0.35 0.34 0.34 0.38 0.41 0.44 0.44 0.45 0.44 0.40 0.39 0.38 0.37 0.39 0.35 0.35 0.35 0.32 0.29
0.14 0.11 0.08 0.08 0.12 0.09 0.05 0.06 0.08 0.06 0.04 0.02 0.02 0.01 0.02 0.01 0.01 0.02 0.03 0.07 0.11 0.14 0.16 0.21 0.26 0.28 0.28 0.28 0.31 0.35 0.38 0.40 0.41 0.45 0.47 0.45 0.44 0.47 0.42 0.39 0.41 0.41 0.41 0.41 0.44 0.45 0.47 0.43 0.41 0.40 0.36 0.34 0.31 0.30

GFSWCAN_prec_precacc_111.txt.gz
Total_Precipitation_Accumulation
0.93 0.92 1.02 1.03 1.08 1.17 1.18 1.24 1.34 1.41 1.49 1.01 0.80 0.60 0.35 0.29 0.20 0.19 0.29 0.37 0.42 0.13 0.02 0.00 0.00 0.01 0.00 0.00 0.02 0.02 0.09 0.13 0.20 0.26 0.24 0.10 0.03 0.01 0.00 0.00 0.00 0.02 0.04 0.06 0.06 0.10 0.01 0.00 0.00 0.00 0.00 0.00 0.00 0.01
0.86 0.78 0.87 0.84 0.70 0.67 0.54 0.64 0.85 0.97 0.84 0.65 0.60 0.42 0.24 0.22 0.21 0.25 0.26 0.29 0.25 0.15 0.01 0.00 0.00 0.00 0.00 0.00 0.02 0.01 0.08 0.12 0.22 0.24 0.19 0.09 0.04 0.01 0.00 0.01 0.00 0.00 0.00 0.00 0.00 0.00 0.00 0.00 0.00 0.00 0.00 0.00 0.00 0.00
0.80 0.81 0.92 1.09 1.00 0.89 0.75 0.73 0.90 1.14 0.70 0.58 0.45 0.26 0.15 0.17 0.17 0.30 0.30 0.23 0.24 0.25 0.05 0.03 0.02 0.00 0.00 0.00 0.00 0.04 0.07 0.15 0.23 0.21 0.32 0.15 0.06 0.04 0.02 0.01 0.00 0.00 0.00 0.00 0.00 0.00 0.00 0.00 0.00 0.00 0.00 0.00 0.00 0.01
0.74 0.73 0.74 1.00 1.25 1.28 1.32 1.22 1.16 1.09 0.66 0.60 0.38 0.21 0.12 0.11 0.16 0.23 0.11 0.10 0.22 0.26 0.19 0.05 0.01 0.02 0.01 0.02 0.02 0.02 0.09 0.17 0.29 0.48 0.33 0.19 0.08 0.03 0.02 0.01 0.00 0.01 0.00 0.00 0.00 0.00 0.00 0.00 0.00 0.00 0.00 0.00 0.00 0.00
1.04 0.89 0.67 0.66 0.81 0.86 1.02 1.14 1.02 0.89 0.61 0.54 0.43 0.17 0.15 0.18 0.16 0.08 0.02 0.07 0.16 0.32 0.34 0.18 0.16 0.01 0.01 0.05 0.04 0.06 0.11 0.30 0.34 0.59 0.57 0.22 0.09 0.06 0.02 0.01 0.00 0.00 0.00 0.00 0.00 0.00 0.00 0.00 0.00 0.00 0.00 0.00 0.00 0.00
1.01 1.14 1.23 0.82 0.65 0.70 0.84 0.73 0.59 0.61 0.58 0.51 0.27 0.19 0.17 0.10 0.14 0.15 0.20 0.36 0.28 0.32 0.60 0.43 0.34 0.16 0.06 0.09 0.09 0.15 0.22 0.43 0.67 0.50 0.53 0.33 0.13 0.20 0.17 0.05 0.00 0.00 0.00 0.00 0.00 0.00 0.00 0.00 0.00 0.00 0.00 0.00 0.00 0.00
0.81 0.99 1.30 1.42 0.89 0.67 0.78 0.82 0.54 0.57 0.51 0.32 0.21 0.15 0.08 0.05 0.11 0.12 0.25 0.62 0.58 0.57 0.68 0.78 0.66 0.48 0.14 0.23 0.27 0.30 0.31 0.55 0.89 0.66 0.41 0.33 0.29 0.53 0.34 0.05 0.00 0.01 0.01 0.01 0.01 0.00 0.00 0.00 0.00 0.00 0.00 0.00 0.00 0.00
0.74 0.75 0.93 1.41 1.17 0.76 0.65 0.89 0.59 0.55 0.37 0.20 0.14 0.09 0.05 0.10 0.06 0.07 0.05 0.19 0.49 0.88 0.91 1.04 0.98 0.96 0.32 0.53 0.46 0.40 0.39 0.48 1.03 0.74 0.34 0.24 0.35 0.35 0.20 0.02 0.05 0.04 0.04 0.02 0.01 0.02 0.01 0.01 0.00 0.00 0.00 0.00 0.00 0.00
0.91 0.78 0.69 0.89 1.24 0.76 0.67 0.78 0.76 0.48 0.25 0.16 0.16 0.12 0.13 0.08 0.04 0.12 0.21 0.40 0.63 1.02 0.82 0.77 0.90 0.80 0.64 0.64 0.48 0.56 0.47 0.57 0.72 0.54 0.23 0.25 0.27 0.29 0.06 0.08 0.11 0.14 0.15 0.17 0.13 0.06 0.06 0.05 0.02 0.03 0.02 0.03 0.04 0.04
0.98 1.03 0.71 0.63 0.92 0.76 0.66 0.72 0.64 0.32 0.27 0.25 0.12 0.09 0.15 0.03 0.05 0.48 0.83 1.06 1.08 0.84 0.59 0.63 0.54 0.45 0.89 0.67 0.60 0.65 0.35 0.56 0.65 0.31 0.24 0.31 0.19 0.03 0.05 0.12 0.09 0.15 0.30 0.34 0.42 0.30 0.17 0.23 0.14 0.10 0.15 0.11 0.12 0.14
0.90 1.04 0.80 0.65 0.69 0.61 0.61 0.68 0.63 0.44 0.35 0.14 0.10 0.12 0.07 0.07 0.62 1.16 1.33 1.07 0.65 0.46 0.44 0.40 0.40 0.37 0.48 0.55 0.38 0.42 0.50 0.46 0.70 0.47 0.32 0.31 0.30 0.12 0.07 0.05 0.04 0.08 0.18 0.14 0.31 0.32 0.20 0.30 0.35 0.25 0.29 0.33 0.34 0.35
0.94 1.02 0.92 0.74 0.70 0.49 0.55 0.68 0.64 0.26 0.10 0.15 0.21 0.19 0.23 0.55 1.17 1.03 0.99 0.59 0.25 0.21 0.22 0.27 0.28 0.33 0.43 0.30 0.49 0.40 0.36 0.33 0.35 0.32 0.45 0.41 0.27 0.18 0.20 0.09 0.06 0.04 0.06 0.07 0.10 0.22 0.18 0.11 0.16 0.19 0.27 0.30 0.29 0.34
1.00 1.01 0.92 0.73 0.72 0.61 0.62 0.62 0.54 0.40 0.33 0.29 0.40 0.56 0.61 0.76 0.87 0.63 0.47 0.26 0.10 0.09 0.08 0.11 0.26 0.22 0.39 0.36 0.41 0.46 0.26 0.16 0.34 0.44 0.40 0.18 0.06 0.03 0.10 0.19 0.20 0.16 0.10 0.25 0.27 0.18 0.11 0.09 0.11 0.14 0.15 0.11 0.10 0.11
1.11 1.07 0.92 0.83 0.82 0.77 0.72 0.63 0.79 0.63 0.45 0.60 0.73 0.71 0.49 0.40 0.38 0.27 0.17 0.15 0.05 0.04 0.03 0.05 0.12 0.20 0.27 0.24 0.24 0.26 0.13 0.28 0.49 0.33 0.22 0.07 0.06 0.04 0.02 0.05 0.10 0.14 0.13 0.24 0.56 0.60 0.44 0.44 0.40 0.30 0.21 0.15 0.12 0.11
1.20 1.23 1.17 1.18 1.03 0.94 0.86 0.88 1.04 0.76 0.67 0.81 0.86 0.50 0.28 0.22 0.09 0.05 0.04 0.06 0.02 0.02 0.04 0.04 0.12 0.16 0.21 0.28 0.24 0.21 0.29 0.46 0.31 0.26 0.17 0.10 0.09 0.08 0.06 0.03 0.03 0.07 0.13 0.16 0.25 0.33 0.40 0.29 0.16 0.20 0.27 0.25 0.17 0.13
1.60 2.14 1.98 1.45 1.17 1.13 1.08 1.29 1.58 1.53 1.37 1.06 0.91 0.40 0.13 0.07 0.05 0.01 0.01 0.03 0.02 0.02 0.06 0.09 0.16 0.20 0.19 0.29 0.25 0.28 0.48 0.40 0.24 0.16 0.10 0.05 0.09 0.07 0.05 0.04 0.01 0.00 0.01 0.06 0.14 0.19 0.24 0.22 0.16 0.13 0.17 0.27 0.23 0.20
2.75 2.74 1.66 1.20 1.24 1.32 1.49 2.04 2.27 2.02 1.65 1.25 0.49 0.16 0.10 0.06 0.06 0.05 0.02 0.01 0.02 0.07 0.20 0.36 0.43 0.21 0.20 0.23 0.15 0.21 0.32 0.20 0.10 0.06 0.02 0.01 0.01 0.01 0.01 0.00 0.00 0.00 0.01 0.03 0.09 0.13 0.20 0.25 0.24 0.18 0.16 0.16 0.16 0.22
2.40 1.51 1.18 1.33 1.66 2.30 2.94 2.55 1.95 1.73 1.24 0.42 0.06 0.01 0.01 0.03 0.05 0.07 0.04 0.03 0.03 0.12 0.29 0.58 0.37 0.28 0.16 0.10 0.05 0.08 0.11 0.07 0.06 0.03 0.02 0.01 0.00 0.00 0.01 0.02 0.00 0.03 0.12 0.18 0.17 0.16 0.17 0.17 0.16 0.12 0.11 0.10 0.10 0.09
1.42 1.07 1.36 1.66 2.02 2.66 2.85 2.48 1.73 1.18 0.39 0.06 0.00 0.00 0.00 0.00 0.03 0.06 0.05 0.03 0.07 0.14 0.28 0.48 0.47 0.23 0.02 0.01 0.02 0.01 0.00 0.01 0.01 0.01 0.01 0.00 0.00 0.00 0.01 0.04 0.06 0.07 0.20 0.14 0.05 0.06 0.05 0.06 0.09 0.10 0.10 0.10 0.10 0.09
1.91 1.73 1.74 1.82 1.86 2.61 2.86 2.45 1.59 0.65 0.18 0.01 0.00 0.00 0.00 0.00 0.01 0.05 0.10 0.07 0.10 0.38 0.62 0.50 0.16 0.04 0.04 0.04 0.04 0.02 0.00 0.00 0.00 0.00 0.00 0.00 0.00 0.00 0.00 0.02 0.05 0.07 0.08 0.08 0.09 0.10 0.09 0.07 0.06 0.06 0.07 0.08 0.11 0.11
3.75 2.92 2.73 3.05 3.43 3.34 2.71 1.65 0.78 0.28 0.08 0.03 0.00 0.02 0.02 0.01 0.01 0.03 0.11 0.19 0.48 0.79 0.50 0.16 0.05 0.03 0.05 0.06 0.06 0.03 0.00 0.00 0.00 0.00 0.00 0.00 0.00 0.00 0.00 0.00 0.00 0.01 0.02 0.03 0.05 0.06 0.08 0.07 0.08 0.08 0.08 0.10 0.12 0.11
3.81 3.14 4.00 4.32 3.88 3.20 2.12 1.16 0.47 0.20 0.10 0.07 0.04 0.05 0.08 0.07 0.05 0.06 0.16 0.53 0.71 0.30 0.13 0.12 0.13 0.11 0.08 0.07 0.07 0.07 0.05 0.02 0.00 0.00 0.00 0.00 0.00 0.00 0.00 0.00 0.00 0.00 0.00 0.01 0.02 0.01 0.02 0.02 0.03 0.07 0.09 0.12 0.14 0.10
3.27 3.08 3.36 3.42 3.15 2.55 1.58 0.66 0.30 0.19 0.11 0.13 0.13 0.15 0.14 0.08 0.08 0.14 0.39 0.31 0.17 0.10 0.08 0.09 0.12 0.16 0.18 0.14 0.14 0.12 0.11 0.08 0.04 0.02 0.01 0.00 0.00 0.00 0.00 0.00 0.00 0.01 0.02 0.01 0.01 0.02 0.03 0.02 0.03 0.04 0.04 0.07 0.12 0.13
3.06 3.49 3.52 3.28 2.31 1.70 1.15 0.88 0.54 0.27 0.26 0.18 0.17 0.14 0.07 0.05 0.17 0.31 0.25 0.05 0.03 0.04 0.09 0.12 0.11 0.11 0.10 0.12 0.14 0.18 0.21 0.19 0.13 0.09 0.07 0.05 0.03 0.02 0.01 0.01 0.01 0.00 0.01 0.01 0.01 0.01 0.01 0.01 0.02 0.06 0.05 0.06 0.08 0.10
3.86 4.04 3.03 2.54 1.41 0.63 0.35 0.29 0.27 0.23 0.22 0.16 0.12 0.08 0.06 0.09 0.16 0.16 0.04 0.00 0.01 0.03 0.07 0.09 0.11 0.12 0.11 0.11 0.11 0.11 0.12 0.19 0.22 0.19 0.18 0.15 0.12 0.11 0.09 0.06 0.03 0.01 0.01 0.03 0.02 0.01 0.00 0.00 0.01 0.04 0.04 0.07 0.11 0.11
3.49 2.11 1.31 0.56 0.27 0.08 0.05 0.06 0.06 0.04 0.06 0.10 0.12 0.12 0.12 0.23 0.30 0.13 0.01 0.00 0.01 0.04 0.05 0.07 0.08 0.09 0.07 0.08 0.10 0.13 0.13 0.15 0.17 0.19 0.22 0.25 0.21 0.18 0.17 0.16 0.12 0.07 0.05 0.06 0.08 0.07 0.04 0.01 0.02 0.04 0.05 0.07 0.10 0.09
2.40 1.34 0.50 0.11 0.04 0.04 0.03 0.01 0.02 0.04 0.08 0.09 0.06 0.05 0.12 0.26 0.11 0.01 0.01 0.00 0.01 0.02 0.04 0.08 0.13 0.11 0.09 0.10 0.11 0.12 0.15 0.18 0.19 0.16 0.22 0.33 0.34 0.27 0.20 0.17 0.16 0.13 0.13 0.14 0.12 0.11 0.09 0.07 0.06 0.06 0.07 0.07 0.08 0.09
1.26 0.38 0.09 0.09 0.03 0.02 0.04 0.07 0.11 0.11 0.06 0.03 0.06 0.08 0.12 0.07 0.01 0.00 0.00 0.01 0.02 0.02 0.04 0.09 0.13 0.15 0.14 0.12 0.14 0.16 0.18 0.21 0.25 0.26 0.30 0.36 0.40 0.40 0.35 0.30 0.31 0.32 0.30 0.22 0.19 0.19 0.17 0.16 0.15 0.16 0.17 0.14 0.11 0.11
0.27 0.14 0.11 0.15 0.10 0.07 0.06 0.06 0.04 0.02 0.00 0.01 0.04 0.01 0.00 0.00 0.00 0.00 0.01 0.02 0.02 0.04 0.06 0.09 0.12 0.14 0.17 0.18 0.20 0.23 0.24 0.24 0.20 0.19 0.15 0.20 0.29 0.41 0.46 0.42 0.44 0.44 0.39 0.36 0.32 0.28 0.28 0.30 0.30 0.30 0.30 0.29 0.25 0.25
0.06 0.01 0.02 0.04 0.09 0.13 0.07 0.03 0.02 0.01 0.01 0.01 0.01 0.01 0.01 0.01 0.01 0.02 0.02 0.04 0.05 0.08 0.11 0.14 0.17 0.19 0.21 0.22 0.23 0.24 0.25 0.28 0.26 0.17 0.16 0.16 0.21 0.32 0.40 0.41 0.45 0.48 0.47 0.42 0.48 0.53 0.52 0.51 0.51 0.48 0.43 0.39 0.35 0.31
0.01 0.01 0.01 0.01 0.01 0.02 0.03 0.03 0.02 0.02 0.03 0.02 0.03 0.03 0.02 0.02 0.02 0.02 0.02 0.04 0.07 0.11 0.16 0.19 0.22 0.27 0.28 0.30 0.30 0.27 0.26 0.32 0.37 0.36 0.31 0.34 0.32 0.32 0.38 0.44 0.45 0.47 0.48 0.44 0.39 0.37 0.36 0.32 0.28 0.27 0.28 0.27 0.26 0.25
0.05 0.02 0.01 0.01 0.02 0.04 0.04 0.04 0.03 0.03 0.02 0.02 0.02 0.02 0.02 0.01 0.01 0.01 0.03 0.06 0.10 0.13 0.17 0.21 0.21 0.26 0.31 0.31 0.33 0.35 0.31 0.31 0.36 0.40 0.37 0.35 0.34 0.34 0.38 0.41 0.44 0.44 0.45 0.44 0.40 0.39 0.38 0.37 0.39 0.35 0.35 0.35 0.32 0.29
0.14 0.11 0.08 0.08 0.12 0.09 0.05 0.06 0.08 0.06 0.04 0.02 0.02 0.01 0.02 0.01 0.01 0.02 0.03 0.07 0.11 0.14 0.16 0.21 0.26 0.28 0.28 0.28 0.31 0.35 0.38 0.40 0.41 0.45 0.47 0.45 0.44 0.47 0.42 0.39 0.41 0.41 0.41 0.41 0.44 0.45 0.47 0.43 0.41 0.40 0.36 0.34 0.31 0.30

GFSWCAN_prec_precacc_114.txt.gz
Total_Precipitation_Accumulation
0.93 0.92 1.02 1.03 1.08 1.17 1.18 1.25 1.34 1.41 1.49 1.01 0.80 0.60 0.35 0.29 0.20 0.19 0.29 0.37 0.42 0.13 0.02 0.00 0.00 0.01 0.00 0.00 0.02 0.02 0.09 0.13 0.20 0.26 0.24 0.10 0.03 0.01 0.00 0.00 0.00 0.02 0.04 0.06 0.06 0.10 0.01 0.00 0.00 0.00 0.00 0.00 0.00 0.01
0.86 0.78 0.87 0.84 0.70 0.67 0.54 0.65 0.86 0.98 0.84 0.65 0.60 0.42 0.24 0.22 0.21 0.25 0.26 0.29 0.25 0.15 0.01 0.00 0.00 0.00 0.00 0.00 0.02 0.01 0.08 0.12 0.22 0.24 0.19 0.09 0.04 0.01 0.00 0.01 0.00 0.00 0.00 0.00 0.00 0.00 0.00 0.00 0.00 0.00 0.00 0.00 0.00 0.00
0.80 0.81 0.92 1.09 1.00 0.89 0.75 0.73 0.90 1.14 0.71 0.59 0.45 0.26 0.15 0.17 0.17 0.30 0.30 0.23 0.24 0.25 0.05 0.03 0.02 0.00 0.00 0.00 0.00 0.04 0.07 0.15 0.23 0.21 0.32 0.15 0.06 0.04 0.02 0.01 0.00 0.00 0.00 0.00 0.00 0.00 0.00 0.00 0.00 0.00 0.00 0.00 0.00 0.01
0.74 0.73 0.75 1.00 1.26 1.28 1.33 1.22 1.16 1.09 0.67 0.61 0.39 0.22 0.12 0.11 0.16 0.23 0.11 0.10 0.22 0.26 0.19 0.05 0.01 0.02 0.01 0.02 0.02 0.02 0.09 0.17 0.29 0.48 0.33 0.19 0.08 0.03 0.02 0.01 0.00 0.01 0.00 0.00 0.00 0.00 0.00 0.00 0.00 0.00 0.00 0.00 0.00 0.00
1.04 0.89 0.67 0.66 0.81 0.86 1.03 1.14 1.02 0.89 0.61 0.54 0.44 0.18 0.16 0.18 0.16 0.08 0.02 0.07 0.16 0.32 0.34 0.18 0.16 0.01 0.01 0.05 0.04 0.06 0.11 0.30 0.34 0.59 0.57 0.22 0.09 0.06 0.02 0.01 0.00 0.00 0.00 0.00 0.00 0.00 0.00 0.00 0.00 0.00 0.00 0.00 0.00 0.00
1.01 1.14 1.23 0.82 0.65 0.70 0.84 0.73 0.59 0.61 0.58 0.51 0.27 0.20 0.18 0.11 0.14 0.15 0.20 0.36 0.28 0.32 0.60 0.43 0.34 0.16 0.06 0.09 0.09 0.15 0.22 0.43 0.67 0.50 0.53 0.33 0.13 0.20 0.17 0.05 0.00 0.00 0.00 0.00 0.00 0.00 0.00 0.00 0.00 0.00 0.00 0.00 0.00 0.00
0.81 0.99 1.30 1.42 0.89 0.67 0.78 0.82 0.54 0.57 0.51 0.32 0.21 0.16 0.09 0.05 0.11 0.12 0.25 0.62 0.58 0.57 0.68 0.78 0.66 0.48 0.14 0.23 0.27 0.30 0.31 0.55 0.89 0.66 0.41 0.33 0.29 0.53 0.34 0.05 0.00 0.01 0.01 0.01 0.01 0.00 0.00 0.00 0.00 0.00 0.00 0.00 0.00 0.00
0.74 0.75 0.94 1.41 1.17 0.76 0.65 0.89 0.59 0.55 0.37 0.20 0.14 0.10 0.10 0.17 0.08 0.07 0.05 0.19 0.49 0.88 0.91 1.04 0.98 0.96 0.32 0.53 0.46 0.40 0.39 0.48 1.03 0.74 0.34 0.24 0.35 0.35 0.20 0.02 0.05 0.04 0.04 0.02 0.01 0.02 0.01 0.01 0.00 0.00 0.00 0.00 0.00 0.00
0.91 0.78 0.69 0.89 1.24 0.76 0.67 0.78 0.76 0.48 0.25 0.16 0.16 0.12 0.17 0.12 0.06 0.12 0.21 0.40 0.63 1.02 0.82 0.77 0.90 0.80 0.64 0.64 0.48 0.56 0.47 0.57 0.72 0.54 0.23 0.25 0.27 0.29 0.06 0.08 0.11 0.14 0.15 0.17 0.13 0.06 0.06 0.05 0.02 0.03 0.02 0.03 0.04 0.04
0.98 1.03 0.71 0.63 0.92 0.76 0.66 0.72 0.64 0.32 0.27 0.25 0.12 0.09 0.16 0.04 0.05 0.48 0.83 1.06 1.08 0.85 0.61 0.64 0.54 0.45 0.89 0.67 0.60 0.65 0.35 0.56 0.65 0.31 0.25 0.31 0.19 0.03 0.05 0.12 0.09 0.15 0.30 0.34 0.42 0.30 0.17 0.23 0.14 0.10 0.15 0.11 0.12 0.14
0.90 1.04 0.80 0.65 0.69 0.61 0.61 0.68 0.63 0.44 0.35 0.14 0.10 0.12 0.07 0.08 0.63 1.17 1.34 1.08 0.67 0.48 0.45 0.40 0.40 0.37 0.48 0.55 0.38 0.42 0.50 0.46 0.71 0.47 0.33 0.32 0.30 0.12 0.07 0.05 0.04 0.08 0.18 0.14 0.31 0.32 0.20 0.30 0.35 0.25 0.29 0.33 0.34 0.35
0.94 1.02 0.92 0.74 0.70 0.50 0.55 0.68 0.64 0.27 0.11 0.15 0.22 0.20 0.23 0.56 1.18 1.05 1.02 0.62 0.27 0.22 0.22 0.27 0.28 0.33 0.43 0.30 0.49 0.40 0.36 0.33 0.35 0.32 0.45 0.41 0.27 0.18 0.20 0.09 0.06 0.04 0.06 0.07 0.10 0.22 0.18 0.11 0.16 0.19 0.27 0.30 0.29 0.34
1.00 1.01 0.92 0.73 0.73 0.61 0.62 0.62 0.55 0.41 0.33 0.30 0.41 0.59 0.62 0.76 0.87 0.65 0.48 0.27 0.10 0.09 0.08 0.11 0.26 0.22 0.39 0.36 0.41 0.46 0.27 0.16 0.34 0.45 0.40 0.18 0.06 0.03 0.10 0.19 0.20 0.16 0.10 0.25 0.27 0.18 0.11 0.09 0.11 0.14 0.15 0.11 0.10 0.11
1.11 1.07 0.92 0.83 0.82 0.77 0.72 0.64 0.81 0.64 0.48 0.60 0.74 0.73 0.50 0.40 0.39 0.27 0.17 0.15 0.05 0.04 0.03 0.05 0.12 0.20 0.27 0.24 0.25 0.28 0.15 0.28 0.50 0.33 0.22 0.07 0.06 0.04 0.02 0.05 0.10 0.14 0.13 0.24 0.56 0.60 0.44 0.44 0.40 0.30 0.21 0.15 0.12 0.11
1.20 1.23 1.17 1.19 1.03 0.94 0.86 0.88 1.08 0.82 0.73 0.82 0.89 0.52 0.28 0.22 0.09 0.05 0.04 0.06 0.02 0.02 0.04 0.04 0.13 0.18 0.24 0.35 0.30 0.27 0.33 0.49 0.32 0.26 0.17 0.10 0.09 0.08 0.06 0.03 0.03 0.07 0.13 0.16 0.25 0.33 0.40 0.29 0.16 0.20 0.27 0.25 0.17 0.13
1.62 2.17 1.98 1.45 1.18 1.13 1.08 1.30 1.63 1.59 1.43 1.12 0.92 0.40 0.13 0.07 0.05 0.01 0.01 0.03 0.02 0.02 0.06 0.10 0.18 0.22 0.21 0.32 0.31 0.30 0.49 0.40 0.24 0.16 0.10 0.05 0.09 0.07 0.05 0.04 0.01 0.00 0.01 0.06 0.14 0.19 0.24 0.22 0.16 0.13 0.17 0.27 0.23 0.20
2.83 2.77 1.66 1.20 1.25 1.34 1.52 2.06 2.30 2.08 1.71 1.30 0.51 0.16 0.10 0.06 0.06 0.05 0.02 0.01 0.02 0.07 0.20 0.38 0.47 0.23 0.23 0.28 0.19 0.23 0.34 0.20 0.10 0.06 0.02 0.01 0.01 0.01 0.01 0.00 0.00 0.00 0.01 0.03 0.09 0.13 0.20 0.25 0.24 0.18 0.16 0.16 0.16 0.22
2.45 1.52 1.18 1.33 1.69 2.34 2.98 2.58 1.97 1.77 1.30 0.42 0.06 0.01 0.01 0.03 0.05 0.07 0.04 0.03 0.03 0.12 0.30 0.59 0.39 0.30 0.16 0.10 0.05 0.08 0.11 0.07 0.06 0.03 0.02 0.01 0.00 0.00 0.01 0.02 0.00 0.03 0.12 0.18 0.17 0.16 0.17 0.17 0.16 0.12 0.11 0.10 0.10 0.09
1.44 1.09 1.37 1.67 2.06 2.70 2.88 2.51 1.74 1.20 0.39 0.06 0.00 0.00 0.00 0.00 0.03 0.06 0.05 0.04 0.07 0.15 0.31 0.54 0.52 0.24 0.02 0.01 0.02 0.01 0.00 0.01 0.01 0.01 0.01 0.00 0.00 0.00 0.01 0.04 0.06 0.07 0.20 0.14 0.05 0.06 0.05 0.06 0.09 0.10 0.10 0.10 0.10 0.09
1.96 1.78 1.77 1.86 1.93 2.76 3.03 2.53 1.62 0.66 0.18 0.01 0.00 0.00 0.00 0.00 0.01 0.05 0.10 0.07 0.10 0.41 0.67 0.55 0.18 0.04 0.04 0.04 0.04 0.02 0.00 0.00 0.00 0.00 0.00 0.00 0.00 0.00 0.00 0.02 0.05 0.07 0.08 0.08 0.09 0.10 0.09 0.07 0.06 0.06 0.07 0.08 0.11 0.12
3.84 2.99 2.79 3.13 3.56 3.57 2.87 1.74 0.82 0.28 0.08 0.03 0.00 0.02 0.03 0.02 0.01 0.03 0.11 0.19 0.51 0.83 0.51 0.17 0.05 0.03 0.05 0.06 0.06 0.03 0.00 0.00 0.00 0.00 0.00 0.00 0.00 0.00 0.00 0.00 0.00 0.01 0.02 0.03 0.05 0.06 0.08 0.07 0.08 0.08 0.08 0.10 0.13 0.12
3.94 3.20 4.09 4.47 4.14 3.54 2.45 1.29 0.49 0.21 0.10 0.07 0.05 0.07 0.09 0.08 0.06 0.07 0.17 0.55 0.74 0.31 0.13 0.12 0.13 0.11 0.08 0.07 0.07 0.07 0.05 0.02 0.00 0.00 0.00 0.00 0.00 0.00 0.00 0.00 0.00 0.00 0.00 0.01 0.02 0.01 0.02 0.02 0.03 0.07 0.09 0.12 0.15 0.12
3.39 3.16 3.53 3.59 3.34 2.72 1.69 0.70 0.35 0.24 0.14 0.14 0.14 0.17 0.15 0.09 0.08 0.15 0.44 0.36 0.19 0.10 0.08 0.09 0.12 0.16 0.18 0.14 0.14 0.12 0.11 0.08 0.04 0.02 0.01 0.00 0.00 0.00 0.00 0.00 0.00 0.01 0.02 0.01 0.01 0.02 0.03 0.02 0.03 0.05 0.05 0.08 0.16 0.20
3.33 3.68 3.71 3.47 2.43 1.76 1.17 0.88 0.54 0.27 0.27 0.18 0.18 0.14 0.07 0.05 0.17 0.33 0.28 0.05 0.03 0.04 0.09 0.12 0.11 0.11 0.10 0.12 0.14 0.18 0.21 0.19 0.13 0.09 0.07 0.05 0.03 0.02 0.01 0.01 0.01 0.00 0.01 0.01 0.01 0.01 0.01 0.01 0.02 0.06 0.07 0.09 0.13 0.17
4.17 4.31 3.17 2.67 1.47 0.68 0.40 0.30 0.27 0.23 0.22 0.16 0.12 0.08 0.06 0.09 0.17 0.18 0.05 0.00 0.01 0.03 0.07 0.09 0.11 0.12 0.11 0.11 0.11 0.11 0.12 0.19 0.22 0.19 0.18 0.15 0.12 0.11 0.09 0.06 0.03 0.01 0.01 0.03 0.02 0.01 0.00 0.00 0.01 0.04 0.07 0.11 0.16 0.19
3.68 2.20 1.43 0.62 0.30 0.09 0.06 0.06 0.06 0.04 0.06 0.11 0.12 0.12 0.14 0.27 0.36 0.16 0.01 0.00 0.01 0.04 0.05 0.07 0.08 0.09 0.09 0.09 0.11 0.13 0.13 0.15 0.17 0.19 0.22 0.25 0.21 0.18 0.17 0.16 0.12 0.07 0.05 0.06 0.09 0.07 0.04 0.02 0.02 0.05 0.08 0.11 0.19 0.20
2.49 1.37 0.51 0.11 0.04 0.04 0.03 0.01 0.02 0.04 0.09 0.09 0.06 0.06 0.15 0.34 0.18 0.05 0.01 0.00 0.01 0.03 0.05 0.09 0.14 0.14 0.11 0.10 0.11 0.12 0.15 0.18 0.19 0.16 0.22 0.33 0.34 0.27 0.20 0.17 0.16 0.13 0.13 0.14 0.12 0.11 0.09 0.08 0.08 0.10 0.13 0.15 0.16 0.17
1.31 0.38 0.10 0.09 0.03 0.02 0.04 0.07 0.12 0.11 0.06 0.03 0.06 0.09 0.13 0.08 0.01 0.00 0.00 0.01 0.03 0.03 0.05 0.09 0.13 0.15 0.14 0.12 0.14 0.16 0.18 0.21 0.25 0.26 0.30 0.36 0.40 0.40 0.35 0.30 0.31 0.32 0.30 0.22 0.19 0.19 0.17 0.16 0.15 0.18 0.20 0.16 0.12 0.12
0.28 0.14 0.11 0.15 0.10 0.07 0.07 0.06 0.04 0.02 0.00 0.01 0.04 0.02 0.00 0.00 0.00 0.00 0.01 0.02 0.02 0.04 0.06 0.09 0.12 0.14 0.17 0.18 0.20 0.23 0.24 0.24 0.20 0.19 0.15 0.20 0.29 0.41 0.46 0.42 0.44 0.44 0.39 0.36 0.32 0.28 0.28 0.30 0.30 0.30 0.30 0.29 0.25 0.25
0.06 0.01 0.02 0.05 0.10 0.13 0.07 0.03 0.02 0.01 0.01 0.01 0.01 0.01 0.01 0.01 0.01 0.02 0.02 0.04 0.05 0.08 0.11 0.14 0.17 0.19 0.21 0.22 0.23 0.24 0.25 0.28 0.26 0.17 0.16 0.16 0.21 0.32 0.40 0.41 0.45 0.48 0.47 0.42 0.48 0.53 0.52 0.51 0.51 0.48 0.43 0.39 0.35 0.31
0.01 0.01 0.01 0.02 0.02 0.02 0.03 0.03 0.02 0.02 0.03 0.02 0.03 0.03 0.02 0.02 0.02 0.02 0.02 0.04 0.07 0.11 0.16 0.19 0.22 0.27 0.28 0.30 0.30 0.27 0.26 0.32 0.37 0.36 0.31 0.34 0.32 0.32 0.38 0.44 0.45 0.47 0.48 0.44 0.39 0.37 0.36 0.32 0.29 0.27 0.28 0.27 0.26 0.25
0.05 0.02 0.01 0.01 0.02 0.04 0.04 0.04 0.03 0.03 0.02 0.02 0.02 0.02 0.02 0.01 0.01 0.01 0.03 0.06 0.10 0.13 0.17 0.21 0.21 0.26 0.31 0.31 0.33 0.35 0.31 0.31 0.36 0.40 0.37 0.35 0.34 0.34 0.38 0.41 0.44 0.44 0.45 0.44 0.40 0.39 0.38 0.37 0.39 0.35 0.35 0.35 0.32 0.29
0.15 0.11 0.08 0.08 0.12 0.09 0.05 0.06 0.08 0.06 0.04 0.02 0.02 0.01 0.02 0.01 0.01 0.02 0.03 0.07 0.11 0.14 0.16 0.21 0.26 0.28 0.28 0.28 0.31 0.35 0.38 0.40 0.41 0.45 0.47 0.45 0.44 0.47 0.43 0.39 0.41 0.41 0.41 0.41 0.45 0.45 0.47 0.43 0.41 0.40 0.36 0.34 0.31 0.30

GFSWCAN_prec_precacc_117.txt.gz
Total_Precipitation_Accumulation
0.93 0.92 1.02 1.03 1.08 1.17 1.18 1.25 1.34 1.41 1.49 1.02 0.80 0.60 0.35 0.29 0.20 0.19 0.29 0.37 0.42 0.13 0.02 0.00 0.00 0.01 0.00 0.00 0.02 0.02 0.09 0.13 0.20 0.26 0.24 0.10 0.03 0.01 0.00 0.00 0.00 0.02 0.04 0.06 0.06 0.10 0.01 0.00 0.00 0.00 0.00 0.00 0.00 0.01
0.87 0.78 0.88 0.84 0.70 0.67 0.54 0.65 0.86 0.98 0.84 0.66 0.61 0.43 0.24 0.22 0.21 0.25 0.26 0.29 0.25 0.15 0.01 0.00 0.00 0.00 0.00 0.00 0.02 0.01 0.08 0.12 0.22 0.24 0.19 0.09 0.04 0.01 0.00 0.01 0.00 0.00 0.00 0.00 0.00 0.00 0.00 0.00 0.00 0.00 0.00 0.00 0.00 0.00
0.80 0.81 0.92 1.09 1.00 0.89 0.75 0.73 0.90 1.14 0.71 0.59 0.46 0.26 0.15 0.17 0.17 0.30 0.30 0.23 0.24 0.25 0.05 0.03 0.02 0.00 0.00 0.00 0.00 0.04 0.07 0.15 0.23 0.21 0.32 0.15 0.06 0.04 0.02 0.01 0.00 0.00 0.00 0.00 0.00 0.00 0.00 0.00 0.00 0.00 0.00 0.00 0.00 0.01
0.74 0.73 0.75 1.00 1.26 1.28 1.33 1.22 1.16 1.09 0.67 0.61 0.39 0.22 0.13 0.11 0.16 0.23 0.11 0.10 0.22 0.26 0.19 0.05 0.01 0.02 0.01 0.02 0.02 0.02 0.09 0.17 0.29 0.48 0.33 0.19 0.08 0.03 0.02 0.01 0.00 0.01 0.00 0.00 0.00 0.00 0.00 0.00 0.00 0.00 0.00 0.00 0.00 0.00
1.04 0.89 0.67 0.66 0.81 0.86 1.03 1.14 1.02 0.89 0.61 0.54 0.44 0.18 0.16 0.18 0.16 0.08 0.02 0.07 0.16 0.32 0.34 0.18 0.16 0.01 0.01 0.05 0.04 0.06 0.11 0.30 0.34 0.59 0.57 0.22 0.09 0.06 0.02 0.01 0.00 0.00 0.00 0.00 0.00 0.00 0.00 0.00 0.00 0.00 0.00 0.00 0.00 0.00
1.01 1.14 1.23 0.82 0.65 0.70 0.84 0.73 0.59 0.61 0.58 0.51 0.27 0.20 0.18 0.11 0.15 0.15 0.20 0.36 0.28 0.32 0.60 0.43 0.34 0.16 0.06 0.09 0.09 0.15 0.22 0.43 0.67 0.50 0.53 0.33 0.13 0.20 0.17 0.05 0.00 0.00 0.00 0.00 0.00 0.00 0.00 0.00 0.00 0.00 0.00 0.00 0.00 0.00
0.81 0.99 1.30 1.42 0.89 0.67 0.78 0.82 0.54 0.57 0.51 0.32 0.21 0.16 0.09 0.06 0.11 0.13 0.25 0.62 0.58 0.57 0.68 0.78 0.66 0.48 0.14 0.23 0.27 0.30 0.31 0.55 0.89 0.66 0.41 0.33 0.29 0.53 0.34 0.05 0.00 0.01 0.01 0.01 0.01 0.00 0.00 0.00 0.00 0.00 0.00 0.00 0.00 0.00
0.74 0.75 0.94 1.41 1.17 0.76 0.65 0.89 0.59 0.55 0.37 0.20 0.14 0.10 0.10 0.19 0.11 0.08 0.05 0.19 0.49 0.88 0.91 1.05 0.98 0.96 0.32 0.53 0.46 0.40 0.39 0.48 1.03 0.74 0.34 0.24 0.35 0.35 0.20 0.02 0.05 0.04 0.04 0.02 0.01 0.02 0.01 0.01 0.00 0.00 0.00 0.00 0.00 0.00
0.91 0.78 0.69 0.89 1.24 0.76 0.67 0.78 0.76 0.48 0.25 0.16 0.16 0.12 0.17 0.12 0.07 0.12 0.22 0.41 0.63 1.02 0.84 0.79 0.90 0.80 0.64 0.64 0.48 0.56 0.47 0.57 0.72 0.54 0.23 0.25 0.27 0.29 0.06 0.08 0.11 0.14 0.15 0.17 0.13 0.06 0.06 0.05 0.02 0.03 0.02 0.03 0.04 0.04
0.98 1.03 0.71 0.63 0.92 0.76 0.66 0.72 0.64 0.32 0.27 0.25 0.12 0.09 0.16 0.05 0.06 0.49 0.84 1.07 1.09 0.86 0.63 0.66 0.54 0.45 0.89 0.67 0.60 0.65 0.35 0.56 0.65 0.31 0.25 0.32 0.19 0.03 0.05 0.12 0.09 0.15 0.30 0.34 0.42 0.30 0.17 0.23 0.14 0.10 0.15 0.11 0.12 0.14
0.90 1.04 0.80 0.65 0.69 0.61 0.61 0.68 0.63 0.45 0.35 0.14 0.10 0.12 0.07 0.08 0.63 1.17 1.35 1.10 0.69 0.51 0.46 0.41 0.40 0.37 0.48 0.55 0.38 0.42 0.50 0.46 0.71 0.47 0.33 0.32 0.30 0.12 0.07 0.05 0.04 0.08 0.18 0.14 0.31 0.32 0.20 0.30 0.35 0.25 0.29 0.33 0.34 0.35
0.94 1.02 0.92 0.74 0.70 0.50 0.55 0.68 0.64 0.27 0.11 0.16 0.22 0.20 0.23 0.56 1.19 1.06 1.04 0.64 0.28 0.22 0.22 0.27 0.28 0.33 0.43 0.30 0.49 0.40 0.36 0.33 0.35 0.33 0.46 0.41 0.27 0.18 0.20 0.09 0.06 0.04 0.06 0.07 0.10 0.22 0.18 0.11 0.16 0.19 0.27 0.30 0.29 0.34
1.00 1.01 0.92 0.73 0.73 0.61 0.62 0.62 0.56 0.41 0.33 0.30 0.41 0.59 0.62 0.76 0.88 0.67 0.49 0.27 0.10 0.09 0.08 0.11 0.26 0.22 0.39 0.36 0.42 0.48 0.29 0.16 0.34 0.45 0.40 0.18 0.06 0.03 0.10 0.19 0.20 0.16 0.10 0.25 0.27 0.18 0.11 0.09 0.11 0.14 0.15 0.11 0.10 0.11
1.12 1.07 0.92 0.83 0.82 0.77 0.72 0.64 0.83 0.64 0.49 0.60 0.75 0.73 0.50 0.40 0.39 0.27 0.17 0.15 0.05 0.04 0.03 0.05 0.12 0.20 0.27 0.24 0.26 0.30 0.18 0.31 0.51 0.33 0.22 0.07 0.06 0.04 0.02 0.05 0.10 0.14 0.13 0.24 0.56 0.60 0.44 0.44 0.40 0.30 0.21 0.15 0.12 0.11
1.23 1.25 1.17 1.19 1.03 0.94 0.86 0.89 1.09 0.85 0.75 0.82 0.89 0.52 0.28 0.22 0.09 0.05 0.04 0.06 0.02 0.02 0.04 0.04 0.13 0.18 0.24 0.35 0.30 0.27 0.35 0.50 0.32 0.26 0.17 0.10 0.09 0.08 0.06 0.03 0.03 0.07 0.13 0.16 0.25 0.33 0.40 0.29 0.16 0.20 0.27 0.25 0.17 0.13
1.65 2.22 2.00 1.46 1.18 1.13 1.08 1.31 1.65 1.64 1.48 1.16 0.93 0.40 0.13 0.07 0.05 0.01 0.01 0.03 0.02 0.02 0.06 0.10 0.18 0.22 0.21 0.32 0.32 0.31 0.49 0.40 0.24 0.16 0.10 0.05 0.09 0.07 0.05 0.04 0.01 0.00 0.01 0.06 0.14 0.19 0.24 0.22 0.16 0.13 0.17 0.27 0.23 0.20
2.88 2.81 1.66 1.21 1.27 1.36 1.55 2.08 2.31 2.11 1.78 1.34 0.52 0.16 0.10 0.06 0.06 0.05 0.02 0.01 0.02 0.07 0.20 0.39 0.51 0.24 0.23 0.29 0.20 0.23 0.34 0.20 0.10 0.06 0.02 0.01 0.01 0.01 0.01 0.00 0.00 0.00 0.01 0.03 0.09 0.13 0.20 0.25 0.24 0.18 0.16 0.16 0.16 0.22
2.49 1.53 1.19 1.33 1.72 2.41 3.06 2.64 1.99 1.77 1.31 0.43 0.06 0.01 0.01 0.03 0.05 0.07 0.04 0.03 0.03 0.12 0.31 0.62 0.42 0.31 0.17 0.11 0.05 0.08 0.11 0.07 0.06 0.03 0.02 0.01 0.00 0.00 0.01 0.02 0.00 0.03 0.12 0.18 0.17 0.16 0.17 0.17 0.16 0.12 0.11 0.10 0.10 0.09
1.45 1.10 1.38 1.69 2.10 2.80 2.99 2.66 1.81 1.23 0.39 0.06 0.00 0.00 0.00 0.00 0.03 0.06 0.05 0.04 0.08 0.19 0.39 0.62 0.60 0.26 0.02 0.01 0.02 0.01 0.00 0.01 0.01 0.01 0.01 0.00 0.00 0.00 0.01 0.04 0.06 0.07 0.20 0.14 0.05 0.06 0.05 0.06 0.09 0.10 0.10 0.10 0.10 0.09
1.98 1.81 1.81 1.89 2.01 3.05 3.30 2.70 1.75 0.70 0.18 0.01 0.00 0.00 0.00 0.00 0.01 0.05 0.10 0.07 0.10 0.43 0.69 0.57 0.18 0.04 0.04 0.04 0.04 0.02 0.00 0.00 0.00 0.00 0.00 0.00 0.00 0.00 0.00 0.02 0.05 0.07 0.08 0.08 0.09 0.10 0.09 0.07 0.06 0.06 0.07 0.08 0.11 0.12
3.88 3.02 2.86 3.22 3.71 3.89 3.14 1.91 0.93 0.31 0.08 0.03 0.00 0.02 0.03 0.02 0.01 0.03 0.11 0.19 0.51 0.83 0.51 0.17 0.05 0.03 0.05 0.06 0.06 0.03 0.00 0.00 0.00 0.00 0.00 0.00 0.00 0.00 0.00 0.00 0.00 0.01 0.02 0.03 0.05 0.06 0.08 0.07 0.08 0.08 0.08 0.10 0.13 0.12
3.96 3.23 4.17 4.58 4.41 3.98 2.83 1.50 0.56 0.22 0.10 0.07 0.05 0.07 0.09 0.08 0.06 0.07 0.17 0.55 0.74 0.31 0.13 0.12 0.13 0.11 0.08 0.07 0.07 0.07 0.05 0.02 0.00 0.00 0.00 0.00 0.00 0.00 0.00 0.00 0.00 0.00 0.00 0.01 0.02 0.01 0.02 0.02 0.03 0.07 0.09 0.12 0.15 0.12
3.47 3.27 3.66 3.78 3.65 3.09 1.97 0.81 0.44 0.30 0.16 0.15 0.14 0.17 0.15 0.09 0.08 0.15 0.44 0.36 0.19 0.10 0.08 0.09 0.12 0.16 0.18 0.14 0.14 0.12 0.11 0.08 0.04 0.02 0.01 0.00 0.00 0.00 0.00 0.00 0.00 0.01 0.02 0.01 0.01 0.02 0.03 0.02 0.03 0.05 0.05 0.08 0.16 0.21
3.53 3.85 3.93 3.73 2.63 1.95 1.35 1.02 0.62 0.31 0.28 0.19 0.18 0.14 0.07 0.05 0.17 0.33 0.28 0.05 0.03 0.04 0.09 0.12 0.11 0.11 0.10 0.12 0.14 0.18 0.21 0.19 0.13 0.09 0.07 0.05 0.03 0.02 0.01 0.01 0.01 0.00 0.01 0.01 0.01 0.01 0.01 0.01 0.02 0.06 0.07 0.09 0.14 0.19
4.61 4.74 3.42 2.87 1.63 0.77 0.45 0.32 0.28 0.24 0.22 0.16 0.12 0.08 0.06 0.09 0.17 0.18 0.05 0.00 0.01 0.03 0.07 0.09 0.11 0.12 0.11 0.11 0.11 0.11 0.12 0.19 0.24 0.22 0.19 0.16 0.12 0.11 0.09 0.06 0.03 0.01 0.01 0.04 0.02 0.01 0.00 0.00 0.01 0.04 0.07 0.12 0.17 0.22
4.05 2.47 1.62 0.73 0.38 0.11 0.07 0.06 0.06 0.04 0.06 0.11 0.12 0.12 0.14 0.27 0.36 0.16 0.01 0.00 0.01 0.04 0.05 0.07 0.08 0.10 0.09 0.10 0.15 0.22 0.25 0.26 0.27 0.24 0.23 0.25 0.21 0.18 0.17 0.16 0.12 0.07 0.05 0.07 0.09 0.07 0.04 0.02 0.02 0.05 0.11 0.15 0.25 0.29
2.63 1.48 0.58 0.15 0.06 0.05 0.03 0.01 0.02 0.04 0.09 0.09 0.06 0.06 0.15 0.35 0.18 0.05 0.01 0.00 0.01 0.03 0.05 0.09 0.14 0.15 0.16 0.17 0.17 0.18 0.17 0.18 0.20 0.16 0.22 0.33 0.34 0.27 0.20 0.17 0.16 0.13 0.13 0.14 0.12 0.11 0.09 0.08 0.08 0.11 0.19 0.22 0.23 0.25
1.33 0.39 0.10 0.09 0.03 0.02 0.04 0.07 0.12 0.11 0.06 0.03 0.06 0.09 0.14 0.08 0.01 0.00 0.00 0.01 0.03 0.03 0.05 0.09 0.13 0.15 0.14 0.12 0.14 0.16 0.18 0.21 0.25 0.26 0.30 0.36 0.40 0.40 0.35 0.30 0.31 0.32 0.30 0.22 0.19 0.19 0.17 0.16 0.15 0.19 0.24 0.20 0.15 0.16
0.28 0.14 0.11 0.15 0.10 0.07 0.07 0.06 0.04 0.02 0.00 0.01 0.04 0.02 0.00 0.00 0.00 0.00 0.01 0.02 0.02 0.04 0.06 0.09 0.12 0.14 0.17 0.18 0.20 0.23 0.24 0.24 0.20 0.19 0.15 0.20 0.29 0.41 0.46 0.42 0.44 0.44 0.39 0.36 0.32 0.28 0.28 0.30 0.30 0.30 0.30 0.29 0.26 0.25
0.06 0.01 0.02 0.05 0.10 0.13 0.07 0.03 0.02 0.01 0.01 0.01 0.01 0.01 0.01 0.01 0.01 0.02 0.02 0.04 0.05 0.08 0.11 0.14 0.17 0.19 0.21 0.22 0.23 0.24 0.25 0.28 0.26 0.17 0.16 0.16 0.21 0.32 0.40 0.41 0.45 0.48 0.47 0.42 0.48 0.53 0.52 0.51 0.51 0.48 0.43 0.39 0.35 0.31
0.01 0.01 0.01 0.02 0.02 0.02 0.03 0.03 0.02 0.02 0.03 0.02 0.03 0.03 0.02 0.02 0.02 0.02 0.02 0.04 0.07 0.11 0.16 0.19 0.22 0.27 0.28 0.30 0.30 0.27 0.26 0.32 0.37 0.36 0.31 0.34 0.32 0.32 0.38 0.44 0.45 0.47 0.48 0.44 0.39 0.37 0.36 0.32 0.29 0.27 0.28 0.27 0.26 0.25
0.05 0.02 0.01 0.01 0.02 0.04 0.04 0.04 0.03 0.03 0.02 0.02 0.02 0.02 0.02 0.01 0.01 0.01 0.03 0.06 0.10 0.13 0.17 0.21 0.21 0.26 0.31 0.31 0.33 0.35 0.31 0.31 0.36 0.40 0.37 0.35 0.34 0.34 0.38 0.41 0.44 0.44 0.45 0.44 0.40 0.39 0.38 0.37 0.39 0.35 0.35 0.35 0.32 0.29
0.15 0.11 0.08 0.08 0.12 0.09 0.05 0.06 0.08 0.06 0.04 0.02 0.02 0.01 0.02 0.01 0.01 0.02 0.03 0.07 0.11 0.14 0.16 0.21 0.26 0.28 0.28 0.28 0.31 0.35 0.38 0.40 0.41 0.45 0.47 0.45 0.44 0.47 0.43 0.39 0.41 0.41 0.41 0.41 0.45 0.45 0.47 0.43 0.41 0.40 0.36 0.34 0.31 0.30

GFSWCAN_prec_precacc_120.txt.gz
Total_Precipitation_Accumulation
0.94 0.93 1.03 1.03 1.08 1.17 1.19 1.25 1.35 1.41 1.49 1.02 0.80 0.60 0.35 0.29 0.20 0.19 0.29 0.37 0.42 0.13 0.02 0.00 0.00 0.01 0.00 0.00 0.02 0.02 0.09 0.13 0.20 0.26 0.24 0.10 0.03 0.01 0.00 0.00 0.00 0.02 0.04 0.06 0.06 0.10 0.01 0.00 0.00 0.00 0.00 0.00 0.00 0.01
0.87 0.78 0.88 0.84 0.70 0.67 0.54 0.65 0.86 0.98 0.84 0.66 0.61 0.43 0.24 0.22 0.21 0.25 0.26 0.29 0.25 0.15 0.01 0.00 0.00 0.00 0.00 0.00 0.02 0.01 0.08 0.12 0.22 0.24 0.19 0.09 0.04 0.01 0.00 0.01 0.00 0.00 0.00 0.00 0.00 0.00 0.00 0.00 0.00 0.00 0.00 0.00 0.00 0.00
0.80 0.81 0.92 1.09 1.00 0.89 0.75 0.73 0.90 1.14 0.71 0.59 0.46 0.26 0.15 0.17 0.17 0.30 0.30 0.23 0.24 0.25 0.05 0.03 0.02 0.00 0.00 0.00 0.00 0.04 0.07 0.15 0.23 0.21 0.32 0.15 0.06 0.04 0.02 0.01 0.00 0.00 0.00 0.00 0.00 0.00 0.00 0.00 0.00 0.00 0.00 0.00 0.00 0.01
0.74 0.73 0.75 1.00 1.26 1.28 1.33 1.22 1.16 1.09 0.67 0.61 0.39 0.22 0.13 0.11 0.16 0.23 0.11 0.10 0.22 0.26 0.19 0.05 0.01 0.02 0.01 0.02 0.02 0.02 0.09 0.17 0.29 0.48 0.33 0.19 0.08 0.03 0.02 0.01 0.00 0.01 0.00 0.00 0.00 0.00 0.00 0.00 0.00 0.00 0.00 0.00 0.00 0.00
1.04 0.89 0.67 0.66 0.81 0.86 1.03 1.14 1.02 0.89 0.61 0.54 0.44 0.18 0.16 0.19 0.17 0.08 0.02 0.07 0.16 0.32 0.34 0.18 0.16 0.01 0.01 0.05 0.04 0.06 0.11 0.30 0.34 0.59 0.57 0.22 0.09 0.06 0.02 0.01 0.00 0.00 0.00 0.00 0.00 0.00 0.00 0.00 0.00 0.00 0.00 0.00 0.00 0.00
1.02 1.14 1.23 0.82 0.65 0.70 0.84 0.73 0.59 0.61 0.58 0.51 0.27 0.20 0.18 0.12 0.16 0.15 0.20 0.36 0.28 0.32 0.60 0.43 0.34 0.16 0.06 0.09 0.09 0.15 0.22 0.43 0.67 0.50 0.53 0.33 0.13 0.20 0.17 0.05 0.00 0.00 0.00 0.00 0.00 0.00 0.00 0.00 0.00 0.00 0.00 0.00 0.00 0.00
0.82 0.99 1.30 1.42 0.89 0.67 0.78 0.82 0.54 0.57 0.51 0.32 0.21 0.16 0.09 0.06 0.11 0.14 0.26 0.62 0.58 0.57 0.68 0.78 0.66 0.48 0.14 0.23 0.27 0.30 0.31 0.55 0.89 0.66 0.41 0.33 0.29 0.53 0.34 0.05 0.00 0.01 0.01 0.01 0.01 0.00 0.00 0.00 0.00 0.00 0.00 0.00 0.00 0.00
0.74 0.75 0.94 1.41 1.17 0.76 0.65 0.89 0.59 0.55 0.37 0.20 0.14 0.10 0.10 0.19 0.11 0.09 0.07 0.22 0.51 0.89 0.91 1.05 0.98 0.96 0.32 0.53 0.46 0.40 0.39 0.48 1.03 0.74 0.34 0.24 0.35 0.35 0.20 0.02 0.05 0.04 0.04 0.02 0.01 0.02 0.01 0.01 0.00 0.00 0.00 0.00 0.00 0.00
0.91 0.78 0.69 0.89 1.24 0.76 0.67 0.78 0.76 0.48 0.25 0.16 0.16 0.12 0.17 0.12 0.07 0.12 0.22 0.41 0.64 1.03 0.85 0.80 0.90 0.80 0.64 0.64 0.48 0.56 0.47 0.57 0.72 0.55 0.24 0.26 0.28 0.29 0.06 0.08 0.11 0.14 0.15 0.17 0.13 0.06 0.06 0.05 0.02 0.03 0.02 0.03 0.04 0.04
0.98 1.03 0.71 0.63 0.92 0.76 0.66 0.72 0.64 0.32 0.27 0.25 0.12 0.09 0.16 0.05 0.06 0.49 0.84 1.07 1.09 0.88 0.65 0.67 0.54 0.45 0.89 0.67 0.60 0.65 0.35 0.56 0.66 0.32 0.25 0.33 0.20 0.03 0.05 0.12 0.09 0.15 0.30 0.34 0.42 0.30 0.17 0.23 0.14 0.10 0.15 0.11 0.12 0.14
0.90 1.04 0.80 0.65 0.69 0.61 0.61 0.68 0.63 0.45 0.35 0.14 0.10 0.12 0.07 0.08 0.63 1.17 1.36 1.11 0.70 0.51 0.46 0.41 0.40 0.37 0.48 0.56 0.38 0.43 0.50 0.46 0.72 0.47 0.33 0.32 0.30 0.12 0.07 0.05 0.04 0.08 0.18 0.14 0.31 0.32 0.20 0.30 0.35 0.25 0.29 0.33 0.34 0.35
0.94 1.02 0.92 0.74 0.70 0.50 0.55 0.68 0.65 0.27 0.11 0.16 0.22 0.20 0.23 0.56 1.19 1.06 1.05 0.65 0.29 0.22 0.22 0.27 0.28 0.33 0.43 0.30 0.49 0.41 0.37 0.34 0.36 0.34 0.47 0.41 0.27 0.18 0.20 0.09 0.06 0.04 0.06 0.07 0.10 0.22 0.18 0.11 0.16 0.19 0.27 0.30 0.29 0.34
1.00 1.01 0.92 0.73 0.73 0.61 0.62 0.62 0.56 0.42 0.33 0.30 0.41 0.59 0.62 0.76 0.88 0.68 0.50 0.28 0.10 0.09 0.08 0.11 0.26 0.22 0.39 0.36 0.42 0.49 0.30 0.16 0.35 0.46 0.41 0.18 0.06 0.03 0.10 0.19 0.20 0.16 0.10 0.25 0.27 0.18 0.11 0.09 0.11 0.14 0.15 0.11 0.10 0.11
1.13 1.08 0.92 0.83 0.83 0.77 0.72 0.65 0.84 0.65 0.49 0.60 0.75 0.73 0.50 0.40 0.39 0.27 0.17 0.15 0.05 0.04 0.03 0.05 0.12 0.20 0.27 0.25 0.26 0.31 0.18 0.31 0.52 0.34 0.22 0.07 0.06 0.04 0.02 0.05 0.10 0.14 0.13 0.24 0.56 0.60 0.44 0.44 0.40 0.30 0.21 0.15 0.12 0.11
1.24 1.26 1.20 1.21 1.04 0.94 0.87 0.89 1.11 0.87 0.76 0.82 0.89 0.52 0.28 0.22 0.09 0.05 0.04 0.06 0.02 0.02 0.04 0.04 0.14 0.20 0.26 0.36 0.30 0.27 0.36 0.50 0.32 0.26 0.17 0.10 0.09 0.08 0.06 0.03 0.03 0.07 0.13 0.16 0.25 0.33 0.40 0.29 0.16 0.20 0.27 0.25 0.17 0.13
1.66 2.25 2.02 1.48 1.21 1.15 1.09 1.33 1.66 1.66 1.51 1.16 0.93 0.40 0.13 0.07 0.05 0.01 0.01 0.03 0.02 0.02 0.06 0.10 0.19 0.23 0.21 0.32 0.32 0.31 0.50 0.41 0.24 0.16 0.10 0.05 0.09 0.07 0.05 0.04 0.01 0.00 0.01 0.06 0.14 0.19 0.24 0.22 0.16 0.13 0.17 0.27 0.23 0.20
2.91 2.82 1.66 1.21 1.30 1.41 1.61 2.11 2.32 2.12 1.80 1.38 0.52 0.16 0.10 0.06 0.06 0.05 0.02 0.01 0.02 0.07 0.20 0.42 0.55 0.25 0.23 0.30 0.20 0.23 0.34 0.20 0.10 0.06 0.02 0.01 0.01 0.01 0.01 0.00 0.00 0.00 0.01 0.03 0.09 0.13 0.20 0.25 0.24 0.18 0.16 0.16 0.16 0.22
2.51 1.53 1.19 1.33 1.74 2.47 3.15 2.81 2.09 1.81 1.32 0.43 0.06 0.01 0.01 0.03 0.05 0.07 0.04 0.03 0.03 0.13 0.34 0.64 0.44 0.31 0.17 0.11 0.05 0.08 0.11 0.07 0.06 0.03 0.02 0.01 0.00 0.00 0.01 0.02 0.00 0.03 0.12 0.18 0.17 0.16 0.17 0.17 0.16 0.12 0.11 0.10 0.10 0.09
1.45 1.10 1.39 1.71 2.15 2.88 3.20 2.98 2.01 1.31 0.40 0.06 0.00 0.00 0.00 0.00 0.03 0.06 0.05 0.04 0.08 0.21 0.43 0.63 0.63 0.27 0.03 0.01 0.02 0.01 0.00 0.01 0.01 0.01 0.01 0.00 0.00 0.00 0.01 0.04 0.06 0.07 0.20 0.14 0.05 0.06 0.05 0.06 0.09 0.10 0.10 0.10 0.10 0.09
2.00 1.83 1.82 1.93 2.12 3.20 3.56 2.90 1.95 0.82 0.22 0.01 0.00 0.00 0.00 0.00 0.01 0.05 0.10 0.07 0.11 0.43 0.69 0.58 0.18 0.04 0.04 0.04 0.04 0.02 0.00 0.00 0.00 0.00 0.00 0.00 0.00 0.00 0.00 0.02 0.05 0.07 0.08 0.08 0.09 0.10 0.09 0.07 0.06 0.06 0.07 0.08 0.11 0.12
3.91 3.03 2.88 3.29 3.83 4.00 3.36 2.07 1.08 0.38 0.09 0.03 0.00 0.02 0.03 0.02 0.01 0.03 0.11 0.19 0.51 0.83 0.51 0.17 0.05 0.03 0.05 0.06 0.06 0.03 0.00 0.00 0.00 0.00 0.00 0.00 0.00 0.00 0.00 0.00 0.00 0.01 0.02 0.03 0.05 0.06 0.08 0.07 0.08 0.08 0.08 0.10 0.13 0.12
3.97 3.24 4.20 4.63 4.51 4.09 3.00 1.64 0.68 0.31 0.14 0.09 0.05 0.07 0.09 0.08 0.06 0.07 0.17 0.55 0.74 0.31 0.13 0.12 0.13 0.11 0.08 0.07 0.07 0.07 0.05 0.02 0.00 0.00 0.00 0.00 0.00 0.00 0.00 0.00 0.00 0.00 0.00 0.01 0.02 0.01 0.02 0.02 0.03 0.07 0.09 0.12 0.15 0.12
3.53 3.33 3.73 3.83 3.72 3.20 2.05 0.85 0.55 0.41 0.22 0.17 0.14 0.18 0.15 0.09 0.08 0.15 0.44 0.36 0.19 0.10 0.08 0.09 0.12 0.16 0.18 0.14 0.14 0.12 0.11 0.08 0.04 0.02 0.01 0.00 0.00 0.00 0.00 0.00 0.00 0.01 0.02 0.01 0.01 0.02 0.03 0.02 0.03 0.05 0.05 0.08 0.16 0.21
3.61 4.01 4.11 3.89 2.75 2.01 1.38 1.08 0.68 0.37 0.36 0.25 0.22 0.16 0.08 0.05 0.17 0.33 0.28 0.05 0.03 0.04 0.09 0.12 0.11 0.11 0.10 0.12 0.14 0.18 0.21 0.19 0.13 0.09 0.07 0.05 0.04 0.02 0.01 0.01 0.01 0.01 0.01 0.01 0.01 0.01 0.01 0.01 0.02 0.06 0.07 0.09 0.14 0.19
4.80 4.99 3.58 3.01 1.71 0.84 0.50 0.36 0.32 0.28 0.26 0.17 0.12 0.08 0.06 0.09 0.17 0.18 0.05 0.00 0.01 0.03 0.07 0.09 0.11 0.12 0.11 0.11 0.11 0.11 0.12 0.20 0.28 0.31 0.25 0.20 0.26 0.24 0.13 0.06 0.03 0.01 0.01 0.04 0.03 0.01 0.00 0.00 0.01 0.04 0.07 0.13 0.20 0.25
4.38 2.58 1.75 0.82 0.42 0.13 0.09 0.08 0.07 0.05 0.06 0.11 0.13 0.12 0.14 0.27 0.36 0.16 0.01 0.00 0.01 0.04 0.05 0.07 0.08 0.10 0.09 0.10 0.15 0.22 0.25 0.28 0.34 0.36 0.29 0.29 0.27 0.21 0.17 0.16 0.12 0.07 0.05 0.07 0.09 0.07 0.04 0.02 0.02 0.05 0.11 0.16 0.28 0.32
2.80 1.61 0.68 0.19 0.10 0.09 0.06 0.02 0.02 0.04 0.09 0.09 0.06 0.06 0.16 0.37 0.20 0.05 0.01 0.00 0.01 0.03 0.05 0.09 0.14 0.15 0.16 0.17 0.17 0.18 0.17 0.18 0.20 0.17 0.22 0.33 0.34 0.27 0.20 0.17 0.16 0.13 0.13 0.14 0.12 0.11 0.09 0.08 0.08 0.11 0.20 0.24 0.26 0.30
1.36 0.39 0.10 0.10 0.04 0.03 0.06 0.09 0.13 0.12 0.08 0.04 0.07 0.09 0.15 0.09 0.02 0.00 0.00 0.01 0.03 0.03 0.05 0.09 0.13 0.15 0.14 0.12 0.14 0.16 0.18 0.21 0.25 0.26 0.30 0.36 0.40 0.40 0.35 0.30 0.31 0.32 0.30 0.22 0.19 0.19 0.17 0.16 0.15 0.19 0.25 0.21 0.16 0.17
0.30 0.14 0.11 0.15 0.10 0.07 0.07 0.07 0.04 0.02 0.00 0.01 0.04 0.02 0.00 0.00 0.00 0.00 0.01 0.02 0.02 0.04 0.06 0.09 0.12 0.14 0.17 0.18 0.20 0.23 0.24 0.24 0.20 0.19 0.15 0.20 0.29 0.41 0.46 0.42 0.44 0.44 0.39 0.36 0.32 0.28 0.28 0.30 0.30 0.30 0.30 0.29 0.26 0.25
0.06 0.01 0.02 0.05 0.10 0.13 0.07 0.03 0.02 0.01 0.01 0.01 0.01 0.01 0.01 0.01 0.01 0.02 0.02 0.04 0.05 0.08 0.11 0.14 0.17 0.19 0.21 0.22 0.23 0.24 0.25 0.28 0.26 0.17 0.16 0.16 0.21 0.32 0.40 0.41 0.45 0.48 0.47 0.42 0.48 0.53 0.52 0.51 0.51 0.48 0.43 0.39 0.35 0.31
0.01 0.01 0.01 0.02 0.02 0.02 0.03 0.03 0.02 0.02 0.03 0.02 0.03 0.03 0.02 0.02 0.02 0.02 0.02 0.04 0.07 0.11 0.16 0.19 0.22 0.27 0.28 0.30 0.30 0.27 0.26 0.32 0.37 0.36 0.31 0.34 0.32 0.32 0.38 0.44 0.45 0.47 0.48 0.44 0.39 0.37 0.36 0.32 0.29 0.27 0.28 0.27 0.26 0.25
0.05 0.02 0.01 0.01 0.02 0.04 0.04 0.04 0.03 0.03 0.02 0.02 0.02 0.02 0.02 0.01 0.01 0.01 0.03 0.06 0.10 0.13 0.17 0.21 0.21 0.26 0.31 0.31 0.33 0.35 0.31 0.31 0.36 0.40 0.37 0.35 0.34 0.34 0.38 0.41 0.44 0.44 0.45 0.44 0.40 0.39 0.38 0.37 0.39 0.35 0.35 0.35 0.32 0.29
0.15 0.11 0.08 0.08 0.12 0.09 0.05 0.06 0.08 0.06 0.04 0.02 0.02 0.01 0.02 0.01 0.01 0.02 0.03 0.07 0.11 0.14 0.16 0.21 0.26 0.28 0.28 0.28 0.31 0.35 0.38 0.40 0.41 0.45 0.47 0.45 0.44 0.47 0.43 0.39 0.41 0.41 0.41 0.41 0.45 0.45 0.47 0.43 0.41 0.41 0.37 0.34 0.32 0.30

GFSWCAN_prec_precacc_123.txt.gz
Total_Precipitation_Accumulation
0.94 0.93 1.03 1.04 1.09 1.17 1.19 1.25 1.35 1.41 1.49 1.02 0.80 0.60 0.35 0.29 0.20 0.19 0.29 0.37 0.42 0.13 0.02 0.00 0.00 0.01 0.00 0.00 0.02 0.02 0.09 0.13 0.20 0.26 0.24 0.10 0.03 0.01 0.00 0.00 0.00 0.02 0.04 0.06 0.06 0.10 0.01 0.00 0.00 0.00 0.00 0.00 0.00 0.01
0.87 0.78 0.88 0.85 0.70 0.67 0.55 0.65 0.86 0.98 0.84 0.66 0.61 0.43 0.24 0.22 0.21 0.25 0.26 0.29 0.25 0.15 0.01 0.00 0.00 0.00 0.00 0.00 0.02 0.01 0.08 0.12 0.22 0.24 0.19 0.09 0.04 0.01 0.00 0.01 0.00 0.00 0.00 0.00 0.00 0.00 0.00 0.00 0.00 0.00 0.00 0.00 0.00 0.00
0.80 0.81 0.92 1.09 1.00 0.89 0.75 0.73 0.90 1.14 0.71 0.59 0.46 0.26 0.15 0.17 0.17 0.30 0.30 0.23 0.24 0.25 0.05 0.03 0.02 0.00 0.00 0.00 0.00 0.04 0.07 0.15 0.23 0.21 0.32 0.15 0.06 0.04 0.02 0.01 0.00 0.00 0.00 0.00 0.00 0.00 0.00 0.00 0.00 0.00 0.00 0.00 0.00 0.01
0.74 0.73 0.75 1.00 1.26 1.28 1.33 1.22 1.16 1.09 0.67 0.61 0.39 0.22 0.13 0.11 0.16 0.23 0.11 0.10 0.22 0.26 0.19 0.05 0.01 0.02 0.01 0.02 0.02 0.02 0.09 0.17 0.29 0.48 0.33 0.19 0.08 0.03 0.02 0.01 0.00 0.01 0.00 0.00 0.00 0.00 0.00 0.00 0.00 0.00 0.00 0.00 0.00 0.00
1.04 0.90 0.67 0.66 0.81 0.86 1.03 1.14 1.02 0.89 0.61 0.54 0.44 0.18 0.16 0.19 0.17 0.08 0.02 0.07 0.16 0.32 0.34 0.18 0.16 0.01 0.01 0.05 0.04 0.06 0.11 0.30 0.34 0.59 0.57 0.22 0.09 0.06 0.02 0.01 0.00 0.00 0.00 0.00 0.00 0.00 0.00 0.00 0.00 0.00 0.00 0.00 0.00 0.00
1.03 1.15 1.24 0.83 0.65 0.70 0.84 0.73 0.59 0.61 0.58 0.51 0.27 0.20 0.18 0.12 0.16 0.15 0.20 0.36 0.28 0.32 0.60 0.43 0.34 0.16 0.06 0.09 0.09 0.15 0.22 0.43 0.67 0.50 0.53 0.33 0.13 0.20 0.17 0.05 0.00 0.00 0.00 0.00 0.00 0.00 0.00 0.00 0.00 0.00 0.00 0.00 0.00 0.00
0.83 1.00 1.30 1.42 0.89 0.67 0.78 0.82 0.54 0.57 0.51 0.32 0.21 0.16 0.09 0.06 0.11 0.14 0.27 0.62 0.58 0.57 0.69 0.78 0.66 0.48 0.14 0.23 0.27 0.30 0.31 0.55 0.89 0.66 0.41 0.33 0.29 0.53 0.34 0.05 0.00 0.01 0.01 0.01 0.01 0.00 0.00 0.00 0.00 0.00 0.00 0.00 0.00 0.00
0.75 0.75 0.94 1.41 1.17 0.76 0.65 0.89 0.59 0.55 0.37 0.20 0.14 0.10 0.10 0.20 0.11 0.09 0.07 0.23 0.52 0.89 0.92 1.06 0.98 0.96 0.32 0.53 0.46 0.40 0.39 0.48 1.03 0.74 0.34 0.24 0.35 0.35 0.20 0.02 0.05 0.04 0.04 0.02 0.01 0.02 0.01 0.01 0.00 0.00 0.00 0.00 0.00 0.00
0.91 0.78 0.69 0.89 1.24 0.76 0.67 0.78 0.76 0.48 0.25 0.16 0.16 0.12 0.17 0.12 0.07 0.12 0.22 0.42 0.64 1.03 0.85 0.81 0.90 0.80 0.64 0.64 0.48 0.56 0.47 0.57 0.73 0.56 0.24 0.26 0.28 0.29 0.06 0.08 0.11 0.14 0.15 0.17 0.13 0.06 0.06 0.05 0.02 0.03 0.02 0.03 0.04 0.04
0.98 1.03 0.71 0.63 0.92 0.76 0.66 0.72 0.64 0.32 0.27 0.25 0.12 0.09 0.16 0.05 0.06 0.49 0.84 1.07 1.09 0.88 0.66 0.67 0.54 0.45 0.89 0.67 0.60 0.65 0.35 0.56 0.66 0.32 0.25 0.34 0.20 0.03 0.05 0.12 0.09 0.15 0.30 0.34 0.42 0.30 0.17 0.23 0.14 0.10 0.15 0.11 0.12 0.14
0.90 1.04 0.80 0.65 0.69 0.61 0.61 0.68 0.63 0.45 0.35 0.14 0.10 0.12 0.07 0.08 0.63 1.17 1.36 1.11 0.71 0.52 0.46 0.41 0.40 0.37 0.48 0.56 0.38 0.43 0.50 0.46 0.72 0.47 0.33 0.32 0.30 0.12 0.07 0.05 0.04 0.08 0.18 0.14 0.31 0.32 0.20 0.30 0.35 0.25 0.29 0.33 0.34 0.35
0.94 1.02 0.92 0.74 0.70 0.50 0.55 0.68 0.65 0.27 0.11 0.16 0.22 0.20 0.23 0.56 1.19 1.07 1.06 0.66 0.29 0.22 0.22 0.27 0.28 0.33 0.43 0.30 0.49 0.41 0.37 0.35 0.37 0.34 0.48 0.42 0.27 0.18 0.20 0.09 0.06 0.04 0.06 0.07 0.10 0.22 0.18 0.11 0.16 0.19 0.27 0.30 0.29 0.34
1.00 1.01 0.92 0.73 0.73 0.61 0.62 0.62 0.57 0.42 0.33 0.30 0.41 0.59 0.62 0.76 0.89 0.69 0.50 0.28 0.10 0.09 0.08 0.11 0.26 0.22 0.39 0.36 0.42 0.50 0.31 0.17 0.35 0.48 0.42 0.18 0.06 0.03 0.10 0.19 0.20 0.16 0.10 0.25 0.27 0.18 0.11 0.09 0.11 0.14 0.15 0.11 0.10 0.11
1.13 1.09 0.93 0.84 0.83 0.77 0.72 0.65 0.84 0.65 0.49 0.60 0.75 0.73 0.50 0.40 0.39 0.27 0.17 0.15 0.05 0.04 0.03 0.05 0.12 0.20 0.27 0.25 0.27 0.31 0.19 0.32 0.54 0.34 0.22 0.07 0.06 0.04 0.02 0.05 0.10 0.14 0.13 0.24 0.56 0.60 0.44 0.44 0.40 0.30 0.21 0.15 0.12 0.11
1.24 1.27 1.21 1.23 1.06 0.95 0.87 0.90 1.12 0.88 0.76 0.82 0.89 0.52 0.28 0.22 0.09 0.05 0.04 0.06 0.02 0.02 0.04 0.04 0.14 0.20 0.27 0.37 0.31 0.28 0.36 0.51 0.32 0.26 0.17 0.10 0.09 0.08 0.06 0.03 0.03 0.07 0.13 0.16 0.25 0.33 0.40 0.29 0.16 0.20 0.27 0.25 0.17 0.13
1.66 2.26 2.02 1.48 1.22 1.17 1.11 1.35 1.68 1.67 1.51 1.16 0.93 0.40 0.13 0.07 0.05 0.01 0.01 0.03 0.02 0.02 0.06 0.10 0.20 0.23 0.21 0.33 0.33 0.31 0.50 0.41 0.24 0.16 0.10 0.05 0.09 0.07 0.05 0.04 0.01 0.00 0.01 0.06 0.14 0.19 0.24 0.22 0.16 0.13 0.17 0.27 0.23 0.20
2.94 2.83 1.66 1.21 1.31 1.45 1.66 2.15 2.35 2.15 1.82 1.40 0.53 0.16 0.10 0.06 0.06 0.05 0.02 0.01 0.02 0.07 0.21 0.43 0.55 0.25 0.23 0.31 0.20 0.23 0.34 0.20 0.10 0.06 0.02 0.01 0.01 0.01 0.01 0.00 0.00 0.00 0.01 0.03 0.09 0.13 0.20 0.25 0.24 0.18 0.16 0.16 0.16 0.22
2.52 1.53 1.19 1.33 1.77 2.53 3.24 3.02 2.29 1.89 1.36 0.44 0.06 0.01 0.01 0.03 0.05 0.07 0.04 0.03 0.03 0.14 0.36 0.65 0.44 0.31 0.17 0.11 0.05 0.08 0.11 0.07 0.06 0.03 0.02 0.01 0.00 0.00 0.01 0.02 0.00 0.03 0.12 0.18 0.17 0.16 0.17 0.17 0.16 0.12 0.11 0.10 0.10 0.09
1.45 1.10 1.39 1.72 2.20 2.92 3.25 3.20 2.24 1.46 0.42 0.06 0.00 0.00 0.00 0.00 0.03 0.06 0.05 0.04 0.08 0.22 0.45 0.64 0.63 0.27 0.03 0.01 0.02 0.01 0.00 0.01 0.01 0.01 0.01 0.00 0.00 0.00 0.01 0.04 0.06 0.07 0.20 0.14 0.05 0.06 0.05 0.06 0.09 0.10 0.10 0.10 0.10 0.09
2.02 1.85 1.83 1.96 2.20 3.26 3.67 2.98 2.02 0.92 0.29 0.02 0.00 0.00 0.00 0.00 0.01 0.05 0.10 0.07 0.11 0.43 0.70 0.58 0.19 0.04 0.04 0.04 0.04 0.02 0.00 0.00 0.00 0.00 0.00 0.00 0.00 0.00 0.00 0.02 0.05 0.07 0.08 0.08 0.09 0.10 0.09 0.07 0.06 0.06 0.07 0.08 0.11 0.12
3.95 3.04 2.90 3.36 3.92 4.06 3.45 2.10 1.15 0.44 0.12 0.04 0.00 0.02 0.03 0.02 0.01 0.03 0.11 0.19 0.51 0.83 0.51 0.17 0.05 0.03 0.05 0.06 0.06 0.03 0.00 0.00 0.00 0.00 0.00 0.00 0.00 0.00 0.00 0.00 0.00 0.01 0.02 0.03 0.05 0.06 0.08 0.07 0.08 0.08 0.08 0.10 0.13 0.12
3.98 3.25 4.22 4.68 4.56 4.13 3.10 1.70 0.74 0.33 0.16 0.11 0.05 0.07 0.09 0.08 0.06 0.07 0.17 0.55 0.74 0.31 0.13 0.12 0.13 0.11 0.08 0.07 0.07 0.07 0.05 0.02 0.00 0.00 0.00 0.00 0.00 0.00 0.00 0.00 0.00 0.00 0.00 0.01 0.02 0.01 0.02 0.02 0.03 0.07 0.09 0.12 0.15 0.12
3.57 3.37 3.79 3.86 3.76 3.25 2.07 0.85 0.55 0.41 0.25 0.20 0.16 0.19 0.16 0.09 0.08 0.15 0.44 0.36 0.19 0.10 0.08 0.09 0.12 0.16 0.18 0.14 0.14 0.12 0.11 0.08 0.04 0.02 0.01 0.00 0.00 0.00 0.00 0.00 0.00 0.02 0.04 0.02 0.02 0.03 0.03 0.02 0.03 0.05 0.05 0.08 0.16 0.21
3.70 4.19 4.26 4.05 2.83 2.04 1.39 1.08 0.68 0.37 0.37 0.26 0.23 0.17 0.09 0.05 0.17 0.33 0.28 0.05 0.03 0.04 0.09 0.12 0.11 0.11 0.10 0.12 0.14 0.18 0.21 0.19 0.13 0.09 0.07 0.05 0.05 0.03 0.01 0.01 0.02 0.04 0.06 0.06 0.01 0.01 0.01 0.01 0.02 0.06 0.07 0.09 0.14 0.19
5.08 5.33 3.80 3.17 1.78 0.88 0.53 0.36 0.32 0.29 0.27 0.17 0.12 0.09 0.06 0.09 0.17 0.19 0.05 0.00 0.01 0.03 0.07 0.09 0.11 0.12 0.11 0.11 0.11 0.11 0.12 0.20 0.28 0.31 0.25 0.20 0.27 0.28 0.17 0.08 0.04 0.02 0.02 0.04 0.03 0.01 0.00 0.00 0.01 0.04 0.07 0.14 0.21 0.27
4.58 2.63 1.80 0.85 0.43 0.13 0.09 0.08 0.07 0.05 0.06 0.11 0.13 0.12 0.14 0.27 0.39 0.20 0.01 0.00 0.01 0.04 0.05 0.07 0.08 0.10 0.09 0.10 0.15 0.22 0.25 0.28 0.34 0.36 0.29 0.29 0.27 0.22 0.18 0.16 0.12 0.07 0.05 0.07 0.09 0.07 0.04 0.02 0.02 0.05 0.11 0.16 0.28 0.33
2.93 1.73 0.73 0.19 0.10 0.09 0.07 0.03 0.02 0.05 0.10 0.10 0.06 0.06 0.17 0.43 0.23 0.05 0.01 0.00 0.01 0.03 0.05 0.09 0.14 0.15 0.16 0.17 0.17 0.18 0.17 0.18 0.20 0.17 0.22 0.33 0.34 0.27 0.20 0.17 0.16 0.13 0.13 0.14 0.12 0.11 0.09 0.08 0.08 0.11 0.20 0.24 0.26 0.31
1.37 0.40 0.13 0.10 0.04 0.04 0.06 0.09 0.15 0.16 0.11 0.06 0.08 0.10 0.18 0.13 0.03 0.00 0.00 0.01 0.03 0.03 0.05 0.09 0.13 0.15 0.14 0.12 0.14 0.16 0.18 0.21 0.25 0.26 0.30 0.36 0.40 0.40 0.35 0.30 0.31 0.32 0.30 0.22 0.19 0.19 0.17 0.16 0.15 0.19 0.25 0.21 0.16 0.17
0.31 0.14 0.11 0.15 0.10 0.08 0.08 0.07 0.04 0.02 0.00 0.01 0.04 0.02 0.01 0.00 0.00 0.00 0.01 0.02 0.02 0.04 0.06 0.09 0.12 0.14 0.17 0.18 0.20 0.23 0.24 0.24 0.20 0.19 0.15 0.20 0.29 0.41 0.46 0.42 0.44 0.44 0.39 0.36 0.32 0.28 0.28 0.30 0.30 0.30 0.30 0.29 0.26 0.25
0.06 0.01 0.02 0.05 0.10 0.13 0.07 0.03 0.02 0.01 0.01 0.01 0.01 0.01 0.01 0.01 0.01 0.02 0.02 0.04 0.05 0.08 0.11 0.14 0.17 0.19 0.21 0.22 0.23 0.24 0.25 0.28 0.26 0.17 0.16 0.16 0.21 0.32 0.40 0.41 0.45 0.48 0.47 0.42 0.48 0.53 0.52 0.51 0.51 0.48 0.43 0.39 0.35 0.31
0.01 0.01 0.01 0.02 0.02 0.02 0.03 0.03 0.02 0.02 0.03 0.02 0.03 0.03 0.02 0.02 0.02 0.02 0.02 0.04 0.07 0.11 0.16 0.19 0.22 0.27 0.28 0.30 0.30 0.27 0.26 0.32 0.37 0.36 0.31 0.34 0.32 0.32 0.38 0.44 0.45 0.47 0.48 0.44 0.39 0.37 0.36 0.32 0.29 0.27 0.28 0.27 0.27 0.27
0.05 0.02 0.01 0.01 0.02 0.04 0.04 0.04 0.03 0.03 0.02 0.02 0.02 0.02 0.02 0.01 0.01 0.01 0.03 0.06 0.10 0.13 0.17 0.21 0.21 0.26 0.31 0.31 0.33 0.35 0.31 0.31 0.36 0.40 0.37 0.35 0.34 0.34 0.38 0.41 0.44 0.44 0.45 0.44 0.40 0.39 0.38 0.37 0.39 0.35 0.35 0.36 0.35 0.31
0.15 0.11 0.08 0.08 0.12 0.09 0.05 0.06 0.08 0.06 0.04 0.02 0.02 0.01 0.02 0.01 0.01 0.02 0.03 0.07 0.11 0.14 0.16 0.21 0.26 0.28 0.28 0.28 0.31 0.35 0.38 0.40 0.41 0.45 0.47 0.45 0.44 0.47 0.43 0.39 0.41 0.41 0.41 0.41 0.45 0.45 0.47 0.43 0.41 0.41 0.38 0.37 0.35 0.33

GFSWCAN_prec_precacc_126.txt.gz
Total_Precipitation_Accumulation
0.94 0.94 1.04 1.04 1.09 1.18 1.19 1.26 1.35 1.41 1.49 1.02 0.80 0.60 0.35 0.29 0.20 0.19 0.29 0.37 0.42 0.13 0.02 0.00 0.00 0.01 0.00 0.00 0.02 0.02 0.09 0.13 0.20 0.26 0.24 0.10 0.03 0.01 0.00 0.00 0.00 0.02 0.04 0.06 0.06 0.10 0.01 0.00 0.00 0.00 0.00 0.00 0.00 0.01
0.88 0.78 0.88 0.85 0.71 0.67 0.55 0.65 0.86 0.98 0.84 0.66 0.61 0.43 0.24 0.22 0.21 0.25 0.26 0.29 0.25 0.15 0.01 0.00 0.00 0.00 0.00 0.00 0.02 0.01 0.08 0.12 0.22 0.24 0.19 0.09 0.04 0.01 0.00 0.01 0.00 0.00 0.00 0.00 0.00 0.00 0.00 0.00 0.00 0.00 0.00 0.00 0.00 0.00
0.81 0.81 0.92 1.09 1.00 0.89 0.75 0.74 0.91 1.14 0.71 0.59 0.46 0.26 0.15 0.17 0.17 0.30 0.30 0.23 0.24 0.25 0.05 0.03 0.02 0.00 0.00 0.00 0.00 0.04 0.07 0.15 0.23 0.21 0.32 0.15 0.06 0.04 0.02 0.01 0.00 0.00 0.00 0.00 0.00 0.00 0.00 0.00 0.00 0.00 0.00 0.00 0.00 0.01
0.75 0.74 0.75 1.00 1.26 1.28 1.33 1.23 1.16 1.09 0.67 0.61 0.39 0.22 0.13 0.11 0.16 0.23 0.11 0.10 0.22 0.26 0.19 0.05 0.01 0.02 0.01 0.02 0.02 0.02 0.09 0.17 0.29 0.48 0.33 0.19 0.08 0.03 0.02 0.01 0.00 0.01 0.00 0.00 0.00 0.00 0.00 0.00 0.00 0.00 0.00 0.00 0.00 0.00
1.05 0.90 0.67 0.66 0.81 0.86 1.03 1.14 1.02 0.89 0.61 0.54 0.44 0.18 0.16 0.19 0.17 0.09 0.02 0.07 0.16 0.32 0.34 0.18 0.16 0.01 0.01 0.05 0.04 0.06 0.11 0.30 0.34 0.59 0.57 0.22 0.09 0.06 0.02 0.01 0.00 0.00 0.00 0.00 0.00 0.00 0.00 0.00 0.00 0.00 0.00 0.00 0.00 0.00
1.07 1.17 1.24 0.83 0.65 0.70 0.84 0.73 0.59 0.61 0.58 0.51 0.27 0.20 0.18 0.12 0.16 0.15 0.20 0.36 0.28 0.32 0.60 0.43 0.34 0.16 0.06 0.09 0.09 0.15 0.22 0.43 0.67 0.50 0.53 0.33 0.13 0.20 0.17 0.05 0.00 0.00 0.00 0.00 0.00 0.00 0.00 0.00 0.00 0.00 0.00 0.00 0.00 0.00
0.87 1.03 1.33 1.44 0.90 0.67 0.78 0.82 0.54 0.57 0.51 0.32 0.21 0.16 0.09 0.06 0.11 0.14 0.27 0.62 0.58 0.57 0.69 0.78 0.66 0.48 0.14 0.23 0.27 0.30 0.31 0.55 0.89 0.66 0.41 0.33 0.29 0.53 0.34 0.05 0.00 0.01 0.01 0.01 0.01 0.00 0.00 0.00 0.00 0.00 0.00 0.00 0.00 0.00
0.84 0.82 0.98 1.43 1.20 0.78 0.66 0.89 0.59 0.55 0.37 0.20 0.14 0.10 0.10 0.20 0.12 0.09 0.07 0.23 0.52 0.89 0.92 1.06 0.98 0.96 0.32 0.53 0.46 0.40 0.39 0.48 1.03 0.74 0.34 0.24 0.35 0.35 0.20 0.02 0.05 0.04 0.04 0.02 0.01 0.02 0.01 0.01 0.00 0.00 0.00 0.00 0.00 0.00
0.96 0.82 0.73 0.90 1.24 0.77 0.67 0.78 0.76 0.48 0.25 0.17 0.16 0.12 0.17 0.12 0.07 0.12 0.22 0.42 0.64 1.03 0.85 0.81 0.90 0.80 0.64 0.64 0.48 0.56 0.47 0.57 0.73 0.56 0.24 0.27 0.29 0.29 0.06 0.08 0.11 0.14 0.15 0.17 0.13 0.06 0.06 0.05 0.02 0.03 0.02 0.03 0.04 0.04
1.00 1.04 0.73 0.64 0.93 0.76 0.66 0.72 0.64 0.32 0.27 0.26 0.12 0.09 0.16 0.05 0.06 0.49 0.84 1.07 1.09 0.89 0.66 0.67 0.54 0.45 0.89 0.67 0.60 0.65 0.35 0.56 0.66 0.32 0.25 0.35 0.20 0.03 0.05 0.12 0.09 0.15 0.30 0.34 0.42 0.30 0.17 0.23 0.14 0.10 0.15 0.11 0.12 0.14
0.91 1.05 0.81 0.65 0.69 0.61 0.61 0.68 0.63 0.45 0.36 0.14 0.10 0.12 0.07 0.08 0.64 1.17 1.36 1.11 0.71 0.53 0.47 0.41 0.40 0.37 0.48 0.56 0.38 0.43 0.50 0.47 0.72 0.47 0.34 0.33 0.30 0.12 0.07 0.05 0.04 0.08 0.18 0.14 0.31 0.32 0.20 0.30 0.35 0.25 0.29 0.33 0.34 0.35
0.94 1.02 0.92 0.74 0.70 0.50 0.55 0.68 0.65 0.27 0.11 0.16 0.22 0.20 0.23 0.56 1.19 1.07 1.06 0.66 0.29 0.22 0.22 0.27 0.28 0.33 0.43 0.30 0.50 0.42 0.37 0.35 0.37 0.35 0.49 0.42 0.27 0.18 0.20 0.09 0.06 0.04 0.06 0.07 0.10 0.22 0.18 0.11 0.16 0.19 0.27 0.30 0.29 0.34
1.00 1.01 0.92 0.73 0.73 0.61 0.62 0.62 0.57 0.42 0.33 0.30 0.41 0.59 0.62 0.76 0.89 0.69 0.50 0.28 0.10 0.09 0.08 0.11 0.26 0.22 0.39 0.36 0.42 0.50 0.31 0.17 0.36 0.48 0.42 0.18 0.06 0.03 0.10 0.19 0.20 0.16 0.10 0.25 0.27 0.18 0.11 0.09 0.11 0.14 0.15 0.11 0.10 0.11
1.14 1.09 0.94 0.84 0.83 0.77 0.72 0.65 0.85 0.65 0.49 0.60 0.75 0.73 0.50 0.40 0.39 0.27 0.17 0.15 0.05 0.04 0.03 0.05 0.13 0.20 0.27 0.25 0.27 0.32 0.19 0.32 0.55 0.35 0.22 0.07 0.06 0.04 0.02 0.05 0.10 0.14 0.13 0.24 0.56 0.60 0.44 0.44 0.40 0.30 0.21 0.15 0.12 0.11
1.25 1.27 1.22 1.24 1.07 0.95 0.88 0.91 1.13 0.88 0.76 0.82 0.89 0.52 0.28 0.22 0.09 0.05 0.04 0.06 0.02 0.02 0.04 0.05 0.15 0.20 0.27 0.37 0.31 0.28 0.37 0.51 0.32 0.26 0.17 0.10 0.09 0.08 0.06 0.03 0.03 0.07 0.13 0.16 0.25 0.33 0.40 0.29 0.16 0.20 0.27 0.25 0.17 0.13
1.67 2.27 2.03 1.48 1.22 1.19 1.14 1.37 1.68 1.67 1.51 1.16 0.93 0.41 0.13 0.07 0.05 0.01 0.01 0.03 0.02 0.02 0.06 0.10 0.20 0.23 0.22 0.33 0.33 0.31 0.50 0.41 0.24 0.16 0.10 0.05 0.09 0.07 0.05 0.04 0.01 0.00 0.01 0.06 0.14 0.19 0.24 0.22 0.16 0.13 0.17 0.27 0.23 0.20
2.96 2.83 1.66 1.21 1.32 1.48 1.71 2.17 2.37 2.19 1.84 1.41 0.53 0.16 0.10 0.06 0.06 0.05 0.02 0.01 0.02 0.08 0.21 0.44 0.55 0.26 0.23 0.31 0.21 0.23 0.34 0.20 0.10 0.06 0.02 0.01 0.01 0.01 0.01 0.00 0.00 0.00 0.01 0.03 0.09 0.13 0.20 0.25 0.24 0.18 0.16 0.16 0.16 0.22
2.53 1.53 1.19 1.34 1.79 2.56 3.30 3.11 2.39 1.98 1.39 0.44 0.06 0.01 0.01 0.03 0.05 0.07 0.04 0.03 0.03 0.14 0.37 0.66 0.44 0.31 0.17 0.11 0.05 0.08 0.11 0.07 0.06 0.03 0.02 0.01 0.00 0.00 0.01 0.02 0.00 0.03 0.12 0.18 0.17 0.16 0.17 0.17 0.16 0.12 0.11 0.10 0.10 0.09
1.45 1.10 1.39 1.74 2.23 2.93 3.27 3.30 2.38 1.58 0.44 0.06 0.00 0.00 0.00 0.00 0.03 0.06 0.05 0.04 0.08 0.22 0.46 0.64 0.64 0.27 0.03 0.01 0.02 0.01 0.00 0.01 0.01 0.01 0.01 0.00 0.00 0.00 0.01 0.04 0.06 0.07 0.20 0.14 0.05 0.06 0.05 0.06 0.09 0.10 0.10 0.10 0.10 0.09
2.05 1.88 1.86 2.00 2.24 3.27 3.70 3.02 2.04 0.94 0.31 0.03 0.00 0.00 0.00 0.00 0.01 0.05 0.10 0.07 0.11 0.43 0.70 0.59 0.19 0.04 0.04 0.04 0.04 0.02 0.00 0.00 0.00 0.00 0.00 0.00 0.00 0.00 0.00 0.02 0.05 0.07 0.08 0.08 0.09 0.10 0.09 0.07 0.06 0.06 0.07 0.09 0.13 0.14
4.03 3.08 2.97 3.44 3.99 4.08 3.48 2.12 1.19 0.47 0.13 0.04 0.00 0.02 0.03 0.02 0.01 0.03 0.11 0.19 0.51 0.83 0.51 0.17 0.05 0.03 0.05 0.06 0.06 0.03 0.00 0.00 0.00 0.00 0.00 0.00 0.00 0.00 0.00 0.00 0.00 0.01 0.02 0.03 0.05 0.06 0.08 0.07 0.08 0.08 0.09 0.11 0.14 0.14
3.99 3.27 4.26 4.73 4.63 4.27 3.25 1.75 0.76 0.34 0.17 0.12 0.05 0.07 0.09 0.08 0.06 0.07 0.17 0.55 0.74 0.31 0.13 0.12 0.13 0.11 0.08 0.07 0.07 0.07 0.05 0.02 0.00 0.00 0.00 0.00 0.00 0.00 0.00 0.00 0.00 0.01 0.01 0.01 0.02 0.01 0.02 0.03 0.04 0.09 0.12 0.13 0.15 0.12
3.61 3.41 3.81 3.88 3.81 3.31 2.08 0.85 0.55 0.41 0.25 0.20 0.16 0.19 0.16 0.09 0.08 0.15 0.44 0.36 0.19 0.10 0.08 0.09 0.12 0.16 0.18 0.14 0.14 0.12 0.11 0.08 0.04 0.02 0.01 0.00 0.00 0.00 0.00 0.00 0.00 0.02 0.04 0.03 0.02 0.05 0.05 0.02 0.03 0.06 0.05 0.08 0.16 0.21
3.75 4.23 4.32 4.10 2.85 2.05 1.39 1.08 0.68 0.37 0.37 0.26 0.23 0.17 0.09 0.05 0.17 0.33 0.28 0.05 0.03 0.04 0.09 0.12 0.11 0.11 0.10 0.12 0.14 0.18 0.21 0.19 0.13 0.09 0.07 0.05 0.05 0.03 0.01 0.01 0.02 0.04 0.06 0.07 0.02 0.01 0.01 0.01 0.02 0.06 0.07 0.09 0.14 0.19
5.20 5.47 3.89 3.23 1.81 0.89 0.53 0.36 0.33 0.29 0.27 0.17 0.12 0.09 0.06 0.09 0.18 0.19 0.05 0.00 0.01 0.03 0.07 0.09 0.11 0.12 0.11 0.11 0.11 0.11 0.12 0.20 0.28 0.31 0.25 0.20 0.27 0.28 0.17 0.08 0.04 0.02 0.02 0.05 0.03 0.01 0.00 0.00 0.01 0.04 0.07 0.14 0.21 0.27
4.69 2.65 1.87 0.90 0.49 0.16 0.10 0.08 0.07 0.05 0.06 0.11 0.13 0.12 0.14 0.27 0.40 0.22 0.01 0.00 0.01 0.04 0.05 0.07 0.08 0.10 0.09 0.10 0.15 0.22 0.25 0.28 0.34 0.36 0.29 0.29 0.27 0.22 0.18 0.16 0.12 0.07 0.05 0.07 0.09 0.07 0.04 0.02 0.02 0.05 0.11 0.16 0.28 0.33
3.06 1.77 0.73 0.19 0.10 0.09 0.07 0.04 0.02 0.05 0.11 0.12 0.06 0.06 0.18 0.49 0.26 0.05 0.01 0.00 0.01 0.03 0.05 0.09 0.14 0.15 0.16 0.17 0.17 0.18 0.17 0.18 0.20 0.17 0.22 0.33 0.34 0.27 0.20 0.17 0.16 0.13 0.13 0.14 0.12 0.11 0.09 0.08 0.08 0.11 0.20 0.24 0.26 0.31
1.38 0.41 0.13 0.11 0.04 0.04 0.06 0.10 0.15 0.16 0.11 0.06 0.08 0.10 0.19 0.14 0.03 0.00 0.00 0.01 0.03 0.03 0.05 0.09 0.13 0.15 0.14 0.12 0.14 0.16 0.18 0.21 0.25 0.26 0.30 0.36 0.40 0.40 0.35 0.30 0.31 0.32 0.30 0.22 0.19 0.19 0.17 0.16 0.15 0.19 0.25 0.21 0.16 0.17
0.31 0.14 0.11 0.15 0.10 0.08 0.08 0.07 0.04 0.02 0.00 0.01 0.04 0.02 0.01 0.00 0.00 0.00 0.01 0.02 0.02 0.04 0.06 0.09 0.12 0.14 0.17 0.18 0.20 0.23 0.24 0.24 0.20 0.19 0.15 0.20 0.29 0.41 0.46 0.42 0.44 0.44 0.39 0.36 0.32 0.28 0.28 0.30 0.30 0.30 0.30 0.29 0.26 0.25
0.06 0.01 0.02 0.05 0.10 0.13 0.07 0.03 0.02 0.01 0.01 0.01 0.01 0.01 0.01 0.01 0.01 0.02 0.02 0.04 0.05 0.08 0.11 0.14 0.17 0.19 0.21 0.22 0.23 0.24 0.25 0.28 0.26 0.17 0.16 0.16 0.21 0.32 0.40 0.41 0.45 0.48 0.47 0.42 0.48 0.53 0.52 0.51 0.51 0.48 0.43 0.39 0.35 0.31
0.01 0.01 0.01 0.02 0.02 0.02 0.03 0.03 0.02 0.02 0.03 0.02 0.03 0.03 0.02 0.02 0.02 0.02 0.02 0.04 0.07 0.11 0.16 0.19 0.22 0.27 0.28 0.30 0.30 0.27 0.26 0.32 0.37 0.36 0.31 0.34 0.32 0.32 0.38 0.44 0.45 0.47 0.48 0.44 0.39 0.37 0.36 0.32 0.29 0.27 0.28 0.27 0.27 0.27
0.05 0.02 0.01 0.01 0.02 0.04 0.04 0.04 0.03 0.03 0.02 0.02 0.02 0.02 0.02 0.01 0.01 0.01 0.03 0.06 0.10 0.13 0.17 0.21 0.21 0.26 0.31 0.31 0.33 0.35 0.31 0.31 0.36 0.40 0.37 0.35 0.34 0.34 0.38 0.41 0.44 0.44 0.45 0.44 0.40 0.39 0.38 0.37 0.39 0.35 0.35 0.36 0.35 0.32
0.15 0.12 0.08 0.08 0.12 0.09 0.05 0.06 0.08 0.06 0.04 0.02 0.02 0.01 0.02 0.01 0.01 0.02 0.03 0.07 0.11 0.14 0.16 0.21 0.26 0.28 0.28 0.28 0.31 0.35 0.38 0.40 0.41 0.45 0.47 0.45 0.44 0.47 0.43 0.39 0.41 0.41 0.41 0.41 0.45 0.45 0.47 0.43 0.41 0.41 0.38 0.37 0.36 0.34

GFSWCAN_prec_precacc_129.txt.gz
Total_Precipitation_Accumulation
0.94 0.94 1.04 1.05 1.09 1.19 1.20 1.26 1.35 1.41 1.49 1.02 0.80 0.60 0.35 0.29 0.20 0.19 0.29 0.37 0.42 0.13 0.02 0.00 0.00 0.01 0.00 0.00 0.02 0.02 0.09 0.13 0.20 0.26 0.24 0.10 0.03 0.01 0.00 0.00 0.00 0.02 0.04 0.06 0.06 0.10 0.01 0.00 0.00 0.00 0.00 0.00 0.00 0.01
0.88 0.79 0.89 0.85 0.71 0.67 0.55 0.66 0.87 0.99 0.85 0.66 0.61 0.43 0.24 0.22 0.21 0.25 0.26 0.29 0.25 0.15 0.01 0.00 0.00 0.00 0.00 0.00 0.02 0.01 0.08 0.12 0.22 0.24 0.19 0.09 0.04 0.01 0.00 0.01 0.00 0.00 0.00 0.00 0.00 0.00 0.00 0.00 0.00 0.00 0.00 0.00 0.00 0.00
0.81 0.82 0.93 1.10 1.00 0.89 0.75 0.74 0.92 1.15 0.71 0.59 0.46 0.26 0.15 0.17 0.17 0.30 0.30 0.23 0.24 0.25 0.05 0.03 0.02 0.00 0.00 0.00 0.00 0.04 0.07 0.15 0.23 0.21 0.32 0.15 0.06 0.04 0.02 0.01 0.00 0.00 0.00 0.00 0.00 0.00 0.00 0.00 0.00 0.00 0.00 0.00 0.00 0.01
0.75 0.74 0.76 1.00 1.26 1.28 1.33 1.23 1.17 1.09 0.67 0.61 0.39 0.22 0.13 0.11 0.16 0.23 0.11 0.10 0.22 0.26 0.19 0.05 0.01 0.02 0.01 0.02 0.02 0.02 0.09 0.17 0.29 0.48 0.33 0.19 0.08 0.03 0.02 0.01 0.00 0.01 0.00 0.00 0.00 0.00 0.00 0.00 0.00 0.00 0.00 0.00 0.00 0.00
1.05 0.91 0.69 0.67 0.81 0.86 1.03 1.15 1.03 0.89 0.61 0.54 0.44 0.18 0.16 0.19 0.17 0.09 0.02 0.07 0.16 0.32 0.34 0.18 0.16 0.01 0.01 0.05 0.04 0.06 0.11 0.30 0.34 0.59 0.57 0.22 0.09 0.06 0.02 0.01 0.00 0.00 0.00 0.00 0.00 0.00 0.00 0.00 0.00 0.00 0.00 0.00 0.00 0.00
1.08 1.18 1.26 0.85 0.67 0.71 0.85 0.73 0.60 0.61 0.58 0.51 0.27 0.20 0.18 0.12 0.16 0.15 0.20 0.36 0.28 0.32 0.60 0.43 0.34 0.16 0.06 0.09 0.09 0.15 0.22 0.43 0.67 0.50 0.53 0.33 0.13 0.20 0.17 0.05 0.00 0.00 0.00 0.00 0.00 0.00 0.00 0.00 0.00 0.00 0.00 0.00 0.00 0.00
0.91 1.06 1.36 1.48 0.93 0.68 0.79 0.82 0.55 0.57 0.51 0.32 0.21 0.16 0.09 0.06 0.11 0.14 0.27 0.62 0.58 0.57 0.69 0.78 0.66 0.48 0.14 0.23 0.27 0.30 0.31 0.55 0.89 0.66 0.41 0.33 0.29 0.53 0.34 0.05 0.00 0.01 0.01 0.01 0.01 0.00 0.00 0.00 0.00 0.00 0.00 0.00 0.00 0.00
0.94 0.93 1.06 1.51 1.25 0.82 0.69 0.90 0.59 0.55 0.37 0.20 0.14 0.10 0.10 0.20 0.12 0.09 0.07 0.23 0.52 0.89 0.92 1.06 0.98 0.96 0.32 0.53 0.46 0.40 0.39 0.48 1.03 0.74 0.34 0.24 0.35 0.35 0.20 0.02 0.05 0.04 0.04 0.02 0.01 0.02 0.01 0.01 0.00 0.00 0.00 0.00 0.00 0.00
1.16 0.98 0.88 1.04 1.33 0.81 0.70 0.82 0.78 0.49 0.26 0.17 0.16 0.12 0.17 0.12 0.07 0.12 0.22 0.42 0.64 1.03 0.85 0.81 0.90 0.80 0.64 0.64 0.48 0.56 0.47 0.57 0.73 0.56 0.24 0.27 0.29 0.29 0.06 0.08 0.11 0.14 0.15 0.17 0.13 0.06 0.06 0.05 0.02 0.03 0.02 0.03 0.04 0.04
1.21 1.26 0.90 0.75 1.03 0.86 0.71 0.75 0.65 0.33 0.27 0.26 0.12 0.09 0.16 0.05 0.06 0.49 0.84 1.07 1.09 0.89 0.66 0.67 0.54 0.45 0.89 0.67 0.60 0.65 0.35 0.56 0.67 0.32 0.26 0.36 0.20 0.03 0.05 0.12 0.09 0.15 0.30 0.34 0.42 0.30 0.17 0.23 0.14 0.10 0.15 0.11 0.12 0.14
1.09 1.20 0.94 0.77 0.78 0.67 0.65 0.69 0.63 0.45 0.36 0.14 0.10 0.12 0.07 0.08 0.64 1.17 1.36 1.11 0.71 0.53 0.47 0.41 0.40 0.37 0.48 0.56 0.38 0.43 0.50 0.47 0.73 0.47 0.34 0.33 0.30 0.12 0.07 0.05 0.04 0.08 0.18 0.14 0.31 0.32 0.20 0.30 0.35 0.25 0.29 0.33 0.34 0.35
1.01 1.08 0.97 0.79 0.73 0.52 0.56 0.68 0.65 0.27 0.11 0.16 0.22 0.20 0.23 0.56 1.19 1.07 1.06 0.67 0.30 0.22 0.22 0.27 0.28 0.33 0.43 0.31 0.50 0.43 0.38 0.36 0.37 0.35 0.49 0.42 0.27 0.18 0.20 0.09 0.06 0.04 0.06 0.07 0.10 0.22 0.18 0.11 0.16 0.19 0.27 0.30 0.29 0.34
1.02 1.03 0.94 0.74 0.74 0.62 0.62 0.62 0.57 0.42 0.33 0.30 0.41 0.59 0.62 0.76 0.89 0.69 0.50 0.28 0.10 0.09 0.08 0.11 0.26 0.23 0.40 0.38 0.44 0.51 0.32 0.17 0.36 0.49 0.42 0.18 0.06 0.03 0.10 0.19 0.20 0.16 0.10 0.25 0.27 0.18 0.11 0.09 0.11 0.14 0.15 0.11 0.10 0.11
1.15 1.10 0.94 0.84 0.83 0.77 0.72 0.65 0.85 0.65 0.49 0.60 0.75 0.73 0.50 0.40 0.39 0.27 0.17 0.15 0.05 0.04 0.03 0.05 0.14 0.21 0.28 0.26 0.27 0.32 0.19 0.33 0.55 0.35 0.22 0.07 0.06 0.04 0.02 0.05 0.10 0.14 0.13 0.24 0.56 0.60 0.44 0.44 0.40 0.30 0.21 0.15 0.12 0.11
1.28 1.30 1.25 1.25 1.07 0.96 0.89 0.92 1.14 0.88 0.76 0.82 0.89 0.52 0.28 0.22 0.09 0.05 0.04 0.06 0.02 0.02 0.04 0.06 0.16 0.22 0.29 0.39 0.32 0.29 0.37 0.51 0.33 0.26 0.17 0.10 0.09 0.08 0.06 0.03 0.03 0.07 0.13 0.16 0.25 0.33 0.40 0.29 0.16 0.20 0.27 0.25 0.17 0.13
1.70 2.29 2.03 1.49 1.25 1.23 1.16 1.38 1.68 1.67 1.51 1.16 0.93 0.41 0.13 0.07 0.05 0.01 0.01 0.03 0.02 0.02 0.06 0.10 0.20 0.23 0.22 0.33 0.34 0.32 0.50 0.41 0.24 0.16 0.10 0.05 0.09 0.07 0.05 0.04 0.01 0.00 0.01 0.06 0.14 0.19 0.24 0.22 0.16 0.13 0.17 0.27 0.23 0.20
2.97 2.83 1.66 1.22 1.34 1.52 1.73 2.18 2.39 2.19 1.84 1.41 0.53 0.16 0.10 0.06 0.06 0.05 0.02 0.01 0.02 0.08 0.21 0.44 0.55 0.26 0.23 0.31 0.21 0.23 0.34 0.20 0.10 0.06 0.02 0.01 0.01 0.01 0.01 0.00 0.00 0.00 0.01 0.03 0.09 0.13 0.20 0.25 0.24 0.18 0.16 0.16 0.16 0.22
2.53 1.53 1.19 1.35 1.81 2.58 3.34 3.14 2.42 2.02 1.41 0.44 0.06 0.01 0.01 0.03 0.05 0.07 0.04 0.03 0.03 0.14 0.37 0.66 0.44 0.31 0.17 0.11 0.05 0.08 0.11 0.07 0.06 0.03 0.02 0.01 0.00 0.00 0.01 0.02 0.00 0.03 0.12 0.18 0.17 0.16 0.17 0.17 0.16 0.12 0.11 0.10 0.10 0.09
1.45 1.10 1.40 1.77 2.23 2.93 3.28 3.37 2.46 1.64 0.44 0.06 0.00 0.00 0.00 0.00 0.03 0.06 0.05 0.04 0.08 0.22 0.46 0.64 0.64 0.27 0.03 0.01 0.02 0.01 0.00 0.01 0.01 0.01 0.01 0.00 0.00 0.00 0.01 0.04 0.06 0.07 0.20 0.14 0.05 0.06 0.05 0.06 0.09 0.10 0.10 0.10 0.10 0.09
2.09 1.90 1.89 2.03 2.25 3.28 3.71 3.03 2.06 0.95 0.32 0.03 0.00 0.00 0.00 0.00 0.01 0.05 0.10 0.07 0.11 0.43 0.71 0.60 0.19 0.04 0.04 0.04 0.04 0.02 0.00 0.00 0.00 0.00 0.00 0.00 0.00 0.00 0.00 0.02 0.05 0.07 0.08 0.08 0.09 0.10 0.09 0.07 0.06 0.06 0.07 0.10 0.14 0.15
4.08 3.14 3.05 3.51 4.01 4.09 3.50 2.13 1.21 0.47 0.13 0.04 0.00 0.02 0.03 0.02 0.01 0.03 0.11 0.19 0.52 0.83 0.52 0.17 0.05 0.03 0.05 0.06 0.06 0.03 0.00 0.00 0.00 0.00 0.00 0.00 0.00 0.00 0.00 0.00 0.00 0.01 0.02 0.03 0.05 0.06 0.08 0.07 0.08 0.09 0.10 0.12 0.14 0.15
3.99 3.29 4.31 4.79 4.73 4.39 3.35 1.78 0.77 0.34 0.17 0.12 0.05 0.07 0.09 0.08 0.06 0.07 0.17 0.55 0.74 0.31 0.13 0.12 0.13 0.11 0.08 0.07 0.07 0.07 0.05 0.02 0.00 0.00 0.00 0.00 0.00 0.00 0.00 0.00 0.00 0.01 0.01 0.01 0.02 0.01 0.02 0.03 0.04 0.10 0.12 0.13 0.15 0.12
3.63 3.43 3.84 3.95 3.93 3.41 2.14 0.92 0.60 0.43 0.25 0.20 0.16 0.19 0.16 0.09 0.08 0.15 0.44 0.36 0.19 0.10 0.08 0.09 0.12 0.16 0.18 0.14 0.14 0.12 0.11 0.08 0.04 0.02 0.01 0.00 0.00 0.00 0.00 0.00 0.00 0.02 0.04 0.03 0.02 0.05 0.05 0.02 0.03 0.07 0.06 0.08 0.16 0.21
3.77 4.26 4.36 4.13 2.87 2.06 1.39 1.08 0.69 0.38 0.37 0.26 0.23 0.17 0.09 0.05 0.17 0.33 0.28 0.05 0.03 0.04 0.09 0.12 0.11 0.11 0.10 0.12 0.14 0.18 0.21 0.19 0.13 0.09 0.07 0.05 0.05 0.03 0.01 0.01 0.02 0.04 0.06 0.07 0.02 0.01 0.01 0.01 0.02 0.06 0.07 0.09 0.14 0.19
5.25 5.55 3.95 3.28 1.84 0.90 0.53 0.36 0.33 0.29 0.27 0.17 0.12 0.09 0.06 0.09 0.18 0.19 0.05 0.00 0.01 0.03 0.07 0.09 0.11 0.12 0.11 0.11 0.11 0.11 0.12 0.20 0.28 0.31 0.25 0.20 0.27 0.28 0.17 0.08 0.04 0.02 0.02 0.05 0.03 0.01 0.00 0.00 0.01 0.04 0.07 0.14 0.21 0.27
4.73 2.66 1.89 0.90 0.49 0.16 0.10 0.08 0.07 0.05 0.06 0.11 0.13 0.12 0.14 0.27 0.41 0.22 0.01 0.00 0.01 0.04 0.05 0.07 0.08 0.10 0.09 0.10 0.15 0.22 0.25 0.28 0.34 0.36 0.29 0.29 0.27 0.22 0.18 0.16 0.12 0.07 0.05 0.07 0.09 0.07 0.04 0.02 0.02 0.05 0.11 0.16 0.28 0.33
3.10 1.77 0.74 0.19 0.10 0.09 0.07 0.04 0.02 0.05 0.11 0.12 0.06 0.06 0.19 0.51 0.27 0.05 0.01 0.00 0.01 0.03 0.05 0.09 0.14 0.15 0.16 0.17 0.17 0.18 0.17 0.18 0.20 0.17 0.22 0.33 0.34 0.27 0.20 0.17 0.16 0.13 0.13 0.14 0.12 0.11 0.09 0.08 0.08 0.11 0.20 0.24 0.26 0.31
1.41 0.41 0.15 0.11 0.04 0.04 0.06 0.10 0.15 0.16 0.11 0.06 0.08 0.10 0.19 0.14 0.03 0.00 0.00 0.01 0.03 0.03 0.05 0.09 0.13 0.15 0.14 0.12 0.14 0.16 0.18 0.21 0.25 0.26 0.30 0.36 0.40 0.40 0.35 0.30 0.31 0.32 0.30 0.22 0.19 0.19 0.17 0.16 0.15 0.19 0.25 0.21 0.16 0.17
0.31 0.14 0.11 0.15 0.10 0.09 0.08 0.07 0.04 0.02 0.00 0.01 0.04 0.02 0.01 0.00 0.00 0.00 0.01 0.02 0.02 0.04 0.06 0.09 0.12 0.14 0.17 0.18 0.20 0.23 0.24 0.24 0.20 0.19 0.15 0.20 0.29 0.41 0.46 0.42 0.44 0.44 0.39 0.36 0.32 0.28 0.28 0.30 0.30 0.30 0.30 0.29 0.26 0.25
0.06 0.01 0.02 0.05 0.10 0.13 0.07 0.03 0.02 0.01 0.01 0.01 0.01 0.01 0.01 0.01 0.01 0.02 0.02 0.04 0.05 0.08 0.11 0.14 0.17 0.19 0.21 0.22 0.23 0.24 0.25 0.28 0.26 0.17 0.16 0.16 0.21 0.32 0.40 0.41 0.45 0.48 0.47 0.42 0.48 0.53 0.52 0.51 0.51 0.48 0.43 0.39 0.35 0.31
0.01 0.01 0.01 0.02 0.02 0.02 0.03 0.03 0.02 0.02 0.03 0.02 0.03 0.03 0.02 0.02 0.02 0.02 0.02 0.04 0.07 0.11 0.16 0.19 0.22 0.27 0.28 0.30 0.30 0.27 0.26 0.32 0.37 0.36 0.31 0.34 0.32 0.32 0.38 0.44 0.45 0.47 0.48 0.44 0.39 0.37 0.36 0.32 0.29 0.27 0.28 0.27 0.27 0.27
0.05 0.02 0.01 0.01 0.02 0.04 0.04 0.04 0.03 0.03 0.02 0.02 0.02 0.02 0.02 0.01 0.01 0.01 0.03 0.06 0.10 0.13 0.17 0.21 0.21 0.26 0.31 0.31 0.33 0.35 0.31 0.31 0.36 0.40 0.37 0.35 0.34 0.34 0.38 0.41 0.44 0.44 0.45 0.44 0.40 0.39 0.38 0.37 0.39 0.35 0.35 0.36 0.35 0.32
0.15 0.12 0.08 0.08 0.12 0.09 0.05 0.06 0.08 0.06 0.04 0.02 0.02 0.01 0.02 0.01 0.01 0.02 0.03 0.07 0.11 0.14 0.16 0.21 0.26 0.28 0.28 0.28 0.31 0.35 0.38 0.40 0.41 0.45 0.47 0.45 0.44 0.47 0.43 0.39 0.41 0.41 0.41 0.41 0.45 0.45 0.47 0.43 0.41 0.41 0.39 0.37 0.36 0.35

GFSWCAN_prec_precacc_132.txt.gz
Total_Precipitation_Accumulation
0.94 0.94 1.04 1.06 1.11 1.20 1.20 1.26 1.36 1.41 1.49 1.02 0.80 0.60 0.35 0.29 0.20 0.19 0.29 0.37 0.42 0.13 0.02 0.00 0.00 0.01 0.00 0.00 0.02 0.02 0.09 0.13 0.20 0.26 0.24 0.10 0.03 0.01 0.00 0.00 0.00 0.02 0.04 0.06 0.06 0.10 0.01 0.00 0.00 0.00 0.00 0.00 0.00 0.01
0.88 0.79 0.89 0.86 0.72 0.68 0.56 0.67 0.87 0.99 0.85 0.66 0.61 0.43 0.24 0.22 0.21 0.25 0.26 0.29 0.25 0.15 0.01 0.00 0.00 0.00 0.00 0.00 0.02 0.01 0.08 0.12 0.22 0.24 0.19 0.09 0.04 0.01 0.00 0.01 0.00 0.00 0.00 0.00 0.00 0.00 0.00 0.00 0.00 0.00 0.00 0.00 0.00 0.00
0.81 0.82 0.93 1.10 1.01 0.90 0.76 0.75 0.92 1.15 0.71 0.59 0.46 0.26 0.15 0.17 0.17 0.30 0.30 0.23 0.24 0.25 0.05 0.03 0.02 0.00 0.00 0.00 0.00 0.04 0.07 0.15 0.23 0.21 0.32 0.15 0.06 0.04 0.02 0.01 0.00 0.00 0.00 0.00 0.00 0.00 0.00 0.00 0.00 0.00 0.00 0.00 0.00 0.01
0.75 0.74 0.76 1.01 1.27 1.29 1.34 1.23 1.17 1.10 0.67 0.61 0.39 0.22 0.13 0.11 0.16 0.23 0.11 0.10 0.22 0.26 0.19 0.05 0.01 0.02 0.01 0.02 0.02 0.02 0.09 0.17 0.29 0.48 0.33 0.19 0.08 0.03 0.02 0.01 0.00 0.01 0.00 0.00 0.00 0.00 0.00 0.00 0.00 0.00 0.00 0.00 0.00 0.00
1.06 0.91 0.70 0.68 0.82 0.87 1.03 1.16 1.05 0.90 0.62 0.54 0.44 0.18 0.16 0.19 0.17 0.09 0.02 0.07 0.16 0.32 0.34 0.18 0.16 0.01 0.01 0.05 0.04 0.06 0.11 0.30 0.34 0.59 0.57 0.22 0.09 0.06 0.02 0.01 0.00 0.00 0.00 0.00 0.00 0.00 0.00 0.00 0.00 0.00 0.00 0.00 0.00 0.00
1.09 1.19 1.26 0.85 0.68 0.73 0.86 0.75 0.62 0.62 0.58 0.51 0.27 0.20 0.18 0.12 0.16 0.15 0.20 0.36 0.28 0.32 0.60 0.43 0.34 0.16 0.06 0.09 0.09 0.15 0.22 0.43 0.67 0.50 0.53 0.33 0.13 0.20 0.17 0.05 0.00 0.00 0.00 0.00 0.00 0.00 0.00 0.00 0.00 0.00 0.00 0.00 0.00 0.00
0.94 1.07 1.37 1.49 0.94 0.71 0.83 0.86 0.57 0.58 0.51 0.32 0.21 0.16 0.09 0.06 0.11 0.14 0.27 0.62 0.58 0.57 0.69 0.78 0.66 0.48 0.14 0.23 0.27 0.30 0.31 0.55 0.89 0.66 0.41 0.33 0.29 0.53 0.34 0.05 0.00 0.01 0.01 0.01 0.01 0.00 0.00 0.00 0.00 0.00 0.00 0.00 0.00 0.00
1.02 1.01 1.12 1.54 1.30 0.86 0.72 0.94 0.61 0.56 0.38 0.20 0.14 0.10 0.11 0.21 0.12 0.09 0.07 0.23 0.52 0.89 0.92 1.06 0.98 0.96 0.32 0.53 0.46 0.40 0.39 0.48 1.03 0.74 0.34 0.24 0.35 0.35 0.21 0.02 0.05 0.04 0.04 0.02 0.01 0.02 0.01 0.01 0.00 0.00 0.00 0.00 0.00 0.00
1.24 1.08 1.00 1.18 1.46 0.94 0.78 0.87 0.81 0.50 0.27 0.18 0.16 0.13 0.17 0.12 0.07 0.12 0.22 0.42 0.64 1.03 0.85 0.81 0.90 0.80 0.64 0.64 0.48 0.56 0.47 0.57 0.73 0.57 0.24 0.27 0.29 0.29 0.06 0.08 0.11 0.14 0.15 0.17 0.13 0.06 0.06 0.05 0.02 0.03 0.02 0.03 0.04 0.04
1.34 1.39 1.05 0.95 1.33 1.11 0.96 0.94 0.71 0.37 0.32 0.29 0.13 0.10 0.16 0.05 0.06 0.49 0.84 1.07 1.10 0.89 0.66 0.68 0.54 0.45 0.89 0.67 0.60 0.65 0.35 0.56 0.67 0.33 0.27 0.37 0.20 0.03 0.05 0.12 0.09 0.15 0.30 0.34 0.42 0.30 0.17 0.23 0.14 0.10 0.15 0.11 0.12 0.14
1.18 1.31 1.07 0.99 1.00 0.90 0.86 0.88 0.76 0.56 0.41 0.16 0.11 0.12 0.07 0.09 0.64 1.17 1.36 1.11 0.71 0.53 0.47 0.41 0.40 0.37 0.48 0.56 0.38 0.43 0.50 0.47 0.73 0.48 0.35 0.33 0.30 0.12 0.07 0.05 0.04 0.08 0.18 0.14 0.31 0.32 0.20 0.30 0.35 0.25 0.29 0.33 0.34 0.35
1.14 1.21 1.13 0.94 0.90 0.67 0.68 0.77 0.73 0.32 0.14 0.17 0.22 0.20 0.23 0.56 1.19 1.07 1.07 0.67 0.30 0.22 0.22 0.27 0.28 0.33 0.44 0.31 0.51 0.43 0.38 0.37 0.38 0.35 0.50 0.42 0.27 0.18 0.20 0.09 0.06 0.04 0.06 0.07 0.10 0.22 0.18 0.11 0.16 0.19 0.27 0.30 0.29 0.34
1.15 1.14 1.04 0.85 0.83 0.69 0.69 0.70 0.61 0.43 0.34 0.30 0.41 0.59 0.62 0.76 0.89 0.69 0.50 0.28 0.10 0.09 0.08 0.12 0.26 0.23 0.40 0.39 0.45 0.52 0.33 0.18 0.37 0.50 0.42 0.18 0.06 0.03 0.10 0.19 0.20 0.16 0.10 0.25 0.27 0.18 0.11 0.09 0.11 0.14 0.15 0.11 0.10 0.11
1.21 1.15 0.98 0.88 0.87 0.80 0.76 0.70 0.87 0.66 0.49 0.61 0.75 0.73 0.50 0.40 0.39 0.27 0.17 0.15 0.05 0.04 0.03 0.05 0.14 0.22 0.29 0.27 0.29 0.33 0.20 0.34 0.56 0.36 0.22 0.07 0.06 0.04 0.02 0.05 0.10 0.14 0.13 0.24 0.56 0.60 0.44 0.44 0.40 0.30 0.21 0.15 0.12 0.11
1.31 1.33 1.27 1.27 1.09 0.98 0.92 0.95 1.14 0.88 0.76 0.82 0.89 0.52 0.28 0.22 0.09 0.05 0.04 0.06 0.02 0.02 0.04 0.06 0.17 0.23 0.30 0.40 0.33 0.31 0.39 0.52 0.33 0.26 0.17 0.10 0.09 0.08 0.06 0.03 0.03 0.07 0.13 0.16 0.25 0.33 0.40 0.29 0.16 0.20 0.27 0.25 0.17 0.13
1.74 2.34 2.05 1.51 1.28 1.26 1.18 1.39 1.68 1.67 1.51 1.16 0.93 0.41 0.13 0.07 0.05 0.01 0.01 0.03 0.02 0.02 0.06 0.10 0.20 0.24 0.22 0.33 0.36 0.33 0.51 0.41 0.24 0.16 0.10 0.05 0.09 0.07 0.05 0.04 0.01 0.00 0.01 0.06 0.14 0.19 0.24 0.22 0.16 0.13 0.17 0.27 0.23 0.20
2.99 2.84 1.67 1.24 1.37 1.56 1.74 2.18 2.39 2.19 1.84 1.41 0.53 0.16 0.10 0.06 0.06 0.05 0.02 0.01 0.02 0.08 0.21 0.44 0.56 0.26 0.23 0.31 0.21 0.23 0.34 0.20 0.10 0.06 0.02 0.01 0.01 0.01 0.01 0.00 0.00 0.00 0.01 0.03 0.09 0.13 0.20 0.25 0.24 0.18 0.16 0.16 0.16 0.22
2.53 1.53 1.19 1.37 1.84 2.62 3.39 3.15 2.44 2.04 1.42 0.44 0.06 0.01 0.01 0.03 0.05 0.07 0.04 0.03 0.03 0.14 0.37 0.66 0.44 0.31 0.17 0.11 0.05 0.08 0.11 0.07 0.06 0.03 0.02 0.01 0.00 0.00 0.01 0.02 0.00 0.03 0.12 0.18 0.17 0.16 0.17 0.17 0.16 0.12 0.11 0.10 0.10 0.09
1.45 1.10 1.42 1.79 2.24 2.93 3.31 3.45 2.51 1.66 0.45 0.06 0.00 0.00 0.00 0.00 0.03 0.06 0.05 0.04 0.08 0.22 0.46 0.64 0.64 0.27 0.03 0.01 0.02 0.01 0.00 0.01 0.01 0.01 0.01 0.00 0.00 0.00 0.01 0.04 0.06 0.07 0.20 0.14 0.05 0.06 0.05 0.06 0.09 0.10 0.10 0.10 0.11 0.09
2.10 1.91 1.91 2.05 2.26 3.28 3.71 3.05 2.08 0.97 0.33 0.04 0.00 0.00 0.00 0.00 0.01 0.05 0.10 0.07 0.11 0.43 0.71 0.60 0.19 0.04 0.04 0.04 0.04 0.02 0.00 0.00 0.00 0.00 0.00 0.00 0.00 0.00 0.00 0.02 0.05 0.07 0.08 0.08 0.09 0.10 0.09 0.07 0.06 0.06 0.07 0.10 0.14 0.15
4.12 3.17 3.10 3.54 4.03 4.11 3.51 2.13 1.21 0.47 0.13 0.04 0.00 0.02 0.03 0.02 0.01 0.03 0.11 0.19 0.52 0.84 0.52 0.17 0.05 0.03 0.05 0.06 0.06 0.03 0.00 0.00 0.00 0.00 0.00 0.00 0.00 0.00 0.00 0.00 0.00 0.01 0.02 0.03 0.05 0.06 0.08 0.07 0.08 0.09 0.10 0.12 0.14 0.15
3.99 3.31 4.32 4.83 4.78 4.42 3.38 1.78 0.77 0.34 0.17 0.12 0.05 0.07 0.09 0.08 0.06 0.07 0.17 0.55 0.74 0.31 0.13 0.12 0.13 0.11 0.08 0.07 0.07 0.07 0.05 0.02 0.00 0.00 0.00 0.00 0.00 0.00 0.00 0.00 0.00 0.01 0.01 0.01 0.02 0.01 0.02 0.03 0.04 0.10 0.12 0.13 0.15 0.12
3.64 3.45 3.85 3.98 4.05 3.55 2.22 0.96 0.63 0.44 0.25 0.20 0.16 0.19 0.16 0.09 0.08 0.15 0.44 0.36 0.19 0.10 0.08 0.09 0.12 0.16 0.18 0.14 0.14 0.12 0.11 0.08 0.04 0.02 0.01 0.00 0.00 0.00 0.00 0.00 0.00 0.02 0.04 0.03 0.02 0.05 0.05 0.02 0.03 0.07 0.06 0.08 0.16 0.21
3.78 4.28 4.37 4.15 2.88 2.09 1.42 1.09 0.70 0.38 0.38 0.27 0.23 0.17 0.09 0.05 0.17 0.33 0.28 0.05 0.03 0.04 0.09 0.12 0.11 0.11 0.10 0.12 0.14 0.18 0.21 0.19 0.13 0.09 0.07 0.05 0.05 0.03 0.01 0.01 0.02 0.04 0.06 0.07 0.02 0.01 0.01 0.01 0.02 0.06 0.07 0.09 0.14 0.19
5.27 5.56 3.96 3.32 1.86 0.90 0.54 0.36 0.33 0.30 0.27 0.17 0.13 0.09 0.06 0.09 0.18 0.19 0.05 0.00 0.01 0.03 0.07 0.09 0.11 0.12 0.11 0.11 0.11 0.11 0.12 0.20 0.28 0.31 0.25 0.20 0.27 0.28 0.17 0.08 0.04 0.02 0.02 0.05 0.03 0.01 0.00 0.00 0.01 0.04 0.07 0.14 0.21 0.27
4.74 2.66 1.91 0.91 0.50 0.16 0.10 0.08 0.07 0.05 0.06 0.11 0.13 0.12 0.14 0.27 0.41 0.22 0.01 0.00 0.01 0.04 0.05 0.07 0.08 0.10 0.09 0.10 0.15 0.22 0.25 0.28 0.34 0.36 0.29 0.29 0.27 0.22 0.18 0.16 0.12 0.07 0.05 0.07 0.09 0.07 0.04 0.02 0.02 0.05 0.11 0.16 0.28 0.33
3.10 1.77 0.74 0.19 0.10 0.09 0.07 0.04 0.02 0.05 0.11 0.12 0.06 0.06 0.19 0.51 0.27 0.05 0.01 0.00 0.01 0.03 0.05 0.09 0.14 0.15 0.16 0.17 0.17 0.18 0.17 0.18 0.20 0.17 0.22 0.33 0.34 0.27 0.20 0.17 0.16 0.13 0.13 0.14 0.12 0.11 0.09 0.08 0.08 0.11 0.20 0.24 0.26 0.31
1.41 0.41 0.15 0.11 0.04 0.04 0.06 0.10 0.15 0.16 0.11 0.06 0.08 0.10 0.19 0.14 0.03 0.00 0.00 0.01 0.03 0.03 0.05 0.09 0.13 0.15 0.14 0.12 0.14 0.16 0.18 0.21 0.25 0.26 0.30 0.36 0.40 0.40 0.35 0.30 0.31 0.32 0.30 0.22 0.19 0.19 0.17 0.16 0.15 0.19 0.25 0.21 0.16 0.17
0.31 0.14 0.11 0.15 0.10 0.09 0.09 0.07 0.04 0.02 0.00 0.01 0.04 0.02 0.01 0.00 0.00 0.00 0.01 0.02 0.02 0.04 0.06 0.09 0.12 0.14 0.17 0.18 0.20 0.23 0.24 0.24 0.20 0.19 0.15 0.20 0.29 0.41 0.46 0.42 0.44 0.44 0.39 0.36 0.32 0.28 0.28 0.30 0.30 0.30 0.30 0.29 0.26 0.25
0.06 0.01 0.02 0.05 0.10 0.14 0.07 0.03 0.02 0.01 0.01 0.01 0.01 0.01 0.01 0.01 0.01 0.02 0.02 0.04 0.05 0.08 0.11 0.14 0.17 0.19 0.21 0.22 0.23 0.24 0.25 0.28 0.26 0.17 0.16 0.16 0.21 0.32 0.40 0.41 0.45 0.48 0.47 0.42 0.48 0.53 0.52 0.51 0.51 0.48 0.43 0.39 0.35 0.31
0.01 0.01 0.01 0.02 0.02 0.02 0.03 0.03 0.02 0.02 0.03 0.02 0.03 0.03 0.02 0.02 0.02 0.02 0.02 0.04 0.07 0.11 0.16 0.19 0.22 0.27 0.28 0.30 0.30 0.27 0.26 0.32 0.37 0.36 0.31 0.34 0.32 0.32 0.38 0.44 0.45 0.47 0.48 0.44 0.39 0.37 0.36 0.32 0.29 0.27 0.28 0.27 0.27 0.27
0.06 0.02 0.01 0.01 0.02 0.04 0.04 0.04 0.03 0.03 0.02 0.02 0.02 0.02 0.02 0.01 0.01 0.01 0.03 0.06 0.10 0.13 0.17 0.21 0.21 0.26 0.31 0.31 0.33 0.35 0.31 0.31 0.36 0.40 0.37 0.35 0.34 0.34 0.38 0.41 0.44 0.44 0.45 0.44 0.40 0.39 0.38 0.37 0.39 0.36 0.36 0.36 0.35 0.32
0.15 0.12 0.09 0.08 0.12 0.09 0.05 0.06 0.08 0.06 0.04 0.02 0.02 0.01 0.02 0.01 0.01 0.02 0.03 0.07 0.11 0.14 0.16 0.21 0.26 0.28 0.28 0.28 0.31 0.35 0.38 0.40 0.41 0.45 0.47 0.45 0.44 0.47 0.43 0.39 0.41 0.41 0.41 0.41 0.45 0.45 0.47 0.43 0.41 0.41 0.39 0.37 0.36 0.35